<?xml version="1.0" encoding="UTF-8" standalone="no" ?>
<gpx xmlns="http://www.topografix.com/GPX/1/1" xmlns:xsi="http://www.w3.org/2001/XMLSchema-instance" xsi:schemaLocation="http://www.topografix.com/GPX/1/1 http://www.topografix.com/GPX/1/1/gpx.xsd" version="1.1" creator="VisuGPX - https://www.visugpx.com">
  <metadata>
    <name>Course du Viaduc de Millau 2012</name>
    <desc><![CDATA[Course du Viaduc de Millau 2012]]></desc>
  </metadata>
  <trk>
    <name><![CDATA[Course du Viaduc de Millau 2012_1]]></name>
    <trkseg>
      <trkpt lat="44.0934" lon="3.07268">
        <ele>360.2</ele>
        <time>2012-05-13T07:18:34Z</time>
      </trkpt>
      <trkpt lat="44.09341" lon="3.07271">
        <ele>360.3</ele>
        <time>2012-05-13T07:18:36Z</time>
      </trkpt>
      <trkpt lat="44.09328" lon="3.07272">
        <ele>359</ele>
        <time>2012-05-13T07:18:38Z</time>
      </trkpt>
      <trkpt lat="44.09324" lon="3.07268">
        <ele>361</ele>
        <time>2012-05-13T07:18:40Z</time>
      </trkpt>
      <trkpt lat="44.09318" lon="3.07267">
        <ele>362</ele>
        <time>2012-05-13T07:18:42Z</time>
      </trkpt>
      <trkpt lat="44.09313" lon="3.07264">
        <ele>360</ele>
        <time>2012-05-13T07:18:44Z</time>
      </trkpt>
      <trkpt lat="44.09309" lon="3.07261">
        <ele>361</ele>
        <time>2012-05-13T07:18:46Z</time>
      </trkpt>
      <trkpt lat="44.09305" lon="3.07257">
        <ele>361</ele>
        <time>2012-05-13T07:18:48Z</time>
      </trkpt>
      <trkpt lat="44.09302" lon="3.07249">
        <ele>360</ele>
        <time>2012-05-13T07:18:50Z</time>
      </trkpt>
      <trkpt lat="44.093" lon="3.07242">
        <ele>360</ele>
        <time>2012-05-13T07:18:52Z</time>
      </trkpt>
      <trkpt lat="44.09298" lon="3.07237">
        <ele>361</ele>
        <time>2012-05-13T07:18:54Z</time>
      </trkpt>
      <trkpt lat="44.09297" lon="3.07232">
        <ele>360</ele>
        <time>2012-05-13T07:18:56Z</time>
      </trkpt>
      <trkpt lat="44.09296" lon="3.07226">
        <ele>359</ele>
        <time>2012-05-13T07:18:58Z</time>
      </trkpt>
      <trkpt lat="44.09295" lon="3.07221">
        <ele>359</ele>
        <time>2012-05-13T07:19:00Z</time>
      </trkpt>
      <trkpt lat="44.09293" lon="3.07215">
        <ele>359</ele>
        <time>2012-05-13T07:19:02Z</time>
      </trkpt>
      <trkpt lat="44.09291" lon="3.07209">
        <ele>359</ele>
        <time>2012-05-13T07:19:04Z</time>
      </trkpt>
      <trkpt lat="44.0929" lon="3.07203">
        <ele>359</ele>
        <time>2012-05-13T07:19:06Z</time>
      </trkpt>
      <trkpt lat="44.09288" lon="3.07197">
        <ele>359</ele>
        <time>2012-05-13T07:19:08Z</time>
      </trkpt>
      <trkpt lat="44.09287" lon="3.0719">
        <ele>358</ele>
        <time>2012-05-13T07:19:10Z</time>
      </trkpt>
      <trkpt lat="44.09285" lon="3.07184">
        <ele>358</ele>
        <time>2012-05-13T07:19:12Z</time>
      </trkpt>
      <trkpt lat="44.09283" lon="3.07178">
        <ele>358</ele>
        <time>2012-05-13T07:19:14Z</time>
      </trkpt>
      <trkpt lat="44.09281" lon="3.07172">
        <ele>358</ele>
        <time>2012-05-13T07:19:16Z</time>
      </trkpt>
      <trkpt lat="44.0928" lon="3.07167">
        <ele>358</ele>
        <time>2012-05-13T07:19:18Z</time>
      </trkpt>
      <trkpt lat="44.09277" lon="3.07162">
        <ele>358</ele>
        <time>2012-05-13T07:19:20Z</time>
      </trkpt>
      <trkpt lat="44.09274" lon="3.07157">
        <ele>357</ele>
        <time>2012-05-13T07:19:22Z</time>
      </trkpt>
      <trkpt lat="44.09272" lon="3.07152">
        <ele>357</ele>
        <time>2012-05-13T07:19:24Z</time>
      </trkpt>
      <trkpt lat="44.09269" lon="3.07148">
        <ele>356</ele>
        <time>2012-05-13T07:19:26Z</time>
      </trkpt>
      <trkpt lat="44.09265" lon="3.07142">
        <ele>356</ele>
        <time>2012-05-13T07:19:28Z</time>
      </trkpt>
      <trkpt lat="44.09261" lon="3.07136">
        <ele>357</ele>
        <time>2012-05-13T07:19:30Z</time>
      </trkpt>
      <trkpt lat="44.09258" lon="3.07132">
        <ele>357</ele>
        <time>2012-05-13T07:19:33Z</time>
      </trkpt>
      <trkpt lat="44.09255" lon="3.07127">
        <ele>357</ele>
        <time>2012-05-13T07:19:35Z</time>
      </trkpt>
      <trkpt lat="44.09252" lon="3.07122">
        <ele>357</ele>
        <time>2012-05-13T07:19:37Z</time>
      </trkpt>
      <trkpt lat="44.09249" lon="3.07118">
        <ele>358</ele>
        <time>2012-05-13T07:19:39Z</time>
      </trkpt>
      <trkpt lat="44.09246" lon="3.07114">
        <ele>358</ele>
        <time>2012-05-13T07:19:41Z</time>
      </trkpt>
      <trkpt lat="44.09243" lon="3.0711">
        <ele>359</ele>
        <time>2012-05-13T07:19:43Z</time>
      </trkpt>
      <trkpt lat="44.0924" lon="3.07105">
        <ele>360</ele>
        <time>2012-05-13T07:19:45Z</time>
      </trkpt>
      <trkpt lat="44.09238" lon="3.07101">
        <ele>360</ele>
        <time>2012-05-13T07:19:47Z</time>
      </trkpt>
      <trkpt lat="44.09235" lon="3.07096">
        <ele>360</ele>
        <time>2012-05-13T07:19:49Z</time>
      </trkpt>
      <trkpt lat="44.09232" lon="3.07091">
        <ele>360</ele>
        <time>2012-05-13T07:19:51Z</time>
      </trkpt>
      <trkpt lat="44.09229" lon="3.07086">
        <ele>360</ele>
        <time>2012-05-13T07:19:53Z</time>
      </trkpt>
      <trkpt lat="44.09225" lon="3.07081">
        <ele>359</ele>
        <time>2012-05-13T07:19:55Z</time>
      </trkpt>
      <trkpt lat="44.09222" lon="3.07076">
        <ele>359</ele>
        <time>2012-05-13T07:19:57Z</time>
      </trkpt>
      <trkpt lat="44.09218" lon="3.07071">
        <ele>359</ele>
        <time>2012-05-13T07:19:59Z</time>
      </trkpt>
      <trkpt lat="44.09215" lon="3.07067">
        <ele>358</ele>
        <time>2012-05-13T07:20:01Z</time>
      </trkpt>
      <trkpt lat="44.09212" lon="3.07062">
        <ele>358</ele>
        <time>2012-05-13T07:20:03Z</time>
      </trkpt>
      <trkpt lat="44.09209" lon="3.07057">
        <ele>358</ele>
        <time>2012-05-13T07:20:05Z</time>
      </trkpt>
      <trkpt lat="44.09206" lon="3.0705">
        <ele>358</ele>
        <time>2012-05-13T07:20:07Z</time>
      </trkpt>
      <trkpt lat="44.09203" lon="3.07044">
        <ele>358</ele>
        <time>2012-05-13T07:20:09Z</time>
      </trkpt>
      <trkpt lat="44.09199" lon="3.07036">
        <ele>358</ele>
        <time>2012-05-13T07:20:11Z</time>
      </trkpt>
      <trkpt lat="44.09196" lon="3.07031">
        <ele>358</ele>
        <time>2012-05-13T07:20:13Z</time>
      </trkpt>
      <trkpt lat="44.09193" lon="3.07026">
        <ele>358</ele>
        <time>2012-05-13T07:20:15Z</time>
      </trkpt>
      <trkpt lat="44.09191" lon="3.07021">
        <ele>358</ele>
        <time>2012-05-13T07:20:17Z</time>
      </trkpt>
      <trkpt lat="44.09189" lon="3.07015">
        <ele>359</ele>
        <time>2012-05-13T07:20:19Z</time>
      </trkpt>
      <trkpt lat="44.09186" lon="3.0701">
        <ele>359</ele>
        <time>2012-05-13T07:20:21Z</time>
      </trkpt>
      <trkpt lat="44.09184" lon="3.07004">
        <ele>359</ele>
        <time>2012-05-13T07:20:24Z</time>
      </trkpt>
      <trkpt lat="44.09181" lon="3.06999">
        <ele>360</ele>
        <time>2012-05-13T07:20:26Z</time>
      </trkpt>
      <trkpt lat="44.09179" lon="3.06992">
        <ele>360</ele>
        <time>2012-05-13T07:20:28Z</time>
      </trkpt>
      <trkpt lat="44.09176" lon="3.06987">
        <ele>361</ele>
        <time>2012-05-13T07:20:30Z</time>
      </trkpt>
      <trkpt lat="44.09174" lon="3.06981">
        <ele>361</ele>
        <time>2012-05-13T07:20:32Z</time>
      </trkpt>
      <trkpt lat="44.09172" lon="3.06975">
        <ele>361</ele>
        <time>2012-05-13T07:20:34Z</time>
      </trkpt>
      <trkpt lat="44.0917" lon="3.06969">
        <ele>361</ele>
        <time>2012-05-13T07:20:36Z</time>
      </trkpt>
      <trkpt lat="44.09168" lon="3.06962">
        <ele>361</ele>
        <time>2012-05-13T07:20:38Z</time>
      </trkpt>
      <trkpt lat="44.09166" lon="3.06956">
        <ele>361</ele>
        <time>2012-05-13T07:20:40Z</time>
      </trkpt>
      <trkpt lat="44.09164" lon="3.0695">
        <ele>362</ele>
        <time>2012-05-13T07:20:42Z</time>
      </trkpt>
      <trkpt lat="44.09163" lon="3.06943">
        <ele>363</ele>
        <time>2012-05-13T07:20:44Z</time>
      </trkpt>
      <trkpt lat="44.09161" lon="3.06937">
        <ele>363</ele>
        <time>2012-05-13T07:20:46Z</time>
      </trkpt>
      <trkpt lat="44.0916" lon="3.0693">
        <ele>363</ele>
        <time>2012-05-13T07:20:48Z</time>
      </trkpt>
      <trkpt lat="44.09157" lon="3.0692">
        <ele>363</ele>
        <time>2012-05-13T07:20:50Z</time>
      </trkpt>
      <trkpt lat="44.09156" lon="3.06914">
        <ele>362</ele>
        <time>2012-05-13T07:20:52Z</time>
      </trkpt>
      <trkpt lat="44.09155" lon="3.06907">
        <ele>361</ele>
        <time>2012-05-13T07:20:54Z</time>
      </trkpt>
      <trkpt lat="44.09154" lon="3.069">
        <ele>361</ele>
        <time>2012-05-13T07:20:56Z</time>
      </trkpt>
      <trkpt lat="44.09153" lon="3.06893">
        <ele>361</ele>
        <time>2012-05-13T07:20:58Z</time>
      </trkpt>
      <trkpt lat="44.09153" lon="3.06886">
        <ele>361</ele>
        <time>2012-05-13T07:21:00Z</time>
      </trkpt>
      <trkpt lat="44.09152" lon="3.06879">
        <ele>360</ele>
        <time>2012-05-13T07:21:02Z</time>
      </trkpt>
      <trkpt lat="44.0915" lon="3.06871">
        <ele>360</ele>
        <time>2012-05-13T07:21:04Z</time>
      </trkpt>
      <trkpt lat="44.09149" lon="3.06864">
        <ele>360</ele>
        <time>2012-05-13T07:21:07Z</time>
      </trkpt>
      <trkpt lat="44.09148" lon="3.06858">
        <ele>359</ele>
        <time>2012-05-13T07:21:09Z</time>
      </trkpt>
      <trkpt lat="44.09148" lon="3.06851">
        <ele>359</ele>
        <time>2012-05-13T07:21:11Z</time>
      </trkpt>
      <trkpt lat="44.09146" lon="3.06844">
        <ele>360</ele>
        <time>2012-05-13T07:21:13Z</time>
      </trkpt>
      <trkpt lat="44.09145" lon="3.06837">
        <ele>360</ele>
        <time>2012-05-13T07:21:15Z</time>
      </trkpt>
      <trkpt lat="44.09144" lon="3.0683">
        <ele>360</ele>
        <time>2012-05-13T07:21:17Z</time>
      </trkpt>
      <trkpt lat="44.09142" lon="3.06823">
        <ele>360</ele>
        <time>2012-05-13T07:21:19Z</time>
      </trkpt>
      <trkpt lat="44.09141" lon="3.06817">
        <ele>360</ele>
        <time>2012-05-13T07:21:21Z</time>
      </trkpt>
      <trkpt lat="44.0914" lon="3.0681">
        <ele>360</ele>
        <time>2012-05-13T07:21:23Z</time>
      </trkpt>
      <trkpt lat="44.09138" lon="3.06804">
        <ele>359</ele>
        <time>2012-05-13T07:21:25Z</time>
      </trkpt>
      <trkpt lat="44.09137" lon="3.06797">
        <ele>359</ele>
        <time>2012-05-13T07:21:27Z</time>
      </trkpt>
      <trkpt lat="44.09135" lon="3.06788">
        <ele>359</ele>
        <time>2012-05-13T07:21:29Z</time>
      </trkpt>
      <trkpt lat="44.09134" lon="3.06782">
        <ele>360</ele>
        <time>2012-05-13T07:21:31Z</time>
      </trkpt>
      <trkpt lat="44.09132" lon="3.06775">
        <ele>360</ele>
        <time>2012-05-13T07:21:33Z</time>
      </trkpt>
      <trkpt lat="44.0913" lon="3.06768">
        <ele>361</ele>
        <time>2012-05-13T07:21:35Z</time>
      </trkpt>
      <trkpt lat="44.09128" lon="3.06762">
        <ele>361</ele>
        <time>2012-05-13T07:21:37Z</time>
      </trkpt>
      <trkpt lat="44.09127" lon="3.06756">
        <ele>362</ele>
        <time>2012-05-13T07:21:39Z</time>
      </trkpt>
      <trkpt lat="44.09125" lon="3.06749">
        <ele>362</ele>
        <time>2012-05-13T07:21:41Z</time>
      </trkpt>
      <trkpt lat="44.09124" lon="3.06743">
        <ele>363</ele>
        <time>2012-05-13T07:21:43Z</time>
      </trkpt>
      <trkpt lat="44.09124" lon="3.06736">
        <ele>363</ele>
        <time>2012-05-13T07:21:45Z</time>
      </trkpt>
      <trkpt lat="44.09124" lon="3.0673">
        <ele>364</ele>
        <time>2012-05-13T07:21:47Z</time>
      </trkpt>
      <trkpt lat="44.09124" lon="3.06723">
        <ele>364</ele>
        <time>2012-05-13T07:21:49Z</time>
      </trkpt>
      <trkpt lat="44.09123" lon="3.06716">
        <ele>364</ele>
        <time>2012-05-13T07:21:51Z</time>
      </trkpt>
      <trkpt lat="44.09122" lon="3.06709">
        <ele>364</ele>
        <time>2012-05-13T07:21:53Z</time>
      </trkpt>
      <trkpt lat="44.09122" lon="3.06702">
        <ele>364</ele>
        <time>2012-05-13T07:21:55Z</time>
      </trkpt>
      <trkpt lat="44.09121" lon="3.06695">
        <ele>364</ele>
        <time>2012-05-13T07:21:57Z</time>
      </trkpt>
      <trkpt lat="44.09122" lon="3.06688">
        <ele>364</ele>
        <time>2012-05-13T07:21:59Z</time>
      </trkpt>
      <trkpt lat="44.09122" lon="3.06681">
        <ele>364</ele>
        <time>2012-05-13T07:22:02Z</time>
      </trkpt>
      <trkpt lat="44.09123" lon="3.06674">
        <ele>364</ele>
        <time>2012-05-13T07:22:04Z</time>
      </trkpt>
      <trkpt lat="44.09123" lon="3.06667">
        <ele>364</ele>
        <time>2012-05-13T07:22:06Z</time>
      </trkpt>
      <trkpt lat="44.09124" lon="3.06661">
        <ele>364</ele>
        <time>2012-05-13T07:22:08Z</time>
      </trkpt>
      <trkpt lat="44.09125" lon="3.06654">
        <ele>365</ele>
        <time>2012-05-13T07:22:10Z</time>
      </trkpt>
      <trkpt lat="44.09127" lon="3.06648">
        <ele>364</ele>
        <time>2012-05-13T07:22:12Z</time>
      </trkpt>
      <trkpt lat="44.09129" lon="3.06641">
        <ele>364</ele>
        <time>2012-05-13T07:22:14Z</time>
      </trkpt>
      <trkpt lat="44.0913" lon="3.06636">
        <ele>364</ele>
        <time>2012-05-13T07:22:16Z</time>
      </trkpt>
      <trkpt lat="44.09132" lon="3.0663">
        <ele>364</ele>
        <time>2012-05-13T07:22:18Z</time>
      </trkpt>
      <trkpt lat="44.09134" lon="3.0662">
        <ele>363</ele>
        <time>2012-05-13T07:22:20Z</time>
      </trkpt>
      <trkpt lat="44.09136" lon="3.06614">
        <ele>363</ele>
        <time>2012-05-13T07:22:22Z</time>
      </trkpt>
      <trkpt lat="44.09137" lon="3.06609">
        <ele>363</ele>
        <time>2012-05-13T07:22:24Z</time>
      </trkpt>
      <trkpt lat="44.0914" lon="3.06603">
        <ele>362</ele>
        <time>2012-05-13T07:22:26Z</time>
      </trkpt>
      <trkpt lat="44.09141" lon="3.06597">
        <ele>362</ele>
        <time>2012-05-13T07:22:28Z</time>
      </trkpt>
      <trkpt lat="44.09143" lon="3.06591">
        <ele>362</ele>
        <time>2012-05-13T07:22:30Z</time>
      </trkpt>
      <trkpt lat="44.09146" lon="3.06586">
        <ele>361</ele>
        <time>2012-05-13T07:22:32Z</time>
      </trkpt>
      <trkpt lat="44.09148" lon="3.06581">
        <ele>361</ele>
        <time>2012-05-13T07:22:34Z</time>
      </trkpt>
      <trkpt lat="44.09151" lon="3.06576">
        <ele>360</ele>
        <time>2012-05-13T07:22:37Z</time>
      </trkpt>
      <trkpt lat="44.09154" lon="3.06571">
        <ele>360</ele>
        <time>2012-05-13T07:22:39Z</time>
      </trkpt>
      <trkpt lat="44.09156" lon="3.06565">
        <ele>360</ele>
        <time>2012-05-13T07:22:41Z</time>
      </trkpt>
      <trkpt lat="44.09159" lon="3.0656">
        <ele>360</ele>
        <time>2012-05-13T07:22:43Z</time>
      </trkpt>
      <trkpt lat="44.09162" lon="3.06556">
        <ele>360</ele>
        <time>2012-05-13T07:22:45Z</time>
      </trkpt>
      <trkpt lat="44.09165" lon="3.06552">
        <ele>360</ele>
        <time>2012-05-13T07:22:47Z</time>
      </trkpt>
      <trkpt lat="44.09168" lon="3.06547">
        <ele>361</ele>
        <time>2012-05-13T07:22:49Z</time>
      </trkpt>
      <trkpt lat="44.09171" lon="3.06543">
        <ele>361</ele>
        <time>2012-05-13T07:22:51Z</time>
      </trkpt>
      <trkpt lat="44.09174" lon="3.06539">
        <ele>362</ele>
        <time>2012-05-13T07:22:53Z</time>
      </trkpt>
      <trkpt lat="44.09177" lon="3.06535">
        <ele>362</ele>
        <time>2012-05-13T07:22:55Z</time>
      </trkpt>
      <trkpt lat="44.0918" lon="3.0653">
        <ele>362</ele>
        <time>2012-05-13T07:22:57Z</time>
      </trkpt>
      <trkpt lat="44.09184" lon="3.06523">
        <ele>362</ele>
        <time>2012-05-13T07:22:59Z</time>
      </trkpt>
      <trkpt lat="44.09185" lon="3.06521">
        <ele>362</ele>
        <time>2012-05-13T07:23:01Z</time>
      </trkpt>
      <trkpt lat="44.09189" lon="3.06514">
        <ele>362</ele>
        <time>2012-05-13T07:23:03Z</time>
      </trkpt>
      <trkpt lat="44.09192" lon="3.0651">
        <ele>362</ele>
        <time>2012-05-13T07:23:05Z</time>
      </trkpt>
      <trkpt lat="44.09195" lon="3.06505">
        <ele>363</ele>
        <time>2012-05-13T07:23:07Z</time>
      </trkpt>
      <trkpt lat="44.09198" lon="3.06501">
        <ele>363</ele>
        <time>2012-05-13T07:23:09Z</time>
      </trkpt>
      <trkpt lat="44.09201" lon="3.06497">
        <ele>363</ele>
        <time>2012-05-13T07:23:11Z</time>
      </trkpt>
      <trkpt lat="44.09203" lon="3.06491">
        <ele>363</ele>
        <time>2012-05-13T07:23:13Z</time>
      </trkpt>
      <trkpt lat="44.09206" lon="3.06487">
        <ele>364</ele>
        <time>2012-05-13T07:23:15Z</time>
      </trkpt>
      <trkpt lat="44.09209" lon="3.06482">
        <ele>364</ele>
        <time>2012-05-13T07:23:18Z</time>
      </trkpt>
      <trkpt lat="44.09212" lon="3.06477">
        <ele>364</ele>
        <time>2012-05-13T07:23:20Z</time>
      </trkpt>
      <trkpt lat="44.09216" lon="3.06472">
        <ele>365</ele>
        <time>2012-05-13T07:23:22Z</time>
      </trkpt>
      <trkpt lat="44.09219" lon="3.06468">
        <ele>365</ele>
        <time>2012-05-13T07:23:24Z</time>
      </trkpt>
      <trkpt lat="44.09222" lon="3.06463">
        <ele>365</ele>
        <time>2012-05-13T07:23:26Z</time>
      </trkpt>
      <trkpt lat="44.09225" lon="3.06459">
        <ele>365</ele>
        <time>2012-05-13T07:23:28Z</time>
      </trkpt>
      <trkpt lat="44.09228" lon="3.06455">
        <ele>365</ele>
        <time>2012-05-13T07:23:30Z</time>
      </trkpt>
      <trkpt lat="44.0923" lon="3.0645">
        <ele>365</ele>
        <time>2012-05-13T07:23:32Z</time>
      </trkpt>
      <trkpt lat="44.09233" lon="3.06446">
        <ele>365</ele>
        <time>2012-05-13T07:23:34Z</time>
      </trkpt>
      <trkpt lat="44.09235" lon="3.06441">
        <ele>365</ele>
        <time>2012-05-13T07:23:36Z</time>
      </trkpt>
      <trkpt lat="44.09238" lon="3.06437">
        <ele>366</ele>
        <time>2012-05-13T07:23:38Z</time>
      </trkpt>
      <trkpt lat="44.09242" lon="3.0643">
        <ele>366</ele>
        <time>2012-05-13T07:23:40Z</time>
      </trkpt>
      <trkpt lat="44.09245" lon="3.06426">
        <ele>367</ele>
        <time>2012-05-13T07:23:42Z</time>
      </trkpt>
      <trkpt lat="44.09246" lon="3.0642">
        <ele>367</ele>
        <time>2012-05-13T07:23:44Z</time>
      </trkpt>
      <trkpt lat="44.09246" lon="3.06413">
        <ele>367</ele>
        <time>2012-05-13T07:23:46Z</time>
      </trkpt>
      <trkpt lat="44.09246" lon="3.06407">
        <ele>367</ele>
        <time>2012-05-13T07:23:48Z</time>
      </trkpt>
      <trkpt lat="44.09246" lon="3.06401">
        <ele>367</ele>
        <time>2012-05-13T07:23:50Z</time>
      </trkpt>
      <trkpt lat="44.09245" lon="3.06395">
        <ele>368</ele>
        <time>2012-05-13T07:23:52Z</time>
      </trkpt>
      <trkpt lat="44.09243" lon="3.06388">
        <ele>368</ele>
        <time>2012-05-13T07:23:55Z</time>
      </trkpt>
      <trkpt lat="44.09241" lon="3.06383">
        <ele>369</ele>
        <time>2012-05-13T07:23:57Z</time>
      </trkpt>
      <trkpt lat="44.0924" lon="3.06377">
        <ele>369</ele>
        <time>2012-05-13T07:23:59Z</time>
      </trkpt>
      <trkpt lat="44.09238" lon="3.06372">
        <ele>370</ele>
        <time>2012-05-13T07:24:01Z</time>
      </trkpt>
      <trkpt lat="44.09235" lon="3.06366">
        <ele>371</ele>
        <time>2012-05-13T07:24:03Z</time>
      </trkpt>
      <trkpt lat="44.09233" lon="3.06361">
        <ele>372</ele>
        <time>2012-05-13T07:24:05Z</time>
      </trkpt>
      <trkpt lat="44.0923" lon="3.06357">
        <ele>373</ele>
        <time>2012-05-13T07:24:07Z</time>
      </trkpt>
      <trkpt lat="44.09227" lon="3.06352">
        <ele>374</ele>
        <time>2012-05-13T07:24:09Z</time>
      </trkpt>
      <trkpt lat="44.09224" lon="3.06347">
        <ele>374</ele>
        <time>2012-05-13T07:24:11Z</time>
      </trkpt>
      <trkpt lat="44.09222" lon="3.06343">
        <ele>375</ele>
        <time>2012-05-13T07:24:13Z</time>
      </trkpt>
      <trkpt lat="44.09219" lon="3.06337">
        <ele>375</ele>
        <time>2012-05-13T07:24:15Z</time>
      </trkpt>
      <trkpt lat="44.09217" lon="3.06332">
        <ele>374</ele>
        <time>2012-05-13T07:24:17Z</time>
      </trkpt>
      <trkpt lat="44.09214" lon="3.06328">
        <ele>374</ele>
        <time>2012-05-13T07:24:19Z</time>
      </trkpt>
      <trkpt lat="44.09211" lon="3.06324">
        <ele>374</ele>
        <time>2012-05-13T07:24:21Z</time>
      </trkpt>
      <trkpt lat="44.09207" lon="3.06316">
        <ele>374</ele>
        <time>2012-05-13T07:24:23Z</time>
      </trkpt>
      <trkpt lat="44.09204" lon="3.06311">
        <ele>374</ele>
        <time>2012-05-13T07:24:25Z</time>
      </trkpt>
      <trkpt lat="44.09202" lon="3.06307">
        <ele>375</ele>
        <time>2012-05-13T07:24:27Z</time>
      </trkpt>
      <trkpt lat="44.09199" lon="3.06302">
        <ele>375</ele>
        <time>2012-05-13T07:24:29Z</time>
      </trkpt>
      <trkpt lat="44.09196" lon="3.06298">
        <ele>374</ele>
        <time>2012-05-13T07:24:31Z</time>
      </trkpt>
      <trkpt lat="44.09193" lon="3.06294">
        <ele>374</ele>
        <time>2012-05-13T07:24:33Z</time>
      </trkpt>
      <trkpt lat="44.0919" lon="3.0629">
        <ele>374</ele>
        <time>2012-05-13T07:24:35Z</time>
      </trkpt>
      <trkpt lat="44.09186" lon="3.06285">
        <ele>374</ele>
        <time>2012-05-13T07:24:37Z</time>
      </trkpt>
      <trkpt lat="44.09183" lon="3.06282">
        <ele>374</ele>
        <time>2012-05-13T07:24:40Z</time>
      </trkpt>
      <trkpt lat="44.0918" lon="3.06278">
        <ele>375</ele>
        <time>2012-05-13T07:24:42Z</time>
      </trkpt>
      <trkpt lat="44.09177" lon="3.06274">
        <ele>375</ele>
        <time>2012-05-13T07:24:44Z</time>
      </trkpt>
      <trkpt lat="44.09173" lon="3.0627">
        <ele>375</ele>
        <time>2012-05-13T07:24:46Z</time>
      </trkpt>
      <trkpt lat="44.09169" lon="3.06265">
        <ele>375</ele>
        <time>2012-05-13T07:24:48Z</time>
      </trkpt>
      <trkpt lat="44.09166" lon="3.06262">
        <ele>375</ele>
        <time>2012-05-13T07:24:50Z</time>
      </trkpt>
      <trkpt lat="44.09163" lon="3.06258">
        <ele>374</ele>
        <time>2012-05-13T07:24:52Z</time>
      </trkpt>
      <trkpt lat="44.0916" lon="3.06254">
        <ele>374</ele>
        <time>2012-05-13T07:24:54Z</time>
      </trkpt>
      <trkpt lat="44.09157" lon="3.0625">
        <ele>374</ele>
        <time>2012-05-13T07:24:56Z</time>
      </trkpt>
      <trkpt lat="44.09153" lon="3.06245">
        <ele>374</ele>
        <time>2012-05-13T07:24:58Z</time>
      </trkpt>
      <trkpt lat="44.09149" lon="3.06242">
        <ele>375</ele>
        <time>2012-05-13T07:25:00Z</time>
      </trkpt>
      <trkpt lat="44.09146" lon="3.06238">
        <ele>375</ele>
        <time>2012-05-13T07:25:02Z</time>
      </trkpt>
      <trkpt lat="44.0914" lon="3.06231">
        <ele>375</ele>
        <time>2012-05-13T07:25:04Z</time>
      </trkpt>
      <trkpt lat="44.09137" lon="3.06228">
        <ele>375</ele>
        <time>2012-05-13T07:25:06Z</time>
      </trkpt>
      <trkpt lat="44.09133" lon="3.06224">
        <ele>375</ele>
        <time>2012-05-13T07:25:08Z</time>
      </trkpt>
      <trkpt lat="44.09129" lon="3.0622">
        <ele>376</ele>
        <time>2012-05-13T07:25:10Z</time>
      </trkpt>
      <trkpt lat="44.09125" lon="3.06217">
        <ele>376</ele>
        <time>2012-05-13T07:25:12Z</time>
      </trkpt>
      <trkpt lat="44.09121" lon="3.06213">
        <ele>377</ele>
        <time>2012-05-13T07:25:14Z</time>
      </trkpt>
      <trkpt lat="44.09117" lon="3.06209">
        <ele>377</ele>
        <time>2012-05-13T07:25:16Z</time>
      </trkpt>
      <trkpt lat="44.09113" lon="3.06206">
        <ele>377</ele>
        <time>2012-05-13T07:25:18Z</time>
      </trkpt>
      <trkpt lat="44.0911" lon="3.06203">
        <ele>377</ele>
        <time>2012-05-13T07:25:21Z</time>
      </trkpt>
      <trkpt lat="44.09106" lon="3.062">
        <ele>376</ele>
        <time>2012-05-13T07:25:23Z</time>
      </trkpt>
      <trkpt lat="44.09102" lon="3.06197">
        <ele>376</ele>
        <time>2012-05-13T07:25:25Z</time>
      </trkpt>
      <trkpt lat="44.09098" lon="3.06194">
        <ele>376</ele>
        <time>2012-05-13T07:25:27Z</time>
      </trkpt>
      <trkpt lat="44.09095" lon="3.06192">
        <ele>376</ele>
        <time>2012-05-13T07:25:29Z</time>
      </trkpt>
      <trkpt lat="44.0909" lon="3.06189">
        <ele>375</ele>
        <time>2012-05-13T07:25:31Z</time>
      </trkpt>
      <trkpt lat="44.09086" lon="3.06187">
        <ele>374</ele>
        <time>2012-05-13T07:25:33Z</time>
      </trkpt>
      <trkpt lat="44.09082" lon="3.06184">
        <ele>373</ele>
        <time>2012-05-13T07:25:35Z</time>
      </trkpt>
      <trkpt lat="44.09078" lon="3.06182">
        <ele>373</ele>
        <time>2012-05-13T07:25:37Z</time>
      </trkpt>
      <trkpt lat="44.09073" lon="3.06178">
        <ele>372</ele>
        <time>2012-05-13T07:25:39Z</time>
      </trkpt>
      <trkpt lat="44.09069" lon="3.06175">
        <ele>372</ele>
        <time>2012-05-13T07:25:41Z</time>
      </trkpt>
      <trkpt lat="44.09065" lon="3.06173">
        <ele>372</ele>
        <time>2012-05-13T07:25:43Z</time>
      </trkpt>
      <trkpt lat="44.09061" lon="3.06171">
        <ele>372</ele>
        <time>2012-05-13T07:25:45Z</time>
      </trkpt>
      <trkpt lat="44.09056" lon="3.06169">
        <ele>372</ele>
        <time>2012-05-13T07:25:47Z</time>
      </trkpt>
      <trkpt lat="44.09051" lon="3.06167">
        <ele>371</ele>
        <time>2012-05-13T07:25:49Z</time>
      </trkpt>
      <trkpt lat="44.09047" lon="3.06166">
        <ele>371</ele>
        <time>2012-05-13T07:25:52Z</time>
      </trkpt>
      <trkpt lat="44.09042" lon="3.06165">
        <ele>371</ele>
        <time>2012-05-13T07:25:54Z</time>
      </trkpt>
      <trkpt lat="44.09037" lon="3.06163">
        <ele>371</ele>
        <time>2012-05-13T07:25:56Z</time>
      </trkpt>
      <trkpt lat="44.09033" lon="3.06163">
        <ele>371</ele>
        <time>2012-05-13T07:25:58Z</time>
      </trkpt>
      <trkpt lat="44.09028" lon="3.06162">
        <ele>371</ele>
        <time>2012-05-13T07:26:00Z</time>
      </trkpt>
      <trkpt lat="44.09023" lon="3.06161">
        <ele>371</ele>
        <time>2012-05-13T07:26:02Z</time>
      </trkpt>
      <trkpt lat="44.09018" lon="3.0616">
        <ele>371</ele>
        <time>2012-05-13T07:26:04Z</time>
      </trkpt>
      <trkpt lat="44.09015" lon="3.0616">
        <ele>371</ele>
        <time>2012-05-13T07:26:06Z</time>
      </trkpt>
      <trkpt lat="44.0901" lon="3.06159">
        <ele>372</ele>
        <time>2012-05-13T07:26:08Z</time>
      </trkpt>
      <trkpt lat="44.09005" lon="3.06158">
        <ele>372</ele>
        <time>2012-05-13T07:26:10Z</time>
      </trkpt>
      <trkpt lat="44.08997" lon="3.06157">
        <ele>372</ele>
        <time>2012-05-13T07:26:12Z</time>
      </trkpt>
      <trkpt lat="44.08992" lon="3.06156">
        <ele>372</ele>
        <time>2012-05-13T07:26:14Z</time>
      </trkpt>
      <trkpt lat="44.08989" lon="3.06156">
        <ele>372</ele>
        <time>2012-05-13T07:26:16Z</time>
      </trkpt>
      <trkpt lat="44.08984" lon="3.06155">
        <ele>371</ele>
        <time>2012-05-13T07:26:18Z</time>
      </trkpt>
      <trkpt lat="44.0898" lon="3.06154">
        <ele>371</ele>
        <time>2012-05-13T07:26:20Z</time>
      </trkpt>
      <trkpt lat="44.08975" lon="3.06153">
        <ele>370</ele>
        <time>2012-05-13T07:26:22Z</time>
      </trkpt>
      <trkpt lat="44.08971" lon="3.06152">
        <ele>370</ele>
        <time>2012-05-13T07:26:24Z</time>
      </trkpt>
      <trkpt lat="44.08967" lon="3.0615">
        <ele>370</ele>
        <time>2012-05-13T07:26:26Z</time>
      </trkpt>
      <trkpt lat="44.08962" lon="3.06149">
        <ele>369</ele>
        <time>2012-05-13T07:26:29Z</time>
      </trkpt>
      <trkpt lat="44.08958" lon="3.06148">
        <ele>369</ele>
        <time>2012-05-13T07:26:31Z</time>
      </trkpt>
      <trkpt lat="44.08953" lon="3.06145">
        <ele>369</ele>
        <time>2012-05-13T07:26:33Z</time>
      </trkpt>
      <trkpt lat="44.08949" lon="3.06144">
        <ele>369</ele>
        <time>2012-05-13T07:26:35Z</time>
      </trkpt>
      <trkpt lat="44.08945" lon="3.06142">
        <ele>369</ele>
        <time>2012-05-13T07:26:37Z</time>
      </trkpt>
      <trkpt lat="44.08941" lon="3.06139">
        <ele>369</ele>
        <time>2012-05-13T07:26:39Z</time>
      </trkpt>
      <trkpt lat="44.08937" lon="3.06137">
        <ele>368</ele>
        <time>2012-05-13T07:26:41Z</time>
      </trkpt>
      <trkpt lat="44.08933" lon="3.06134">
        <ele>368</ele>
        <time>2012-05-13T07:26:43Z</time>
      </trkpt>
      <trkpt lat="44.08929" lon="3.06131">
        <ele>368</ele>
        <time>2012-05-13T07:26:45Z</time>
      </trkpt>
      <trkpt lat="44.08924" lon="3.06128">
        <ele>368</ele>
        <time>2012-05-13T07:26:47Z</time>
      </trkpt>
      <trkpt lat="44.08921" lon="3.06124">
        <ele>368</ele>
        <time>2012-05-13T07:26:49Z</time>
      </trkpt>
      <trkpt lat="44.08917" lon="3.0612">
        <ele>368</ele>
        <time>2012-05-13T07:26:51Z</time>
      </trkpt>
      <trkpt lat="44.08913" lon="3.06116">
        <ele>367</ele>
        <time>2012-05-13T07:26:53Z</time>
      </trkpt>
      <trkpt lat="44.0891" lon="3.06112">
        <ele>367</ele>
        <time>2012-05-13T07:26:55Z</time>
      </trkpt>
      <trkpt lat="44.08907" lon="3.06106">
        <ele>367</ele>
        <time>2012-05-13T07:26:57Z</time>
      </trkpt>
      <trkpt lat="44.08904" lon="3.06102">
        <ele>367</ele>
        <time>2012-05-13T07:26:59Z</time>
      </trkpt>
      <trkpt lat="44.08901" lon="3.06096">
        <ele>367</ele>
        <time>2012-05-13T07:27:01Z</time>
      </trkpt>
      <trkpt lat="44.08898" lon="3.06091">
        <ele>367</ele>
        <time>2012-05-13T07:27:03Z</time>
      </trkpt>
      <trkpt lat="44.08895" lon="3.06085">
        <ele>367</ele>
        <time>2012-05-13T07:27:05Z</time>
      </trkpt>
      <trkpt lat="44.0889" lon="3.06076">
        <ele>368</ele>
        <time>2012-05-13T07:27:07Z</time>
      </trkpt>
      <trkpt lat="44.08887" lon="3.0607">
        <ele>368</ele>
        <time>2012-05-13T07:27:09Z</time>
      </trkpt>
      <trkpt lat="44.08885" lon="3.06066">
        <ele>369</ele>
        <time>2012-05-13T07:27:11Z</time>
      </trkpt>
      <trkpt lat="44.08883" lon="3.0606">
        <ele>370</ele>
        <time>2012-05-13T07:27:13Z</time>
      </trkpt>
      <trkpt lat="44.08881" lon="3.06054">
        <ele>370</ele>
        <time>2012-05-13T07:27:15Z</time>
      </trkpt>
      <trkpt lat="44.0888" lon="3.06049">
        <ele>371</ele>
        <time>2012-05-13T07:27:17Z</time>
      </trkpt>
      <trkpt lat="44.08878" lon="3.06044">
        <ele>372</ele>
        <time>2012-05-13T07:27:19Z</time>
      </trkpt>
      <trkpt lat="44.08877" lon="3.06038">
        <ele>373</ele>
        <time>2012-05-13T07:27:21Z</time>
      </trkpt>
      <trkpt lat="44.08876" lon="3.06031">
        <ele>373</ele>
        <time>2012-05-13T07:27:23Z</time>
      </trkpt>
      <trkpt lat="44.08875" lon="3.06025">
        <ele>374</ele>
        <time>2012-05-13T07:27:25Z</time>
      </trkpt>
      <trkpt lat="44.08875" lon="3.06019">
        <ele>375</ele>
        <time>2012-05-13T07:27:27Z</time>
      </trkpt>
      <trkpt lat="44.08874" lon="3.06013">
        <ele>375</ele>
        <time>2012-05-13T07:27:29Z</time>
      </trkpt>
      <trkpt lat="44.08874" lon="3.06007">
        <ele>376</ele>
        <time>2012-05-13T07:27:31Z</time>
      </trkpt>
      <trkpt lat="44.08874" lon="3.06001">
        <ele>377</ele>
        <time>2012-05-13T07:27:33Z</time>
      </trkpt>
      <trkpt lat="44.08875" lon="3.05996">
        <ele>378</ele>
        <time>2012-05-13T07:27:35Z</time>
      </trkpt>
      <trkpt lat="44.08875" lon="3.05989">
        <ele>379</ele>
        <time>2012-05-13T07:27:37Z</time>
      </trkpt>
      <trkpt lat="44.08875" lon="3.05983">
        <ele>380</ele>
        <time>2012-05-13T07:27:39Z</time>
      </trkpt>
      <trkpt lat="44.08874" lon="3.05976">
        <ele>380</ele>
        <time>2012-05-13T07:27:41Z</time>
      </trkpt>
      <trkpt lat="44.08874" lon="3.0597">
        <ele>381</ele>
        <time>2012-05-13T07:27:43Z</time>
      </trkpt>
      <trkpt lat="44.08874" lon="3.05964">
        <ele>381</ele>
        <time>2012-05-13T07:27:46Z</time>
      </trkpt>
      <trkpt lat="44.08875" lon="3.05958">
        <ele>380</ele>
        <time>2012-05-13T07:27:48Z</time>
      </trkpt>
      <trkpt lat="44.08875" lon="3.05952">
        <ele>380</ele>
        <time>2012-05-13T07:27:50Z</time>
      </trkpt>
      <trkpt lat="44.08876" lon="3.05945">
        <ele>379</ele>
        <time>2012-05-13T07:27:52Z</time>
      </trkpt>
      <trkpt lat="44.08876" lon="3.0594">
        <ele>379</ele>
        <time>2012-05-13T07:27:54Z</time>
      </trkpt>
      <trkpt lat="44.08876" lon="3.05933">
        <ele>379</ele>
        <time>2012-05-13T07:27:56Z</time>
      </trkpt>
      <trkpt lat="44.08876" lon="3.05926">
        <ele>379</ele>
        <time>2012-05-13T07:27:58Z</time>
      </trkpt>
      <trkpt lat="44.08877" lon="3.0592">
        <ele>379</ele>
        <time>2012-05-13T07:28:00Z</time>
      </trkpt>
      <trkpt lat="44.08877" lon="3.05914">
        <ele>379</ele>
        <time>2012-05-13T07:28:02Z</time>
      </trkpt>
      <trkpt lat="44.08877" lon="3.05907">
        <ele>380</ele>
        <time>2012-05-13T07:28:04Z</time>
      </trkpt>
      <trkpt lat="44.08878" lon="3.05898">
        <ele>380</ele>
        <time>2012-05-13T07:28:06Z</time>
      </trkpt>
      <trkpt lat="44.08879" lon="3.05892">
        <ele>380</ele>
        <time>2012-05-13T07:28:08Z</time>
      </trkpt>
      <trkpt lat="44.0888" lon="3.05886">
        <ele>380</ele>
        <time>2012-05-13T07:28:10Z</time>
      </trkpt>
      <trkpt lat="44.0888" lon="3.0588">
        <ele>380</ele>
        <time>2012-05-13T07:28:12Z</time>
      </trkpt>
      <trkpt lat="44.08881" lon="3.05873">
        <ele>380</ele>
        <time>2012-05-13T07:28:14Z</time>
      </trkpt>
      <trkpt lat="44.08883" lon="3.05868">
        <ele>380</ele>
        <time>2012-05-13T07:28:16Z</time>
      </trkpt>
      <trkpt lat="44.08884" lon="3.05861">
        <ele>380</ele>
        <time>2012-05-13T07:28:18Z</time>
      </trkpt>
      <trkpt lat="44.08885" lon="3.05855">
        <ele>380</ele>
        <time>2012-05-13T07:28:20Z</time>
      </trkpt>
      <trkpt lat="44.08887" lon="3.05849">
        <ele>380</ele>
        <time>2012-05-13T07:28:23Z</time>
      </trkpt>
      <trkpt lat="44.08888" lon="3.05843">
        <ele>380</ele>
        <time>2012-05-13T07:28:25Z</time>
      </trkpt>
      <trkpt lat="44.08889" lon="3.05837">
        <ele>379</ele>
        <time>2012-05-13T07:28:27Z</time>
      </trkpt>
      <trkpt lat="44.08891" lon="3.05831">
        <ele>379</ele>
        <time>2012-05-13T07:28:29Z</time>
      </trkpt>
      <trkpt lat="44.08892" lon="3.05825">
        <ele>379</ele>
        <time>2012-05-13T07:28:31Z</time>
      </trkpt>
      <trkpt lat="44.08892" lon="3.05819">
        <ele>380</ele>
        <time>2012-05-13T07:28:33Z</time>
      </trkpt>
      <trkpt lat="44.08894" lon="3.05813">
        <ele>380</ele>
        <time>2012-05-13T07:28:35Z</time>
      </trkpt>
      <trkpt lat="44.08895" lon="3.05806">
        <ele>380</ele>
        <time>2012-05-13T07:28:37Z</time>
      </trkpt>
      <trkpt lat="44.08896" lon="3.058">
        <ele>380</ele>
        <time>2012-05-13T07:28:39Z</time>
      </trkpt>
      <trkpt lat="44.08898" lon="3.05793">
        <ele>379</ele>
        <time>2012-05-13T07:28:41Z</time>
      </trkpt>
      <trkpt lat="44.089" lon="3.05787">
        <ele>379</ele>
        <time>2012-05-13T07:28:43Z</time>
      </trkpt>
      <trkpt lat="44.08902" lon="3.05777">
        <ele>379</ele>
        <time>2012-05-13T07:28:45Z</time>
      </trkpt>
      <trkpt lat="44.08904" lon="3.05771">
        <ele>378</ele>
        <time>2012-05-13T07:28:47Z</time>
      </trkpt>
      <trkpt lat="44.08905" lon="3.05765">
        <ele>378</ele>
        <time>2012-05-13T07:28:49Z</time>
      </trkpt>
      <trkpt lat="44.08907" lon="3.05758">
        <ele>378</ele>
        <time>2012-05-13T07:28:51Z</time>
      </trkpt>
      <trkpt lat="44.08908" lon="3.05751">
        <ele>378</ele>
        <time>2012-05-13T07:28:53Z</time>
      </trkpt>
      <trkpt lat="44.0891" lon="3.05745">
        <ele>377</ele>
        <time>2012-05-13T07:28:55Z</time>
      </trkpt>
      <trkpt lat="44.08911" lon="3.05739">
        <ele>377</ele>
        <time>2012-05-13T07:28:57Z</time>
      </trkpt>
      <trkpt lat="44.08912" lon="3.05733">
        <ele>376</ele>
        <time>2012-05-13T07:28:59Z</time>
      </trkpt>
      <trkpt lat="44.08913" lon="3.05727">
        <ele>375</ele>
        <time>2012-05-13T07:29:01Z</time>
      </trkpt>
      <trkpt lat="44.08915" lon="3.05721">
        <ele>375</ele>
        <time>2012-05-13T07:29:03Z</time>
      </trkpt>
      <trkpt lat="44.08915" lon="3.05714">
        <ele>375</ele>
        <time>2012-05-13T07:29:05Z</time>
      </trkpt>
      <trkpt lat="44.08915" lon="3.05706">
        <ele>375</ele>
        <time>2012-05-13T07:29:07Z</time>
      </trkpt>
      <trkpt lat="44.08917" lon="3.05699">
        <ele>375</ele>
        <time>2012-05-13T07:29:09Z</time>
      </trkpt>
      <trkpt lat="44.08919" lon="3.05693">
        <ele>375</ele>
        <time>2012-05-13T07:29:11Z</time>
      </trkpt>
      <trkpt lat="44.08921" lon="3.05687">
        <ele>375</ele>
        <time>2012-05-13T07:29:13Z</time>
      </trkpt>
      <trkpt lat="44.08922" lon="3.05681">
        <ele>375</ele>
        <time>2012-05-13T07:29:15Z</time>
      </trkpt>
      <trkpt lat="44.08923" lon="3.05675">
        <ele>375</ele>
        <time>2012-05-13T07:29:17Z</time>
      </trkpt>
      <trkpt lat="44.08924" lon="3.05668">
        <ele>375</ele>
        <time>2012-05-13T07:29:20Z</time>
      </trkpt>
      <trkpt lat="44.08926" lon="3.05662">
        <ele>374</ele>
        <time>2012-05-13T07:29:22Z</time>
      </trkpt>
      <trkpt lat="44.08927" lon="3.05656">
        <ele>374</ele>
        <time>2012-05-13T07:29:24Z</time>
      </trkpt>
      <trkpt lat="44.08929" lon="3.05649">
        <ele>374</ele>
        <time>2012-05-13T07:29:26Z</time>
      </trkpt>
      <trkpt lat="44.0893" lon="3.05642">
        <ele>374</ele>
        <time>2012-05-13T07:29:28Z</time>
      </trkpt>
      <trkpt lat="44.08931" lon="3.05635">
        <ele>374</ele>
        <time>2012-05-13T07:29:30Z</time>
      </trkpt>
      <trkpt lat="44.08932" lon="3.05629">
        <ele>374</ele>
        <time>2012-05-13T07:29:32Z</time>
      </trkpt>
      <trkpt lat="44.08934" lon="3.05622">
        <ele>373</ele>
        <time>2012-05-13T07:29:34Z</time>
      </trkpt>
      <trkpt lat="44.08935" lon="3.05616">
        <ele>373</ele>
        <time>2012-05-13T07:29:36Z</time>
      </trkpt>
      <trkpt lat="44.08936" lon="3.05609">
        <ele>372</ele>
        <time>2012-05-13T07:29:38Z</time>
      </trkpt>
      <trkpt lat="44.08937" lon="3.05602">
        <ele>372</ele>
        <time>2012-05-13T07:29:40Z</time>
      </trkpt>
      <trkpt lat="44.08939" lon="3.05595">
        <ele>371</ele>
        <time>2012-05-13T07:29:42Z</time>
      </trkpt>
      <trkpt lat="44.0894" lon="3.05589">
        <ele>371</ele>
        <time>2012-05-13T07:29:44Z</time>
      </trkpt>
      <trkpt lat="44.08942" lon="3.05582">
        <ele>371</ele>
        <time>2012-05-13T07:29:46Z</time>
      </trkpt>
      <trkpt lat="44.08943" lon="3.05576">
        <ele>372</ele>
        <time>2012-05-13T07:29:48Z</time>
      </trkpt>
      <trkpt lat="44.08944" lon="3.05569">
        <ele>372</ele>
        <time>2012-05-13T07:29:50Z</time>
      </trkpt>
      <trkpt lat="44.08945" lon="3.05563">
        <ele>372</ele>
        <time>2012-05-13T07:29:52Z</time>
      </trkpt>
      <trkpt lat="44.08947" lon="3.05556">
        <ele>372</ele>
        <time>2012-05-13T07:29:54Z</time>
      </trkpt>
      <trkpt lat="44.08949" lon="3.05549">
        <ele>372</ele>
        <time>2012-05-13T07:29:56Z</time>
      </trkpt>
      <trkpt lat="44.08951" lon="3.05542">
        <ele>372</ele>
        <time>2012-05-13T07:29:58Z</time>
      </trkpt>
      <trkpt lat="44.08952" lon="3.05535">
        <ele>372</ele>
        <time>2012-05-13T07:30:00Z</time>
      </trkpt>
      <trkpt lat="44.08953" lon="3.05527">
        <ele>372</ele>
        <time>2012-05-13T07:30:02Z</time>
      </trkpt>
      <trkpt lat="44.08954" lon="3.0552">
        <ele>372</ele>
        <time>2012-05-13T07:30:04Z</time>
      </trkpt>
      <trkpt lat="44.08956" lon="3.05506">
        <ele>372</ele>
        <time>2012-05-13T07:30:07Z</time>
      </trkpt>
      <trkpt lat="44.08956" lon="3.055">
        <ele>371</ele>
        <time>2012-05-13T07:30:09Z</time>
      </trkpt>
      <trkpt lat="44.08958" lon="3.05489">
        <ele>371</ele>
        <time>2012-05-13T07:30:11Z</time>
      </trkpt>
      <trkpt lat="44.0896" lon="3.05482">
        <ele>371</ele>
        <time>2012-05-13T07:30:13Z</time>
      </trkpt>
      <trkpt lat="44.08961" lon="3.05475">
        <ele>372</ele>
        <time>2012-05-13T07:30:15Z</time>
      </trkpt>
      <trkpt lat="44.08963" lon="3.05468">
        <ele>371</ele>
        <time>2012-05-13T07:30:17Z</time>
      </trkpt>
      <trkpt lat="44.08965" lon="3.05462">
        <ele>371</ele>
        <time>2012-05-13T07:30:19Z</time>
      </trkpt>
      <trkpt lat="44.08966" lon="3.05455">
        <ele>370</ele>
        <time>2012-05-13T07:30:21Z</time>
      </trkpt>
      <trkpt lat="44.08968" lon="3.05449">
        <ele>370</ele>
        <time>2012-05-13T07:30:23Z</time>
      </trkpt>
      <trkpt lat="44.0897" lon="3.05443">
        <ele>370</ele>
        <time>2012-05-13T07:30:25Z</time>
      </trkpt>
      <trkpt lat="44.08972" lon="3.05436">
        <ele>370</ele>
        <time>2012-05-13T07:30:27Z</time>
      </trkpt>
      <trkpt lat="44.08974" lon="3.05429">
        <ele>370</ele>
        <time>2012-05-13T07:30:29Z</time>
      </trkpt>
      <trkpt lat="44.08976" lon="3.05423">
        <ele>370</ele>
        <time>2012-05-13T07:30:31Z</time>
      </trkpt>
      <trkpt lat="44.08979" lon="3.05418">
        <ele>371</ele>
        <time>2012-05-13T07:30:33Z</time>
      </trkpt>
      <trkpt lat="44.08981" lon="3.05412">
        <ele>371</ele>
        <time>2012-05-13T07:30:35Z</time>
      </trkpt>
      <trkpt lat="44.08983" lon="3.05406">
        <ele>372</ele>
        <time>2012-05-13T07:30:37Z</time>
      </trkpt>
      <trkpt lat="44.08986" lon="3.054">
        <ele>372</ele>
        <time>2012-05-13T07:30:39Z</time>
      </trkpt>
      <trkpt lat="44.08989" lon="3.05394">
        <ele>373</ele>
        <time>2012-05-13T07:30:41Z</time>
      </trkpt>
      <trkpt lat="44.08991" lon="3.05389">
        <ele>373</ele>
        <time>2012-05-13T07:30:43Z</time>
      </trkpt>
      <trkpt lat="44.08993" lon="3.05382">
        <ele>373</ele>
        <time>2012-05-13T07:30:45Z</time>
      </trkpt>
      <trkpt lat="44.08995" lon="3.05376">
        <ele>373</ele>
        <time>2012-05-13T07:30:47Z</time>
      </trkpt>
      <trkpt lat="44.08998" lon="3.0537">
        <ele>373</ele>
        <time>2012-05-13T07:30:49Z</time>
      </trkpt>
      <trkpt lat="44.09001" lon="3.05365">
        <ele>373</ele>
        <time>2012-05-13T07:30:51Z</time>
      </trkpt>
      <trkpt lat="44.09003" lon="3.0536">
        <ele>373</ele>
        <time>2012-05-13T07:30:53Z</time>
      </trkpt>
      <trkpt lat="44.09006" lon="3.05354">
        <ele>373</ele>
        <time>2012-05-13T07:30:55Z</time>
      </trkpt>
      <trkpt lat="44.09008" lon="3.05349">
        <ele>372</ele>
        <time>2012-05-13T07:30:57Z</time>
      </trkpt>
      <trkpt lat="44.09011" lon="3.05343">
        <ele>372</ele>
        <time>2012-05-13T07:30:59Z</time>
      </trkpt>
      <trkpt lat="44.09014" lon="3.05337">
        <ele>372</ele>
        <time>2012-05-13T07:31:01Z</time>
      </trkpt>
      <trkpt lat="44.09017" lon="3.05331">
        <ele>371</ele>
        <time>2012-05-13T07:31:03Z</time>
      </trkpt>
      <trkpt lat="44.09019" lon="3.05325">
        <ele>371</ele>
        <time>2012-05-13T07:31:05Z</time>
      </trkpt>
      <trkpt lat="44.09021" lon="3.05319">
        <ele>371</ele>
        <time>2012-05-13T07:31:07Z</time>
      </trkpt>
      <trkpt lat="44.09024" lon="3.05313">
        <ele>371</ele>
        <time>2012-05-13T07:31:09Z</time>
      </trkpt>
      <trkpt lat="44.09027" lon="3.05307">
        <ele>371</ele>
        <time>2012-05-13T07:31:11Z</time>
      </trkpt>
      <trkpt lat="44.0903" lon="3.05301">
        <ele>371</ele>
        <time>2012-05-13T07:31:13Z</time>
      </trkpt>
      <trkpt lat="44.09033" lon="3.05295">
        <ele>371</ele>
        <time>2012-05-13T07:31:15Z</time>
      </trkpt>
      <trkpt lat="44.09036" lon="3.05289">
        <ele>371</ele>
        <time>2012-05-13T07:31:17Z</time>
      </trkpt>
      <trkpt lat="44.0904" lon="3.05283">
        <ele>371</ele>
        <time>2012-05-13T07:31:19Z</time>
      </trkpt>
      <trkpt lat="44.09043" lon="3.05277">
        <ele>371</ele>
        <time>2012-05-13T07:31:22Z</time>
      </trkpt>
      <trkpt lat="44.09046" lon="3.05271">
        <ele>371</ele>
        <time>2012-05-13T07:31:24Z</time>
      </trkpt>
      <trkpt lat="44.0905" lon="3.05266">
        <ele>371</ele>
        <time>2012-05-13T07:31:26Z</time>
      </trkpt>
      <trkpt lat="44.09053" lon="3.0526">
        <ele>371</ele>
        <time>2012-05-13T07:31:28Z</time>
      </trkpt>
      <trkpt lat="44.09056" lon="3.05254">
        <ele>372</ele>
        <time>2012-05-13T07:31:30Z</time>
      </trkpt>
      <trkpt lat="44.09059" lon="3.05248">
        <ele>372</ele>
        <time>2012-05-13T07:31:32Z</time>
      </trkpt>
      <trkpt lat="44.09062" lon="3.05242">
        <ele>372</ele>
        <time>2012-05-13T07:31:34Z</time>
      </trkpt>
      <trkpt lat="44.09065" lon="3.05236">
        <ele>372</ele>
        <time>2012-05-13T07:31:36Z</time>
      </trkpt>
      <trkpt lat="44.09067" lon="3.0523">
        <ele>371</ele>
        <time>2012-05-13T07:31:38Z</time>
      </trkpt>
      <trkpt lat="44.0907" lon="3.05224">
        <ele>371</ele>
        <time>2012-05-13T07:31:40Z</time>
      </trkpt>
      <trkpt lat="44.09073" lon="3.05218">
        <ele>371</ele>
        <time>2012-05-13T07:31:42Z</time>
      </trkpt>
      <trkpt lat="44.09076" lon="3.05213">
        <ele>371</ele>
        <time>2012-05-13T07:31:44Z</time>
      </trkpt>
      <trkpt lat="44.09079" lon="3.05207">
        <ele>371</ele>
        <time>2012-05-13T07:31:46Z</time>
      </trkpt>
      <trkpt lat="44.09083" lon="3.05199">
        <ele>371</ele>
        <time>2012-05-13T07:31:48Z</time>
      </trkpt>
      <trkpt lat="44.09086" lon="3.05193">
        <ele>371</ele>
        <time>2012-05-13T07:31:50Z</time>
      </trkpt>
      <trkpt lat="44.09089" lon="3.05188">
        <ele>371</ele>
        <time>2012-05-13T07:31:52Z</time>
      </trkpt>
      <trkpt lat="44.09092" lon="3.05183">
        <ele>371</ele>
        <time>2012-05-13T07:31:54Z</time>
      </trkpt>
      <trkpt lat="44.09095" lon="3.05177">
        <ele>371</ele>
        <time>2012-05-13T07:31:56Z</time>
      </trkpt>
      <trkpt lat="44.09098" lon="3.05172">
        <ele>371</ele>
        <time>2012-05-13T07:31:58Z</time>
      </trkpt>
      <trkpt lat="44.091" lon="3.05166">
        <ele>371</ele>
        <time>2012-05-13T07:32:00Z</time>
      </trkpt>
      <trkpt lat="44.09103" lon="3.05161">
        <ele>372</ele>
        <time>2012-05-13T07:32:02Z</time>
      </trkpt>
      <trkpt lat="44.09107" lon="3.05156">
        <ele>372</ele>
        <time>2012-05-13T07:32:04Z</time>
      </trkpt>
      <trkpt lat="44.0911" lon="3.05151">
        <ele>373</ele>
        <time>2012-05-13T07:32:06Z</time>
      </trkpt>
      <trkpt lat="44.09113" lon="3.05145">
        <ele>373</ele>
        <time>2012-05-13T07:32:08Z</time>
      </trkpt>
      <trkpt lat="44.09116" lon="3.05139">
        <ele>373</ele>
        <time>2012-05-13T07:32:10Z</time>
      </trkpt>
      <trkpt lat="44.0912" lon="3.05133">
        <ele>372</ele>
        <time>2012-05-13T07:32:12Z</time>
      </trkpt>
      <trkpt lat="44.09122" lon="3.05128">
        <ele>372</ele>
        <time>2012-05-13T07:32:14Z</time>
      </trkpt>
      <trkpt lat="44.09126" lon="3.05123">
        <ele>372</ele>
        <time>2012-05-13T07:32:16Z</time>
      </trkpt>
      <trkpt lat="44.0913" lon="3.05118">
        <ele>372</ele>
        <time>2012-05-13T07:32:19Z</time>
      </trkpt>
      <trkpt lat="44.09134" lon="3.05113">
        <ele>373</ele>
        <time>2012-05-13T07:32:21Z</time>
      </trkpt>
      <trkpt lat="44.09137" lon="3.05107">
        <ele>373</ele>
        <time>2012-05-13T07:32:23Z</time>
      </trkpt>
      <trkpt lat="44.09141" lon="3.05102">
        <ele>372</ele>
        <time>2012-05-13T07:32:25Z</time>
      </trkpt>
      <trkpt lat="44.09146" lon="3.05094">
        <ele>372</ele>
        <time>2012-05-13T07:32:27Z</time>
      </trkpt>
      <trkpt lat="44.09149" lon="3.05089">
        <ele>372</ele>
        <time>2012-05-13T07:32:29Z</time>
      </trkpt>
      <trkpt lat="44.09152" lon="3.05084">
        <ele>372</ele>
        <time>2012-05-13T07:32:31Z</time>
      </trkpt>
      <trkpt lat="44.09155" lon="3.05079">
        <ele>371</ele>
        <time>2012-05-13T07:32:33Z</time>
      </trkpt>
      <trkpt lat="44.09158" lon="3.05074">
        <ele>371</ele>
        <time>2012-05-13T07:32:35Z</time>
      </trkpt>
      <trkpt lat="44.09161" lon="3.05068">
        <ele>370</ele>
        <time>2012-05-13T07:32:37Z</time>
      </trkpt>
      <trkpt lat="44.09164" lon="3.05063">
        <ele>370</ele>
        <time>2012-05-13T07:32:39Z</time>
      </trkpt>
      <trkpt lat="44.09166" lon="3.05057">
        <ele>369</ele>
        <time>2012-05-13T07:32:41Z</time>
      </trkpt>
      <trkpt lat="44.09169" lon="3.0505">
        <ele>369</ele>
        <time>2012-05-13T07:32:43Z</time>
      </trkpt>
      <trkpt lat="44.09172" lon="3.05044">
        <ele>369</ele>
        <time>2012-05-13T07:32:45Z</time>
      </trkpt>
      <trkpt lat="44.09175" lon="3.05038">
        <ele>369</ele>
        <time>2012-05-13T07:32:47Z</time>
      </trkpt>
      <trkpt lat="44.09178" lon="3.05032">
        <ele>369</ele>
        <time>2012-05-13T07:32:49Z</time>
      </trkpt>
      <trkpt lat="44.0918" lon="3.05025">
        <ele>368</ele>
        <time>2012-05-13T07:32:52Z</time>
      </trkpt>
      <trkpt lat="44.09182" lon="3.05019">
        <ele>368</ele>
        <time>2012-05-13T07:32:54Z</time>
      </trkpt>
      <trkpt lat="44.09184" lon="3.05012">
        <ele>367</ele>
        <time>2012-05-13T07:32:56Z</time>
      </trkpt>
      <trkpt lat="44.09187" lon="3.05007">
        <ele>367</ele>
        <time>2012-05-13T07:32:58Z</time>
      </trkpt>
      <trkpt lat="44.09188" lon="3.05">
        <ele>366</ele>
        <time>2012-05-13T07:33:00Z</time>
      </trkpt>
      <trkpt lat="44.09192" lon="3.0499">
        <ele>364</ele>
        <time>2012-05-13T07:33:02Z</time>
      </trkpt>
      <trkpt lat="44.09194" lon="3.04983">
        <ele>363</ele>
        <time>2012-05-13T07:33:04Z</time>
      </trkpt>
      <trkpt lat="44.09195" lon="3.04977">
        <ele>361</ele>
        <time>2012-05-13T07:33:06Z</time>
      </trkpt>
      <trkpt lat="44.09196" lon="3.0497">
        <ele>361</ele>
        <time>2012-05-13T07:33:08Z</time>
      </trkpt>
      <trkpt lat="44.09198" lon="3.04963">
        <ele>361</ele>
        <time>2012-05-13T07:33:10Z</time>
      </trkpt>
      <trkpt lat="44.09199" lon="3.04956">
        <ele>361</ele>
        <time>2012-05-13T07:33:12Z</time>
      </trkpt>
      <trkpt lat="44.092" lon="3.04949">
        <ele>360</ele>
        <time>2012-05-13T07:33:14Z</time>
      </trkpt>
      <trkpt lat="44.09201" lon="3.04943">
        <ele>360</ele>
        <time>2012-05-13T07:33:16Z</time>
      </trkpt>
      <trkpt lat="44.09202" lon="3.04936">
        <ele>360</ele>
        <time>2012-05-13T07:33:18Z</time>
      </trkpt>
      <trkpt lat="44.09204" lon="3.04929">
        <ele>360</ele>
        <time>2012-05-13T07:33:20Z</time>
      </trkpt>
      <trkpt lat="44.09204" lon="3.04923">
        <ele>361</ele>
        <time>2012-05-13T07:33:22Z</time>
      </trkpt>
      <trkpt lat="44.09206" lon="3.04917">
        <ele>361</ele>
        <time>2012-05-13T07:33:24Z</time>
      </trkpt>
      <trkpt lat="44.09208" lon="3.04911">
        <ele>362</ele>
        <time>2012-05-13T07:33:26Z</time>
      </trkpt>
      <trkpt lat="44.09209" lon="3.04904">
        <ele>363</ele>
        <time>2012-05-13T07:33:28Z</time>
      </trkpt>
      <trkpt lat="44.0921" lon="3.04898">
        <ele>363</ele>
        <time>2012-05-13T07:33:31Z</time>
      </trkpt>
      <trkpt lat="44.09212" lon="3.04891">
        <ele>364</ele>
        <time>2012-05-13T07:33:33Z</time>
      </trkpt>
      <trkpt lat="44.09213" lon="3.04885">
        <ele>364</ele>
        <time>2012-05-13T07:33:35Z</time>
      </trkpt>
      <trkpt lat="44.09214" lon="3.04878">
        <ele>365</ele>
        <time>2012-05-13T07:33:37Z</time>
      </trkpt>
      <trkpt lat="44.09215" lon="3.04868">
        <ele>365</ele>
        <time>2012-05-13T07:33:39Z</time>
      </trkpt>
      <trkpt lat="44.09217" lon="3.04862">
        <ele>366</ele>
        <time>2012-05-13T07:33:41Z</time>
      </trkpt>
      <trkpt lat="44.09218" lon="3.04856">
        <ele>366</ele>
        <time>2012-05-13T07:33:43Z</time>
      </trkpt>
      <trkpt lat="44.09219" lon="3.0485">
        <ele>367</ele>
        <time>2012-05-13T07:33:45Z</time>
      </trkpt>
      <trkpt lat="44.0922" lon="3.04843">
        <ele>367</ele>
        <time>2012-05-13T07:33:47Z</time>
      </trkpt>
      <trkpt lat="44.09221" lon="3.04836">
        <ele>368</ele>
        <time>2012-05-13T07:33:49Z</time>
      </trkpt>
      <trkpt lat="44.09221" lon="3.04829">
        <ele>368</ele>
        <time>2012-05-13T07:33:51Z</time>
      </trkpt>
      <trkpt lat="44.09222" lon="3.04822">
        <ele>368</ele>
        <time>2012-05-13T07:33:53Z</time>
      </trkpt>
      <trkpt lat="44.09221" lon="3.04814">
        <ele>368</ele>
        <time>2012-05-13T07:33:55Z</time>
      </trkpt>
      <trkpt lat="44.09221" lon="3.04807">
        <ele>368</ele>
        <time>2012-05-13T07:33:57Z</time>
      </trkpt>
      <trkpt lat="44.09221" lon="3.048">
        <ele>368</ele>
        <time>2012-05-13T07:33:59Z</time>
      </trkpt>
      <trkpt lat="44.09221" lon="3.04793">
        <ele>369</ele>
        <time>2012-05-13T07:34:01Z</time>
      </trkpt>
      <trkpt lat="44.09221" lon="3.04785">
        <ele>369</ele>
        <time>2012-05-13T07:34:03Z</time>
      </trkpt>
      <trkpt lat="44.0922" lon="3.04778">
        <ele>369</ele>
        <time>2012-05-13T07:34:05Z</time>
      </trkpt>
      <trkpt lat="44.09219" lon="3.04771">
        <ele>369</ele>
        <time>2012-05-13T07:34:08Z</time>
      </trkpt>
      <trkpt lat="44.09219" lon="3.04764">
        <ele>369</ele>
        <time>2012-05-13T07:34:10Z</time>
      </trkpt>
      <trkpt lat="44.09219" lon="3.04757">
        <ele>369</ele>
        <time>2012-05-13T07:34:12Z</time>
      </trkpt>
      <trkpt lat="44.09218" lon="3.04751">
        <ele>370</ele>
        <time>2012-05-13T07:34:14Z</time>
      </trkpt>
      <trkpt lat="44.09218" lon="3.04745">
        <ele>370</ele>
        <time>2012-05-13T07:34:16Z</time>
      </trkpt>
      <trkpt lat="44.09218" lon="3.04735">
        <ele>371</ele>
        <time>2012-05-13T07:34:18Z</time>
      </trkpt>
      <trkpt lat="44.09217" lon="3.04729">
        <ele>371</ele>
        <time>2012-05-13T07:34:20Z</time>
      </trkpt>
      <trkpt lat="44.09216" lon="3.04722">
        <ele>371</ele>
        <time>2012-05-13T07:34:22Z</time>
      </trkpt>
      <trkpt lat="44.09215" lon="3.04715">
        <ele>371</ele>
        <time>2012-05-13T07:34:24Z</time>
      </trkpt>
      <trkpt lat="44.09214" lon="3.04709">
        <ele>371</ele>
        <time>2012-05-13T07:34:26Z</time>
      </trkpt>
      <trkpt lat="44.09213" lon="3.04702">
        <ele>372</ele>
        <time>2012-05-13T07:34:28Z</time>
      </trkpt>
      <trkpt lat="44.09212" lon="3.04696">
        <ele>372</ele>
        <time>2012-05-13T07:34:30Z</time>
      </trkpt>
      <trkpt lat="44.09211" lon="3.04689">
        <ele>373</ele>
        <time>2012-05-13T07:34:32Z</time>
      </trkpt>
      <trkpt lat="44.0921" lon="3.04682">
        <ele>373</ele>
        <time>2012-05-13T07:34:34Z</time>
      </trkpt>
      <trkpt lat="44.09209" lon="3.04675">
        <ele>372</ele>
        <time>2012-05-13T07:34:36Z</time>
      </trkpt>
      <trkpt lat="44.09208" lon="3.04668">
        <ele>372</ele>
        <time>2012-05-13T07:34:38Z</time>
      </trkpt>
      <trkpt lat="44.09207" lon="3.04662">
        <ele>372</ele>
        <time>2012-05-13T07:34:40Z</time>
      </trkpt>
      <trkpt lat="44.09206" lon="3.04656">
        <ele>373</ele>
        <time>2012-05-13T07:34:42Z</time>
      </trkpt>
      <trkpt lat="44.09204" lon="3.0465">
        <ele>373</ele>
        <time>2012-05-13T07:34:45Z</time>
      </trkpt>
      <trkpt lat="44.09203" lon="3.04643">
        <ele>373</ele>
        <time>2012-05-13T07:34:47Z</time>
      </trkpt>
      <trkpt lat="44.09202" lon="3.04637">
        <ele>373</ele>
        <time>2012-05-13T07:34:49Z</time>
      </trkpt>
      <trkpt lat="44.09201" lon="3.04631">
        <ele>373</ele>
        <time>2012-05-13T07:34:51Z</time>
      </trkpt>
      <trkpt lat="44.092" lon="3.04624">
        <ele>374</ele>
        <time>2012-05-13T07:34:53Z</time>
      </trkpt>
      <trkpt lat="44.09197" lon="3.04613">
        <ele>374</ele>
        <time>2012-05-13T07:34:55Z</time>
      </trkpt>
      <trkpt lat="44.09196" lon="3.04607">
        <ele>373</ele>
        <time>2012-05-13T07:34:57Z</time>
      </trkpt>
      <trkpt lat="44.09195" lon="3.04601">
        <ele>373</ele>
        <time>2012-05-13T07:34:59Z</time>
      </trkpt>
      <trkpt lat="44.09193" lon="3.04595">
        <ele>373</ele>
        <time>2012-05-13T07:35:01Z</time>
      </trkpt>
      <trkpt lat="44.09192" lon="3.04589">
        <ele>372</ele>
        <time>2012-05-13T07:35:03Z</time>
      </trkpt>
      <trkpt lat="44.0919" lon="3.04581">
        <ele>372</ele>
        <time>2012-05-13T07:35:05Z</time>
      </trkpt>
      <trkpt lat="44.09189" lon="3.04574">
        <ele>371</ele>
        <time>2012-05-13T07:35:07Z</time>
      </trkpt>
      <trkpt lat="44.09187" lon="3.04568">
        <ele>371</ele>
        <time>2012-05-13T07:35:09Z</time>
      </trkpt>
      <trkpt lat="44.09186" lon="3.04562">
        <ele>371</ele>
        <time>2012-05-13T07:35:11Z</time>
      </trkpt>
      <trkpt lat="44.09184" lon="3.04556">
        <ele>371</ele>
        <time>2012-05-13T07:35:13Z</time>
      </trkpt>
      <trkpt lat="44.09182" lon="3.0455">
        <ele>371</ele>
        <time>2012-05-13T07:35:15Z</time>
      </trkpt>
      <trkpt lat="44.09181" lon="3.04544">
        <ele>372</ele>
        <time>2012-05-13T07:35:17Z</time>
      </trkpt>
      <trkpt lat="44.0918" lon="3.04537">
        <ele>372</ele>
        <time>2012-05-13T07:35:19Z</time>
      </trkpt>
      <trkpt lat="44.09178" lon="3.04531">
        <ele>373</ele>
        <time>2012-05-13T07:35:21Z</time>
      </trkpt>
      <trkpt lat="44.09176" lon="3.04525">
        <ele>374</ele>
        <time>2012-05-13T07:35:23Z</time>
      </trkpt>
      <trkpt lat="44.09175" lon="3.04519">
        <ele>374</ele>
        <time>2012-05-13T07:35:26Z</time>
      </trkpt>
      <trkpt lat="44.09173" lon="3.04513">
        <ele>374</ele>
        <time>2012-05-13T07:35:28Z</time>
      </trkpt>
      <trkpt lat="44.09172" lon="3.04507">
        <ele>374</ele>
        <time>2012-05-13T07:35:30Z</time>
      </trkpt>
      <trkpt lat="44.09171" lon="3.04501">
        <ele>374</ele>
        <time>2012-05-13T07:35:32Z</time>
      </trkpt>
      <trkpt lat="44.0917" lon="3.04495">
        <ele>374</ele>
        <time>2012-05-13T07:35:34Z</time>
      </trkpt>
      <trkpt lat="44.09168" lon="3.04488">
        <ele>373</ele>
        <time>2012-05-13T07:35:36Z</time>
      </trkpt>
      <trkpt lat="44.09167" lon="3.04482">
        <ele>373</ele>
        <time>2012-05-13T07:35:38Z</time>
      </trkpt>
      <trkpt lat="44.09166" lon="3.04476">
        <ele>372</ele>
        <time>2012-05-13T07:35:40Z</time>
      </trkpt>
      <trkpt lat="44.09164" lon="3.04469">
        <ele>371</ele>
        <time>2012-05-13T07:35:42Z</time>
      </trkpt>
      <trkpt lat="44.09163" lon="3.04463">
        <ele>371</ele>
        <time>2012-05-13T07:35:44Z</time>
      </trkpt>
      <trkpt lat="44.09161" lon="3.04456">
        <ele>371</ele>
        <time>2012-05-13T07:35:46Z</time>
      </trkpt>
      <trkpt lat="44.09161" lon="3.0445">
        <ele>371</ele>
        <time>2012-05-13T07:35:48Z</time>
      </trkpt>
      <trkpt lat="44.09159" lon="3.04443">
        <ele>371</ele>
        <time>2012-05-13T07:35:50Z</time>
      </trkpt>
      <trkpt lat="44.09157" lon="3.04433">
        <ele>370</ele>
        <time>2012-05-13T07:35:52Z</time>
      </trkpt>
      <trkpt lat="44.09157" lon="3.04427">
        <ele>369</ele>
        <time>2012-05-13T07:35:54Z</time>
      </trkpt>
      <trkpt lat="44.09156" lon="3.04421">
        <ele>369</ele>
        <time>2012-05-13T07:35:56Z</time>
      </trkpt>
      <trkpt lat="44.09155" lon="3.04414">
        <ele>369</ele>
        <time>2012-05-13T07:35:58Z</time>
      </trkpt>
      <trkpt lat="44.09153" lon="3.04408">
        <ele>369</ele>
        <time>2012-05-13T07:36:00Z</time>
      </trkpt>
      <trkpt lat="44.09152" lon="3.04401">
        <ele>370</ele>
        <time>2012-05-13T07:36:02Z</time>
      </trkpt>
      <trkpt lat="44.0915" lon="3.04395">
        <ele>370</ele>
        <time>2012-05-13T07:36:04Z</time>
      </trkpt>
      <trkpt lat="44.09149" lon="3.04388">
        <ele>371</ele>
        <time>2012-05-13T07:36:06Z</time>
      </trkpt>
      <trkpt lat="44.09148" lon="3.04381">
        <ele>371</ele>
        <time>2012-05-13T07:36:08Z</time>
      </trkpt>
      <trkpt lat="44.09146" lon="3.04375">
        <ele>371</ele>
        <time>2012-05-13T07:36:10Z</time>
      </trkpt>
      <trkpt lat="44.09145" lon="3.04368">
        <ele>371</ele>
        <time>2012-05-13T07:36:12Z</time>
      </trkpt>
      <trkpt lat="44.09144" lon="3.04362">
        <ele>370</ele>
        <time>2012-05-13T07:36:14Z</time>
      </trkpt>
      <trkpt lat="44.09143" lon="3.04355">
        <ele>370</ele>
        <time>2012-05-13T07:36:16Z</time>
      </trkpt>
      <trkpt lat="44.09143" lon="3.04348">
        <ele>369</ele>
        <time>2012-05-13T07:36:18Z</time>
      </trkpt>
      <trkpt lat="44.09142" lon="3.04342">
        <ele>368</ele>
        <time>2012-05-13T07:36:20Z</time>
      </trkpt>
      <trkpt lat="44.0914" lon="3.04335">
        <ele>368</ele>
        <time>2012-05-13T07:36:22Z</time>
      </trkpt>
      <trkpt lat="44.0914" lon="3.04328">
        <ele>368</ele>
        <time>2012-05-13T07:36:24Z</time>
      </trkpt>
      <trkpt lat="44.09139" lon="3.04322">
        <ele>368</ele>
        <time>2012-05-13T07:36:26Z</time>
      </trkpt>
      <trkpt lat="44.09139" lon="3.04315">
        <ele>368</ele>
        <time>2012-05-13T07:36:28Z</time>
      </trkpt>
      <trkpt lat="44.09138" lon="3.04308">
        <ele>368</ele>
        <time>2012-05-13T07:36:30Z</time>
      </trkpt>
      <trkpt lat="44.09138" lon="3.04302">
        <ele>368</ele>
        <time>2012-05-13T07:36:33Z</time>
      </trkpt>
      <trkpt lat="44.09138" lon="3.04295">
        <ele>367</ele>
        <time>2012-05-13T07:36:35Z</time>
      </trkpt>
      <trkpt lat="44.09138" lon="3.04288">
        <ele>367</ele>
        <time>2012-05-13T07:36:37Z</time>
      </trkpt>
      <trkpt lat="44.09138" lon="3.04281">
        <ele>367</ele>
        <time>2012-05-13T07:36:39Z</time>
      </trkpt>
      <trkpt lat="44.09139" lon="3.04275">
        <ele>366</ele>
        <time>2012-05-13T07:36:41Z</time>
      </trkpt>
      <trkpt lat="44.0914" lon="3.04266">
        <ele>366</ele>
        <time>2012-05-13T07:36:43Z</time>
      </trkpt>
      <trkpt lat="44.0914" lon="3.04259">
        <ele>366</ele>
        <time>2012-05-13T07:36:45Z</time>
      </trkpt>
      <trkpt lat="44.09141" lon="3.04253">
        <ele>366</ele>
        <time>2012-05-13T07:36:47Z</time>
      </trkpt>
      <trkpt lat="44.09142" lon="3.04247">
        <ele>366</ele>
        <time>2012-05-13T07:36:49Z</time>
      </trkpt>
      <trkpt lat="44.09142" lon="3.0424">
        <ele>366</ele>
        <time>2012-05-13T07:36:51Z</time>
      </trkpt>
      <trkpt lat="44.09143" lon="3.04234">
        <ele>366</ele>
        <time>2012-05-13T07:36:53Z</time>
      </trkpt>
      <trkpt lat="44.09143" lon="3.04227">
        <ele>366</ele>
        <time>2012-05-13T07:36:55Z</time>
      </trkpt>
      <trkpt lat="44.09145" lon="3.04221">
        <ele>366</ele>
        <time>2012-05-13T07:36:57Z</time>
      </trkpt>
      <trkpt lat="44.09146" lon="3.04214">
        <ele>366</ele>
        <time>2012-05-13T07:36:59Z</time>
      </trkpt>
      <trkpt lat="44.09147" lon="3.04207">
        <ele>366</ele>
        <time>2012-05-13T07:37:01Z</time>
      </trkpt>
      <trkpt lat="44.09149" lon="3.04201">
        <ele>366</ele>
        <time>2012-05-13T07:37:03Z</time>
      </trkpt>
      <trkpt lat="44.0915" lon="3.04194">
        <ele>366</ele>
        <time>2012-05-13T07:37:05Z</time>
      </trkpt>
      <trkpt lat="44.09152" lon="3.04188">
        <ele>365</ele>
        <time>2012-05-13T07:37:07Z</time>
      </trkpt>
      <trkpt lat="44.09154" lon="3.04182">
        <ele>365</ele>
        <time>2012-05-13T07:37:09Z</time>
      </trkpt>
      <trkpt lat="44.09156" lon="3.04176">
        <ele>366</ele>
        <time>2012-05-13T07:37:12Z</time>
      </trkpt>
      <trkpt lat="44.09157" lon="3.0417">
        <ele>366</ele>
        <time>2012-05-13T07:37:14Z</time>
      </trkpt>
      <trkpt lat="44.0916" lon="3.04163">
        <ele>365</ele>
        <time>2012-05-13T07:37:16Z</time>
      </trkpt>
      <trkpt lat="44.09162" lon="3.04157">
        <ele>365</ele>
        <time>2012-05-13T07:37:18Z</time>
      </trkpt>
      <trkpt lat="44.09164" lon="3.04151">
        <ele>364</ele>
        <time>2012-05-13T07:37:20Z</time>
      </trkpt>
      <trkpt lat="44.09167" lon="3.04146">
        <ele>364</ele>
        <time>2012-05-13T07:37:22Z</time>
      </trkpt>
      <trkpt lat="44.0917" lon="3.0414">
        <ele>363</ele>
        <time>2012-05-13T07:37:24Z</time>
      </trkpt>
      <trkpt lat="44.09173" lon="3.04135">
        <ele>362</ele>
        <time>2012-05-13T07:37:26Z</time>
      </trkpt>
      <trkpt lat="44.09176" lon="3.0413">
        <ele>362</ele>
        <time>2012-05-13T07:37:28Z</time>
      </trkpt>
      <trkpt lat="44.09179" lon="3.04124">
        <ele>362</ele>
        <time>2012-05-13T07:37:30Z</time>
      </trkpt>
      <trkpt lat="44.09182" lon="3.04119">
        <ele>363</ele>
        <time>2012-05-13T07:37:32Z</time>
      </trkpt>
      <trkpt lat="44.09185" lon="3.04114">
        <ele>363</ele>
        <time>2012-05-13T07:37:34Z</time>
      </trkpt>
      <trkpt lat="44.09188" lon="3.04109">
        <ele>363</ele>
        <time>2012-05-13T07:37:36Z</time>
      </trkpt>
      <trkpt lat="44.09192" lon="3.04101">
        <ele>363</ele>
        <time>2012-05-13T07:37:38Z</time>
      </trkpt>
      <trkpt lat="44.09196" lon="3.04096">
        <ele>363</ele>
        <time>2012-05-13T07:37:40Z</time>
      </trkpt>
      <trkpt lat="44.09199" lon="3.04092">
        <ele>363</ele>
        <time>2012-05-13T07:37:42Z</time>
      </trkpt>
      <trkpt lat="44.09202" lon="3.04087">
        <ele>363</ele>
        <time>2012-05-13T07:37:44Z</time>
      </trkpt>
      <trkpt lat="44.09205" lon="3.04083">
        <ele>363</ele>
        <time>2012-05-13T07:37:46Z</time>
      </trkpt>
      <trkpt lat="44.09208" lon="3.04078">
        <ele>363</ele>
        <time>2012-05-13T07:37:48Z</time>
      </trkpt>
      <trkpt lat="44.09211" lon="3.04073">
        <ele>363</ele>
        <time>2012-05-13T07:37:50Z</time>
      </trkpt>
      <trkpt lat="44.09215" lon="3.04068">
        <ele>363</ele>
        <time>2012-05-13T07:37:52Z</time>
      </trkpt>
      <trkpt lat="44.09218" lon="3.04063">
        <ele>363</ele>
        <time>2012-05-13T07:37:54Z</time>
      </trkpt>
      <trkpt lat="44.09221" lon="3.04057">
        <ele>363</ele>
        <time>2012-05-13T07:37:56Z</time>
      </trkpt>
      <trkpt lat="44.09224" lon="3.04052">
        <ele>363</ele>
        <time>2012-05-13T07:37:58Z</time>
      </trkpt>
      <trkpt lat="44.09227" lon="3.04047">
        <ele>363</ele>
        <time>2012-05-13T07:38:00Z</time>
      </trkpt>
      <trkpt lat="44.0923" lon="3.04042">
        <ele>363</ele>
        <time>2012-05-13T07:38:02Z</time>
      </trkpt>
      <trkpt lat="44.09233" lon="3.04037">
        <ele>363</ele>
        <time>2012-05-13T07:38:04Z</time>
      </trkpt>
      <trkpt lat="44.09237" lon="3.04032">
        <ele>363</ele>
        <time>2012-05-13T07:38:06Z</time>
      </trkpt>
      <trkpt lat="44.09239" lon="3.04027">
        <ele>363</ele>
        <time>2012-05-13T07:38:08Z</time>
      </trkpt>
      <trkpt lat="44.09242" lon="3.04022">
        <ele>363</ele>
        <time>2012-05-13T07:38:10Z</time>
      </trkpt>
      <trkpt lat="44.09245" lon="3.04017">
        <ele>363</ele>
        <time>2012-05-13T07:38:12Z</time>
      </trkpt>
      <trkpt lat="44.09248" lon="3.04013">
        <ele>363</ele>
        <time>2012-05-13T07:38:14Z</time>
      </trkpt>
      <trkpt lat="44.09252" lon="3.04008">
        <ele>363</ele>
        <time>2012-05-13T07:38:16Z</time>
      </trkpt>
      <trkpt lat="44.09256" lon="3.04004">
        <ele>363</ele>
        <time>2012-05-13T07:38:18Z</time>
      </trkpt>
      <trkpt lat="44.09259" lon="3.04">
        <ele>363</ele>
        <time>2012-05-13T07:38:20Z</time>
      </trkpt>
      <trkpt lat="44.09263" lon="3.03995">
        <ele>363</ele>
        <time>2012-05-13T07:38:22Z</time>
      </trkpt>
      <trkpt lat="44.09266" lon="3.03991">
        <ele>363</ele>
        <time>2012-05-13T07:38:24Z</time>
      </trkpt>
      <trkpt lat="44.09269" lon="3.03986">
        <ele>364</ele>
        <time>2012-05-13T07:38:26Z</time>
      </trkpt>
      <trkpt lat="44.09272" lon="3.0398">
        <ele>364</ele>
        <time>2012-05-13T07:38:28Z</time>
      </trkpt>
      <trkpt lat="44.09276" lon="3.03976">
        <ele>364</ele>
        <time>2012-05-13T07:38:30Z</time>
      </trkpt>
      <trkpt lat="44.09279" lon="3.03971">
        <ele>365</ele>
        <time>2012-05-13T07:38:32Z</time>
      </trkpt>
      <trkpt lat="44.09282" lon="3.03966">
        <ele>365</ele>
        <time>2012-05-13T07:38:34Z</time>
      </trkpt>
      <trkpt lat="44.09285" lon="3.03961">
        <ele>365</ele>
        <time>2012-05-13T07:38:36Z</time>
      </trkpt>
      <trkpt lat="44.09288" lon="3.03957">
        <ele>365</ele>
        <time>2012-05-13T07:38:38Z</time>
      </trkpt>
      <trkpt lat="44.09291" lon="3.03952">
        <ele>365</ele>
        <time>2012-05-13T07:38:40Z</time>
      </trkpt>
      <trkpt lat="44.09294" lon="3.03947">
        <ele>365</ele>
        <time>2012-05-13T07:38:42Z</time>
      </trkpt>
      <trkpt lat="44.09297" lon="3.03942">
        <ele>365</ele>
        <time>2012-05-13T07:38:45Z</time>
      </trkpt>
      <trkpt lat="44.09301" lon="3.03937">
        <ele>366</ele>
        <time>2012-05-13T07:38:47Z</time>
      </trkpt>
      <trkpt lat="44.09304" lon="3.03932">
        <ele>366</ele>
        <time>2012-05-13T07:38:49Z</time>
      </trkpt>
      <trkpt lat="44.09307" lon="3.03927">
        <ele>366</ele>
        <time>2012-05-13T07:38:51Z</time>
      </trkpt>
      <trkpt lat="44.09309" lon="3.03922">
        <ele>366</ele>
        <time>2012-05-13T07:38:53Z</time>
      </trkpt>
      <trkpt lat="44.09312" lon="3.03917">
        <ele>366</ele>
        <time>2012-05-13T07:38:55Z</time>
      </trkpt>
      <trkpt lat="44.09315" lon="3.03911">
        <ele>365</ele>
        <time>2012-05-13T07:38:57Z</time>
      </trkpt>
      <trkpt lat="44.09319" lon="3.03906">
        <ele>364</ele>
        <time>2012-05-13T07:38:59Z</time>
      </trkpt>
      <trkpt lat="44.09322" lon="3.03901">
        <ele>363</ele>
        <time>2012-05-13T07:39:01Z</time>
      </trkpt>
      <trkpt lat="44.09325" lon="3.03896">
        <ele>362</ele>
        <time>2012-05-13T07:39:03Z</time>
      </trkpt>
      <trkpt lat="44.09328" lon="3.03892">
        <ele>362</ele>
        <time>2012-05-13T07:39:05Z</time>
      </trkpt>
      <trkpt lat="44.09331" lon="3.03888">
        <ele>361</ele>
        <time>2012-05-13T07:39:07Z</time>
      </trkpt>
      <trkpt lat="44.09336" lon="3.0388">
        <ele>361</ele>
        <time>2012-05-13T07:39:09Z</time>
      </trkpt>
      <trkpt lat="44.09339" lon="3.03875">
        <ele>361</ele>
        <time>2012-05-13T07:39:11Z</time>
      </trkpt>
      <trkpt lat="44.09342" lon="3.0387">
        <ele>362</ele>
        <time>2012-05-13T07:39:13Z</time>
      </trkpt>
      <trkpt lat="44.09344" lon="3.03864">
        <ele>362</ele>
        <time>2012-05-13T07:39:15Z</time>
      </trkpt>
      <trkpt lat="44.09347" lon="3.03859">
        <ele>363</ele>
        <time>2012-05-13T07:39:17Z</time>
      </trkpt>
      <trkpt lat="44.09349" lon="3.03853">
        <ele>363</ele>
        <time>2012-05-13T07:39:19Z</time>
      </trkpt>
      <trkpt lat="44.09352" lon="3.03847">
        <ele>364</ele>
        <time>2012-05-13T07:39:21Z</time>
      </trkpt>
      <trkpt lat="44.09354" lon="3.03842">
        <ele>364</ele>
        <time>2012-05-13T07:39:23Z</time>
      </trkpt>
      <trkpt lat="44.09357" lon="3.03836">
        <ele>364</ele>
        <time>2012-05-13T07:39:25Z</time>
      </trkpt>
      <trkpt lat="44.09359" lon="3.03831">
        <ele>364</ele>
        <time>2012-05-13T07:39:27Z</time>
      </trkpt>
      <trkpt lat="44.09361" lon="3.03825">
        <ele>364</ele>
        <time>2012-05-13T07:39:29Z</time>
      </trkpt>
      <trkpt lat="44.09364" lon="3.03818">
        <ele>365</ele>
        <time>2012-05-13T07:39:31Z</time>
      </trkpt>
      <trkpt lat="44.09367" lon="3.03812">
        <ele>365</ele>
        <time>2012-05-13T07:39:33Z</time>
      </trkpt>
      <trkpt lat="44.09369" lon="3.03806">
        <ele>365</ele>
        <time>2012-05-13T07:39:35Z</time>
      </trkpt>
      <trkpt lat="44.09372" lon="3.038">
        <ele>365</ele>
        <time>2012-05-13T07:39:37Z</time>
      </trkpt>
      <trkpt lat="44.09374" lon="3.03794">
        <ele>364</ele>
        <time>2012-05-13T07:39:39Z</time>
      </trkpt>
      <trkpt lat="44.09376" lon="3.03788">
        <ele>364</ele>
        <time>2012-05-13T07:39:41Z</time>
      </trkpt>
      <trkpt lat="44.09379" lon="3.03782">
        <ele>364</ele>
        <time>2012-05-13T07:39:43Z</time>
      </trkpt>
      <trkpt lat="44.09381" lon="3.03776">
        <ele>363</ele>
        <time>2012-05-13T07:39:45Z</time>
      </trkpt>
      <trkpt lat="44.09383" lon="3.03769">
        <ele>362</ele>
        <time>2012-05-13T07:39:47Z</time>
      </trkpt>
      <trkpt lat="44.09385" lon="3.03763">
        <ele>361</ele>
        <time>2012-05-13T07:39:49Z</time>
      </trkpt>
      <trkpt lat="44.09386" lon="3.03756">
        <ele>361</ele>
        <time>2012-05-13T07:39:51Z</time>
      </trkpt>
      <trkpt lat="44.09389" lon="3.0375">
        <ele>360</ele>
        <time>2012-05-13T07:39:53Z</time>
      </trkpt>
      <trkpt lat="44.09391" lon="3.03744">
        <ele>359</ele>
        <time>2012-05-13T07:39:55Z</time>
      </trkpt>
      <trkpt lat="44.09394" lon="3.03737">
        <ele>359</ele>
        <time>2012-05-13T07:39:57Z</time>
      </trkpt>
      <trkpt lat="44.09396" lon="3.03731">
        <ele>359</ele>
        <time>2012-05-13T07:39:59Z</time>
      </trkpt>
      <trkpt lat="44.09397" lon="3.03725">
        <ele>358</ele>
        <time>2012-05-13T07:40:01Z</time>
      </trkpt>
      <trkpt lat="44.09399" lon="3.03718">
        <ele>358</ele>
        <time>2012-05-13T07:40:03Z</time>
      </trkpt>
      <trkpt lat="44.09401" lon="3.03712">
        <ele>358</ele>
        <time>2012-05-13T07:40:05Z</time>
      </trkpt>
      <trkpt lat="44.09402" lon="3.03705">
        <ele>358</ele>
        <time>2012-05-13T07:40:07Z</time>
      </trkpt>
      <trkpt lat="44.09404" lon="3.03698">
        <ele>358</ele>
        <time>2012-05-13T07:40:09Z</time>
      </trkpt>
      <trkpt lat="44.09405" lon="3.03693">
        <ele>358</ele>
        <time>2012-05-13T07:40:11Z</time>
      </trkpt>
      <trkpt lat="44.09407" lon="3.03686">
        <ele>357</ele>
        <time>2012-05-13T07:40:13Z</time>
      </trkpt>
      <trkpt lat="44.09408" lon="3.03679">
        <ele>357</ele>
        <time>2012-05-13T07:40:16Z</time>
      </trkpt>
      <trkpt lat="44.09409" lon="3.03673">
        <ele>357</ele>
        <time>2012-05-13T07:40:18Z</time>
      </trkpt>
      <trkpt lat="44.0941" lon="3.03666">
        <ele>357</ele>
        <time>2012-05-13T07:40:20Z</time>
      </trkpt>
      <trkpt lat="44.09412" lon="3.0366">
        <ele>357</ele>
        <time>2012-05-13T07:40:22Z</time>
      </trkpt>
      <trkpt lat="44.09413" lon="3.03653">
        <ele>357</ele>
        <time>2012-05-13T07:40:24Z</time>
      </trkpt>
      <trkpt lat="44.09414" lon="3.03647">
        <ele>357</ele>
        <time>2012-05-13T07:40:26Z</time>
      </trkpt>
      <trkpt lat="44.09415" lon="3.0364">
        <ele>357</ele>
        <time>2012-05-13T07:40:28Z</time>
      </trkpt>
      <trkpt lat="44.09415" lon="3.03634">
        <ele>357</ele>
        <time>2012-05-13T07:40:30Z</time>
      </trkpt>
      <trkpt lat="44.09415" lon="3.03627">
        <ele>357</ele>
        <time>2012-05-13T07:40:32Z</time>
      </trkpt>
      <trkpt lat="44.09416" lon="3.03621">
        <ele>357</ele>
        <time>2012-05-13T07:40:34Z</time>
      </trkpt>
      <trkpt lat="44.09416" lon="3.03614">
        <ele>358</ele>
        <time>2012-05-13T07:40:36Z</time>
      </trkpt>
      <trkpt lat="44.09417" lon="3.03607">
        <ele>358</ele>
        <time>2012-05-13T07:40:38Z</time>
      </trkpt>
      <trkpt lat="44.09417" lon="3.036">
        <ele>359</ele>
        <time>2012-05-13T07:40:40Z</time>
      </trkpt>
      <trkpt lat="44.09418" lon="3.0359">
        <ele>358</ele>
        <time>2012-05-13T07:40:42Z</time>
      </trkpt>
      <trkpt lat="44.09418" lon="3.03584">
        <ele>358</ele>
        <time>2012-05-13T07:40:44Z</time>
      </trkpt>
      <trkpt lat="44.09419" lon="3.03576">
        <ele>358</ele>
        <time>2012-05-13T07:40:46Z</time>
      </trkpt>
      <trkpt lat="44.0942" lon="3.0357">
        <ele>358</ele>
        <time>2012-05-13T07:40:48Z</time>
      </trkpt>
      <trkpt lat="44.0942" lon="3.03563">
        <ele>358</ele>
        <time>2012-05-13T07:40:50Z</time>
      </trkpt>
      <trkpt lat="44.09421" lon="3.03556">
        <ele>357</ele>
        <time>2012-05-13T07:40:52Z</time>
      </trkpt>
      <trkpt lat="44.09421" lon="3.03548">
        <ele>357</ele>
        <time>2012-05-13T07:40:54Z</time>
      </trkpt>
      <trkpt lat="44.09422" lon="3.03541">
        <ele>356</ele>
        <time>2012-05-13T07:40:56Z</time>
      </trkpt>
      <trkpt lat="44.09422" lon="3.03534">
        <ele>355</ele>
        <time>2012-05-13T07:40:58Z</time>
      </trkpt>
      <trkpt lat="44.09423" lon="3.03527">
        <ele>354</ele>
        <time>2012-05-13T07:41:00Z</time>
      </trkpt>
      <trkpt lat="44.09424" lon="3.0352">
        <ele>354</ele>
        <time>2012-05-13T07:41:02Z</time>
      </trkpt>
      <trkpt lat="44.09424" lon="3.03513">
        <ele>353</ele>
        <time>2012-05-13T07:41:04Z</time>
      </trkpt>
      <trkpt lat="44.09425" lon="3.03506">
        <ele>353</ele>
        <time>2012-05-13T07:41:06Z</time>
      </trkpt>
      <trkpt lat="44.09425" lon="3.035">
        <ele>353</ele>
        <time>2012-05-13T07:41:08Z</time>
      </trkpt>
      <trkpt lat="44.09426" lon="3.03494">
        <ele>353</ele>
        <time>2012-05-13T07:41:10Z</time>
      </trkpt>
      <trkpt lat="44.09426" lon="3.03487">
        <ele>353</ele>
        <time>2012-05-13T07:41:12Z</time>
      </trkpt>
      <trkpt lat="44.09427" lon="3.0348">
        <ele>353</ele>
        <time>2012-05-13T07:41:14Z</time>
      </trkpt>
      <trkpt lat="44.09428" lon="3.03473">
        <ele>353</ele>
        <time>2012-05-13T07:41:16Z</time>
      </trkpt>
      <trkpt lat="44.09429" lon="3.03467">
        <ele>353</ele>
        <time>2012-05-13T07:41:18Z</time>
      </trkpt>
      <trkpt lat="44.09429" lon="3.03461">
        <ele>353</ele>
        <time>2012-05-13T07:41:20Z</time>
      </trkpt>
      <trkpt lat="44.0943" lon="3.03454">
        <ele>353</ele>
        <time>2012-05-13T07:41:22Z</time>
      </trkpt>
      <trkpt lat="44.09431" lon="3.03448">
        <ele>353</ele>
        <time>2012-05-13T07:41:24Z</time>
      </trkpt>
      <trkpt lat="44.09432" lon="3.03442">
        <ele>353</ele>
        <time>2012-05-13T07:41:26Z</time>
      </trkpt>
      <trkpt lat="44.09433" lon="3.03435">
        <ele>352</ele>
        <time>2012-05-13T07:41:28Z</time>
      </trkpt>
      <trkpt lat="44.09433" lon="3.03428">
        <ele>352</ele>
        <time>2012-05-13T07:41:30Z</time>
      </trkpt>
      <trkpt lat="44.09433" lon="3.03421">
        <ele>352</ele>
        <time>2012-05-13T07:41:32Z</time>
      </trkpt>
      <trkpt lat="44.09433" lon="3.03415">
        <ele>351</ele>
        <time>2012-05-13T07:41:34Z</time>
      </trkpt>
      <trkpt lat="44.09433" lon="3.03409">
        <ele>351</ele>
        <time>2012-05-13T07:41:36Z</time>
      </trkpt>
      <trkpt lat="44.09433" lon="3.03401">
        <ele>351</ele>
        <time>2012-05-13T07:41:38Z</time>
      </trkpt>
      <trkpt lat="44.09432" lon="3.03395">
        <ele>351</ele>
        <time>2012-05-13T07:41:40Z</time>
      </trkpt>
      <trkpt lat="44.09431" lon="3.03387">
        <ele>352</ele>
        <time>2012-05-13T07:41:42Z</time>
      </trkpt>
      <trkpt lat="44.09431" lon="3.03381">
        <ele>352</ele>
        <time>2012-05-13T07:41:44Z</time>
      </trkpt>
      <trkpt lat="44.0943" lon="3.03375">
        <ele>353</ele>
        <time>2012-05-13T07:41:46Z</time>
      </trkpt>
      <trkpt lat="44.09429" lon="3.03368">
        <ele>352</ele>
        <time>2012-05-13T07:41:48Z</time>
      </trkpt>
      <trkpt lat="44.09428" lon="3.03362">
        <ele>352</ele>
        <time>2012-05-13T07:41:51Z</time>
      </trkpt>
      <trkpt lat="44.09427" lon="3.03356">
        <ele>353</ele>
        <time>2012-05-13T07:41:53Z</time>
      </trkpt>
      <trkpt lat="44.09426" lon="3.0335">
        <ele>353</ele>
        <time>2012-05-13T07:41:55Z</time>
      </trkpt>
      <trkpt lat="44.09424" lon="3.03343">
        <ele>354</ele>
        <time>2012-05-13T07:41:57Z</time>
      </trkpt>
      <trkpt lat="44.09422" lon="3.03337">
        <ele>354</ele>
        <time>2012-05-13T07:41:59Z</time>
      </trkpt>
      <trkpt lat="44.0942" lon="3.0333">
        <ele>355</ele>
        <time>2012-05-13T07:42:01Z</time>
      </trkpt>
      <trkpt lat="44.09419" lon="3.03324">
        <ele>355</ele>
        <time>2012-05-13T07:42:03Z</time>
      </trkpt>
      <trkpt lat="44.09418" lon="3.03317">
        <ele>355</ele>
        <time>2012-05-13T07:42:05Z</time>
      </trkpt>
      <trkpt lat="44.09416" lon="3.03311">
        <ele>355</ele>
        <time>2012-05-13T07:42:07Z</time>
      </trkpt>
      <trkpt lat="44.09415" lon="3.03305">
        <ele>356</ele>
        <time>2012-05-13T07:42:09Z</time>
      </trkpt>
      <trkpt lat="44.09413" lon="3.03299">
        <ele>357</ele>
        <time>2012-05-13T07:42:11Z</time>
      </trkpt>
      <trkpt lat="44.09411" lon="3.03293">
        <ele>358</ele>
        <time>2012-05-13T07:42:13Z</time>
      </trkpt>
      <trkpt lat="44.09409" lon="3.03287">
        <ele>359</ele>
        <time>2012-05-13T07:42:15Z</time>
      </trkpt>
      <trkpt lat="44.09407" lon="3.03277">
        <ele>360</ele>
        <time>2012-05-13T07:42:17Z</time>
      </trkpt>
      <trkpt lat="44.09404" lon="3.03272">
        <ele>361</ele>
        <time>2012-05-13T07:42:19Z</time>
      </trkpt>
      <trkpt lat="44.09402" lon="3.03266">
        <ele>362</ele>
        <time>2012-05-13T07:42:21Z</time>
      </trkpt>
      <trkpt lat="44.09401" lon="3.03259">
        <ele>363</ele>
        <time>2012-05-13T07:42:23Z</time>
      </trkpt>
      <trkpt lat="44.09398" lon="3.03252">
        <ele>363</ele>
        <time>2012-05-13T07:42:25Z</time>
      </trkpt>
      <trkpt lat="44.09396" lon="3.03245">
        <ele>363</ele>
        <time>2012-05-13T07:42:27Z</time>
      </trkpt>
      <trkpt lat="44.09394" lon="3.03239">
        <ele>362</ele>
        <time>2012-05-13T07:42:29Z</time>
      </trkpt>
      <trkpt lat="44.09391" lon="3.03233">
        <ele>362</ele>
        <time>2012-05-13T07:42:31Z</time>
      </trkpt>
      <trkpt lat="44.09389" lon="3.03228">
        <ele>362</ele>
        <time>2012-05-13T07:42:33Z</time>
      </trkpt>
      <trkpt lat="44.09387" lon="3.03222">
        <ele>362</ele>
        <time>2012-05-13T07:42:35Z</time>
      </trkpt>
      <trkpt lat="44.09385" lon="3.03216">
        <ele>363</ele>
        <time>2012-05-13T07:42:37Z</time>
      </trkpt>
      <trkpt lat="44.09382" lon="3.03211">
        <ele>363</ele>
        <time>2012-05-13T07:42:39Z</time>
      </trkpt>
      <trkpt lat="44.0938" lon="3.03205">
        <ele>363</ele>
        <time>2012-05-13T07:42:41Z</time>
      </trkpt>
      <trkpt lat="44.09378" lon="3.032">
        <ele>363</ele>
        <time>2012-05-13T07:42:43Z</time>
      </trkpt>
      <trkpt lat="44.09375" lon="3.03195">
        <ele>363</ele>
        <time>2012-05-13T07:42:45Z</time>
      </trkpt>
      <trkpt lat="44.09372" lon="3.03189">
        <ele>363</ele>
        <time>2012-05-13T07:42:47Z</time>
      </trkpt>
      <trkpt lat="44.0937" lon="3.03183">
        <ele>363</ele>
        <time>2012-05-13T07:42:49Z</time>
      </trkpt>
      <trkpt lat="44.09367" lon="3.03177">
        <ele>363</ele>
        <time>2012-05-13T07:42:51Z</time>
      </trkpt>
      <trkpt lat="44.09365" lon="3.03172">
        <ele>364</ele>
        <time>2012-05-13T07:42:53Z</time>
      </trkpt>
      <trkpt lat="44.09362" lon="3.03168">
        <ele>364</ele>
        <time>2012-05-13T07:42:55Z</time>
      </trkpt>
      <trkpt lat="44.09358" lon="3.03163">
        <ele>365</ele>
        <time>2012-05-13T07:42:57Z</time>
      </trkpt>
      <trkpt lat="44.09355" lon="3.03158">
        <ele>365</ele>
        <time>2012-05-13T07:42:59Z</time>
      </trkpt>
      <trkpt lat="44.09352" lon="3.03153">
        <ele>365</ele>
        <time>2012-05-13T07:43:01Z</time>
      </trkpt>
      <trkpt lat="44.09349" lon="3.03147">
        <ele>366</ele>
        <time>2012-05-13T07:43:03Z</time>
      </trkpt>
      <trkpt lat="44.09346" lon="3.03142">
        <ele>367</ele>
        <time>2012-05-13T07:43:05Z</time>
      </trkpt>
      <trkpt lat="44.09343" lon="3.03137">
        <ele>368</ele>
        <time>2012-05-13T07:43:07Z</time>
      </trkpt>
      <trkpt lat="44.09339" lon="3.03132">
        <ele>369</ele>
        <time>2012-05-13T07:43:09Z</time>
      </trkpt>
      <trkpt lat="44.09336" lon="3.03128">
        <ele>370</ele>
        <time>2012-05-13T07:43:11Z</time>
      </trkpt>
      <trkpt lat="44.09333" lon="3.03124">
        <ele>371</ele>
        <time>2012-05-13T07:43:13Z</time>
      </trkpt>
      <trkpt lat="44.09329" lon="3.0312">
        <ele>372</ele>
        <time>2012-05-13T07:43:15Z</time>
      </trkpt>
      <trkpt lat="44.09325" lon="3.03116">
        <ele>374</ele>
        <time>2012-05-13T07:43:17Z</time>
      </trkpt>
      <trkpt lat="44.09322" lon="3.03113">
        <ele>375</ele>
        <time>2012-05-13T07:43:19Z</time>
      </trkpt>
      <trkpt lat="44.09319" lon="3.03109">
        <ele>377</ele>
        <time>2012-05-13T07:43:22Z</time>
      </trkpt>
      <trkpt lat="44.09315" lon="3.03106">
        <ele>379</ele>
        <time>2012-05-13T07:43:24Z</time>
      </trkpt>
      <trkpt lat="44.0931" lon="3.03101">
        <ele>380</ele>
        <time>2012-05-13T07:43:26Z</time>
      </trkpt>
      <trkpt lat="44.09306" lon="3.03096">
        <ele>382</ele>
        <time>2012-05-13T07:43:28Z</time>
      </trkpt>
      <trkpt lat="44.09301" lon="3.0309">
        <ele>384</ele>
        <time>2012-05-13T07:43:30Z</time>
      </trkpt>
      <trkpt lat="44.09298" lon="3.03086">
        <ele>385</ele>
        <time>2012-05-13T07:43:32Z</time>
      </trkpt>
      <trkpt lat="44.09293" lon="3.03082">
        <ele>387</ele>
        <time>2012-05-13T07:43:34Z</time>
      </trkpt>
      <trkpt lat="44.0929" lon="3.03078">
        <ele>389</ele>
        <time>2012-05-13T07:43:36Z</time>
      </trkpt>
      <trkpt lat="44.09285" lon="3.03074">
        <ele>391</ele>
        <time>2012-05-13T07:43:38Z</time>
      </trkpt>
      <trkpt lat="44.09282" lon="3.03069">
        <ele>393</ele>
        <time>2012-05-13T07:43:40Z</time>
      </trkpt>
      <trkpt lat="44.09278" lon="3.03065">
        <ele>393</ele>
        <time>2012-05-13T07:43:42Z</time>
      </trkpt>
      <trkpt lat="44.09274" lon="3.03061">
        <ele>394</ele>
        <time>2012-05-13T07:43:44Z</time>
      </trkpt>
      <trkpt lat="44.0927" lon="3.03057">
        <ele>394</ele>
        <time>2012-05-13T07:43:46Z</time>
      </trkpt>
      <trkpt lat="44.09266" lon="3.03052">
        <ele>394</ele>
        <time>2012-05-13T07:43:48Z</time>
      </trkpt>
      <trkpt lat="44.0926" lon="3.03046">
        <ele>395</ele>
        <time>2012-05-13T07:43:50Z</time>
      </trkpt>
      <trkpt lat="44.09256" lon="3.03043">
        <ele>395</ele>
        <time>2012-05-13T07:43:52Z</time>
      </trkpt>
      <trkpt lat="44.09252" lon="3.03039">
        <ele>395</ele>
        <time>2012-05-13T07:43:54Z</time>
      </trkpt>
      <trkpt lat="44.09248" lon="3.03035">
        <ele>395</ele>
        <time>2012-05-13T07:43:56Z</time>
      </trkpt>
      <trkpt lat="44.09243" lon="3.03031">
        <ele>395</ele>
        <time>2012-05-13T07:43:58Z</time>
      </trkpt>
      <trkpt lat="44.09239" lon="3.03028">
        <ele>396</ele>
        <time>2012-05-13T07:44:00Z</time>
      </trkpt>
      <trkpt lat="44.09235" lon="3.03024">
        <ele>396</ele>
        <time>2012-05-13T07:44:02Z</time>
      </trkpt>
      <trkpt lat="44.09231" lon="3.03022">
        <ele>396</ele>
        <time>2012-05-13T07:44:04Z</time>
      </trkpt>
      <trkpt lat="44.09227" lon="3.03018">
        <ele>396</ele>
        <time>2012-05-13T07:44:06Z</time>
      </trkpt>
      <trkpt lat="44.09222" lon="3.03015">
        <ele>396</ele>
        <time>2012-05-13T07:44:08Z</time>
      </trkpt>
      <trkpt lat="44.09218" lon="3.03011">
        <ele>396</ele>
        <time>2012-05-13T07:44:10Z</time>
      </trkpt>
      <trkpt lat="44.09214" lon="3.03008">
        <ele>396</ele>
        <time>2012-05-13T07:44:12Z</time>
      </trkpt>
      <trkpt lat="44.0921" lon="3.03004">
        <ele>395</ele>
        <time>2012-05-13T07:44:14Z</time>
      </trkpt>
      <trkpt lat="44.09206" lon="3.03001">
        <ele>395</ele>
        <time>2012-05-13T07:44:16Z</time>
      </trkpt>
      <trkpt lat="44.09202" lon="3.02997">
        <ele>394</ele>
        <time>2012-05-13T07:44:18Z</time>
      </trkpt>
      <trkpt lat="44.09198" lon="3.02993">
        <ele>394</ele>
        <time>2012-05-13T07:44:20Z</time>
      </trkpt>
      <trkpt lat="44.09194" lon="3.02989">
        <ele>393</ele>
        <time>2012-05-13T07:44:22Z</time>
      </trkpt>
      <trkpt lat="44.0919" lon="3.02986">
        <ele>393</ele>
        <time>2012-05-13T07:44:24Z</time>
      </trkpt>
      <trkpt lat="44.09185" lon="3.02982">
        <ele>393</ele>
        <time>2012-05-13T07:44:26Z</time>
      </trkpt>
      <trkpt lat="44.09181" lon="3.02978">
        <ele>393</ele>
        <time>2012-05-13T07:44:28Z</time>
      </trkpt>
      <trkpt lat="44.09177" lon="3.02974">
        <ele>392</ele>
        <time>2012-05-13T07:44:30Z</time>
      </trkpt>
      <trkpt lat="44.09173" lon="3.0297">
        <ele>391</ele>
        <time>2012-05-13T07:44:32Z</time>
      </trkpt>
      <trkpt lat="44.09169" lon="3.02967">
        <ele>389</ele>
        <time>2012-05-13T07:44:34Z</time>
      </trkpt>
      <trkpt lat="44.09165" lon="3.02963">
        <ele>388</ele>
        <time>2012-05-13T07:44:36Z</time>
      </trkpt>
      <trkpt lat="44.09161" lon="3.02959">
        <ele>387</ele>
        <time>2012-05-13T07:44:38Z</time>
      </trkpt>
      <trkpt lat="44.09157" lon="3.02954">
        <ele>386</ele>
        <time>2012-05-13T07:44:40Z</time>
      </trkpt>
      <trkpt lat="44.09153" lon="3.02951">
        <ele>384</ele>
        <time>2012-05-13T07:44:42Z</time>
      </trkpt>
      <trkpt lat="44.0915" lon="3.02947">
        <ele>383</ele>
        <time>2012-05-13T07:44:44Z</time>
      </trkpt>
      <trkpt lat="44.09145" lon="3.02943">
        <ele>381</ele>
        <time>2012-05-13T07:44:46Z</time>
      </trkpt>
      <trkpt lat="44.09142" lon="3.02939">
        <ele>380</ele>
        <time>2012-05-13T07:44:48Z</time>
      </trkpt>
      <trkpt lat="44.09137" lon="3.02936">
        <ele>380</ele>
        <time>2012-05-13T07:44:50Z</time>
      </trkpt>
      <trkpt lat="44.09133" lon="3.02932">
        <ele>379</ele>
        <time>2012-05-13T07:44:52Z</time>
      </trkpt>
      <trkpt lat="44.09129" lon="3.02928">
        <ele>379</ele>
        <time>2012-05-13T07:44:54Z</time>
      </trkpt>
      <trkpt lat="44.09125" lon="3.02924">
        <ele>378</ele>
        <time>2012-05-13T07:44:57Z</time>
      </trkpt>
      <trkpt lat="44.09121" lon="3.0292">
        <ele>378</ele>
        <time>2012-05-13T07:44:59Z</time>
      </trkpt>
      <trkpt lat="44.09118" lon="3.02915">
        <ele>376</ele>
        <time>2012-05-13T07:45:01Z</time>
      </trkpt>
      <trkpt lat="44.09114" lon="3.02911">
        <ele>375</ele>
        <time>2012-05-13T07:45:03Z</time>
      </trkpt>
      <trkpt lat="44.09111" lon="3.02906">
        <ele>374</ele>
        <time>2012-05-13T07:45:05Z</time>
      </trkpt>
      <trkpt lat="44.09105" lon="3.02901">
        <ele>373</ele>
        <time>2012-05-13T07:45:07Z</time>
      </trkpt>
      <trkpt lat="44.09101" lon="3.02897">
        <ele>373</ele>
        <time>2012-05-13T07:45:09Z</time>
      </trkpt>
      <trkpt lat="44.09097" lon="3.02894">
        <ele>373</ele>
        <time>2012-05-13T07:45:11Z</time>
      </trkpt>
      <trkpt lat="44.09094" lon="3.0289">
        <ele>372</ele>
        <time>2012-05-13T07:45:13Z</time>
      </trkpt>
      <trkpt lat="44.0909" lon="3.02887">
        <ele>372</ele>
        <time>2012-05-13T07:45:15Z</time>
      </trkpt>
      <trkpt lat="44.09086" lon="3.02883">
        <ele>372</ele>
        <time>2012-05-13T07:45:17Z</time>
      </trkpt>
      <trkpt lat="44.09082" lon="3.0288">
        <ele>372</ele>
        <time>2012-05-13T07:45:19Z</time>
      </trkpt>
      <trkpt lat="44.09078" lon="3.02877">
        <ele>371</ele>
        <time>2012-05-13T07:45:21Z</time>
      </trkpt>
      <trkpt lat="44.09075" lon="3.02874">
        <ele>371</ele>
        <time>2012-05-13T07:45:23Z</time>
      </trkpt>
      <trkpt lat="44.09071" lon="3.0287">
        <ele>370</ele>
        <time>2012-05-13T07:45:25Z</time>
      </trkpt>
      <trkpt lat="44.09066" lon="3.02867">
        <ele>370</ele>
        <time>2012-05-13T07:45:27Z</time>
      </trkpt>
      <trkpt lat="44.09062" lon="3.02864">
        <ele>370</ele>
        <time>2012-05-13T07:45:29Z</time>
      </trkpt>
      <trkpt lat="44.09058" lon="3.02861">
        <ele>370</ele>
        <time>2012-05-13T07:45:31Z</time>
      </trkpt>
      <trkpt lat="44.09054" lon="3.0286">
        <ele>369</ele>
        <time>2012-05-13T07:45:33Z</time>
      </trkpt>
      <trkpt lat="44.09049" lon="3.02858">
        <ele>369</ele>
        <time>2012-05-13T07:45:35Z</time>
      </trkpt>
      <trkpt lat="44.09045" lon="3.02856">
        <ele>369</ele>
        <time>2012-05-13T07:45:37Z</time>
      </trkpt>
      <trkpt lat="44.09041" lon="3.02854">
        <ele>368</ele>
        <time>2012-05-13T07:45:39Z</time>
      </trkpt>
      <trkpt lat="44.09037" lon="3.02852">
        <ele>368</ele>
        <time>2012-05-13T07:45:41Z</time>
      </trkpt>
      <trkpt lat="44.09032" lon="3.02851">
        <ele>367</ele>
        <time>2012-05-13T07:45:43Z</time>
      </trkpt>
      <trkpt lat="44.09028" lon="3.02849">
        <ele>367</ele>
        <time>2012-05-13T07:45:45Z</time>
      </trkpt>
      <trkpt lat="44.09023" lon="3.02848">
        <ele>366</ele>
        <time>2012-05-13T07:45:47Z</time>
      </trkpt>
      <trkpt lat="44.09019" lon="3.02846">
        <ele>366</ele>
        <time>2012-05-13T07:45:49Z</time>
      </trkpt>
      <trkpt lat="44.09015" lon="3.02845">
        <ele>366</ele>
        <time>2012-05-13T07:45:51Z</time>
      </trkpt>
      <trkpt lat="44.0901" lon="3.02844">
        <ele>366</ele>
        <time>2012-05-13T07:45:53Z</time>
      </trkpt>
      <trkpt lat="44.09006" lon="3.02842">
        <ele>367</ele>
        <time>2012-05-13T07:45:55Z</time>
      </trkpt>
      <trkpt lat="44.09001" lon="3.0284">
        <ele>367</ele>
        <time>2012-05-13T07:45:57Z</time>
      </trkpt>
      <trkpt lat="44.08997" lon="3.02838">
        <ele>367</ele>
        <time>2012-05-13T07:45:59Z</time>
      </trkpt>
      <trkpt lat="44.08992" lon="3.02836">
        <ele>367</ele>
        <time>2012-05-13T07:46:01Z</time>
      </trkpt>
      <trkpt lat="44.08988" lon="3.02835">
        <ele>368</ele>
        <time>2012-05-13T07:46:03Z</time>
      </trkpt>
      <trkpt lat="44.08983" lon="3.02833">
        <ele>368</ele>
        <time>2012-05-13T07:46:05Z</time>
      </trkpt>
      <trkpt lat="44.08979" lon="3.02832">
        <ele>369</ele>
        <time>2012-05-13T07:46:07Z</time>
      </trkpt>
      <trkpt lat="44.08974" lon="3.0283">
        <ele>369</ele>
        <time>2012-05-13T07:46:09Z</time>
      </trkpt>
      <trkpt lat="44.08969" lon="3.02828">
        <ele>369</ele>
        <time>2012-05-13T07:46:11Z</time>
      </trkpt>
      <trkpt lat="44.08965" lon="3.02826">
        <ele>370</ele>
        <time>2012-05-13T07:46:14Z</time>
      </trkpt>
      <trkpt lat="44.0896" lon="3.02824">
        <ele>370</ele>
        <time>2012-05-13T07:46:16Z</time>
      </trkpt>
      <trkpt lat="44.08955" lon="3.02821">
        <ele>370</ele>
        <time>2012-05-13T07:46:18Z</time>
      </trkpt>
      <trkpt lat="44.0895" lon="3.02819">
        <ele>370</ele>
        <time>2012-05-13T07:46:20Z</time>
      </trkpt>
      <trkpt lat="44.08946" lon="3.02817">
        <ele>371</ele>
        <time>2012-05-13T07:46:22Z</time>
      </trkpt>
      <trkpt lat="44.08942" lon="3.02815">
        <ele>371</ele>
        <time>2012-05-13T07:46:24Z</time>
      </trkpt>
      <trkpt lat="44.08938" lon="3.02813">
        <ele>372</ele>
        <time>2012-05-13T07:46:26Z</time>
      </trkpt>
      <trkpt lat="44.08934" lon="3.0281">
        <ele>372</ele>
        <time>2012-05-13T07:46:28Z</time>
      </trkpt>
      <trkpt lat="44.08929" lon="3.02808">
        <ele>372</ele>
        <time>2012-05-13T07:46:30Z</time>
      </trkpt>
      <trkpt lat="44.08924" lon="3.02805">
        <ele>372</ele>
        <time>2012-05-13T07:46:32Z</time>
      </trkpt>
      <trkpt lat="44.08921" lon="3.02802">
        <ele>372</ele>
        <time>2012-05-13T07:46:34Z</time>
      </trkpt>
      <trkpt lat="44.08916" lon="3.02799">
        <ele>372</ele>
        <time>2012-05-13T07:46:36Z</time>
      </trkpt>
      <trkpt lat="44.08912" lon="3.02795">
        <ele>371</ele>
        <time>2012-05-13T07:46:38Z</time>
      </trkpt>
      <trkpt lat="44.08908" lon="3.02791">
        <ele>370</ele>
        <time>2012-05-13T07:46:40Z</time>
      </trkpt>
      <trkpt lat="44.08902" lon="3.02785">
        <ele>369</ele>
        <time>2012-05-13T07:46:42Z</time>
      </trkpt>
      <trkpt lat="44.08898" lon="3.02782">
        <ele>368</ele>
        <time>2012-05-13T07:46:44Z</time>
      </trkpt>
      <trkpt lat="44.08894" lon="3.02778">
        <ele>368</ele>
        <time>2012-05-13T07:46:46Z</time>
      </trkpt>
      <trkpt lat="44.0889" lon="3.02774">
        <ele>367</ele>
        <time>2012-05-13T07:46:48Z</time>
      </trkpt>
      <trkpt lat="44.08886" lon="3.0277">
        <ele>367</ele>
        <time>2012-05-13T07:46:50Z</time>
      </trkpt>
      <trkpt lat="44.08882" lon="3.02766">
        <ele>367</ele>
        <time>2012-05-13T07:46:52Z</time>
      </trkpt>
      <trkpt lat="44.08878" lon="3.02762">
        <ele>367</ele>
        <time>2012-05-13T07:46:54Z</time>
      </trkpt>
      <trkpt lat="44.08874" lon="3.02758">
        <ele>367</ele>
        <time>2012-05-13T07:46:56Z</time>
      </trkpt>
      <trkpt lat="44.0887" lon="3.02753">
        <ele>367</ele>
        <time>2012-05-13T07:46:58Z</time>
      </trkpt>
      <trkpt lat="44.08866" lon="3.0275">
        <ele>367</ele>
        <time>2012-05-13T07:47:00Z</time>
      </trkpt>
      <trkpt lat="44.08862" lon="3.02746">
        <ele>367</ele>
        <time>2012-05-13T07:47:02Z</time>
      </trkpt>
      <trkpt lat="44.08858" lon="3.02742">
        <ele>367</ele>
        <time>2012-05-13T07:47:04Z</time>
      </trkpt>
      <trkpt lat="44.08855" lon="3.02738">
        <ele>366</ele>
        <time>2012-05-13T07:47:06Z</time>
      </trkpt>
      <trkpt lat="44.08851" lon="3.02735">
        <ele>366</ele>
        <time>2012-05-13T07:47:08Z</time>
      </trkpt>
      <trkpt lat="44.08848" lon="3.02731">
        <ele>366</ele>
        <time>2012-05-13T07:47:10Z</time>
      </trkpt>
      <trkpt lat="44.08844" lon="3.02726">
        <ele>366</ele>
        <time>2012-05-13T07:47:12Z</time>
      </trkpt>
      <trkpt lat="44.08843" lon="3.0272">
        <ele>367</ele>
        <time>2012-05-13T07:47:14Z</time>
      </trkpt>
      <trkpt lat="44.08842" lon="3.02714">
        <ele>367</ele>
        <time>2012-05-13T07:47:16Z</time>
      </trkpt>
      <trkpt lat="44.08843" lon="3.02708">
        <ele>366</ele>
        <time>2012-05-13T07:47:18Z</time>
      </trkpt>
      <trkpt lat="44.08845" lon="3.02703">
        <ele>366</ele>
        <time>2012-05-13T07:47:20Z</time>
      </trkpt>
      <trkpt lat="44.08846" lon="3.02697">
        <ele>365</ele>
        <time>2012-05-13T07:47:22Z</time>
      </trkpt>
      <trkpt lat="44.08846" lon="3.02692">
        <ele>365</ele>
        <time>2012-05-13T07:47:24Z</time>
      </trkpt>
      <trkpt lat="44.08845" lon="3.02687">
        <ele>365</ele>
        <time>2012-05-13T07:47:26Z</time>
      </trkpt>
      <trkpt lat="44.08844" lon="3.02683">
        <ele>366</ele>
        <time>2012-05-13T07:47:28Z</time>
      </trkpt>
      <trkpt lat="44.08841" lon="3.02679">
        <ele>366</ele>
        <time>2012-05-13T07:47:30Z</time>
      </trkpt>
      <trkpt lat="44.08839" lon="3.02675">
        <ele>367</ele>
        <time>2012-05-13T07:47:32Z</time>
      </trkpt>
      <trkpt lat="44.08837" lon="3.02671">
        <ele>368</ele>
        <time>2012-05-13T07:47:34Z</time>
      </trkpt>
      <trkpt lat="44.08834" lon="3.02667">
        <ele>368</ele>
        <time>2012-05-13T07:47:36Z</time>
      </trkpt>
      <trkpt lat="44.08832" lon="3.02663">
        <ele>369</ele>
        <time>2012-05-13T07:47:38Z</time>
      </trkpt>
      <trkpt lat="44.0883" lon="3.0266">
        <ele>370</ele>
        <time>2012-05-13T07:47:40Z</time>
      </trkpt>
      <trkpt lat="44.08827" lon="3.02656">
        <ele>370</ele>
        <time>2012-05-13T07:47:42Z</time>
      </trkpt>
      <trkpt lat="44.08825" lon="3.02652">
        <ele>371</ele>
        <time>2012-05-13T07:47:44Z</time>
      </trkpt>
      <trkpt lat="44.08822" lon="3.02649">
        <ele>372</ele>
        <time>2012-05-13T07:47:46Z</time>
      </trkpt>
      <trkpt lat="44.08819" lon="3.02645">
        <ele>372</ele>
        <time>2012-05-13T07:47:49Z</time>
      </trkpt>
      <trkpt lat="44.08817" lon="3.02642">
        <ele>373</ele>
        <time>2012-05-13T07:47:51Z</time>
      </trkpt>
      <trkpt lat="44.08814" lon="3.0264">
        <ele>373</ele>
        <time>2012-05-13T07:47:53Z</time>
      </trkpt>
      <trkpt lat="44.08811" lon="3.02637">
        <ele>373</ele>
        <time>2012-05-13T07:47:55Z</time>
      </trkpt>
      <trkpt lat="44.08808" lon="3.02634">
        <ele>374</ele>
        <time>2012-05-13T07:47:57Z</time>
      </trkpt>
      <trkpt lat="44.08805" lon="3.0263">
        <ele>374</ele>
        <time>2012-05-13T07:47:59Z</time>
      </trkpt>
      <trkpt lat="44.08802" lon="3.02627">
        <ele>375</ele>
        <time>2012-05-13T07:48:01Z</time>
      </trkpt>
      <trkpt lat="44.08799" lon="3.02623">
        <ele>375</ele>
        <time>2012-05-13T07:48:03Z</time>
      </trkpt>
      <trkpt lat="44.08796" lon="3.02619">
        <ele>376</ele>
        <time>2012-05-13T07:48:05Z</time>
      </trkpt>
      <trkpt lat="44.08793" lon="3.02615">
        <ele>376</ele>
        <time>2012-05-13T07:48:07Z</time>
      </trkpt>
      <trkpt lat="44.08789" lon="3.02612">
        <ele>376</ele>
        <time>2012-05-13T07:48:09Z</time>
      </trkpt>
      <trkpt lat="44.08786" lon="3.02609">
        <ele>376</ele>
        <time>2012-05-13T07:48:11Z</time>
      </trkpt>
      <trkpt lat="44.08783" lon="3.02606">
        <ele>376</ele>
        <time>2012-05-13T07:48:13Z</time>
      </trkpt>
      <trkpt lat="44.08779" lon="3.02603">
        <ele>376</ele>
        <time>2012-05-13T07:48:15Z</time>
      </trkpt>
      <trkpt lat="44.08776" lon="3.02599">
        <ele>376</ele>
        <time>2012-05-13T07:48:17Z</time>
      </trkpt>
      <trkpt lat="44.08772" lon="3.02594">
        <ele>376</ele>
        <time>2012-05-13T07:48:19Z</time>
      </trkpt>
      <trkpt lat="44.08768" lon="3.0259">
        <ele>376</ele>
        <time>2012-05-13T07:48:21Z</time>
      </trkpt>
      <trkpt lat="44.08765" lon="3.02587">
        <ele>376</ele>
        <time>2012-05-13T07:48:23Z</time>
      </trkpt>
      <trkpt lat="44.08761" lon="3.02583">
        <ele>376</ele>
        <time>2012-05-13T07:48:25Z</time>
      </trkpt>
      <trkpt lat="44.08758" lon="3.02578">
        <ele>378</ele>
        <time>2012-05-13T07:48:27Z</time>
      </trkpt>
      <trkpt lat="44.08756" lon="3.02575">
        <ele>379</ele>
        <time>2012-05-13T07:48:29Z</time>
      </trkpt>
      <trkpt lat="44.08754" lon="3.02571">
        <ele>381</ele>
        <time>2012-05-13T07:48:31Z</time>
      </trkpt>
      <trkpt lat="44.08751" lon="3.02567">
        <ele>382</ele>
        <time>2012-05-13T07:48:33Z</time>
      </trkpt>
      <trkpt lat="44.08749" lon="3.02562">
        <ele>382</ele>
        <time>2012-05-13T07:48:35Z</time>
      </trkpt>
      <trkpt lat="44.08747" lon="3.02558">
        <ele>383</ele>
        <time>2012-05-13T07:48:37Z</time>
      </trkpt>
      <trkpt lat="44.08746" lon="3.02554">
        <ele>383</ele>
        <time>2012-05-13T07:48:39Z</time>
      </trkpt>
      <trkpt lat="44.08744" lon="3.0255">
        <ele>384</ele>
        <time>2012-05-13T07:48:41Z</time>
      </trkpt>
      <trkpt lat="44.08742" lon="3.02546">
        <ele>384</ele>
        <time>2012-05-13T07:48:43Z</time>
      </trkpt>
      <trkpt lat="44.08741" lon="3.02542">
        <ele>384</ele>
        <time>2012-05-13T07:48:45Z</time>
      </trkpt>
      <trkpt lat="44.08739" lon="3.02538">
        <ele>384</ele>
        <time>2012-05-13T07:48:47Z</time>
      </trkpt>
      <trkpt lat="44.08737" lon="3.02534">
        <ele>384</ele>
        <time>2012-05-13T07:48:49Z</time>
      </trkpt>
      <trkpt lat="44.08735" lon="3.02529">
        <ele>383</ele>
        <time>2012-05-13T07:48:51Z</time>
      </trkpt>
      <trkpt lat="44.08734" lon="3.02524">
        <ele>383</ele>
        <time>2012-05-13T07:48:53Z</time>
      </trkpt>
      <trkpt lat="44.08732" lon="3.0252">
        <ele>383</ele>
        <time>2012-05-13T07:48:55Z</time>
      </trkpt>
      <trkpt lat="44.0873" lon="3.02516">
        <ele>383</ele>
        <time>2012-05-13T07:48:57Z</time>
      </trkpt>
      <trkpt lat="44.08729" lon="3.02512">
        <ele>383</ele>
        <time>2012-05-13T07:48:59Z</time>
      </trkpt>
      <trkpt lat="44.08728" lon="3.02508">
        <ele>383</ele>
        <time>2012-05-13T07:49:01Z</time>
      </trkpt>
      <trkpt lat="44.08727" lon="3.02504">
        <ele>383</ele>
        <time>2012-05-13T07:49:03Z</time>
      </trkpt>
      <trkpt lat="44.08725" lon="3.025">
        <ele>383</ele>
        <time>2012-05-13T07:49:05Z</time>
      </trkpt>
      <trkpt lat="44.08725" lon="3.02496">
        <ele>383</ele>
        <time>2012-05-13T07:49:07Z</time>
      </trkpt>
      <trkpt lat="44.08723" lon="3.02492">
        <ele>383</ele>
        <time>2012-05-13T07:49:09Z</time>
      </trkpt>
      <trkpt lat="44.08722" lon="3.02488">
        <ele>383</ele>
        <time>2012-05-13T07:49:11Z</time>
      </trkpt>
      <trkpt lat="44.08721" lon="3.02484">
        <ele>383</ele>
        <time>2012-05-13T07:49:13Z</time>
      </trkpt>
      <trkpt lat="44.0872" lon="3.02479">
        <ele>383</ele>
        <time>2012-05-13T07:49:15Z</time>
      </trkpt>
      <trkpt lat="44.0872" lon="3.02474">
        <ele>384</ele>
        <time>2012-05-13T07:49:18Z</time>
      </trkpt>
      <trkpt lat="44.08719" lon="3.0247">
        <ele>384</ele>
        <time>2012-05-13T07:49:20Z</time>
      </trkpt>
      <trkpt lat="44.08719" lon="3.02464">
        <ele>385</ele>
        <time>2012-05-13T07:49:22Z</time>
      </trkpt>
      <trkpt lat="44.08718" lon="3.02459">
        <ele>385</ele>
        <time>2012-05-13T07:49:24Z</time>
      </trkpt>
      <trkpt lat="44.08717" lon="3.02454">
        <ele>385</ele>
        <time>2012-05-13T07:49:26Z</time>
      </trkpt>
      <trkpt lat="44.08717" lon="3.02449">
        <ele>386</ele>
        <time>2012-05-13T07:49:28Z</time>
      </trkpt>
      <trkpt lat="44.08715" lon="3.02445">
        <ele>386</ele>
        <time>2012-05-13T07:49:30Z</time>
      </trkpt>
      <trkpt lat="44.08715" lon="3.0244">
        <ele>387</ele>
        <time>2012-05-13T07:49:32Z</time>
      </trkpt>
      <trkpt lat="44.08714" lon="3.02436">
        <ele>388</ele>
        <time>2012-05-13T07:49:34Z</time>
      </trkpt>
      <trkpt lat="44.08713" lon="3.02431">
        <ele>389</ele>
        <time>2012-05-13T07:49:36Z</time>
      </trkpt>
      <trkpt lat="44.08711" lon="3.02427">
        <ele>389</ele>
        <time>2012-05-13T07:49:38Z</time>
      </trkpt>
      <trkpt lat="44.08709" lon="3.02423">
        <ele>390</ele>
        <time>2012-05-13T07:49:40Z</time>
      </trkpt>
      <trkpt lat="44.08707" lon="3.02419">
        <ele>390</ele>
        <time>2012-05-13T07:49:42Z</time>
      </trkpt>
      <trkpt lat="44.08706" lon="3.02415">
        <ele>391</ele>
        <time>2012-05-13T07:49:44Z</time>
      </trkpt>
      <trkpt lat="44.08704" lon="3.02409">
        <ele>391</ele>
        <time>2012-05-13T07:49:46Z</time>
      </trkpt>
      <trkpt lat="44.08702" lon="3.02406">
        <ele>391</ele>
        <time>2012-05-13T07:49:48Z</time>
      </trkpt>
      <trkpt lat="44.08701" lon="3.02401">
        <ele>391</ele>
        <time>2012-05-13T07:49:50Z</time>
      </trkpt>
      <trkpt lat="44.087" lon="3.02397">
        <ele>390</ele>
        <time>2012-05-13T07:49:52Z</time>
      </trkpt>
      <trkpt lat="44.08698" lon="3.02393">
        <ele>390</ele>
        <time>2012-05-13T07:49:54Z</time>
      </trkpt>
      <trkpt lat="44.08697" lon="3.0239">
        <ele>389</ele>
        <time>2012-05-13T07:49:56Z</time>
      </trkpt>
      <trkpt lat="44.08696" lon="3.02385">
        <ele>388</ele>
        <time>2012-05-13T07:49:58Z</time>
      </trkpt>
      <trkpt lat="44.08696" lon="3.02381">
        <ele>387</ele>
        <time>2012-05-13T07:50:00Z</time>
      </trkpt>
      <trkpt lat="44.08694" lon="3.02377">
        <ele>387</ele>
        <time>2012-05-13T07:50:02Z</time>
      </trkpt>
      <trkpt lat="44.08694" lon="3.02372">
        <ele>387</ele>
        <time>2012-05-13T07:50:04Z</time>
      </trkpt>
      <trkpt lat="44.08693" lon="3.02368">
        <ele>387</ele>
        <time>2012-05-13T07:50:06Z</time>
      </trkpt>
      <trkpt lat="44.08693" lon="3.02363">
        <ele>387</ele>
        <time>2012-05-13T07:50:08Z</time>
      </trkpt>
      <trkpt lat="44.08692" lon="3.02358">
        <ele>387</ele>
        <time>2012-05-13T07:50:10Z</time>
      </trkpt>
      <trkpt lat="44.08692" lon="3.02353">
        <ele>387</ele>
        <time>2012-05-13T07:50:12Z</time>
      </trkpt>
      <trkpt lat="44.08692" lon="3.02348">
        <ele>387</ele>
        <time>2012-05-13T07:50:14Z</time>
      </trkpt>
      <trkpt lat="44.08691" lon="3.02343">
        <ele>388</ele>
        <time>2012-05-13T07:50:16Z</time>
      </trkpt>
      <trkpt lat="44.08691" lon="3.02338">
        <ele>388</ele>
        <time>2012-05-13T07:50:18Z</time>
      </trkpt>
      <trkpt lat="44.08691" lon="3.02333">
        <ele>389</ele>
        <time>2012-05-13T07:50:20Z</time>
      </trkpt>
      <trkpt lat="44.08691" lon="3.02329">
        <ele>390</ele>
        <time>2012-05-13T07:50:22Z</time>
      </trkpt>
      <trkpt lat="44.08691" lon="3.02324">
        <ele>391</ele>
        <time>2012-05-13T07:50:24Z</time>
      </trkpt>
      <trkpt lat="44.08691" lon="3.02319">
        <ele>391</ele>
        <time>2012-05-13T07:50:26Z</time>
      </trkpt>
      <trkpt lat="44.08691" lon="3.02314">
        <ele>392</ele>
        <time>2012-05-13T07:50:29Z</time>
      </trkpt>
      <trkpt lat="44.08691" lon="3.02309">
        <ele>392</ele>
        <time>2012-05-13T07:50:31Z</time>
      </trkpt>
      <trkpt lat="44.0869" lon="3.02305">
        <ele>393</ele>
        <time>2012-05-13T07:50:33Z</time>
      </trkpt>
      <trkpt lat="44.08689" lon="3.023">
        <ele>393</ele>
        <time>2012-05-13T07:50:35Z</time>
      </trkpt>
      <trkpt lat="44.08689" lon="3.02295">
        <ele>394</ele>
        <time>2012-05-13T07:50:37Z</time>
      </trkpt>
      <trkpt lat="44.08688" lon="3.02291">
        <ele>394</ele>
        <time>2012-05-13T07:50:39Z</time>
      </trkpt>
      <trkpt lat="44.08688" lon="3.02286">
        <ele>395</ele>
        <time>2012-05-13T07:50:41Z</time>
      </trkpt>
      <trkpt lat="44.08686" lon="3.0228">
        <ele>395</ele>
        <time>2012-05-13T07:50:43Z</time>
      </trkpt>
      <trkpt lat="44.08685" lon="3.02276">
        <ele>395</ele>
        <time>2012-05-13T07:50:45Z</time>
      </trkpt>
      <trkpt lat="44.08683" lon="3.02271">
        <ele>396</ele>
        <time>2012-05-13T07:50:47Z</time>
      </trkpt>
      <trkpt lat="44.08681" lon="3.02266">
        <ele>396</ele>
        <time>2012-05-13T07:50:49Z</time>
      </trkpt>
      <trkpt lat="44.0868" lon="3.02261">
        <ele>396</ele>
        <time>2012-05-13T07:50:51Z</time>
      </trkpt>
      <trkpt lat="44.08679" lon="3.02257">
        <ele>396</ele>
        <time>2012-05-13T07:50:53Z</time>
      </trkpt>
      <trkpt lat="44.08678" lon="3.02252">
        <ele>396</ele>
        <time>2012-05-13T07:50:55Z</time>
      </trkpt>
      <trkpt lat="44.08676" lon="3.02247">
        <ele>396</ele>
        <time>2012-05-13T07:50:57Z</time>
      </trkpt>
      <trkpt lat="44.08675" lon="3.02242">
        <ele>396</ele>
        <time>2012-05-13T07:50:59Z</time>
      </trkpt>
      <trkpt lat="44.08673" lon="3.02237">
        <ele>397</ele>
        <time>2012-05-13T07:51:01Z</time>
      </trkpt>
      <trkpt lat="44.08672" lon="3.02233">
        <ele>397</ele>
        <time>2012-05-13T07:51:03Z</time>
      </trkpt>
      <trkpt lat="44.0867" lon="3.02228">
        <ele>397</ele>
        <time>2012-05-13T07:51:05Z</time>
      </trkpt>
      <trkpt lat="44.08669" lon="3.02223">
        <ele>397</ele>
        <time>2012-05-13T07:51:07Z</time>
      </trkpt>
      <trkpt lat="44.08668" lon="3.02219">
        <ele>397</ele>
        <time>2012-05-13T07:51:09Z</time>
      </trkpt>
      <trkpt lat="44.08667" lon="3.02213">
        <ele>397</ele>
        <time>2012-05-13T07:51:11Z</time>
      </trkpt>
      <trkpt lat="44.08666" lon="3.02208">
        <ele>397</ele>
        <time>2012-05-13T07:51:13Z</time>
      </trkpt>
      <trkpt lat="44.08668" lon="3.02202">
        <ele>397</ele>
        <time>2012-05-13T07:51:16Z</time>
      </trkpt>
      <trkpt lat="44.08671" lon="3.02198">
        <ele>397</ele>
        <time>2012-05-13T07:51:18Z</time>
      </trkpt>
      <trkpt lat="44.08675" lon="3.02195">
        <ele>397</ele>
        <time>2012-05-13T07:51:20Z</time>
      </trkpt>
      <trkpt lat="44.0868" lon="3.02195">
        <ele>397</ele>
        <time>2012-05-13T07:51:22Z</time>
      </trkpt>
      <trkpt lat="44.08683" lon="3.02198">
        <ele>397</ele>
        <time>2012-05-13T07:51:24Z</time>
      </trkpt>
      <trkpt lat="44.08686" lon="3.02202">
        <ele>398</ele>
        <time>2012-05-13T07:51:26Z</time>
      </trkpt>
      <trkpt lat="44.08689" lon="3.02206">
        <ele>398</ele>
        <time>2012-05-13T07:51:28Z</time>
      </trkpt>
      <trkpt lat="44.08692" lon="3.0221">
        <ele>398</ele>
        <time>2012-05-13T07:51:30Z</time>
      </trkpt>
      <trkpt lat="44.08694" lon="3.02214">
        <ele>398</ele>
        <time>2012-05-13T07:51:32Z</time>
      </trkpt>
      <trkpt lat="44.08697" lon="3.02218">
        <ele>398</ele>
        <time>2012-05-13T07:51:34Z</time>
      </trkpt>
      <trkpt lat="44.08699" lon="3.02221">
        <ele>398</ele>
        <time>2012-05-13T07:51:36Z</time>
      </trkpt>
      <trkpt lat="44.08702" lon="3.02227">
        <ele>398</ele>
        <time>2012-05-13T07:51:38Z</time>
      </trkpt>
      <trkpt lat="44.08705" lon="3.02231">
        <ele>398</ele>
        <time>2012-05-13T07:51:40Z</time>
      </trkpt>
      <trkpt lat="44.08708" lon="3.02235">
        <ele>397</ele>
        <time>2012-05-13T07:51:42Z</time>
      </trkpt>
      <trkpt lat="44.0871" lon="3.02238">
        <ele>397</ele>
        <time>2012-05-13T07:51:44Z</time>
      </trkpt>
      <trkpt lat="44.08713" lon="3.02242">
        <ele>397</ele>
        <time>2012-05-13T07:51:46Z</time>
      </trkpt>
      <trkpt lat="44.08715" lon="3.02246">
        <ele>398</ele>
        <time>2012-05-13T07:51:48Z</time>
      </trkpt>
      <trkpt lat="44.08717" lon="3.02249">
        <ele>398</ele>
        <time>2012-05-13T07:51:50Z</time>
      </trkpt>
      <trkpt lat="44.0872" lon="3.02253">
        <ele>399</ele>
        <time>2012-05-13T07:51:52Z</time>
      </trkpt>
      <trkpt lat="44.08722" lon="3.02257">
        <ele>400</ele>
        <time>2012-05-13T07:51:54Z</time>
      </trkpt>
      <trkpt lat="44.08725" lon="3.02261">
        <ele>401</ele>
        <time>2012-05-13T07:51:56Z</time>
      </trkpt>
      <trkpt lat="44.08727" lon="3.02264">
        <ele>401</ele>
        <time>2012-05-13T07:51:58Z</time>
      </trkpt>
      <trkpt lat="44.08728" lon="3.02268">
        <ele>403</ele>
        <time>2012-05-13T07:52:00Z</time>
      </trkpt>
      <trkpt lat="44.0873" lon="3.02272">
        <ele>403</ele>
        <time>2012-05-13T07:52:02Z</time>
      </trkpt>
      <trkpt lat="44.08732" lon="3.02276">
        <ele>404</ele>
        <time>2012-05-13T07:52:04Z</time>
      </trkpt>
      <trkpt lat="44.08733" lon="3.02281">
        <ele>404</ele>
        <time>2012-05-13T07:52:06Z</time>
      </trkpt>
      <trkpt lat="44.08734" lon="3.02285">
        <ele>404</ele>
        <time>2012-05-13T07:52:08Z</time>
      </trkpt>
      <trkpt lat="44.08735" lon="3.0229">
        <ele>405</ele>
        <time>2012-05-13T07:52:10Z</time>
      </trkpt>
      <trkpt lat="44.08736" lon="3.02294">
        <ele>406</ele>
        <time>2012-05-13T07:52:12Z</time>
      </trkpt>
      <trkpt lat="44.08737" lon="3.02299">
        <ele>408</ele>
        <time>2012-05-13T07:52:14Z</time>
      </trkpt>
      <trkpt lat="44.08738" lon="3.02305">
        <ele>409</ele>
        <time>2012-05-13T07:52:16Z</time>
      </trkpt>
      <trkpt lat="44.08739" lon="3.0231">
        <ele>411</ele>
        <time>2012-05-13T07:52:18Z</time>
      </trkpt>
      <trkpt lat="44.0874" lon="3.02314">
        <ele>411</ele>
        <time>2012-05-13T07:52:20Z</time>
      </trkpt>
      <trkpt lat="44.08741" lon="3.02318">
        <ele>412</ele>
        <time>2012-05-13T07:52:22Z</time>
      </trkpt>
      <trkpt lat="44.08743" lon="3.02322">
        <ele>412</ele>
        <time>2012-05-13T07:52:24Z</time>
      </trkpt>
      <trkpt lat="44.08744" lon="3.02326">
        <ele>412</ele>
        <time>2012-05-13T07:52:26Z</time>
      </trkpt>
      <trkpt lat="44.08746" lon="3.02329">
        <ele>411</ele>
        <time>2012-05-13T07:52:28Z</time>
      </trkpt>
      <trkpt lat="44.08748" lon="3.02332">
        <ele>411</ele>
        <time>2012-05-13T07:52:30Z</time>
      </trkpt>
      <trkpt lat="44.08751" lon="3.02336">
        <ele>411</ele>
        <time>2012-05-13T07:52:32Z</time>
      </trkpt>
      <trkpt lat="44.08752" lon="3.02339">
        <ele>411</ele>
        <time>2012-05-13T07:52:34Z</time>
      </trkpt>
      <trkpt lat="44.08755" lon="3.02341">
        <ele>411</ele>
        <time>2012-05-13T07:52:36Z</time>
      </trkpt>
      <trkpt lat="44.08758" lon="3.02344">
        <ele>411</ele>
        <time>2012-05-13T07:52:38Z</time>
      </trkpt>
      <trkpt lat="44.08761" lon="3.02346">
        <ele>412</ele>
        <time>2012-05-13T07:52:40Z</time>
      </trkpt>
      <trkpt lat="44.08764" lon="3.02348">
        <ele>412</ele>
        <time>2012-05-13T07:52:43Z</time>
      </trkpt>
      <trkpt lat="44.08767" lon="3.02348">
        <ele>412</ele>
        <time>2012-05-13T07:52:45Z</time>
      </trkpt>
      <trkpt lat="44.0877" lon="3.0235">
        <ele>412</ele>
        <time>2012-05-13T07:52:47Z</time>
      </trkpt>
      <trkpt lat="44.08773" lon="3.0235">
        <ele>412</ele>
        <time>2012-05-13T07:52:49Z</time>
      </trkpt>
      <trkpt lat="44.08776" lon="3.02352">
        <ele>412</ele>
        <time>2012-05-13T07:52:51Z</time>
      </trkpt>
      <trkpt lat="44.08779" lon="3.02354">
        <ele>413</ele>
        <time>2012-05-13T07:52:53Z</time>
      </trkpt>
      <trkpt lat="44.08783" lon="3.02355">
        <ele>413</ele>
        <time>2012-05-13T07:52:55Z</time>
      </trkpt>
      <trkpt lat="44.08786" lon="3.02356">
        <ele>413</ele>
        <time>2012-05-13T07:52:57Z</time>
      </trkpt>
      <trkpt lat="44.08789" lon="3.02357">
        <ele>413</ele>
        <time>2012-05-13T07:52:59Z</time>
      </trkpt>
      <trkpt lat="44.08792" lon="3.0236">
        <ele>413</ele>
        <time>2012-05-13T07:53:01Z</time>
      </trkpt>
      <trkpt lat="44.08796" lon="3.02362">
        <ele>413</ele>
        <time>2012-05-13T07:53:03Z</time>
      </trkpt>
      <trkpt lat="44.08799" lon="3.02365">
        <ele>413</ele>
        <time>2012-05-13T07:53:05Z</time>
      </trkpt>
      <trkpt lat="44.08801" lon="3.02369">
        <ele>413</ele>
        <time>2012-05-13T07:53:07Z</time>
      </trkpt>
      <trkpt lat="44.08803" lon="3.02373">
        <ele>413</ele>
        <time>2012-05-13T07:53:09Z</time>
      </trkpt>
      <trkpt lat="44.08806" lon="3.02376">
        <ele>413</ele>
        <time>2012-05-13T07:53:11Z</time>
      </trkpt>
      <trkpt lat="44.08808" lon="3.0238">
        <ele>412</ele>
        <time>2012-05-13T07:53:13Z</time>
      </trkpt>
      <trkpt lat="44.0881" lon="3.02386">
        <ele>412</ele>
        <time>2012-05-13T07:53:15Z</time>
      </trkpt>
      <trkpt lat="44.08811" lon="3.02392">
        <ele>413</ele>
        <time>2012-05-13T07:53:17Z</time>
      </trkpt>
      <trkpt lat="44.08812" lon="3.02396">
        <ele>414</ele>
        <time>2012-05-13T07:53:19Z</time>
      </trkpt>
      <trkpt lat="44.08813" lon="3.024">
        <ele>415</ele>
        <time>2012-05-13T07:53:21Z</time>
      </trkpt>
      <trkpt lat="44.08814" lon="3.02405">
        <ele>415</ele>
        <time>2012-05-13T07:53:23Z</time>
      </trkpt>
      <trkpt lat="44.08815" lon="3.0241">
        <ele>416</ele>
        <time>2012-05-13T07:53:25Z</time>
      </trkpt>
      <trkpt lat="44.08817" lon="3.02414">
        <ele>416</ele>
        <time>2012-05-13T07:53:27Z</time>
      </trkpt>
      <trkpt lat="44.08818" lon="3.02419">
        <ele>418</ele>
        <time>2012-05-13T07:53:29Z</time>
      </trkpt>
      <trkpt lat="44.0882" lon="3.02424">
        <ele>419</ele>
        <time>2012-05-13T07:53:31Z</time>
      </trkpt>
      <trkpt lat="44.08821" lon="3.02429">
        <ele>420</ele>
        <time>2012-05-13T07:53:33Z</time>
      </trkpt>
      <trkpt lat="44.08823" lon="3.02433">
        <ele>421</ele>
        <time>2012-05-13T07:53:35Z</time>
      </trkpt>
      <trkpt lat="44.08825" lon="3.02438">
        <ele>423</ele>
        <time>2012-05-13T07:53:37Z</time>
      </trkpt>
      <trkpt lat="44.08827" lon="3.02442">
        <ele>424</ele>
        <time>2012-05-13T07:53:39Z</time>
      </trkpt>
      <trkpt lat="44.08829" lon="3.02445">
        <ele>425</ele>
        <time>2012-05-13T07:53:41Z</time>
      </trkpt>
      <trkpt lat="44.08832" lon="3.02449">
        <ele>425</ele>
        <time>2012-05-13T07:53:43Z</time>
      </trkpt>
      <trkpt lat="44.08834" lon="3.02451">
        <ele>425</ele>
        <time>2012-05-13T07:53:45Z</time>
      </trkpt>
      <trkpt lat="44.08837" lon="3.02454">
        <ele>425</ele>
        <time>2012-05-13T07:53:47Z</time>
      </trkpt>
      <trkpt lat="44.08839" lon="3.02457">
        <ele>425</ele>
        <time>2012-05-13T07:53:49Z</time>
      </trkpt>
      <trkpt lat="44.08842" lon="3.0246">
        <ele>425</ele>
        <time>2012-05-13T07:53:51Z</time>
      </trkpt>
      <trkpt lat="44.08844" lon="3.02462">
        <ele>425</ele>
        <time>2012-05-13T07:53:53Z</time>
      </trkpt>
      <trkpt lat="44.08847" lon="3.02465">
        <ele>425</ele>
        <time>2012-05-13T07:53:55Z</time>
      </trkpt>
      <trkpt lat="44.0885" lon="3.02468">
        <ele>425</ele>
        <time>2012-05-13T07:53:57Z</time>
      </trkpt>
      <trkpt lat="44.08853" lon="3.02471">
        <ele>426</ele>
        <time>2012-05-13T07:53:59Z</time>
      </trkpt>
      <trkpt lat="44.08856" lon="3.02474">
        <ele>426</ele>
        <time>2012-05-13T07:54:01Z</time>
      </trkpt>
      <trkpt lat="44.08859" lon="3.02477">
        <ele>426</ele>
        <time>2012-05-13T07:54:03Z</time>
      </trkpt>
      <trkpt lat="44.08862" lon="3.0248">
        <ele>425</ele>
        <time>2012-05-13T07:54:05Z</time>
      </trkpt>
      <trkpt lat="44.08865" lon="3.02483">
        <ele>425</ele>
        <time>2012-05-13T07:54:07Z</time>
      </trkpt>
      <trkpt lat="44.08868" lon="3.02485">
        <ele>424</ele>
        <time>2012-05-13T07:54:09Z</time>
      </trkpt>
      <trkpt lat="44.08872" lon="3.02487">
        <ele>424</ele>
        <time>2012-05-13T07:54:11Z</time>
      </trkpt>
      <trkpt lat="44.08875" lon="3.02488">
        <ele>424</ele>
        <time>2012-05-13T07:54:13Z</time>
      </trkpt>
      <trkpt lat="44.08877" lon="3.02489">
        <ele>424</ele>
        <time>2012-05-13T07:54:16Z</time>
      </trkpt>
      <trkpt lat="44.0888" lon="3.0249">
        <ele>424</ele>
        <time>2012-05-13T07:54:18Z</time>
      </trkpt>
      <trkpt lat="44.08884" lon="3.02492">
        <ele>424</ele>
        <time>2012-05-13T07:54:20Z</time>
      </trkpt>
      <trkpt lat="44.08887" lon="3.02493">
        <ele>425</ele>
        <time>2012-05-13T07:54:22Z</time>
      </trkpt>
      <trkpt lat="44.08891" lon="3.02495">
        <ele>425</ele>
        <time>2012-05-13T07:54:24Z</time>
      </trkpt>
      <trkpt lat="44.08894" lon="3.02496">
        <ele>425</ele>
        <time>2012-05-13T07:54:26Z</time>
      </trkpt>
      <trkpt lat="44.08897" lon="3.02498">
        <ele>425</ele>
        <time>2012-05-13T07:54:28Z</time>
      </trkpt>
      <trkpt lat="44.089" lon="3.02499">
        <ele>426</ele>
        <time>2012-05-13T07:54:30Z</time>
      </trkpt>
      <trkpt lat="44.08903" lon="3.02501">
        <ele>426</ele>
        <time>2012-05-13T07:54:32Z</time>
      </trkpt>
      <trkpt lat="44.08907" lon="3.02502">
        <ele>426</ele>
        <time>2012-05-13T07:54:34Z</time>
      </trkpt>
      <trkpt lat="44.0891" lon="3.02504">
        <ele>427</ele>
        <time>2012-05-13T07:54:36Z</time>
      </trkpt>
      <trkpt lat="44.08913" lon="3.02505">
        <ele>427</ele>
        <time>2012-05-13T07:54:38Z</time>
      </trkpt>
      <trkpt lat="44.08917" lon="3.02506">
        <ele>428</ele>
        <time>2012-05-13T07:54:40Z</time>
      </trkpt>
      <trkpt lat="44.08921" lon="3.02507">
        <ele>429</ele>
        <time>2012-05-13T07:54:42Z</time>
      </trkpt>
      <trkpt lat="44.08925" lon="3.02508">
        <ele>430</ele>
        <time>2012-05-13T07:54:44Z</time>
      </trkpt>
      <trkpt lat="44.0893" lon="3.02507">
        <ele>432</ele>
        <time>2012-05-13T07:54:46Z</time>
      </trkpt>
      <trkpt lat="44.08932" lon="3.02503">
        <ele>432</ele>
        <time>2012-05-13T07:54:48Z</time>
      </trkpt>
      <trkpt lat="44.08934" lon="3.02498">
        <ele>433</ele>
        <time>2012-05-13T07:54:50Z</time>
      </trkpt>
      <trkpt lat="44.08934" lon="3.02492">
        <ele>433</ele>
        <time>2012-05-13T07:54:52Z</time>
      </trkpt>
      <trkpt lat="44.08933" lon="3.02487">
        <ele>433</ele>
        <time>2012-05-13T07:54:54Z</time>
      </trkpt>
      <trkpt lat="44.08929" lon="3.02484">
        <ele>433</ele>
        <time>2012-05-13T07:54:56Z</time>
      </trkpt>
      <trkpt lat="44.08926" lon="3.02483">
        <ele>433</ele>
        <time>2012-05-13T07:54:58Z</time>
      </trkpt>
      <trkpt lat="44.08921" lon="3.02481">
        <ele>434</ele>
        <time>2012-05-13T07:55:00Z</time>
      </trkpt>
      <trkpt lat="44.08918" lon="3.0248">
        <ele>434</ele>
        <time>2012-05-13T07:55:02Z</time>
      </trkpt>
      <trkpt lat="44.08914" lon="3.02478">
        <ele>434</ele>
        <time>2012-05-13T07:55:04Z</time>
      </trkpt>
      <trkpt lat="44.0891" lon="3.02477">
        <ele>434</ele>
        <time>2012-05-13T07:55:06Z</time>
      </trkpt>
      <trkpt lat="44.08906" lon="3.02474">
        <ele>434</ele>
        <time>2012-05-13T07:55:08Z</time>
      </trkpt>
      <trkpt lat="44.08902" lon="3.02471">
        <ele>435</ele>
        <time>2012-05-13T07:55:10Z</time>
      </trkpt>
      <trkpt lat="44.08899" lon="3.02469">
        <ele>435</ele>
        <time>2012-05-13T07:55:12Z</time>
      </trkpt>
      <trkpt lat="44.08895" lon="3.02467">
        <ele>436</ele>
        <time>2012-05-13T07:55:14Z</time>
      </trkpt>
      <trkpt lat="44.08892" lon="3.02464">
        <ele>437</ele>
        <time>2012-05-13T07:55:16Z</time>
      </trkpt>
      <trkpt lat="44.0889" lon="3.0246">
        <ele>437</ele>
        <time>2012-05-13T07:55:18Z</time>
      </trkpt>
      <trkpt lat="44.08887" lon="3.02456">
        <ele>438</ele>
        <time>2012-05-13T07:55:20Z</time>
      </trkpt>
      <trkpt lat="44.08885" lon="3.02452">
        <ele>439</ele>
        <time>2012-05-13T07:55:22Z</time>
      </trkpt>
      <trkpt lat="44.08883" lon="3.02448">
        <ele>440</ele>
        <time>2012-05-13T07:55:24Z</time>
      </trkpt>
      <trkpt lat="44.08881" lon="3.02443">
        <ele>441</ele>
        <time>2012-05-13T07:55:26Z</time>
      </trkpt>
      <trkpt lat="44.08878" lon="3.02439">
        <ele>442</ele>
        <time>2012-05-13T07:55:28Z</time>
      </trkpt>
      <trkpt lat="44.08877" lon="3.02434">
        <ele>443</ele>
        <time>2012-05-13T07:55:31Z</time>
      </trkpt>
      <trkpt lat="44.08875" lon="3.0243">
        <ele>444</ele>
        <time>2012-05-13T07:55:33Z</time>
      </trkpt>
      <trkpt lat="44.08873" lon="3.02426">
        <ele>444</ele>
        <time>2012-05-13T07:55:35Z</time>
      </trkpt>
      <trkpt lat="44.08871" lon="3.02422">
        <ele>445</ele>
        <time>2012-05-13T07:55:37Z</time>
      </trkpt>
      <trkpt lat="44.0887" lon="3.02418">
        <ele>445</ele>
        <time>2012-05-13T07:55:39Z</time>
      </trkpt>
      <trkpt lat="44.08868" lon="3.02415">
        <ele>445</ele>
        <time>2012-05-13T07:55:41Z</time>
      </trkpt>
      <trkpt lat="44.08867" lon="3.02412">
        <ele>446</ele>
        <time>2012-05-13T07:55:43Z</time>
      </trkpt>
      <trkpt lat="44.08865" lon="3.02408">
        <ele>446</ele>
        <time>2012-05-13T07:55:45Z</time>
      </trkpt>
      <trkpt lat="44.08863" lon="3.02403">
        <ele>446</ele>
        <time>2012-05-13T07:55:47Z</time>
      </trkpt>
      <trkpt lat="44.08862" lon="3.02399">
        <ele>446</ele>
        <time>2012-05-13T07:55:49Z</time>
      </trkpt>
      <trkpt lat="44.08861" lon="3.02394">
        <ele>447</ele>
        <time>2012-05-13T07:55:51Z</time>
      </trkpt>
      <trkpt lat="44.08861" lon="3.02389">
        <ele>447</ele>
        <time>2012-05-13T07:55:53Z</time>
      </trkpt>
      <trkpt lat="44.0886" lon="3.02382">
        <ele>447</ele>
        <time>2012-05-13T07:55:55Z</time>
      </trkpt>
      <trkpt lat="44.0886" lon="3.02376">
        <ele>447</ele>
        <time>2012-05-13T07:55:57Z</time>
      </trkpt>
      <trkpt lat="44.08859" lon="3.02372">
        <ele>448</ele>
        <time>2012-05-13T07:55:59Z</time>
      </trkpt>
      <trkpt lat="44.08859" lon="3.02366">
        <ele>448</ele>
        <time>2012-05-13T07:56:01Z</time>
      </trkpt>
      <trkpt lat="44.08859" lon="3.02361">
        <ele>449</ele>
        <time>2012-05-13T07:56:03Z</time>
      </trkpt>
      <trkpt lat="44.0886" lon="3.02356">
        <ele>449</ele>
        <time>2012-05-13T07:56:05Z</time>
      </trkpt>
      <trkpt lat="44.08861" lon="3.02351">
        <ele>449</ele>
        <time>2012-05-13T07:56:07Z</time>
      </trkpt>
      <trkpt lat="44.08862" lon="3.02347">
        <ele>450</ele>
        <time>2012-05-13T07:56:09Z</time>
      </trkpt>
      <trkpt lat="44.08862" lon="3.02341">
        <ele>450</ele>
        <time>2012-05-13T07:56:11Z</time>
      </trkpt>
      <trkpt lat="44.08862" lon="3.02336">
        <ele>450</ele>
        <time>2012-05-13T07:56:13Z</time>
      </trkpt>
      <trkpt lat="44.08861" lon="3.02331">
        <ele>450</ele>
        <time>2012-05-13T07:56:15Z</time>
      </trkpt>
      <trkpt lat="44.0886" lon="3.02326">
        <ele>451</ele>
        <time>2012-05-13T07:56:17Z</time>
      </trkpt>
      <trkpt lat="44.0886" lon="3.02322">
        <ele>451</ele>
        <time>2012-05-13T07:56:19Z</time>
      </trkpt>
      <trkpt lat="44.08859" lon="3.02317">
        <ele>451</ele>
        <time>2012-05-13T07:56:21Z</time>
      </trkpt>
      <trkpt lat="44.08857" lon="3.02313">
        <ele>452</ele>
        <time>2012-05-13T07:56:23Z</time>
      </trkpt>
      <trkpt lat="44.08856" lon="3.02308">
        <ele>452</ele>
        <time>2012-05-13T07:56:25Z</time>
      </trkpt>
      <trkpt lat="44.08854" lon="3.02303">
        <ele>452</ele>
        <time>2012-05-13T07:56:27Z</time>
      </trkpt>
      <trkpt lat="44.08852" lon="3.02298">
        <ele>453</ele>
        <time>2012-05-13T07:56:29Z</time>
      </trkpt>
      <trkpt lat="44.0885" lon="3.02294">
        <ele>453</ele>
        <time>2012-05-13T07:56:31Z</time>
      </trkpt>
      <trkpt lat="44.08848" lon="3.02289">
        <ele>454</ele>
        <time>2012-05-13T07:56:33Z</time>
      </trkpt>
      <trkpt lat="44.08846" lon="3.02286">
        <ele>454</ele>
        <time>2012-05-13T07:56:35Z</time>
      </trkpt>
      <trkpt lat="44.08843" lon="3.02283">
        <ele>455</ele>
        <time>2012-05-13T07:56:37Z</time>
      </trkpt>
      <trkpt lat="44.08841" lon="3.0228">
        <ele>456</ele>
        <time>2012-05-13T07:56:40Z</time>
      </trkpt>
      <trkpt lat="44.08839" lon="3.02278">
        <ele>458</ele>
        <time>2012-05-13T07:56:42Z</time>
      </trkpt>
      <trkpt lat="44.08837" lon="3.02275">
        <ele>459</ele>
        <time>2012-05-13T07:56:44Z</time>
      </trkpt>
      <trkpt lat="44.08835" lon="3.02273">
        <ele>461</ele>
        <time>2012-05-13T07:56:46Z</time>
      </trkpt>
      <trkpt lat="44.08834" lon="3.0227">
        <ele>462</ele>
        <time>2012-05-13T07:56:48Z</time>
      </trkpt>
      <trkpt lat="44.08833" lon="3.02268">
        <ele>463</ele>
        <time>2012-05-13T07:56:50Z</time>
      </trkpt>
      <trkpt lat="44.08831" lon="3.02265">
        <ele>464</ele>
        <time>2012-05-13T07:56:52Z</time>
      </trkpt>
      <trkpt lat="44.08829" lon="3.02263">
        <ele>465</ele>
        <time>2012-05-13T07:56:54Z</time>
      </trkpt>
      <trkpt lat="44.08828" lon="3.02259">
        <ele>467</ele>
        <time>2012-05-13T07:56:56Z</time>
      </trkpt>
      <trkpt lat="44.08827" lon="3.02256">
        <ele>467</ele>
        <time>2012-05-13T07:56:58Z</time>
      </trkpt>
      <trkpt lat="44.08826" lon="3.02253">
        <ele>468</ele>
        <time>2012-05-13T07:57:00Z</time>
      </trkpt>
      <trkpt lat="44.08826" lon="3.0225">
        <ele>467</ele>
        <time>2012-05-13T07:57:02Z</time>
      </trkpt>
      <trkpt lat="44.08826" lon="3.02246">
        <ele>467</ele>
        <time>2012-05-13T07:57:04Z</time>
      </trkpt>
      <trkpt lat="44.08825" lon="3.02242">
        <ele>466</ele>
        <time>2012-05-13T07:57:06Z</time>
      </trkpt>
      <trkpt lat="44.08825" lon="3.02239">
        <ele>466</ele>
        <time>2012-05-13T07:57:08Z</time>
      </trkpt>
      <trkpt lat="44.08825" lon="3.02235">
        <ele>466</ele>
        <time>2012-05-13T07:57:10Z</time>
      </trkpt>
      <trkpt lat="44.08824" lon="3.02232">
        <ele>466</ele>
        <time>2012-05-13T07:57:12Z</time>
      </trkpt>
      <trkpt lat="44.08824" lon="3.02228">
        <ele>466</ele>
        <time>2012-05-13T07:57:14Z</time>
      </trkpt>
      <trkpt lat="44.08824" lon="3.02224">
        <ele>465</ele>
        <time>2012-05-13T07:57:16Z</time>
      </trkpt>
      <trkpt lat="44.08824" lon="3.0222">
        <ele>465</ele>
        <time>2012-05-13T07:57:18Z</time>
      </trkpt>
      <trkpt lat="44.08823" lon="3.02216">
        <ele>465</ele>
        <time>2012-05-13T07:57:20Z</time>
      </trkpt>
      <trkpt lat="44.08823" lon="3.02212">
        <ele>465</ele>
        <time>2012-05-13T07:57:22Z</time>
      </trkpt>
      <trkpt lat="44.08823" lon="3.02208">
        <ele>465</ele>
        <time>2012-05-13T07:57:24Z</time>
      </trkpt>
      <trkpt lat="44.08822" lon="3.02205">
        <ele>465</ele>
        <time>2012-05-13T07:57:26Z</time>
      </trkpt>
      <trkpt lat="44.08822" lon="3.02201">
        <ele>464</ele>
        <time>2012-05-13T07:57:29Z</time>
      </trkpt>
      <trkpt lat="44.08821" lon="3.02198">
        <ele>464</ele>
        <time>2012-05-13T07:57:31Z</time>
      </trkpt>
      <trkpt lat="44.08821" lon="3.02195">
        <ele>464</ele>
        <time>2012-05-13T07:57:33Z</time>
      </trkpt>
      <trkpt lat="44.0882" lon="3.02192">
        <ele>464</ele>
        <time>2012-05-13T07:57:35Z</time>
      </trkpt>
      <trkpt lat="44.08819" lon="3.02188">
        <ele>464</ele>
        <time>2012-05-13T07:57:37Z</time>
      </trkpt>
      <trkpt lat="44.08818" lon="3.02184">
        <ele>464</ele>
        <time>2012-05-13T07:57:39Z</time>
      </trkpt>
      <trkpt lat="44.08815" lon="3.02179">
        <ele>464</ele>
        <time>2012-05-13T07:57:41Z</time>
      </trkpt>
      <trkpt lat="44.08813" lon="3.02176">
        <ele>464</ele>
        <time>2012-05-13T07:57:43Z</time>
      </trkpt>
      <trkpt lat="44.08811" lon="3.02173">
        <ele>465</ele>
        <time>2012-05-13T07:57:45Z</time>
      </trkpt>
      <trkpt lat="44.0881" lon="3.0217">
        <ele>466</ele>
        <time>2012-05-13T07:57:47Z</time>
      </trkpt>
      <trkpt lat="44.08809" lon="3.02167">
        <ele>467</ele>
        <time>2012-05-13T07:57:49Z</time>
      </trkpt>
      <trkpt lat="44.08807" lon="3.02163">
        <ele>468</ele>
        <time>2012-05-13T07:57:51Z</time>
      </trkpt>
      <trkpt lat="44.08806" lon="3.02161">
        <ele>469</ele>
        <time>2012-05-13T07:57:53Z</time>
      </trkpt>
      <trkpt lat="44.08804" lon="3.02158">
        <ele>470</ele>
        <time>2012-05-13T07:57:55Z</time>
      </trkpt>
      <trkpt lat="44.08802" lon="3.02154">
        <ele>470</ele>
        <time>2012-05-13T07:57:57Z</time>
      </trkpt>
      <trkpt lat="44.088" lon="3.02152">
        <ele>471</ele>
        <time>2012-05-13T07:57:59Z</time>
      </trkpt>
      <trkpt lat="44.08799" lon="3.02149">
        <ele>472</ele>
        <time>2012-05-13T07:58:01Z</time>
      </trkpt>
      <trkpt lat="44.08798" lon="3.02145">
        <ele>473</ele>
        <time>2012-05-13T07:58:03Z</time>
      </trkpt>
      <trkpt lat="44.08797" lon="3.02141">
        <ele>473</ele>
        <time>2012-05-13T07:58:06Z</time>
      </trkpt>
      <trkpt lat="44.08795" lon="3.02138">
        <ele>473</ele>
        <time>2012-05-13T07:58:08Z</time>
      </trkpt>
      <trkpt lat="44.08794" lon="3.02133">
        <ele>473</ele>
        <time>2012-05-13T07:58:10Z</time>
      </trkpt>
      <trkpt lat="44.08792" lon="3.0213">
        <ele>473</ele>
        <time>2012-05-13T07:58:12Z</time>
      </trkpt>
      <trkpt lat="44.08791" lon="3.02126">
        <ele>473</ele>
        <time>2012-05-13T07:58:14Z</time>
      </trkpt>
      <trkpt lat="44.08789" lon="3.02123">
        <ele>474</ele>
        <time>2012-05-13T07:58:16Z</time>
      </trkpt>
      <trkpt lat="44.08786" lon="3.02116">
        <ele>475</ele>
        <time>2012-05-13T07:58:18Z</time>
      </trkpt>
      <trkpt lat="44.08785" lon="3.02112">
        <ele>477</ele>
        <time>2012-05-13T07:58:20Z</time>
      </trkpt>
      <trkpt lat="44.08784" lon="3.02108">
        <ele>478</ele>
        <time>2012-05-13T07:58:22Z</time>
      </trkpt>
      <trkpt lat="44.08783" lon="3.02103">
        <ele>479</ele>
        <time>2012-05-13T07:58:24Z</time>
      </trkpt>
      <trkpt lat="44.08781" lon="3.02099">
        <ele>480</ele>
        <time>2012-05-13T07:58:26Z</time>
      </trkpt>
      <trkpt lat="44.08781" lon="3.02095">
        <ele>480</ele>
        <time>2012-05-13T07:58:28Z</time>
      </trkpt>
      <trkpt lat="44.0878" lon="3.02092">
        <ele>481</ele>
        <time>2012-05-13T07:58:30Z</time>
      </trkpt>
      <trkpt lat="44.0878" lon="3.02088">
        <ele>481</ele>
        <time>2012-05-13T07:58:32Z</time>
      </trkpt>
      <trkpt lat="44.08779" lon="3.02084">
        <ele>482</ele>
        <time>2012-05-13T07:58:34Z</time>
      </trkpt>
      <trkpt lat="44.08779" lon="3.0208">
        <ele>482</ele>
        <time>2012-05-13T07:58:36Z</time>
      </trkpt>
      <trkpt lat="44.08778" lon="3.02075">
        <ele>482</ele>
        <time>2012-05-13T07:58:38Z</time>
      </trkpt>
      <trkpt lat="44.08778" lon="3.02071">
        <ele>481</ele>
        <time>2012-05-13T07:58:40Z</time>
      </trkpt>
      <trkpt lat="44.08777" lon="3.02067">
        <ele>481</ele>
        <time>2012-05-13T07:58:43Z</time>
      </trkpt>
      <trkpt lat="44.08777" lon="3.02063">
        <ele>480</ele>
        <time>2012-05-13T07:58:45Z</time>
      </trkpt>
      <trkpt lat="44.08776" lon="3.02058">
        <ele>480</ele>
        <time>2012-05-13T07:58:47Z</time>
      </trkpt>
      <trkpt lat="44.08776" lon="3.02054">
        <ele>479</ele>
        <time>2012-05-13T07:58:49Z</time>
      </trkpt>
      <trkpt lat="44.08775" lon="3.02049">
        <ele>478</ele>
        <time>2012-05-13T07:58:51Z</time>
      </trkpt>
      <trkpt lat="44.08775" lon="3.02043">
        <ele>477</ele>
        <time>2012-05-13T07:58:53Z</time>
      </trkpt>
      <trkpt lat="44.08774" lon="3.02039">
        <ele>477</ele>
        <time>2012-05-13T07:58:55Z</time>
      </trkpt>
      <trkpt lat="44.08773" lon="3.02034">
        <ele>477</ele>
        <time>2012-05-13T07:58:57Z</time>
      </trkpt>
      <trkpt lat="44.08773" lon="3.0203">
        <ele>477</ele>
        <time>2012-05-13T07:58:59Z</time>
      </trkpt>
      <trkpt lat="44.08773" lon="3.02026">
        <ele>476</ele>
        <time>2012-05-13T07:59:01Z</time>
      </trkpt>
      <trkpt lat="44.08772" lon="3.02022">
        <ele>476</ele>
        <time>2012-05-13T07:59:03Z</time>
      </trkpt>
      <trkpt lat="44.08772" lon="3.02017">
        <ele>476</ele>
        <time>2012-05-13T07:59:05Z</time>
      </trkpt>
      <trkpt lat="44.08772" lon="3.02013">
        <ele>476</ele>
        <time>2012-05-13T07:59:07Z</time>
      </trkpt>
      <trkpt lat="44.08771" lon="3.02009">
        <ele>476</ele>
        <time>2012-05-13T07:59:09Z</time>
      </trkpt>
      <trkpt lat="44.08771" lon="3.02005">
        <ele>477</ele>
        <time>2012-05-13T07:59:11Z</time>
      </trkpt>
      <trkpt lat="44.08771" lon="3.02">
        <ele>477</ele>
        <time>2012-05-13T07:59:13Z</time>
      </trkpt>
      <trkpt lat="44.08771" lon="3.01996">
        <ele>476</ele>
        <time>2012-05-13T07:59:15Z</time>
      </trkpt>
      <trkpt lat="44.08771" lon="3.01992">
        <ele>476</ele>
        <time>2012-05-13T07:59:17Z</time>
      </trkpt>
      <trkpt lat="44.08771" lon="3.01989">
        <ele>476</ele>
        <time>2012-05-13T07:59:20Z</time>
      </trkpt>
      <trkpt lat="44.08771" lon="3.01985">
        <ele>476</ele>
        <time>2012-05-13T07:59:22Z</time>
      </trkpt>
      <trkpt lat="44.0877" lon="3.01981">
        <ele>476</ele>
        <time>2012-05-13T07:59:24Z</time>
      </trkpt>
      <trkpt lat="44.0877" lon="3.01976">
        <ele>476</ele>
        <time>2012-05-13T07:59:26Z</time>
      </trkpt>
      <trkpt lat="44.0877" lon="3.01971">
        <ele>477</ele>
        <time>2012-05-13T07:59:28Z</time>
      </trkpt>
      <trkpt lat="44.08771" lon="3.01965">
        <ele>477</ele>
        <time>2012-05-13T07:59:30Z</time>
      </trkpt>
      <trkpt lat="44.08772" lon="3.0196">
        <ele>477</ele>
        <time>2012-05-13T07:59:32Z</time>
      </trkpt>
      <trkpt lat="44.08772" lon="3.01955">
        <ele>478</ele>
        <time>2012-05-13T07:59:34Z</time>
      </trkpt>
      <trkpt lat="44.08773" lon="3.01947">
        <ele>478</ele>
        <time>2012-05-13T07:59:36Z</time>
      </trkpt>
      <trkpt lat="44.08775" lon="3.01942">
        <ele>478</ele>
        <time>2012-05-13T07:59:38Z</time>
      </trkpt>
      <trkpt lat="44.08776" lon="3.01937">
        <ele>478</ele>
        <time>2012-05-13T07:59:40Z</time>
      </trkpt>
      <trkpt lat="44.08778" lon="3.01932">
        <ele>478</ele>
        <time>2012-05-13T07:59:42Z</time>
      </trkpt>
      <trkpt lat="44.0878" lon="3.01927">
        <ele>478</ele>
        <time>2012-05-13T07:59:44Z</time>
      </trkpt>
      <trkpt lat="44.08782" lon="3.01922">
        <ele>477</ele>
        <time>2012-05-13T07:59:46Z</time>
      </trkpt>
      <trkpt lat="44.08784" lon="3.01918">
        <ele>477</ele>
        <time>2012-05-13T07:59:48Z</time>
      </trkpt>
      <trkpt lat="44.08786" lon="3.01914">
        <ele>476</ele>
        <time>2012-05-13T07:59:50Z</time>
      </trkpt>
      <trkpt lat="44.08789" lon="3.0191">
        <ele>476</ele>
        <time>2012-05-13T07:59:52Z</time>
      </trkpt>
      <trkpt lat="44.08791" lon="3.01905">
        <ele>476</ele>
        <time>2012-05-13T07:59:54Z</time>
      </trkpt>
      <trkpt lat="44.08794" lon="3.01902">
        <ele>476</ele>
        <time>2012-05-13T07:59:56Z</time>
      </trkpt>
      <trkpt lat="44.08796" lon="3.01899">
        <ele>475</ele>
        <time>2012-05-13T07:59:58Z</time>
      </trkpt>
      <trkpt lat="44.08799" lon="3.01896">
        <ele>475</ele>
        <time>2012-05-13T08:00:00Z</time>
      </trkpt>
      <trkpt lat="44.08801" lon="3.01894">
        <ele>475</ele>
        <time>2012-05-13T08:00:03Z</time>
      </trkpt>
      <trkpt lat="44.08804" lon="3.01891">
        <ele>476</ele>
        <time>2012-05-13T08:00:05Z</time>
      </trkpt>
      <trkpt lat="44.08807" lon="3.01889">
        <ele>476</ele>
        <time>2012-05-13T08:00:07Z</time>
      </trkpt>
      <trkpt lat="44.0881" lon="3.01887">
        <ele>477</ele>
        <time>2012-05-13T08:00:09Z</time>
      </trkpt>
      <trkpt lat="44.08813" lon="3.01886">
        <ele>478</ele>
        <time>2012-05-13T08:00:11Z</time>
      </trkpt>
      <trkpt lat="44.08817" lon="3.01886">
        <ele>479</ele>
        <time>2012-05-13T08:00:13Z</time>
      </trkpt>
      <trkpt lat="44.08821" lon="3.01886">
        <ele>479</ele>
        <time>2012-05-13T08:00:15Z</time>
      </trkpt>
      <trkpt lat="44.08825" lon="3.01888">
        <ele>480</ele>
        <time>2012-05-13T08:00:17Z</time>
      </trkpt>
      <trkpt lat="44.08828" lon="3.01892">
        <ele>479</ele>
        <time>2012-05-13T08:00:19Z</time>
      </trkpt>
      <trkpt lat="44.08828" lon="3.01899">
        <ele>479</ele>
        <time>2012-05-13T08:00:21Z</time>
      </trkpt>
      <trkpt lat="44.08827" lon="3.01907">
        <ele>479</ele>
        <time>2012-05-13T08:00:23Z</time>
      </trkpt>
      <trkpt lat="44.08824" lon="3.01911">
        <ele>480</ele>
        <time>2012-05-13T08:00:25Z</time>
      </trkpt>
      <trkpt lat="44.08822" lon="3.01916">
        <ele>480</ele>
        <time>2012-05-13T08:00:27Z</time>
      </trkpt>
      <trkpt lat="44.0882" lon="3.01921">
        <ele>480</ele>
        <time>2012-05-13T08:00:29Z</time>
      </trkpt>
      <trkpt lat="44.08818" lon="3.01925">
        <ele>480</ele>
        <time>2012-05-13T08:00:31Z</time>
      </trkpt>
      <trkpt lat="44.08815" lon="3.01931">
        <ele>480</ele>
        <time>2012-05-13T08:00:33Z</time>
      </trkpt>
      <trkpt lat="44.08813" lon="3.01936">
        <ele>481</ele>
        <time>2012-05-13T08:00:35Z</time>
      </trkpt>
      <trkpt lat="44.08812" lon="3.01941">
        <ele>482</ele>
        <time>2012-05-13T08:00:37Z</time>
      </trkpt>
      <trkpt lat="44.0881" lon="3.01945">
        <ele>482</ele>
        <time>2012-05-13T08:00:39Z</time>
      </trkpt>
      <trkpt lat="44.08809" lon="3.01951">
        <ele>483</ele>
        <time>2012-05-13T08:00:41Z</time>
      </trkpt>
      <trkpt lat="44.08808" lon="3.01957">
        <ele>484</ele>
        <time>2012-05-13T08:00:43Z</time>
      </trkpt>
      <trkpt lat="44.08807" lon="3.01962">
        <ele>484</ele>
        <time>2012-05-13T08:00:45Z</time>
      </trkpt>
      <trkpt lat="44.08807" lon="3.01967">
        <ele>485</ele>
        <time>2012-05-13T08:00:47Z</time>
      </trkpt>
      <trkpt lat="44.08806" lon="3.01972">
        <ele>486</ele>
        <time>2012-05-13T08:00:49Z</time>
      </trkpt>
      <trkpt lat="44.08806" lon="3.01977">
        <ele>487</ele>
        <time>2012-05-13T08:00:51Z</time>
      </trkpt>
      <trkpt lat="44.08806" lon="3.01981">
        <ele>488</ele>
        <time>2012-05-13T08:00:53Z</time>
      </trkpt>
      <trkpt lat="44.08807" lon="3.01986">
        <ele>488</ele>
        <time>2012-05-13T08:00:55Z</time>
      </trkpt>
      <trkpt lat="44.08809" lon="3.01991">
        <ele>488</ele>
        <time>2012-05-13T08:00:57Z</time>
      </trkpt>
      <trkpt lat="44.0881" lon="3.01996">
        <ele>488</ele>
        <time>2012-05-13T08:00:59Z</time>
      </trkpt>
      <trkpt lat="44.08811" lon="3.02001">
        <ele>488</ele>
        <time>2012-05-13T08:01:01Z</time>
      </trkpt>
      <trkpt lat="44.08812" lon="3.02006">
        <ele>488</ele>
        <time>2012-05-13T08:01:03Z</time>
      </trkpt>
      <trkpt lat="44.08814" lon="3.0201">
        <ele>489</ele>
        <time>2012-05-13T08:01:05Z</time>
      </trkpt>
      <trkpt lat="44.08816" lon="3.02014">
        <ele>490</ele>
        <time>2012-05-13T08:01:07Z</time>
      </trkpt>
      <trkpt lat="44.08818" lon="3.02018">
        <ele>490</ele>
        <time>2012-05-13T08:01:09Z</time>
      </trkpt>
      <trkpt lat="44.08819" lon="3.02022">
        <ele>491</ele>
        <time>2012-05-13T08:01:11Z</time>
      </trkpt>
      <trkpt lat="44.08822" lon="3.02026">
        <ele>492</ele>
        <time>2012-05-13T08:01:13Z</time>
      </trkpt>
      <trkpt lat="44.08824" lon="3.0203">
        <ele>493</ele>
        <time>2012-05-13T08:01:16Z</time>
      </trkpt>
      <trkpt lat="44.08826" lon="3.02034">
        <ele>494</ele>
        <time>2012-05-13T08:01:18Z</time>
      </trkpt>
      <trkpt lat="44.08828" lon="3.02038">
        <ele>494</ele>
        <time>2012-05-13T08:01:20Z</time>
      </trkpt>
      <trkpt lat="44.0883" lon="3.02042">
        <ele>495</ele>
        <time>2012-05-13T08:01:22Z</time>
      </trkpt>
      <trkpt lat="44.08832" lon="3.02045">
        <ele>495</ele>
        <time>2012-05-13T08:01:24Z</time>
      </trkpt>
      <trkpt lat="44.08834" lon="3.02049">
        <ele>496</ele>
        <time>2012-05-13T08:01:26Z</time>
      </trkpt>
      <trkpt lat="44.08837" lon="3.02054">
        <ele>496</ele>
        <time>2012-05-13T08:01:28Z</time>
      </trkpt>
      <trkpt lat="44.08839" lon="3.02058">
        <ele>497</ele>
        <time>2012-05-13T08:01:30Z</time>
      </trkpt>
      <trkpt lat="44.08842" lon="3.02061">
        <ele>498</ele>
        <time>2012-05-13T08:01:32Z</time>
      </trkpt>
      <trkpt lat="44.08844" lon="3.02065">
        <ele>498</ele>
        <time>2012-05-13T08:01:34Z</time>
      </trkpt>
      <trkpt lat="44.08846" lon="3.02068">
        <ele>498</ele>
        <time>2012-05-13T08:01:36Z</time>
      </trkpt>
      <trkpt lat="44.08848" lon="3.02071">
        <ele>498</ele>
        <time>2012-05-13T08:01:38Z</time>
      </trkpt>
      <trkpt lat="44.08851" lon="3.02075">
        <ele>498</ele>
        <time>2012-05-13T08:01:40Z</time>
      </trkpt>
      <trkpt lat="44.08853" lon="3.02078">
        <ele>498</ele>
        <time>2012-05-13T08:01:42Z</time>
      </trkpt>
      <trkpt lat="44.08855" lon="3.02081">
        <ele>498</ele>
        <time>2012-05-13T08:01:44Z</time>
      </trkpt>
      <trkpt lat="44.08858" lon="3.02084">
        <ele>499</ele>
        <time>2012-05-13T08:01:46Z</time>
      </trkpt>
      <trkpt lat="44.08861" lon="3.02087">
        <ele>499</ele>
        <time>2012-05-13T08:01:48Z</time>
      </trkpt>
      <trkpt lat="44.08863" lon="3.02089">
        <ele>499</ele>
        <time>2012-05-13T08:01:50Z</time>
      </trkpt>
      <trkpt lat="44.08866" lon="3.02092">
        <ele>499</ele>
        <time>2012-05-13T08:01:52Z</time>
      </trkpt>
      <trkpt lat="44.08868" lon="3.02094">
        <ele>499</ele>
        <time>2012-05-13T08:01:54Z</time>
      </trkpt>
      <trkpt lat="44.0887" lon="3.02096">
        <ele>499</ele>
        <time>2012-05-13T08:01:56Z</time>
      </trkpt>
      <trkpt lat="44.08872" lon="3.02098">
        <ele>499</ele>
        <time>2012-05-13T08:01:58Z</time>
      </trkpt>
      <trkpt lat="44.08874" lon="3.021">
        <ele>500</ele>
        <time>2012-05-13T08:02:01Z</time>
      </trkpt>
      <trkpt lat="44.08876" lon="3.02103">
        <ele>500</ele>
        <time>2012-05-13T08:02:03Z</time>
      </trkpt>
      <trkpt lat="44.08878" lon="3.02105">
        <ele>500</ele>
        <time>2012-05-13T08:02:05Z</time>
      </trkpt>
      <trkpt lat="44.0888" lon="3.02108">
        <ele>501</ele>
        <time>2012-05-13T08:02:07Z</time>
      </trkpt>
      <trkpt lat="44.08881" lon="3.0211">
        <ele>500</ele>
        <time>2012-05-13T08:02:09Z</time>
      </trkpt>
      <trkpt lat="44.08882" lon="3.02111">
        <ele>500</ele>
        <time>2012-05-13T08:02:11Z</time>
      </trkpt>
      <trkpt lat="44.08884" lon="3.02113">
        <ele>499</ele>
        <time>2012-05-13T08:02:13Z</time>
      </trkpt>
      <trkpt lat="44.08886" lon="3.02116">
        <ele>499</ele>
        <time>2012-05-13T08:02:15Z</time>
      </trkpt>
      <trkpt lat="44.08888" lon="3.02119">
        <ele>498</ele>
        <time>2012-05-13T08:02:17Z</time>
      </trkpt>
      <trkpt lat="44.0889" lon="3.02123">
        <ele>498</ele>
        <time>2012-05-13T08:02:19Z</time>
      </trkpt>
      <trkpt lat="44.08892" lon="3.02126">
        <ele>498</ele>
        <time>2012-05-13T08:02:21Z</time>
      </trkpt>
      <trkpt lat="44.08894" lon="3.02129">
        <ele>498</ele>
        <time>2012-05-13T08:02:23Z</time>
      </trkpt>
      <trkpt lat="44.08896" lon="3.02132">
        <ele>499</ele>
        <time>2012-05-13T08:02:25Z</time>
      </trkpt>
      <trkpt lat="44.08897" lon="3.02135">
        <ele>500</ele>
        <time>2012-05-13T08:02:27Z</time>
      </trkpt>
      <trkpt lat="44.089" lon="3.02139">
        <ele>501</ele>
        <time>2012-05-13T08:02:29Z</time>
      </trkpt>
      <trkpt lat="44.08902" lon="3.02142">
        <ele>502</ele>
        <time>2012-05-13T08:02:31Z</time>
      </trkpt>
      <trkpt lat="44.08904" lon="3.02145">
        <ele>503</ele>
        <time>2012-05-13T08:02:33Z</time>
      </trkpt>
      <trkpt lat="44.08906" lon="3.02148">
        <ele>504</ele>
        <time>2012-05-13T08:02:35Z</time>
      </trkpt>
      <trkpt lat="44.08908" lon="3.02151">
        <ele>505</ele>
        <time>2012-05-13T08:02:37Z</time>
      </trkpt>
      <trkpt lat="44.0891" lon="3.02153">
        <ele>505</ele>
        <time>2012-05-13T08:02:39Z</time>
      </trkpt>
      <trkpt lat="44.08912" lon="3.02155">
        <ele>506</ele>
        <time>2012-05-13T08:02:41Z</time>
      </trkpt>
      <trkpt lat="44.08913" lon="3.02158">
        <ele>506</ele>
        <time>2012-05-13T08:02:43Z</time>
      </trkpt>
      <trkpt lat="44.08915" lon="3.02162">
        <ele>507</ele>
        <time>2012-05-13T08:02:45Z</time>
      </trkpt>
      <trkpt lat="44.08917" lon="3.02165">
        <ele>508</ele>
        <time>2012-05-13T08:02:48Z</time>
      </trkpt>
      <trkpt lat="44.08919" lon="3.02167">
        <ele>509</ele>
        <time>2012-05-13T08:02:50Z</time>
      </trkpt>
      <trkpt lat="44.08922" lon="3.02171">
        <ele>510</ele>
        <time>2012-05-13T08:02:52Z</time>
      </trkpt>
      <trkpt lat="44.08925" lon="3.02176">
        <ele>510</ele>
        <time>2012-05-13T08:02:54Z</time>
      </trkpt>
      <trkpt lat="44.08927" lon="3.02179">
        <ele>511</ele>
        <time>2012-05-13T08:02:56Z</time>
      </trkpt>
      <trkpt lat="44.08929" lon="3.02182">
        <ele>511</ele>
        <time>2012-05-13T08:02:58Z</time>
      </trkpt>
      <trkpt lat="44.08932" lon="3.02186">
        <ele>510</ele>
        <time>2012-05-13T08:03:00Z</time>
      </trkpt>
      <trkpt lat="44.08933" lon="3.02189">
        <ele>510</ele>
        <time>2012-05-13T08:03:02Z</time>
      </trkpt>
      <trkpt lat="44.08935" lon="3.02191">
        <ele>510</ele>
        <time>2012-05-13T08:03:04Z</time>
      </trkpt>
      <trkpt lat="44.08936" lon="3.02194">
        <ele>511</ele>
        <time>2012-05-13T08:03:06Z</time>
      </trkpt>
      <trkpt lat="44.08938" lon="3.02195">
        <ele>511</ele>
        <time>2012-05-13T08:03:08Z</time>
      </trkpt>
      <trkpt lat="44.08941" lon="3.02198">
        <ele>512</ele>
        <time>2012-05-13T08:03:10Z</time>
      </trkpt>
      <trkpt lat="44.08942" lon="3.02201">
        <ele>512</ele>
        <time>2012-05-13T08:03:12Z</time>
      </trkpt>
      <trkpt lat="44.08944" lon="3.02204">
        <ele>512</ele>
        <time>2012-05-13T08:03:14Z</time>
      </trkpt>
      <trkpt lat="44.08947" lon="3.02207">
        <ele>512</ele>
        <time>2012-05-13T08:03:16Z</time>
      </trkpt>
      <trkpt lat="44.08949" lon="3.02209">
        <ele>512</ele>
        <time>2012-05-13T08:03:18Z</time>
      </trkpt>
      <trkpt lat="44.08951" lon="3.02212">
        <ele>512</ele>
        <time>2012-05-13T08:03:20Z</time>
      </trkpt>
      <trkpt lat="44.08953" lon="3.02215">
        <ele>513</ele>
        <time>2012-05-13T08:03:22Z</time>
      </trkpt>
      <trkpt lat="44.08955" lon="3.02218">
        <ele>513</ele>
        <time>2012-05-13T08:03:25Z</time>
      </trkpt>
      <trkpt lat="44.08956" lon="3.0222">
        <ele>513</ele>
        <time>2012-05-13T08:03:27Z</time>
      </trkpt>
      <trkpt lat="44.08958" lon="3.02222">
        <ele>514</ele>
        <time>2012-05-13T08:03:29Z</time>
      </trkpt>
      <trkpt lat="44.0896" lon="3.02226">
        <ele>515</ele>
        <time>2012-05-13T08:03:31Z</time>
      </trkpt>
      <trkpt lat="44.08962" lon="3.02228">
        <ele>515</ele>
        <time>2012-05-13T08:03:33Z</time>
      </trkpt>
      <trkpt lat="44.08965" lon="3.02232">
        <ele>516</ele>
        <time>2012-05-13T08:03:35Z</time>
      </trkpt>
      <trkpt lat="44.08967" lon="3.02234">
        <ele>516</ele>
        <time>2012-05-13T08:03:37Z</time>
      </trkpt>
      <trkpt lat="44.08968" lon="3.02237">
        <ele>516</ele>
        <time>2012-05-13T08:03:39Z</time>
      </trkpt>
      <trkpt lat="44.0897" lon="3.0224">
        <ele>516</ele>
        <time>2012-05-13T08:03:41Z</time>
      </trkpt>
      <trkpt lat="44.08972" lon="3.02243">
        <ele>517</ele>
        <time>2012-05-13T08:03:43Z</time>
      </trkpt>
      <trkpt lat="44.08974" lon="3.02246">
        <ele>516</ele>
        <time>2012-05-13T08:03:45Z</time>
      </trkpt>
      <trkpt lat="44.08976" lon="3.02247">
        <ele>516</ele>
        <time>2012-05-13T08:03:47Z</time>
      </trkpt>
      <trkpt lat="44.08978" lon="3.0225">
        <ele>515</ele>
        <time>2012-05-13T08:03:49Z</time>
      </trkpt>
      <trkpt lat="44.0898" lon="3.02252">
        <ele>515</ele>
        <time>2012-05-13T08:03:51Z</time>
      </trkpt>
      <trkpt lat="44.08982" lon="3.02255">
        <ele>515</ele>
        <time>2012-05-13T08:03:53Z</time>
      </trkpt>
      <trkpt lat="44.08984" lon="3.02257">
        <ele>515</ele>
        <time>2012-05-13T08:03:55Z</time>
      </trkpt>
      <trkpt lat="44.08986" lon="3.0226">
        <ele>515</ele>
        <time>2012-05-13T08:03:57Z</time>
      </trkpt>
      <trkpt lat="44.08987" lon="3.02262">
        <ele>516</ele>
        <time>2012-05-13T08:03:59Z</time>
      </trkpt>
      <trkpt lat="44.08989" lon="3.02266">
        <ele>516</ele>
        <time>2012-05-13T08:04:02Z</time>
      </trkpt>
      <trkpt lat="44.08991" lon="3.02269">
        <ele>516</ele>
        <time>2012-05-13T08:04:04Z</time>
      </trkpt>
      <trkpt lat="44.08993" lon="3.02272">
        <ele>516</ele>
        <time>2012-05-13T08:04:06Z</time>
      </trkpt>
      <trkpt lat="44.08995" lon="3.02275">
        <ele>516</ele>
        <time>2012-05-13T08:04:08Z</time>
      </trkpt>
      <trkpt lat="44.08997" lon="3.02278">
        <ele>516</ele>
        <time>2012-05-13T08:04:10Z</time>
      </trkpt>
      <trkpt lat="44.09" lon="3.02281">
        <ele>516</ele>
        <time>2012-05-13T08:04:12Z</time>
      </trkpt>
      <trkpt lat="44.09002" lon="3.02284">
        <ele>517</ele>
        <time>2012-05-13T08:04:14Z</time>
      </trkpt>
      <trkpt lat="44.09004" lon="3.02286">
        <ele>517</ele>
        <time>2012-05-13T08:04:16Z</time>
      </trkpt>
      <trkpt lat="44.09006" lon="3.02289">
        <ele>517</ele>
        <time>2012-05-13T08:04:18Z</time>
      </trkpt>
      <trkpt lat="44.09008" lon="3.02291">
        <ele>518</ele>
        <time>2012-05-13T08:04:20Z</time>
      </trkpt>
      <trkpt lat="44.0901" lon="3.02294">
        <ele>518</ele>
        <time>2012-05-13T08:04:22Z</time>
      </trkpt>
      <trkpt lat="44.09012" lon="3.02297">
        <ele>518</ele>
        <time>2012-05-13T08:04:24Z</time>
      </trkpt>
      <trkpt lat="44.09016" lon="3.02301">
        <ele>519</ele>
        <time>2012-05-13T08:04:26Z</time>
      </trkpt>
      <trkpt lat="44.09018" lon="3.02303">
        <ele>519</ele>
        <time>2012-05-13T08:04:28Z</time>
      </trkpt>
      <trkpt lat="44.0902" lon="3.02305">
        <ele>520</ele>
        <time>2012-05-13T08:04:30Z</time>
      </trkpt>
      <trkpt lat="44.09022" lon="3.02307">
        <ele>520</ele>
        <time>2012-05-13T08:04:32Z</time>
      </trkpt>
      <trkpt lat="44.09024" lon="3.02309">
        <ele>520</ele>
        <time>2012-05-13T08:04:34Z</time>
      </trkpt>
      <trkpt lat="44.09026" lon="3.02311">
        <ele>520</ele>
        <time>2012-05-13T08:04:36Z</time>
      </trkpt>
      <trkpt lat="44.09029" lon="3.02313">
        <ele>520</ele>
        <time>2012-05-13T08:04:38Z</time>
      </trkpt>
      <trkpt lat="44.09031" lon="3.02315">
        <ele>520</ele>
        <time>2012-05-13T08:04:40Z</time>
      </trkpt>
      <trkpt lat="44.09033" lon="3.02317">
        <ele>520</ele>
        <time>2012-05-13T08:04:42Z</time>
      </trkpt>
      <trkpt lat="44.09035" lon="3.02319">
        <ele>521</ele>
        <time>2012-05-13T08:04:44Z</time>
      </trkpt>
      <trkpt lat="44.09037" lon="3.02321">
        <ele>522</ele>
        <time>2012-05-13T08:04:46Z</time>
      </trkpt>
      <trkpt lat="44.09039" lon="3.02323">
        <ele>523</ele>
        <time>2012-05-13T08:04:48Z</time>
      </trkpt>
      <trkpt lat="44.09042" lon="3.02325">
        <ele>523</ele>
        <time>2012-05-13T08:04:50Z</time>
      </trkpt>
      <trkpt lat="44.09044" lon="3.02327">
        <ele>524</ele>
        <time>2012-05-13T08:04:52Z</time>
      </trkpt>
      <trkpt lat="44.09047" lon="3.0233">
        <ele>525</ele>
        <time>2012-05-13T08:04:54Z</time>
      </trkpt>
      <trkpt lat="44.09049" lon="3.02331">
        <ele>526</ele>
        <time>2012-05-13T08:04:56Z</time>
      </trkpt>
      <trkpt lat="44.09052" lon="3.02333">
        <ele>527</ele>
        <time>2012-05-13T08:04:58Z</time>
      </trkpt>
      <trkpt lat="44.09055" lon="3.02335">
        <ele>527</ele>
        <time>2012-05-13T08:05:00Z</time>
      </trkpt>
      <trkpt lat="44.09057" lon="3.02337">
        <ele>528</ele>
        <time>2012-05-13T08:05:02Z</time>
      </trkpt>
      <trkpt lat="44.09059" lon="3.02339">
        <ele>529</ele>
        <time>2012-05-13T08:05:04Z</time>
      </trkpt>
      <trkpt lat="44.09061" lon="3.02341">
        <ele>529</ele>
        <time>2012-05-13T08:05:06Z</time>
      </trkpt>
      <trkpt lat="44.09064" lon="3.02343">
        <ele>530</ele>
        <time>2012-05-13T08:05:08Z</time>
      </trkpt>
      <trkpt lat="44.09068" lon="3.02345">
        <ele>530</ele>
        <time>2012-05-13T08:05:10Z</time>
      </trkpt>
      <trkpt lat="44.09071" lon="3.02348">
        <ele>530</ele>
        <time>2012-05-13T08:05:12Z</time>
      </trkpt>
      <trkpt lat="44.09073" lon="3.0235">
        <ele>530</ele>
        <time>2012-05-13T08:05:14Z</time>
      </trkpt>
      <trkpt lat="44.09076" lon="3.02352">
        <ele>531</ele>
        <time>2012-05-13T08:05:16Z</time>
      </trkpt>
      <trkpt lat="44.09079" lon="3.02353">
        <ele>531</ele>
        <time>2012-05-13T08:05:18Z</time>
      </trkpt>
      <trkpt lat="44.09082" lon="3.02354">
        <ele>532</ele>
        <time>2012-05-13T08:05:20Z</time>
      </trkpt>
      <trkpt lat="44.09085" lon="3.02355">
        <ele>532</ele>
        <time>2012-05-13T08:05:22Z</time>
      </trkpt>
      <trkpt lat="44.09089" lon="3.02356">
        <ele>533</ele>
        <time>2012-05-13T08:05:24Z</time>
      </trkpt>
      <trkpt lat="44.09093" lon="3.02357">
        <ele>534</ele>
        <time>2012-05-13T08:05:26Z</time>
      </trkpt>
      <trkpt lat="44.09097" lon="3.02359">
        <ele>534</ele>
        <time>2012-05-13T08:05:28Z</time>
      </trkpt>
      <trkpt lat="44.09101" lon="3.0236">
        <ele>535</ele>
        <time>2012-05-13T08:05:31Z</time>
      </trkpt>
      <trkpt lat="44.09104" lon="3.02361">
        <ele>535</ele>
        <time>2012-05-13T08:05:33Z</time>
      </trkpt>
      <trkpt lat="44.09107" lon="3.02362">
        <ele>535</ele>
        <time>2012-05-13T08:05:35Z</time>
      </trkpt>
      <trkpt lat="44.09111" lon="3.02364">
        <ele>535</ele>
        <time>2012-05-13T08:05:37Z</time>
      </trkpt>
      <trkpt lat="44.09114" lon="3.02364">
        <ele>535</ele>
        <time>2012-05-13T08:05:39Z</time>
      </trkpt>
      <trkpt lat="44.09117" lon="3.02365">
        <ele>535</ele>
        <time>2012-05-13T08:05:41Z</time>
      </trkpt>
      <trkpt lat="44.0912" lon="3.02365">
        <ele>535</ele>
        <time>2012-05-13T08:05:43Z</time>
      </trkpt>
      <trkpt lat="44.09124" lon="3.02366">
        <ele>535</ele>
        <time>2012-05-13T08:05:45Z</time>
      </trkpt>
      <trkpt lat="44.09126" lon="3.02367">
        <ele>534</ele>
        <time>2012-05-13T08:05:47Z</time>
      </trkpt>
      <trkpt lat="44.09131" lon="3.02369">
        <ele>534</ele>
        <time>2012-05-13T08:05:49Z</time>
      </trkpt>
      <trkpt lat="44.09134" lon="3.0237">
        <ele>533</ele>
        <time>2012-05-13T08:05:51Z</time>
      </trkpt>
      <trkpt lat="44.09137" lon="3.02371">
        <ele>533</ele>
        <time>2012-05-13T08:05:53Z</time>
      </trkpt>
      <trkpt lat="44.09139" lon="3.02372">
        <ele>533</ele>
        <time>2012-05-13T08:05:55Z</time>
      </trkpt>
      <trkpt lat="44.09141" lon="3.02374">
        <ele>533</ele>
        <time>2012-05-13T08:05:57Z</time>
      </trkpt>
      <trkpt lat="44.09144" lon="3.02375">
        <ele>533</ele>
        <time>2012-05-13T08:05:59Z</time>
      </trkpt>
      <trkpt lat="44.09146" lon="3.02377">
        <ele>533</ele>
        <time>2012-05-13T08:06:01Z</time>
      </trkpt>
      <trkpt lat="44.09149" lon="3.02378">
        <ele>534</ele>
        <time>2012-05-13T08:06:03Z</time>
      </trkpt>
      <trkpt lat="44.09152" lon="3.02379">
        <ele>534</ele>
        <time>2012-05-13T08:06:05Z</time>
      </trkpt>
      <trkpt lat="44.09154" lon="3.0238">
        <ele>535</ele>
        <time>2012-05-13T08:06:07Z</time>
      </trkpt>
      <trkpt lat="44.09156" lon="3.02381">
        <ele>535</ele>
        <time>2012-05-13T08:06:09Z</time>
      </trkpt>
      <trkpt lat="44.09159" lon="3.02381">
        <ele>535</ele>
        <time>2012-05-13T08:06:11Z</time>
      </trkpt>
      <trkpt lat="44.09161" lon="3.02382">
        <ele>536</ele>
        <time>2012-05-13T08:06:13Z</time>
      </trkpt>
      <trkpt lat="44.09163" lon="3.02382">
        <ele>536</ele>
        <time>2012-05-13T08:06:15Z</time>
      </trkpt>
      <trkpt lat="44.09166" lon="3.02382">
        <ele>537</ele>
        <time>2012-05-13T08:06:17Z</time>
      </trkpt>
      <trkpt lat="44.09169" lon="3.02382">
        <ele>538</ele>
        <time>2012-05-13T08:06:19Z</time>
      </trkpt>
      <trkpt lat="44.0917" lon="3.02382">
        <ele>538</ele>
        <time>2012-05-13T08:06:22Z</time>
      </trkpt>
      <trkpt lat="44.09172" lon="3.02381">
        <ele>540</ele>
        <time>2012-05-13T08:06:24Z</time>
      </trkpt>
      <trkpt lat="44.09175" lon="3.0238">
        <ele>541</ele>
        <time>2012-05-13T08:06:26Z</time>
      </trkpt>
      <trkpt lat="44.09177" lon="3.0238">
        <ele>542</ele>
        <time>2012-05-13T08:06:28Z</time>
      </trkpt>
      <trkpt lat="44.0918" lon="3.02379">
        <ele>542</ele>
        <time>2012-05-13T08:06:30Z</time>
      </trkpt>
      <trkpt lat="44.09183" lon="3.0238">
        <ele>543</ele>
        <time>2012-05-13T08:06:32Z</time>
      </trkpt>
      <trkpt lat="44.09187" lon="3.0238">
        <ele>543</ele>
        <time>2012-05-13T08:06:34Z</time>
      </trkpt>
      <trkpt lat="44.09191" lon="3.0238">
        <ele>544</ele>
        <time>2012-05-13T08:06:36Z</time>
      </trkpt>
      <trkpt lat="44.09196" lon="3.0238">
        <ele>545</ele>
        <time>2012-05-13T08:06:38Z</time>
      </trkpt>
      <trkpt lat="44.09199" lon="3.02381">
        <ele>545</ele>
        <time>2012-05-13T08:06:40Z</time>
      </trkpt>
      <trkpt lat="44.09203" lon="3.02382">
        <ele>546</ele>
        <time>2012-05-13T08:06:42Z</time>
      </trkpt>
      <trkpt lat="44.09206" lon="3.02383">
        <ele>546</ele>
        <time>2012-05-13T08:06:44Z</time>
      </trkpt>
      <trkpt lat="44.0921" lon="3.02384">
        <ele>546</ele>
        <time>2012-05-13T08:06:46Z</time>
      </trkpt>
      <trkpt lat="44.09213" lon="3.02386">
        <ele>546</ele>
        <time>2012-05-13T08:06:48Z</time>
      </trkpt>
      <trkpt lat="44.09216" lon="3.02388">
        <ele>546</ele>
        <time>2012-05-13T08:06:50Z</time>
      </trkpt>
      <trkpt lat="44.0922" lon="3.02389">
        <ele>546</ele>
        <time>2012-05-13T08:06:52Z</time>
      </trkpt>
      <trkpt lat="44.09224" lon="3.02391">
        <ele>547</ele>
        <time>2012-05-13T08:06:54Z</time>
      </trkpt>
      <trkpt lat="44.09227" lon="3.02393">
        <ele>547</ele>
        <time>2012-05-13T08:06:56Z</time>
      </trkpt>
      <trkpt lat="44.0923" lon="3.02395">
        <ele>548</ele>
        <time>2012-05-13T08:06:58Z</time>
      </trkpt>
      <trkpt lat="44.09234" lon="3.02397">
        <ele>549</ele>
        <time>2012-05-13T08:07:01Z</time>
      </trkpt>
      <trkpt lat="44.09237" lon="3.02399">
        <ele>549</ele>
        <time>2012-05-13T08:07:03Z</time>
      </trkpt>
      <trkpt lat="44.0924" lon="3.024">
        <ele>550</ele>
        <time>2012-05-13T08:07:05Z</time>
      </trkpt>
      <trkpt lat="44.09244" lon="3.02402">
        <ele>551</ele>
        <time>2012-05-13T08:07:07Z</time>
      </trkpt>
      <trkpt lat="44.09248" lon="3.02403">
        <ele>551</ele>
        <time>2012-05-13T08:07:09Z</time>
      </trkpt>
      <trkpt lat="44.09252" lon="3.02405">
        <ele>552</ele>
        <time>2012-05-13T08:07:11Z</time>
      </trkpt>
      <trkpt lat="44.09256" lon="3.02405">
        <ele>553</ele>
        <time>2012-05-13T08:07:13Z</time>
      </trkpt>
      <trkpt lat="44.09261" lon="3.02404">
        <ele>553</ele>
        <time>2012-05-13T08:07:15Z</time>
      </trkpt>
      <trkpt lat="44.09264" lon="3.02403">
        <ele>554</ele>
        <time>2012-05-13T08:07:17Z</time>
      </trkpt>
      <trkpt lat="44.09267" lon="3.02402">
        <ele>554</ele>
        <time>2012-05-13T08:07:19Z</time>
      </trkpt>
      <trkpt lat="44.09271" lon="3.02401">
        <ele>554</ele>
        <time>2012-05-13T08:07:21Z</time>
      </trkpt>
      <trkpt lat="44.09274" lon="3.024">
        <ele>554</ele>
        <time>2012-05-13T08:07:23Z</time>
      </trkpt>
      <trkpt lat="44.09276" lon="3.02399">
        <ele>554</ele>
        <time>2012-05-13T08:07:25Z</time>
      </trkpt>
      <trkpt lat="44.09278" lon="3.02399">
        <ele>555</ele>
        <time>2012-05-13T08:07:27Z</time>
      </trkpt>
      <trkpt lat="44.09281" lon="3.02399">
        <ele>556</ele>
        <time>2012-05-13T08:07:29Z</time>
      </trkpt>
      <trkpt lat="44.09283" lon="3.02398">
        <ele>556</ele>
        <time>2012-05-13T08:07:31Z</time>
      </trkpt>
      <trkpt lat="44.09286" lon="3.02397">
        <ele>557</ele>
        <time>2012-05-13T08:07:33Z</time>
      </trkpt>
      <trkpt lat="44.09289" lon="3.02398">
        <ele>557</ele>
        <time>2012-05-13T08:07:35Z</time>
      </trkpt>
      <trkpt lat="44.09291" lon="3.02397">
        <ele>558</ele>
        <time>2012-05-13T08:07:37Z</time>
      </trkpt>
      <trkpt lat="44.09293" lon="3.02397">
        <ele>558</ele>
        <time>2012-05-13T08:07:39Z</time>
      </trkpt>
      <trkpt lat="44.09296" lon="3.02397">
        <ele>559</ele>
        <time>2012-05-13T08:07:41Z</time>
      </trkpt>
      <trkpt lat="44.09298" lon="3.02397">
        <ele>559</ele>
        <time>2012-05-13T08:07:44Z</time>
      </trkpt>
      <trkpt lat="44.09301" lon="3.02396">
        <ele>560</ele>
        <time>2012-05-13T08:07:46Z</time>
      </trkpt>
      <trkpt lat="44.09303" lon="3.02395">
        <ele>560</ele>
        <time>2012-05-13T08:07:48Z</time>
      </trkpt>
      <trkpt lat="44.09306" lon="3.02394">
        <ele>561</ele>
        <time>2012-05-13T08:07:50Z</time>
      </trkpt>
      <trkpt lat="44.09309" lon="3.02394">
        <ele>561</ele>
        <time>2012-05-13T08:07:52Z</time>
      </trkpt>
      <trkpt lat="44.09311" lon="3.02392">
        <ele>562</ele>
        <time>2012-05-13T08:07:54Z</time>
      </trkpt>
      <trkpt lat="44.09313" lon="3.02392">
        <ele>563</ele>
        <time>2012-05-13T08:07:56Z</time>
      </trkpt>
      <trkpt lat="44.09316" lon="3.02391">
        <ele>563</ele>
        <time>2012-05-13T08:07:58Z</time>
      </trkpt>
      <trkpt lat="44.0932" lon="3.02389">
        <ele>564</ele>
        <time>2012-05-13T08:08:00Z</time>
      </trkpt>
      <trkpt lat="44.09323" lon="3.02388">
        <ele>564</ele>
        <time>2012-05-13T08:08:02Z</time>
      </trkpt>
      <trkpt lat="44.09325" lon="3.02386">
        <ele>565</ele>
        <time>2012-05-13T08:08:04Z</time>
      </trkpt>
      <trkpt lat="44.09328" lon="3.02385">
        <ele>565</ele>
        <time>2012-05-13T08:08:06Z</time>
      </trkpt>
      <trkpt lat="44.09331" lon="3.02384">
        <ele>565</ele>
        <time>2012-05-13T08:08:08Z</time>
      </trkpt>
      <trkpt lat="44.09334" lon="3.02383">
        <ele>565</ele>
        <time>2012-05-13T08:08:10Z</time>
      </trkpt>
      <trkpt lat="44.09337" lon="3.0238">
        <ele>566</ele>
        <time>2012-05-13T08:08:12Z</time>
      </trkpt>
      <trkpt lat="44.09339" lon="3.02379">
        <ele>566</ele>
        <time>2012-05-13T08:08:14Z</time>
      </trkpt>
      <trkpt lat="44.09341" lon="3.02377">
        <ele>566</ele>
        <time>2012-05-13T08:08:16Z</time>
      </trkpt>
      <trkpt lat="44.09344" lon="3.02375">
        <ele>567</ele>
        <time>2012-05-13T08:08:18Z</time>
      </trkpt>
      <trkpt lat="44.09347" lon="3.02373">
        <ele>567</ele>
        <time>2012-05-13T08:08:20Z</time>
      </trkpt>
      <trkpt lat="44.09349" lon="3.02371">
        <ele>567</ele>
        <time>2012-05-13T08:08:22Z</time>
      </trkpt>
      <trkpt lat="44.0935" lon="3.02368">
        <ele>566</ele>
        <time>2012-05-13T08:08:24Z</time>
      </trkpt>
      <trkpt lat="44.09352" lon="3.02366">
        <ele>566</ele>
        <time>2012-05-13T08:08:26Z</time>
      </trkpt>
      <trkpt lat="44.09356" lon="3.02363">
        <ele>565</ele>
        <time>2012-05-13T08:08:29Z</time>
      </trkpt>
      <trkpt lat="44.09359" lon="3.0236">
        <ele>565</ele>
        <time>2012-05-13T08:08:31Z</time>
      </trkpt>
      <trkpt lat="44.09362" lon="3.02358">
        <ele>565</ele>
        <time>2012-05-13T08:08:33Z</time>
      </trkpt>
      <trkpt lat="44.09365" lon="3.02356">
        <ele>565</ele>
        <time>2012-05-13T08:08:35Z</time>
      </trkpt>
      <trkpt lat="44.09368" lon="3.02352">
        <ele>566</ele>
        <time>2012-05-13T08:08:37Z</time>
      </trkpt>
      <trkpt lat="44.09372" lon="3.02348">
        <ele>566</ele>
        <time>2012-05-13T08:08:39Z</time>
      </trkpt>
      <trkpt lat="44.09375" lon="3.02346">
        <ele>567</ele>
        <time>2012-05-13T08:08:41Z</time>
      </trkpt>
      <trkpt lat="44.09378" lon="3.02343">
        <ele>567</ele>
        <time>2012-05-13T08:08:43Z</time>
      </trkpt>
      <trkpt lat="44.09381" lon="3.02339">
        <ele>567</ele>
        <time>2012-05-13T08:08:45Z</time>
      </trkpt>
      <trkpt lat="44.09383" lon="3.02335">
        <ele>568</ele>
        <time>2012-05-13T08:08:47Z</time>
      </trkpt>
      <trkpt lat="44.09384" lon="3.02329">
        <ele>568</ele>
        <time>2012-05-13T08:08:49Z</time>
      </trkpt>
      <trkpt lat="44.09386" lon="3.02325">
        <ele>568</ele>
        <time>2012-05-13T08:08:51Z</time>
      </trkpt>
      <trkpt lat="44.09388" lon="3.0232">
        <ele>568</ele>
        <time>2012-05-13T08:08:53Z</time>
      </trkpt>
      <trkpt lat="44.09389" lon="3.02315">
        <ele>568</ele>
        <time>2012-05-13T08:08:55Z</time>
      </trkpt>
      <trkpt lat="44.09391" lon="3.02311">
        <ele>568</ele>
        <time>2012-05-13T08:08:57Z</time>
      </trkpt>
      <trkpt lat="44.09392" lon="3.02306">
        <ele>569</ele>
        <time>2012-05-13T08:08:59Z</time>
      </trkpt>
      <trkpt lat="44.09393" lon="3.02302">
        <ele>569</ele>
        <time>2012-05-13T08:09:01Z</time>
      </trkpt>
      <trkpt lat="44.09395" lon="3.02299">
        <ele>569</ele>
        <time>2012-05-13T08:09:03Z</time>
      </trkpt>
      <trkpt lat="44.09396" lon="3.02294">
        <ele>568</ele>
        <time>2012-05-13T08:09:05Z</time>
      </trkpt>
      <trkpt lat="44.09397" lon="3.0229">
        <ele>568</ele>
        <time>2012-05-13T08:09:08Z</time>
      </trkpt>
      <trkpt lat="44.09397" lon="3.02286">
        <ele>568</ele>
        <time>2012-05-13T08:09:10Z</time>
      </trkpt>
      <trkpt lat="44.09398" lon="3.02281">
        <ele>569</ele>
        <time>2012-05-13T08:09:12Z</time>
      </trkpt>
      <trkpt lat="44.09399" lon="3.02278">
        <ele>569</ele>
        <time>2012-05-13T08:09:14Z</time>
      </trkpt>
      <trkpt lat="44.09401" lon="3.02274">
        <ele>570</ele>
        <time>2012-05-13T08:09:16Z</time>
      </trkpt>
      <trkpt lat="44.09403" lon="3.0227">
        <ele>570</ele>
        <time>2012-05-13T08:09:18Z</time>
      </trkpt>
      <trkpt lat="44.09406" lon="3.02267">
        <ele>570</ele>
        <time>2012-05-13T08:09:20Z</time>
      </trkpt>
      <trkpt lat="44.09408" lon="3.02263">
        <ele>570</ele>
        <time>2012-05-13T08:09:22Z</time>
      </trkpt>
      <trkpt lat="44.09412" lon="3.02257">
        <ele>570</ele>
        <time>2012-05-13T08:09:24Z</time>
      </trkpt>
      <trkpt lat="44.09414" lon="3.02253">
        <ele>570</ele>
        <time>2012-05-13T08:09:26Z</time>
      </trkpt>
      <trkpt lat="44.09417" lon="3.02248">
        <ele>570</ele>
        <time>2012-05-13T08:09:28Z</time>
      </trkpt>
      <trkpt lat="44.0942" lon="3.02245">
        <ele>571</ele>
        <time>2012-05-13T08:09:30Z</time>
      </trkpt>
      <trkpt lat="44.09424" lon="3.02242">
        <ele>571</ele>
        <time>2012-05-13T08:09:32Z</time>
      </trkpt>
      <trkpt lat="44.09428" lon="3.02239">
        <ele>572</ele>
        <time>2012-05-13T08:09:34Z</time>
      </trkpt>
      <trkpt lat="44.09432" lon="3.02237">
        <ele>573</ele>
        <time>2012-05-13T08:09:36Z</time>
      </trkpt>
      <trkpt lat="44.09435" lon="3.02235">
        <ele>573</ele>
        <time>2012-05-13T08:09:38Z</time>
      </trkpt>
      <trkpt lat="44.09439" lon="3.02233">
        <ele>574</ele>
        <time>2012-05-13T08:09:40Z</time>
      </trkpt>
      <trkpt lat="44.09443" lon="3.02232">
        <ele>574</ele>
        <time>2012-05-13T08:09:42Z</time>
      </trkpt>
      <trkpt lat="44.09447" lon="3.0223">
        <ele>574</ele>
        <time>2012-05-13T08:09:44Z</time>
      </trkpt>
      <trkpt lat="44.09451" lon="3.02228">
        <ele>575</ele>
        <time>2012-05-13T08:09:46Z</time>
      </trkpt>
      <trkpt lat="44.09456" lon="3.02227">
        <ele>575</ele>
        <time>2012-05-13T08:09:48Z</time>
      </trkpt>
      <trkpt lat="44.09461" lon="3.02228">
        <ele>576</ele>
        <time>2012-05-13T08:09:50Z</time>
      </trkpt>
      <trkpt lat="44.09465" lon="3.0223">
        <ele>576</ele>
        <time>2012-05-13T08:09:52Z</time>
      </trkpt>
      <trkpt lat="44.0947" lon="3.02233">
        <ele>576</ele>
        <time>2012-05-13T08:09:54Z</time>
      </trkpt>
      <trkpt lat="44.09474" lon="3.02235">
        <ele>576</ele>
        <time>2012-05-13T08:09:56Z</time>
      </trkpt>
      <trkpt lat="44.09479" lon="3.02237">
        <ele>575</ele>
        <time>2012-05-13T08:09:58Z</time>
      </trkpt>
      <trkpt lat="44.09483" lon="3.02238">
        <ele>575</ele>
        <time>2012-05-13T08:10:00Z</time>
      </trkpt>
      <trkpt lat="44.09487" lon="3.0224">
        <ele>574</ele>
        <time>2012-05-13T08:10:02Z</time>
      </trkpt>
      <trkpt lat="44.09491" lon="3.02243">
        <ele>574</ele>
        <time>2012-05-13T08:10:04Z</time>
      </trkpt>
      <trkpt lat="44.09496" lon="3.02245">
        <ele>574</ele>
        <time>2012-05-13T08:10:06Z</time>
      </trkpt>
      <trkpt lat="44.09499" lon="3.02249">
        <ele>573</ele>
        <time>2012-05-13T08:10:08Z</time>
      </trkpt>
      <trkpt lat="44.09501" lon="3.02254">
        <ele>573</ele>
        <time>2012-05-13T08:10:10Z</time>
      </trkpt>
      <trkpt lat="44.09502" lon="3.0226">
        <ele>573</ele>
        <time>2012-05-13T08:10:12Z</time>
      </trkpt>
      <trkpt lat="44.09501" lon="3.02267">
        <ele>572</ele>
        <time>2012-05-13T08:10:14Z</time>
      </trkpt>
      <trkpt lat="44.09501" lon="3.02272">
        <ele>572</ele>
        <time>2012-05-13T08:10:16Z</time>
      </trkpt>
      <trkpt lat="44.09499" lon="3.02278">
        <ele>572</ele>
        <time>2012-05-13T08:10:18Z</time>
      </trkpt>
      <trkpt lat="44.09497" lon="3.02283">
        <ele>572</ele>
        <time>2012-05-13T08:10:20Z</time>
      </trkpt>
      <trkpt lat="44.09494" lon="3.02287">
        <ele>572</ele>
        <time>2012-05-13T08:10:23Z</time>
      </trkpt>
      <trkpt lat="44.0949" lon="3.02289">
        <ele>572</ele>
        <time>2012-05-13T08:10:25Z</time>
      </trkpt>
      <trkpt lat="44.09486" lon="3.02289">
        <ele>572</ele>
        <time>2012-05-13T08:10:27Z</time>
      </trkpt>
      <trkpt lat="44.09483" lon="3.02288">
        <ele>572</ele>
        <time>2012-05-13T08:10:29Z</time>
      </trkpt>
      <trkpt lat="44.0948" lon="3.02286">
        <ele>573</ele>
        <time>2012-05-13T08:10:31Z</time>
      </trkpt>
      <trkpt lat="44.09477" lon="3.02285">
        <ele>573</ele>
        <time>2012-05-13T08:10:33Z</time>
      </trkpt>
      <trkpt lat="44.09475" lon="3.02283">
        <ele>573</ele>
        <time>2012-05-13T08:10:35Z</time>
      </trkpt>
      <trkpt lat="44.09474" lon="3.02282">
        <ele>573</ele>
        <time>2012-05-13T08:10:37Z</time>
      </trkpt>
      <trkpt lat="44.09473" lon="3.02282">
        <ele>573</ele>
        <time>2012-05-13T08:10:39Z</time>
      </trkpt>
      <trkpt lat="44.09472" lon="3.02281">
        <ele>573</ele>
        <time>2012-05-13T08:10:41Z</time>
      </trkpt>
      <trkpt lat="44.09471" lon="3.02282">
        <ele>573</ele>
        <time>2012-05-13T08:10:43Z</time>
      </trkpt>
      <trkpt lat="44.0947" lon="3.02282">
        <ele>573</ele>
        <time>2012-05-13T08:10:45Z</time>
      </trkpt>
      <trkpt lat="44.09469" lon="3.02283">
        <ele>573</ele>
        <time>2012-05-13T08:10:47Z</time>
      </trkpt>
      <trkpt lat="44.09468" lon="3.02285">
        <ele>573</ele>
        <time>2012-05-13T08:10:49Z</time>
      </trkpt>
      <trkpt lat="44.09467" lon="3.02286">
        <ele>573</ele>
        <time>2012-05-13T08:10:51Z</time>
      </trkpt>
      <trkpt lat="44.09466" lon="3.02285">
        <ele>573</ele>
        <time>2012-05-13T08:10:53Z</time>
      </trkpt>
      <trkpt lat="44.09465" lon="3.02285">
        <ele>573</ele>
        <time>2012-05-13T08:10:55Z</time>
      </trkpt>
      <trkpt lat="44.09465" lon="3.02285">
        <ele>573</ele>
        <time>2012-05-13T08:10:57Z</time>
      </trkpt>
      <trkpt lat="44.09463" lon="3.02283">
        <ele>573</ele>
        <time>2012-05-13T08:10:59Z</time>
      </trkpt>
      <trkpt lat="44.0946" lon="3.02282">
        <ele>573</ele>
        <time>2012-05-13T08:11:01Z</time>
      </trkpt>
      <trkpt lat="44.09459" lon="3.0228">
        <ele>573</ele>
        <time>2012-05-13T08:11:03Z</time>
      </trkpt>
      <trkpt lat="44.09457" lon="3.02279">
        <ele>573</ele>
        <time>2012-05-13T08:11:05Z</time>
      </trkpt>
      <trkpt lat="44.09454" lon="3.02278">
        <ele>573</ele>
        <time>2012-05-13T08:11:07Z</time>
      </trkpt>
      <trkpt lat="44.09452" lon="3.02277">
        <ele>573</ele>
        <time>2012-05-13T08:11:09Z</time>
      </trkpt>
      <trkpt lat="44.0945" lon="3.02276">
        <ele>573</ele>
        <time>2012-05-13T08:11:11Z</time>
      </trkpt>
      <trkpt lat="44.09447" lon="3.02275">
        <ele>574</ele>
        <time>2012-05-13T08:11:13Z</time>
      </trkpt>
      <trkpt lat="44.09445" lon="3.02274">
        <ele>574</ele>
        <time>2012-05-13T08:11:15Z</time>
      </trkpt>
      <trkpt lat="44.09441" lon="3.02272">
        <ele>574</ele>
        <time>2012-05-13T08:11:17Z</time>
      </trkpt>
      <trkpt lat="44.09438" lon="3.02271">
        <ele>574</ele>
        <time>2012-05-13T08:11:19Z</time>
      </trkpt>
      <trkpt lat="44.09435" lon="3.02271">
        <ele>574</ele>
        <time>2012-05-13T08:11:21Z</time>
      </trkpt>
      <trkpt lat="44.09433" lon="3.0227">
        <ele>574</ele>
        <time>2012-05-13T08:11:23Z</time>
      </trkpt>
      <trkpt lat="44.0943" lon="3.02269">
        <ele>574</ele>
        <time>2012-05-13T08:11:25Z</time>
      </trkpt>
      <trkpt lat="44.09428" lon="3.02267">
        <ele>574</ele>
        <time>2012-05-13T08:11:27Z</time>
      </trkpt>
      <trkpt lat="44.09426" lon="3.02266">
        <ele>575</ele>
        <time>2012-05-13T08:11:29Z</time>
      </trkpt>
      <trkpt lat="44.09424" lon="3.02265">
        <ele>575</ele>
        <time>2012-05-13T08:11:31Z</time>
      </trkpt>
      <trkpt lat="44.09422" lon="3.02264">
        <ele>575</ele>
        <time>2012-05-13T08:11:33Z</time>
      </trkpt>
      <trkpt lat="44.0942" lon="3.02264">
        <ele>575</ele>
        <time>2012-05-13T08:11:35Z</time>
      </trkpt>
      <trkpt lat="44.09419" lon="3.02265">
        <ele>575</ele>
        <time>2012-05-13T08:11:37Z</time>
      </trkpt>
      <trkpt lat="44.09418" lon="3.02268">
        <ele>575</ele>
        <time>2012-05-13T08:11:39Z</time>
      </trkpt>
      <trkpt lat="44.09419" lon="3.02272">
        <ele>575</ele>
        <time>2012-05-13T08:11:41Z</time>
      </trkpt>
      <trkpt lat="44.0942" lon="3.02275">
        <ele>574</ele>
        <time>2012-05-13T08:11:43Z</time>
      </trkpt>
      <trkpt lat="44.09421" lon="3.02277">
        <ele>574</ele>
        <time>2012-05-13T08:11:45Z</time>
      </trkpt>
      <trkpt lat="44.09422" lon="3.0228">
        <ele>574</ele>
        <time>2012-05-13T08:11:47Z</time>
      </trkpt>
      <trkpt lat="44.09424" lon="3.02282">
        <ele>573</ele>
        <time>2012-05-13T08:11:49Z</time>
      </trkpt>
      <trkpt lat="44.09426" lon="3.02285">
        <ele>573</ele>
        <time>2012-05-13T08:11:51Z</time>
      </trkpt>
      <trkpt lat="44.09428" lon="3.02287">
        <ele>573</ele>
        <time>2012-05-13T08:11:53Z</time>
      </trkpt>
      <trkpt lat="44.0943" lon="3.02289">
        <ele>572</ele>
        <time>2012-05-13T08:11:55Z</time>
      </trkpt>
      <trkpt lat="44.09433" lon="3.0229">
        <ele>572</ele>
        <time>2012-05-13T08:11:57Z</time>
      </trkpt>
      <trkpt lat="44.09437" lon="3.02292">
        <ele>571</ele>
        <time>2012-05-13T08:11:59Z</time>
      </trkpt>
      <trkpt lat="44.09441" lon="3.02294">
        <ele>571</ele>
        <time>2012-05-13T08:12:01Z</time>
      </trkpt>
      <trkpt lat="44.09444" lon="3.02297">
        <ele>570</ele>
        <time>2012-05-13T08:12:03Z</time>
      </trkpt>
      <trkpt lat="44.09447" lon="3.023">
        <ele>570</ele>
        <time>2012-05-13T08:12:05Z</time>
      </trkpt>
      <trkpt lat="44.09452" lon="3.02303">
        <ele>569</ele>
        <time>2012-05-13T08:12:07Z</time>
      </trkpt>
      <trkpt lat="44.09456" lon="3.02305">
        <ele>568</ele>
        <time>2012-05-13T08:12:09Z</time>
      </trkpt>
      <trkpt lat="44.0946" lon="3.02308">
        <ele>568</ele>
        <time>2012-05-13T08:12:11Z</time>
      </trkpt>
      <trkpt lat="44.09464" lon="3.02311">
        <ele>567</ele>
        <time>2012-05-13T08:12:14Z</time>
      </trkpt>
      <trkpt lat="44.09468" lon="3.02315">
        <ele>567</ele>
        <time>2012-05-13T08:12:16Z</time>
      </trkpt>
      <trkpt lat="44.09471" lon="3.0232">
        <ele>566</ele>
        <time>2012-05-13T08:12:18Z</time>
      </trkpt>
      <trkpt lat="44.09474" lon="3.02326">
        <ele>566</ele>
        <time>2012-05-13T08:12:20Z</time>
      </trkpt>
      <trkpt lat="44.09476" lon="3.0233">
        <ele>566</ele>
        <time>2012-05-13T08:12:22Z</time>
      </trkpt>
      <trkpt lat="44.09476" lon="3.02334">
        <ele>565</ele>
        <time>2012-05-13T08:12:24Z</time>
      </trkpt>
      <trkpt lat="44.09477" lon="3.02338">
        <ele>565</ele>
        <time>2012-05-13T08:12:26Z</time>
      </trkpt>
      <trkpt lat="44.09478" lon="3.0234">
        <ele>565</ele>
        <time>2012-05-13T08:12:28Z</time>
      </trkpt>
      <trkpt lat="44.0948" lon="3.02343">
        <ele>564</ele>
        <time>2012-05-13T08:12:30Z</time>
      </trkpt>
      <trkpt lat="44.09481" lon="3.02347">
        <ele>564</ele>
        <time>2012-05-13T08:12:32Z</time>
      </trkpt>
      <trkpt lat="44.09482" lon="3.0235">
        <ele>564</ele>
        <time>2012-05-13T08:12:34Z</time>
      </trkpt>
      <trkpt lat="44.09482" lon="3.02352">
        <ele>564</ele>
        <time>2012-05-13T08:12:36Z</time>
      </trkpt>
      <trkpt lat="44.09483" lon="3.02356">
        <ele>564</ele>
        <time>2012-05-13T08:12:38Z</time>
      </trkpt>
      <trkpt lat="44.09483" lon="3.02359">
        <ele>564</ele>
        <time>2012-05-13T08:12:40Z</time>
      </trkpt>
      <trkpt lat="44.09484" lon="3.02363">
        <ele>564</ele>
        <time>2012-05-13T08:12:42Z</time>
      </trkpt>
      <trkpt lat="44.09484" lon="3.02367">
        <ele>563</ele>
        <time>2012-05-13T08:12:44Z</time>
      </trkpt>
      <trkpt lat="44.09486" lon="3.02372">
        <ele>563</ele>
        <time>2012-05-13T08:12:46Z</time>
      </trkpt>
      <trkpt lat="44.09487" lon="3.02379">
        <ele>562</ele>
        <time>2012-05-13T08:12:48Z</time>
      </trkpt>
      <trkpt lat="44.09488" lon="3.02385">
        <ele>562</ele>
        <time>2012-05-13T08:12:50Z</time>
      </trkpt>
      <trkpt lat="44.09489" lon="3.02393">
        <ele>562</ele>
        <time>2012-05-13T08:12:52Z</time>
      </trkpt>
      <trkpt lat="44.0949" lon="3.02398">
        <ele>562</ele>
        <time>2012-05-13T08:12:54Z</time>
      </trkpt>
      <trkpt lat="44.09491" lon="3.02404">
        <ele>562</ele>
        <time>2012-05-13T08:12:56Z</time>
      </trkpt>
      <trkpt lat="44.09492" lon="3.02411">
        <ele>562</ele>
        <time>2012-05-13T08:12:58Z</time>
      </trkpt>
      <trkpt lat="44.09494" lon="3.02417">
        <ele>561</ele>
        <time>2012-05-13T08:13:00Z</time>
      </trkpt>
      <trkpt lat="44.09496" lon="3.02423">
        <ele>561</ele>
        <time>2012-05-13T08:13:02Z</time>
      </trkpt>
      <trkpt lat="44.09497" lon="3.02429">
        <ele>561</ele>
        <time>2012-05-13T08:13:04Z</time>
      </trkpt>
      <trkpt lat="44.095" lon="3.02435">
        <ele>561</ele>
        <time>2012-05-13T08:13:06Z</time>
      </trkpt>
      <trkpt lat="44.09502" lon="3.02441">
        <ele>561</ele>
        <time>2012-05-13T08:13:08Z</time>
      </trkpt>
      <trkpt lat="44.09505" lon="3.02446">
        <ele>561</ele>
        <time>2012-05-13T08:13:10Z</time>
      </trkpt>
      <trkpt lat="44.09507" lon="3.02451">
        <ele>561</ele>
        <time>2012-05-13T08:13:12Z</time>
      </trkpt>
      <trkpt lat="44.0951" lon="3.02458">
        <ele>561</ele>
        <time>2012-05-13T08:13:14Z</time>
      </trkpt>
      <trkpt lat="44.09512" lon="3.02463">
        <ele>561</ele>
        <time>2012-05-13T08:13:16Z</time>
      </trkpt>
      <trkpt lat="44.09515" lon="3.02468">
        <ele>561</ele>
        <time>2012-05-13T08:13:18Z</time>
      </trkpt>
      <trkpt lat="44.09518" lon="3.02473">
        <ele>562</ele>
        <time>2012-05-13T08:13:20Z</time>
      </trkpt>
      <trkpt lat="44.09522" lon="3.02479">
        <ele>562</ele>
        <time>2012-05-13T08:13:22Z</time>
      </trkpt>
      <trkpt lat="44.09525" lon="3.02484">
        <ele>561</ele>
        <time>2012-05-13T08:13:24Z</time>
      </trkpt>
      <trkpt lat="44.0953" lon="3.02488">
        <ele>560</ele>
        <time>2012-05-13T08:13:26Z</time>
      </trkpt>
      <trkpt lat="44.09534" lon="3.02492">
        <ele>558</ele>
        <time>2012-05-13T08:13:28Z</time>
      </trkpt>
      <trkpt lat="44.09538" lon="3.02497">
        <ele>558</ele>
        <time>2012-05-13T08:13:30Z</time>
      </trkpt>
      <trkpt lat="44.09542" lon="3.02501">
        <ele>557</ele>
        <time>2012-05-13T08:13:32Z</time>
      </trkpt>
      <trkpt lat="44.09547" lon="3.02504">
        <ele>556</ele>
        <time>2012-05-13T08:13:34Z</time>
      </trkpt>
      <trkpt lat="44.09551" lon="3.02508">
        <ele>554</ele>
        <time>2012-05-13T08:13:36Z</time>
      </trkpt>
      <trkpt lat="44.09555" lon="3.0251">
        <ele>553</ele>
        <time>2012-05-13T08:13:38Z</time>
      </trkpt>
      <trkpt lat="44.0956" lon="3.02514">
        <ele>552</ele>
        <time>2012-05-13T08:13:40Z</time>
      </trkpt>
      <trkpt lat="44.09564" lon="3.02517">
        <ele>552</ele>
        <time>2012-05-13T08:13:42Z</time>
      </trkpt>
      <trkpt lat="44.09568" lon="3.02519">
        <ele>552</ele>
        <time>2012-05-13T08:13:45Z</time>
      </trkpt>
      <trkpt lat="44.09572" lon="3.02521">
        <ele>552</ele>
        <time>2012-05-13T08:13:47Z</time>
      </trkpt>
      <trkpt lat="44.09577" lon="3.02523">
        <ele>552</ele>
        <time>2012-05-13T08:13:49Z</time>
      </trkpt>
      <trkpt lat="44.09581" lon="3.02525">
        <ele>552</ele>
        <time>2012-05-13T08:13:51Z</time>
      </trkpt>
      <trkpt lat="44.09586" lon="3.02527">
        <ele>553</ele>
        <time>2012-05-13T08:13:53Z</time>
      </trkpt>
      <trkpt lat="44.09589" lon="3.02529">
        <ele>554</ele>
        <time>2012-05-13T08:13:55Z</time>
      </trkpt>
      <trkpt lat="44.09594" lon="3.0253">
        <ele>555</ele>
        <time>2012-05-13T08:13:57Z</time>
      </trkpt>
      <trkpt lat="44.09598" lon="3.0253">
        <ele>556</ele>
        <time>2012-05-13T08:13:59Z</time>
      </trkpt>
      <trkpt lat="44.09602" lon="3.02531">
        <ele>557</ele>
        <time>2012-05-13T08:14:01Z</time>
      </trkpt>
      <trkpt lat="44.09606" lon="3.02532">
        <ele>557</ele>
        <time>2012-05-13T08:14:03Z</time>
      </trkpt>
      <trkpt lat="44.0961" lon="3.02532">
        <ele>558</ele>
        <time>2012-05-13T08:14:05Z</time>
      </trkpt>
      <trkpt lat="44.09697" lon="3.02486">
        <ele>570</ele>
        <time>2012-05-13T08:14:51Z</time>
      </trkpt>
      <trkpt lat="44.09699" lon="3.02482">
        <ele>570</ele>
        <time>2012-05-13T08:14:53Z</time>
      </trkpt>
      <trkpt lat="44.09701" lon="3.02478">
        <ele>570</ele>
        <time>2012-05-13T08:14:55Z</time>
      </trkpt>
      <trkpt lat="44.09703" lon="3.02474">
        <ele>570</ele>
        <time>2012-05-13T08:14:57Z</time>
      </trkpt>
      <trkpt lat="44.09705" lon="3.02469">
        <ele>571</ele>
        <time>2012-05-13T08:14:59Z</time>
      </trkpt>
      <trkpt lat="44.09706" lon="3.02464">
        <ele>571</ele>
        <time>2012-05-13T08:15:01Z</time>
      </trkpt>
      <trkpt lat="44.09707" lon="3.02459">
        <ele>572</ele>
        <time>2012-05-13T08:15:03Z</time>
      </trkpt>
      <trkpt lat="44.09709" lon="3.02454">
        <ele>573</ele>
        <time>2012-05-13T08:15:05Z</time>
      </trkpt>
      <trkpt lat="44.0971" lon="3.02449">
        <ele>574</ele>
        <time>2012-05-13T08:15:07Z</time>
      </trkpt>
      <trkpt lat="44.0971" lon="3.02444">
        <ele>575</ele>
        <time>2012-05-13T08:15:09Z</time>
      </trkpt>
      <trkpt lat="44.09711" lon="3.02438">
        <ele>576</ele>
        <time>2012-05-13T08:15:11Z</time>
      </trkpt>
      <trkpt lat="44.09712" lon="3.02432">
        <ele>577</ele>
        <time>2012-05-13T08:15:13Z</time>
      </trkpt>
      <trkpt lat="44.09713" lon="3.02427">
        <ele>577</ele>
        <time>2012-05-13T08:15:15Z</time>
      </trkpt>
      <trkpt lat="44.09713" lon="3.02421">
        <ele>578</ele>
        <time>2012-05-13T08:15:17Z</time>
      </trkpt>
      <trkpt lat="44.09714" lon="3.02416">
        <ele>578</ele>
        <time>2012-05-13T08:15:20Z</time>
      </trkpt>
      <trkpt lat="44.09714" lon="3.0241">
        <ele>579</ele>
        <time>2012-05-13T08:15:22Z</time>
      </trkpt>
      <trkpt lat="44.09715" lon="3.02404">
        <ele>579</ele>
        <time>2012-05-13T08:15:24Z</time>
      </trkpt>
      <trkpt lat="44.09716" lon="3.02398">
        <ele>580</ele>
        <time>2012-05-13T08:15:26Z</time>
      </trkpt>
      <trkpt lat="44.09716" lon="3.02393">
        <ele>580</ele>
        <time>2012-05-13T08:15:28Z</time>
      </trkpt>
      <trkpt lat="44.09716" lon="3.02387">
        <ele>580</ele>
        <time>2012-05-13T08:15:30Z</time>
      </trkpt>
      <trkpt lat="44.09717" lon="3.02382">
        <ele>580</ele>
        <time>2012-05-13T08:15:32Z</time>
      </trkpt>
      <trkpt lat="44.09717" lon="3.02377">
        <ele>581</ele>
        <time>2012-05-13T08:15:34Z</time>
      </trkpt>
      <trkpt lat="44.09718" lon="3.02371">
        <ele>582</ele>
        <time>2012-05-13T08:15:36Z</time>
      </trkpt>
      <trkpt lat="44.09718" lon="3.02365">
        <ele>582</ele>
        <time>2012-05-13T08:15:38Z</time>
      </trkpt>
      <trkpt lat="44.09719" lon="3.0236">
        <ele>582</ele>
        <time>2012-05-13T08:15:40Z</time>
      </trkpt>
      <trkpt lat="44.09719" lon="3.02355">
        <ele>583</ele>
        <time>2012-05-13T08:15:42Z</time>
      </trkpt>
      <trkpt lat="44.0972" lon="3.02349">
        <ele>583</ele>
        <time>2012-05-13T08:15:44Z</time>
      </trkpt>
      <trkpt lat="44.0972" lon="3.02344">
        <ele>584</ele>
        <time>2012-05-13T08:15:46Z</time>
      </trkpt>
      <trkpt lat="44.09721" lon="3.02339">
        <ele>584</ele>
        <time>2012-05-13T08:15:48Z</time>
      </trkpt>
      <trkpt lat="44.09721" lon="3.02333">
        <ele>584</ele>
        <time>2012-05-13T08:15:50Z</time>
      </trkpt>
      <trkpt lat="44.09721" lon="3.02328">
        <ele>585</ele>
        <time>2012-05-13T08:15:52Z</time>
      </trkpt>
      <trkpt lat="44.09722" lon="3.02323">
        <ele>585</ele>
        <time>2012-05-13T08:15:54Z</time>
      </trkpt>
      <trkpt lat="44.09723" lon="3.02318">
        <ele>585</ele>
        <time>2012-05-13T08:15:56Z</time>
      </trkpt>
      <trkpt lat="44.09723" lon="3.02311">
        <ele>585</ele>
        <time>2012-05-13T08:15:58Z</time>
      </trkpt>
      <trkpt lat="44.09724" lon="3.02305">
        <ele>585</ele>
        <time>2012-05-13T08:16:00Z</time>
      </trkpt>
      <trkpt lat="44.09724" lon="3.023">
        <ele>585</ele>
        <time>2012-05-13T08:16:02Z</time>
      </trkpt>
      <trkpt lat="44.09725" lon="3.02294">
        <ele>585</ele>
        <time>2012-05-13T08:16:04Z</time>
      </trkpt>
      <trkpt lat="44.09725" lon="3.02289">
        <ele>585</ele>
        <time>2012-05-13T08:16:06Z</time>
      </trkpt>
      <trkpt lat="44.09726" lon="3.02284">
        <ele>585</ele>
        <time>2012-05-13T08:16:08Z</time>
      </trkpt>
      <trkpt lat="44.09727" lon="3.02278">
        <ele>586</ele>
        <time>2012-05-13T08:16:10Z</time>
      </trkpt>
      <trkpt lat="44.09727" lon="3.02273">
        <ele>587</ele>
        <time>2012-05-13T08:16:12Z</time>
      </trkpt>
      <trkpt lat="44.09728" lon="3.02267">
        <ele>588</ele>
        <time>2012-05-13T08:16:14Z</time>
      </trkpt>
      <trkpt lat="44.09728" lon="3.02262">
        <ele>588</ele>
        <time>2012-05-13T08:16:16Z</time>
      </trkpt>
      <trkpt lat="44.09728" lon="3.02256">
        <ele>589</ele>
        <time>2012-05-13T08:16:18Z</time>
      </trkpt>
      <trkpt lat="44.09729" lon="3.0225">
        <ele>588</ele>
        <time>2012-05-13T08:16:20Z</time>
      </trkpt>
      <trkpt lat="44.09729" lon="3.02244">
        <ele>588</ele>
        <time>2012-05-13T08:16:22Z</time>
      </trkpt>
      <trkpt lat="44.09731" lon="3.02238">
        <ele>588</ele>
        <time>2012-05-13T08:16:24Z</time>
      </trkpt>
      <trkpt lat="44.09731" lon="3.02232">
        <ele>588</ele>
        <time>2012-05-13T08:16:26Z</time>
      </trkpt>
      <trkpt lat="44.09732" lon="3.02226">
        <ele>589</ele>
        <time>2012-05-13T08:16:28Z</time>
      </trkpt>
      <trkpt lat="44.09732" lon="3.0222">
        <ele>589</ele>
        <time>2012-05-13T08:16:30Z</time>
      </trkpt>
      <trkpt lat="44.09733" lon="3.02214">
        <ele>589</ele>
        <time>2012-05-13T08:16:32Z</time>
      </trkpt>
      <trkpt lat="44.09734" lon="3.02208">
        <ele>590</ele>
        <time>2012-05-13T08:16:34Z</time>
      </trkpt>
      <trkpt lat="44.09734" lon="3.02201">
        <ele>590</ele>
        <time>2012-05-13T08:16:36Z</time>
      </trkpt>
      <trkpt lat="44.09735" lon="3.02196">
        <ele>591</ele>
        <time>2012-05-13T08:16:38Z</time>
      </trkpt>
      <trkpt lat="44.09735" lon="3.0219">
        <ele>591</ele>
        <time>2012-05-13T08:16:40Z</time>
      </trkpt>
      <trkpt lat="44.09735" lon="3.02184">
        <ele>592</ele>
        <time>2012-05-13T08:16:42Z</time>
      </trkpt>
      <trkpt lat="44.09736" lon="3.02178">
        <ele>592</ele>
        <time>2012-05-13T08:16:44Z</time>
      </trkpt>
      <trkpt lat="44.09736" lon="3.02172">
        <ele>593</ele>
        <time>2012-05-13T08:16:46Z</time>
      </trkpt>
      <trkpt lat="44.09737" lon="3.02167">
        <ele>593</ele>
        <time>2012-05-13T08:16:48Z</time>
      </trkpt>
      <trkpt lat="44.09738" lon="3.02161">
        <ele>594</ele>
        <time>2012-05-13T08:16:50Z</time>
      </trkpt>
      <trkpt lat="44.09739" lon="3.02155">
        <ele>594</ele>
        <time>2012-05-13T08:16:52Z</time>
      </trkpt>
      <trkpt lat="44.09739" lon="3.0215">
        <ele>595</ele>
        <time>2012-05-13T08:16:55Z</time>
      </trkpt>
      <trkpt lat="44.09739" lon="3.02144">
        <ele>595</ele>
        <time>2012-05-13T08:16:57Z</time>
      </trkpt>
      <trkpt lat="44.0974" lon="3.02137">
        <ele>596</ele>
        <time>2012-05-13T08:16:59Z</time>
      </trkpt>
      <trkpt lat="44.09741" lon="3.02131">
        <ele>595</ele>
        <time>2012-05-13T08:17:01Z</time>
      </trkpt>
      <trkpt lat="44.09742" lon="3.02125">
        <ele>595</ele>
        <time>2012-05-13T08:17:03Z</time>
      </trkpt>
      <trkpt lat="44.09743" lon="3.02119">
        <ele>595</ele>
        <time>2012-05-13T08:17:05Z</time>
      </trkpt>
      <trkpt lat="44.09744" lon="3.02113">
        <ele>595</ele>
        <time>2012-05-13T08:17:07Z</time>
      </trkpt>
      <trkpt lat="44.09745" lon="3.02106">
        <ele>595</ele>
        <time>2012-05-13T08:17:09Z</time>
      </trkpt>
      <trkpt lat="44.09746" lon="3.021">
        <ele>594</ele>
        <time>2012-05-13T08:17:11Z</time>
      </trkpt>
      <trkpt lat="44.09748" lon="3.02094">
        <ele>593</ele>
        <time>2012-05-13T08:17:13Z</time>
      </trkpt>
      <trkpt lat="44.09755" lon="3.02085">
        <ele>593</ele>
        <time>2012-05-13T08:17:17Z</time>
      </trkpt>
      <trkpt lat="44.09755" lon="3.0208">
        <ele>591</ele>
        <time>2012-05-13T08:17:19Z</time>
      </trkpt>
      <trkpt lat="44.09754" lon="3.02073">
        <ele>591</ele>
        <time>2012-05-13T08:17:21Z</time>
      </trkpt>
      <trkpt lat="44.09755" lon="3.02067">
        <ele>591</ele>
        <time>2012-05-13T08:17:23Z</time>
      </trkpt>
      <trkpt lat="44.09755" lon="3.02062">
        <ele>591</ele>
        <time>2012-05-13T08:17:25Z</time>
      </trkpt>
      <trkpt lat="44.09755" lon="3.02057">
        <ele>591</ele>
        <time>2012-05-13T08:17:27Z</time>
      </trkpt>
      <trkpt lat="44.09756" lon="3.02051">
        <ele>591</ele>
        <time>2012-05-13T08:17:29Z</time>
      </trkpt>
      <trkpt lat="44.09757" lon="3.02045">
        <ele>591</ele>
        <time>2012-05-13T08:17:31Z</time>
      </trkpt>
      <trkpt lat="44.09758" lon="3.0204">
        <ele>591</ele>
        <time>2012-05-13T08:17:33Z</time>
      </trkpt>
      <trkpt lat="44.09758" lon="3.02031">
        <ele>590</ele>
        <time>2012-05-13T08:17:35Z</time>
      </trkpt>
      <trkpt lat="44.09759" lon="3.02025">
        <ele>590</ele>
        <time>2012-05-13T08:17:37Z</time>
      </trkpt>
      <trkpt lat="44.0976" lon="3.02019">
        <ele>590</ele>
        <time>2012-05-13T08:17:39Z</time>
      </trkpt>
      <trkpt lat="44.09761" lon="3.02012">
        <ele>590</ele>
        <time>2012-05-13T08:17:41Z</time>
      </trkpt>
      <trkpt lat="44.09761" lon="3.02006">
        <ele>590</ele>
        <time>2012-05-13T08:17:43Z</time>
      </trkpt>
      <trkpt lat="44.09762" lon="3.02">
        <ele>591</ele>
        <time>2012-05-13T08:17:45Z</time>
      </trkpt>
      <trkpt lat="44.09763" lon="3.01993">
        <ele>591</ele>
        <time>2012-05-13T08:17:47Z</time>
      </trkpt>
      <trkpt lat="44.09764" lon="3.01988">
        <ele>592</ele>
        <time>2012-05-13T08:17:49Z</time>
      </trkpt>
      <trkpt lat="44.09767" lon="3.01983">
        <ele>593</ele>
        <time>2012-05-13T08:17:51Z</time>
      </trkpt>
      <trkpt lat="44.09769" lon="3.01977">
        <ele>594</ele>
        <time>2012-05-13T08:17:53Z</time>
      </trkpt>
      <trkpt lat="44.09772" lon="3.01972">
        <ele>595</ele>
        <time>2012-05-13T08:17:55Z</time>
      </trkpt>
      <trkpt lat="44.09775" lon="3.01967">
        <ele>596</ele>
        <time>2012-05-13T08:17:57Z</time>
      </trkpt>
      <trkpt lat="44.09778" lon="3.01963">
        <ele>597</ele>
        <time>2012-05-13T08:17:59Z</time>
      </trkpt>
      <trkpt lat="44.09782" lon="3.01959">
        <ele>597</ele>
        <time>2012-05-13T08:18:01Z</time>
      </trkpt>
      <trkpt lat="44.09785" lon="3.01956">
        <ele>598</ele>
        <time>2012-05-13T08:18:03Z</time>
      </trkpt>
      <trkpt lat="44.0979" lon="3.01953">
        <ele>598</ele>
        <time>2012-05-13T08:18:05Z</time>
      </trkpt>
      <trkpt lat="44.09794" lon="3.0195">
        <ele>598</ele>
        <time>2012-05-13T08:18:07Z</time>
      </trkpt>
      <trkpt lat="44.09798" lon="3.01949">
        <ele>598</ele>
        <time>2012-05-13T08:18:09Z</time>
      </trkpt>
      <trkpt lat="44.09803" lon="3.01948">
        <ele>598</ele>
        <time>2012-05-13T08:18:11Z</time>
      </trkpt>
      <trkpt lat="44.09807" lon="3.01947">
        <ele>597</ele>
        <time>2012-05-13T08:18:13Z</time>
      </trkpt>
      <trkpt lat="44.09812" lon="3.01947">
        <ele>597</ele>
        <time>2012-05-13T08:18:15Z</time>
      </trkpt>
      <trkpt lat="44.09817" lon="3.01947">
        <ele>597</ele>
        <time>2012-05-13T08:18:17Z</time>
      </trkpt>
      <trkpt lat="44.09821" lon="3.01947">
        <ele>597</ele>
        <time>2012-05-13T08:18:19Z</time>
      </trkpt>
      <trkpt lat="44.09826" lon="3.01948">
        <ele>597</ele>
        <time>2012-05-13T08:18:21Z</time>
      </trkpt>
      <trkpt lat="44.0983" lon="3.0195">
        <ele>597</ele>
        <time>2012-05-13T08:18:23Z</time>
      </trkpt>
      <trkpt lat="44.09834" lon="3.01953">
        <ele>597</ele>
        <time>2012-05-13T08:18:25Z</time>
      </trkpt>
      <trkpt lat="44.09839" lon="3.01956">
        <ele>596</ele>
        <time>2012-05-13T08:18:27Z</time>
      </trkpt>
      <trkpt lat="44.09843" lon="3.01959">
        <ele>596</ele>
        <time>2012-05-13T08:18:30Z</time>
      </trkpt>
      <trkpt lat="44.09846" lon="3.01963">
        <ele>596</ele>
        <time>2012-05-13T08:18:32Z</time>
      </trkpt>
      <trkpt lat="44.0985" lon="3.01966">
        <ele>596</ele>
        <time>2012-05-13T08:18:34Z</time>
      </trkpt>
      <trkpt lat="44.09852" lon="3.01971">
        <ele>596</ele>
        <time>2012-05-13T08:18:36Z</time>
      </trkpt>
      <trkpt lat="44.09856" lon="3.01976">
        <ele>595</ele>
        <time>2012-05-13T08:18:38Z</time>
      </trkpt>
      <trkpt lat="44.09858" lon="3.01981">
        <ele>595</ele>
        <time>2012-05-13T08:18:40Z</time>
      </trkpt>
      <trkpt lat="44.09861" lon="3.01986">
        <ele>595</ele>
        <time>2012-05-13T08:18:42Z</time>
      </trkpt>
      <trkpt lat="44.09863" lon="3.01992">
        <ele>595</ele>
        <time>2012-05-13T08:18:44Z</time>
      </trkpt>
      <trkpt lat="44.09865" lon="3.01997">
        <ele>594</ele>
        <time>2012-05-13T08:18:46Z</time>
      </trkpt>
      <trkpt lat="44.09866" lon="3.02004">
        <ele>594</ele>
        <time>2012-05-13T08:18:48Z</time>
      </trkpt>
      <trkpt lat="44.09867" lon="3.0201">
        <ele>594</ele>
        <time>2012-05-13T08:18:50Z</time>
      </trkpt>
      <trkpt lat="44.09868" lon="3.02017">
        <ele>594</ele>
        <time>2012-05-13T08:18:52Z</time>
      </trkpt>
      <trkpt lat="44.09868" lon="3.02024">
        <ele>595</ele>
        <time>2012-05-13T08:18:54Z</time>
      </trkpt>
      <trkpt lat="44.09867" lon="3.0203">
        <ele>596</ele>
        <time>2012-05-13T08:18:56Z</time>
      </trkpt>
      <trkpt lat="44.09867" lon="3.02037">
        <ele>597</ele>
        <time>2012-05-13T08:18:58Z</time>
      </trkpt>
      <trkpt lat="44.09866" lon="3.02046">
        <ele>598</ele>
        <time>2012-05-13T08:19:00Z</time>
      </trkpt>
      <trkpt lat="44.09865" lon="3.02052">
        <ele>599</ele>
        <time>2012-05-13T08:19:02Z</time>
      </trkpt>
      <trkpt lat="44.09864" lon="3.02058">
        <ele>600</ele>
        <time>2012-05-13T08:19:04Z</time>
      </trkpt>
      <trkpt lat="44.09862" lon="3.02063">
        <ele>600</ele>
        <time>2012-05-13T08:19:06Z</time>
      </trkpt>
      <trkpt lat="44.0986" lon="3.02069">
        <ele>600</ele>
        <time>2012-05-13T08:19:08Z</time>
      </trkpt>
      <trkpt lat="44.09857" lon="3.02074">
        <ele>600</ele>
        <time>2012-05-13T08:19:10Z</time>
      </trkpt>
      <trkpt lat="44.09854" lon="3.0208">
        <ele>600</ele>
        <time>2012-05-13T08:19:12Z</time>
      </trkpt>
      <trkpt lat="44.09852" lon="3.02084">
        <ele>600</ele>
        <time>2012-05-13T08:19:14Z</time>
      </trkpt>
      <trkpt lat="44.09848" lon="3.02089">
        <ele>600</ele>
        <time>2012-05-13T08:19:16Z</time>
      </trkpt>
      <trkpt lat="44.09845" lon="3.02093">
        <ele>601</ele>
        <time>2012-05-13T08:19:18Z</time>
      </trkpt>
      <trkpt lat="44.09841" lon="3.02097">
        <ele>601</ele>
        <time>2012-05-13T08:19:20Z</time>
      </trkpt>
      <trkpt lat="44.09837" lon="3.02101">
        <ele>601</ele>
        <time>2012-05-13T08:19:22Z</time>
      </trkpt>
      <trkpt lat="44.09832" lon="3.02103">
        <ele>601</ele>
        <time>2012-05-13T08:19:24Z</time>
      </trkpt>
      <trkpt lat="44.09828" lon="3.02105">
        <ele>601</ele>
        <time>2012-05-13T08:19:26Z</time>
      </trkpt>
      <trkpt lat="44.09823" lon="3.02107">
        <ele>601</ele>
        <time>2012-05-13T08:19:28Z</time>
      </trkpt>
      <trkpt lat="44.09818" lon="3.02107">
        <ele>601</ele>
        <time>2012-05-13T08:19:30Z</time>
      </trkpt>
      <trkpt lat="44.09813" lon="3.02107">
        <ele>601</ele>
        <time>2012-05-13T08:19:32Z</time>
      </trkpt>
      <trkpt lat="44.09808" lon="3.02107">
        <ele>600</ele>
        <time>2012-05-13T08:19:34Z</time>
      </trkpt>
      <trkpt lat="44.09802" lon="3.02106">
        <ele>600</ele>
        <time>2012-05-13T08:19:36Z</time>
      </trkpt>
      <trkpt lat="44.09797" lon="3.02106">
        <ele>600</ele>
        <time>2012-05-13T08:19:38Z</time>
      </trkpt>
      <trkpt lat="44.09792" lon="3.02105">
        <ele>600</ele>
        <time>2012-05-13T08:19:40Z</time>
      </trkpt>
      <trkpt lat="44.09787" lon="3.02103">
        <ele>600</ele>
        <time>2012-05-13T08:19:42Z</time>
      </trkpt>
      <trkpt lat="44.09782" lon="3.02102">
        <ele>600</ele>
        <time>2012-05-13T08:19:44Z</time>
      </trkpt>
      <trkpt lat="44.09777" lon="3.02101">
        <ele>599</ele>
        <time>2012-05-13T08:19:46Z</time>
      </trkpt>
      <trkpt lat="44.09772" lon="3.021">
        <ele>599</ele>
        <time>2012-05-13T08:19:48Z</time>
      </trkpt>
      <trkpt lat="44.09768" lon="3.021">
        <ele>600</ele>
        <time>2012-05-13T08:19:50Z</time>
      </trkpt>
      <trkpt lat="44.09763" lon="3.02099">
        <ele>600</ele>
        <time>2012-05-13T08:19:52Z</time>
      </trkpt>
      <trkpt lat="44.09758" lon="3.02098">
        <ele>599</ele>
        <time>2012-05-13T08:19:55Z</time>
      </trkpt>
      <trkpt lat="44.09753" lon="3.02098">
        <ele>599</ele>
        <time>2012-05-13T08:19:57Z</time>
      </trkpt>
      <trkpt lat="44.09748" lon="3.02096">
        <ele>599</ele>
        <time>2012-05-13T08:19:59Z</time>
      </trkpt>
      <trkpt lat="44.09743" lon="3.02094">
        <ele>599</ele>
        <time>2012-05-13T08:20:01Z</time>
      </trkpt>
      <trkpt lat="44.09739" lon="3.02093">
        <ele>599</ele>
        <time>2012-05-13T08:20:03Z</time>
      </trkpt>
      <trkpt lat="44.09736" lon="3.02092">
        <ele>599</ele>
        <time>2012-05-13T08:20:05Z</time>
      </trkpt>
      <trkpt lat="44.09734" lon="3.02092">
        <ele>599</ele>
        <time>2012-05-13T08:20:07Z</time>
      </trkpt>
      <trkpt lat="44.09732" lon="3.02091">
        <ele>598</ele>
        <time>2012-05-13T08:20:09Z</time>
      </trkpt>
      <trkpt lat="44.09729" lon="3.0209">
        <ele>598</ele>
        <time>2012-05-13T08:20:11Z</time>
      </trkpt>
      <trkpt lat="44.09727" lon="3.02088">
        <ele>597</ele>
        <time>2012-05-13T08:20:13Z</time>
      </trkpt>
      <trkpt lat="44.09726" lon="3.02088">
        <ele>597</ele>
        <time>2012-05-13T08:20:15Z</time>
      </trkpt>
      <trkpt lat="44.09726" lon="3.02088">
        <ele>597</ele>
        <time>2012-05-13T08:20:17Z</time>
      </trkpt>
      <trkpt lat="44.09726" lon="3.02088">
        <ele>597</ele>
        <time>2012-05-13T08:20:19Z</time>
      </trkpt>
      <trkpt lat="44.09726" lon="3.02088">
        <ele>596</ele>
        <time>2012-05-13T08:20:21Z</time>
      </trkpt>
      <trkpt lat="44.09726" lon="3.02088">
        <ele>596</ele>
        <time>2012-05-13T08:20:25Z</time>
      </trkpt>
      <trkpt lat="44.09726" lon="3.02088">
        <ele>596</ele>
        <time>2012-05-13T08:20:27Z</time>
      </trkpt>
      <trkpt lat="44.09726" lon="3.02088">
        <ele>596</ele>
        <time>2012-05-13T08:20:29Z</time>
      </trkpt>
      <trkpt lat="44.09726" lon="3.02088">
        <ele>596</ele>
        <time>2012-05-13T08:20:31Z</time>
      </trkpt>
      <trkpt lat="44.09726" lon="3.02088">
        <ele>596</ele>
        <time>2012-05-13T08:20:33Z</time>
      </trkpt>
      <trkpt lat="44.09726" lon="3.02088">
        <ele>596</ele>
        <time>2012-05-13T08:20:35Z</time>
      </trkpt>
      <trkpt lat="44.09727" lon="3.02088">
        <ele>597</ele>
        <time>2012-05-13T08:20:37Z</time>
      </trkpt>
      <trkpt lat="44.09727" lon="3.02088">
        <ele>597</ele>
        <time>2012-05-13T08:20:39Z</time>
      </trkpt>
      <trkpt lat="44.09727" lon="3.02088">
        <ele>597</ele>
        <time>2012-05-13T08:20:41Z</time>
      </trkpt>
      <trkpt lat="44.09726" lon="3.02088">
        <ele>597</ele>
        <time>2012-05-13T08:20:43Z</time>
      </trkpt>
      <trkpt lat="44.09724" lon="3.02089">
        <ele>597</ele>
        <time>2012-05-13T08:20:45Z</time>
      </trkpt>
      <trkpt lat="44.09723" lon="3.02089">
        <ele>596</ele>
        <time>2012-05-13T08:20:47Z</time>
      </trkpt>
      <trkpt lat="44.09722" lon="3.02089">
        <ele>596</ele>
        <time>2012-05-13T08:20:49Z</time>
      </trkpt>
      <trkpt lat="44.09721" lon="3.02088">
        <ele>596</ele>
        <time>2012-05-13T08:20:51Z</time>
      </trkpt>
      <trkpt lat="44.09721" lon="3.02088">
        <ele>596</ele>
        <time>2012-05-13T08:20:53Z</time>
      </trkpt>
      <trkpt lat="44.09721" lon="3.02088">
        <ele>596</ele>
        <time>2012-05-13T08:20:55Z</time>
      </trkpt>
      <trkpt lat="44.09721" lon="3.02087">
        <ele>596</ele>
        <time>2012-05-13T08:20:57Z</time>
      </trkpt>
      <trkpt lat="44.09719" lon="3.02088">
        <ele>596</ele>
        <time>2012-05-13T08:20:59Z</time>
      </trkpt>
      <trkpt lat="44.09715" lon="3.02088">
        <ele>596</ele>
        <time>2012-05-13T08:21:01Z</time>
      </trkpt>
      <trkpt lat="44.09713" lon="3.02087">
        <ele>597</ele>
        <time>2012-05-13T08:21:03Z</time>
      </trkpt>
      <trkpt lat="44.0971" lon="3.02087">
        <ele>597</ele>
        <time>2012-05-13T08:21:05Z</time>
      </trkpt>
      <trkpt lat="44.09706" lon="3.02087">
        <ele>597</ele>
        <time>2012-05-13T08:21:07Z</time>
      </trkpt>
      <trkpt lat="44.09702" lon="3.02087">
        <ele>597</ele>
        <time>2012-05-13T08:21:09Z</time>
      </trkpt>
      <trkpt lat="44.09698" lon="3.02086">
        <ele>597</ele>
        <time>2012-05-13T08:21:11Z</time>
      </trkpt>
      <trkpt lat="44.09694" lon="3.02085">
        <ele>597</ele>
        <time>2012-05-13T08:21:13Z</time>
      </trkpt>
      <trkpt lat="44.09688" lon="3.02084">
        <ele>597</ele>
        <time>2012-05-13T08:21:15Z</time>
      </trkpt>
      <trkpt lat="44.09684" lon="3.02084">
        <ele>597</ele>
        <time>2012-05-13T08:21:17Z</time>
      </trkpt>
      <trkpt lat="44.0968" lon="3.02083">
        <ele>596</ele>
        <time>2012-05-13T08:21:19Z</time>
      </trkpt>
      <trkpt lat="44.09675" lon="3.02083">
        <ele>596</ele>
        <time>2012-05-13T08:21:21Z</time>
      </trkpt>
      <trkpt lat="44.0967" lon="3.02083">
        <ele>596</ele>
        <time>2012-05-13T08:21:23Z</time>
      </trkpt>
      <trkpt lat="44.09664" lon="3.02082">
        <ele>596</ele>
        <time>2012-05-13T08:21:25Z</time>
      </trkpt>
      <trkpt lat="44.09659" lon="3.02081">
        <ele>597</ele>
        <time>2012-05-13T08:21:27Z</time>
      </trkpt>
      <trkpt lat="44.09654" lon="3.0208">
        <ele>597</ele>
        <time>2012-05-13T08:21:29Z</time>
      </trkpt>
      <trkpt lat="44.09649" lon="3.02079">
        <ele>596</ele>
        <time>2012-05-13T08:21:31Z</time>
      </trkpt>
      <trkpt lat="44.09644" lon="3.02079">
        <ele>596</ele>
        <time>2012-05-13T08:21:33Z</time>
      </trkpt>
      <trkpt lat="44.09639" lon="3.02078">
        <ele>595</ele>
        <time>2012-05-13T08:21:35Z</time>
      </trkpt>
      <trkpt lat="44.09634" lon="3.02077">
        <ele>595</ele>
        <time>2012-05-13T08:21:37Z</time>
      </trkpt>
      <trkpt lat="44.09629" lon="3.02076">
        <ele>595</ele>
        <time>2012-05-13T08:21:39Z</time>
      </trkpt>
      <trkpt lat="44.09624" lon="3.02075">
        <ele>594</ele>
        <time>2012-05-13T08:21:41Z</time>
      </trkpt>
      <trkpt lat="44.09619" lon="3.02075">
        <ele>594</ele>
        <time>2012-05-13T08:21:43Z</time>
      </trkpt>
      <trkpt lat="44.09614" lon="3.02076">
        <ele>594</ele>
        <time>2012-05-13T08:21:45Z</time>
      </trkpt>
      <trkpt lat="44.09608" lon="3.02077">
        <ele>594</ele>
        <time>2012-05-13T08:21:47Z</time>
      </trkpt>
      <trkpt lat="44.09603" lon="3.02077">
        <ele>594</ele>
        <time>2012-05-13T08:21:49Z</time>
      </trkpt>
      <trkpt lat="44.09598" lon="3.02077">
        <ele>594</ele>
        <time>2012-05-13T08:21:51Z</time>
      </trkpt>
      <trkpt lat="44.09593" lon="3.02076">
        <ele>594</ele>
        <time>2012-05-13T08:21:53Z</time>
      </trkpt>
      <trkpt lat="44.09588" lon="3.02076">
        <ele>594</ele>
        <time>2012-05-13T08:21:55Z</time>
      </trkpt>
      <trkpt lat="44.09583" lon="3.02076">
        <ele>594</ele>
        <time>2012-05-13T08:21:57Z</time>
      </trkpt>
      <trkpt lat="44.09578" lon="3.02076">
        <ele>594</ele>
        <time>2012-05-13T08:21:59Z</time>
      </trkpt>
      <trkpt lat="44.09573" lon="3.02076">
        <ele>595</ele>
        <time>2012-05-13T08:22:01Z</time>
      </trkpt>
      <trkpt lat="44.09568" lon="3.02076">
        <ele>595</ele>
        <time>2012-05-13T08:22:03Z</time>
      </trkpt>
      <trkpt lat="44.09563" lon="3.02077">
        <ele>595</ele>
        <time>2012-05-13T08:22:05Z</time>
      </trkpt>
      <trkpt lat="44.09558" lon="3.02077">
        <ele>595</ele>
        <time>2012-05-13T08:22:07Z</time>
      </trkpt>
      <trkpt lat="44.09553" lon="3.02077">
        <ele>594</ele>
        <time>2012-05-13T08:22:09Z</time>
      </trkpt>
      <trkpt lat="44.09548" lon="3.02077">
        <ele>594</ele>
        <time>2012-05-13T08:22:11Z</time>
      </trkpt>
      <trkpt lat="44.09543" lon="3.02078">
        <ele>593</ele>
        <time>2012-05-13T08:22:14Z</time>
      </trkpt>
      <trkpt lat="44.09539" lon="3.02078">
        <ele>593</ele>
        <time>2012-05-13T08:22:16Z</time>
      </trkpt>
      <trkpt lat="44.09534" lon="3.02078">
        <ele>592</ele>
        <time>2012-05-13T08:22:18Z</time>
      </trkpt>
      <trkpt lat="44.09528" lon="3.02078">
        <ele>592</ele>
        <time>2012-05-13T08:22:20Z</time>
      </trkpt>
      <trkpt lat="44.09524" lon="3.02078">
        <ele>592</ele>
        <time>2012-05-13T08:22:22Z</time>
      </trkpt>
      <trkpt lat="44.09519" lon="3.02079">
        <ele>592</ele>
        <time>2012-05-13T08:22:24Z</time>
      </trkpt>
      <trkpt lat="44.09514" lon="3.02079">
        <ele>592</ele>
        <time>2012-05-13T08:22:26Z</time>
      </trkpt>
      <trkpt lat="44.09509" lon="3.0208">
        <ele>592</ele>
        <time>2012-05-13T08:22:28Z</time>
      </trkpt>
      <trkpt lat="44.09503" lon="3.0208">
        <ele>593</ele>
        <time>2012-05-13T08:22:30Z</time>
      </trkpt>
      <trkpt lat="44.09498" lon="3.0208">
        <ele>593</ele>
        <time>2012-05-13T08:22:32Z</time>
      </trkpt>
      <trkpt lat="44.09494" lon="3.0208">
        <ele>593</ele>
        <time>2012-05-13T08:22:34Z</time>
      </trkpt>
      <trkpt lat="44.09489" lon="3.0208">
        <ele>593</ele>
        <time>2012-05-13T08:22:36Z</time>
      </trkpt>
      <trkpt lat="44.09484" lon="3.0208">
        <ele>593</ele>
        <time>2012-05-13T08:22:38Z</time>
      </trkpt>
      <trkpt lat="44.0948" lon="3.0208">
        <ele>593</ele>
        <time>2012-05-13T08:22:40Z</time>
      </trkpt>
      <trkpt lat="44.09475" lon="3.02081">
        <ele>593</ele>
        <time>2012-05-13T08:22:42Z</time>
      </trkpt>
      <trkpt lat="44.09471" lon="3.02082">
        <ele>594</ele>
        <time>2012-05-13T08:22:44Z</time>
      </trkpt>
      <trkpt lat="44.09466" lon="3.02082">
        <ele>594</ele>
        <time>2012-05-13T08:22:46Z</time>
      </trkpt>
      <trkpt lat="44.09461" lon="3.02082">
        <ele>594</ele>
        <time>2012-05-13T08:22:48Z</time>
      </trkpt>
      <trkpt lat="44.09456" lon="3.02083">
        <ele>594</ele>
        <time>2012-05-13T08:22:50Z</time>
      </trkpt>
      <trkpt lat="44.09452" lon="3.02083">
        <ele>594</ele>
        <time>2012-05-13T08:22:52Z</time>
      </trkpt>
      <trkpt lat="44.09447" lon="3.02083">
        <ele>594</ele>
        <time>2012-05-13T08:22:54Z</time>
      </trkpt>
      <trkpt lat="44.09443" lon="3.02083">
        <ele>595</ele>
        <time>2012-05-13T08:22:56Z</time>
      </trkpt>
      <trkpt lat="44.09438" lon="3.02083">
        <ele>595</ele>
        <time>2012-05-13T08:22:58Z</time>
      </trkpt>
      <trkpt lat="44.09433" lon="3.02083">
        <ele>596</ele>
        <time>2012-05-13T08:23:00Z</time>
      </trkpt>
      <trkpt lat="44.09428" lon="3.02084">
        <ele>596</ele>
        <time>2012-05-13T08:23:02Z</time>
      </trkpt>
      <trkpt lat="44.09421" lon="3.02083">
        <ele>596</ele>
        <time>2012-05-13T08:23:04Z</time>
      </trkpt>
      <trkpt lat="44.09416" lon="3.02083">
        <ele>596</ele>
        <time>2012-05-13T08:23:06Z</time>
      </trkpt>
      <trkpt lat="44.09411" lon="3.02083">
        <ele>596</ele>
        <time>2012-05-13T08:23:08Z</time>
      </trkpt>
      <trkpt lat="44.09407" lon="3.02084">
        <ele>597</ele>
        <time>2012-05-13T08:23:10Z</time>
      </trkpt>
      <trkpt lat="44.09402" lon="3.02084">
        <ele>597</ele>
        <time>2012-05-13T08:23:12Z</time>
      </trkpt>
      <trkpt lat="44.09397" lon="3.02084">
        <ele>597</ele>
        <time>2012-05-13T08:23:14Z</time>
      </trkpt>
      <trkpt lat="44.09393" lon="3.02085">
        <ele>597</ele>
        <time>2012-05-13T08:23:16Z</time>
      </trkpt>
      <trkpt lat="44.09388" lon="3.02085">
        <ele>597</ele>
        <time>2012-05-13T08:23:18Z</time>
      </trkpt>
      <trkpt lat="44.09383" lon="3.02085">
        <ele>597</ele>
        <time>2012-05-13T08:23:20Z</time>
      </trkpt>
      <trkpt lat="44.09379" lon="3.02085">
        <ele>598</ele>
        <time>2012-05-13T08:23:22Z</time>
      </trkpt>
      <trkpt lat="44.09374" lon="3.02085">
        <ele>598</ele>
        <time>2012-05-13T08:23:24Z</time>
      </trkpt>
      <trkpt lat="44.0937" lon="3.02085">
        <ele>598</ele>
        <time>2012-05-13T08:23:26Z</time>
      </trkpt>
      <trkpt lat="44.09366" lon="3.02085">
        <ele>598</ele>
        <time>2012-05-13T08:23:28Z</time>
      </trkpt>
      <trkpt lat="44.09362" lon="3.02086">
        <ele>598</ele>
        <time>2012-05-13T08:23:30Z</time>
      </trkpt>
      <trkpt lat="44.09357" lon="3.02087">
        <ele>599</ele>
        <time>2012-05-13T08:23:32Z</time>
      </trkpt>
      <trkpt lat="44.09353" lon="3.02087">
        <ele>599</ele>
        <time>2012-05-13T08:23:34Z</time>
      </trkpt>
      <trkpt lat="44.09349" lon="3.02088">
        <ele>599</ele>
        <time>2012-05-13T08:23:36Z</time>
      </trkpt>
      <trkpt lat="44.09344" lon="3.02088">
        <ele>599</ele>
        <time>2012-05-13T08:23:38Z</time>
      </trkpt>
      <trkpt lat="44.0934" lon="3.02088">
        <ele>599</ele>
        <time>2012-05-13T08:23:40Z</time>
      </trkpt>
      <trkpt lat="44.09336" lon="3.02088">
        <ele>599</ele>
        <time>2012-05-13T08:23:42Z</time>
      </trkpt>
      <trkpt lat="44.09332" lon="3.02087">
        <ele>599</ele>
        <time>2012-05-13T08:23:44Z</time>
      </trkpt>
      <trkpt lat="44.09327" lon="3.02088">
        <ele>600</ele>
        <time>2012-05-13T08:23:46Z</time>
      </trkpt>
      <trkpt lat="44.09322" lon="3.02088">
        <ele>600</ele>
        <time>2012-05-13T08:23:48Z</time>
      </trkpt>
      <trkpt lat="44.09318" lon="3.02088">
        <ele>600</ele>
        <time>2012-05-13T08:23:50Z</time>
      </trkpt>
      <trkpt lat="44.09314" lon="3.02089">
        <ele>601</ele>
        <time>2012-05-13T08:23:52Z</time>
      </trkpt>
      <trkpt lat="44.0931" lon="3.0209">
        <ele>601</ele>
        <time>2012-05-13T08:23:54Z</time>
      </trkpt>
      <trkpt lat="44.09306" lon="3.0209">
        <ele>601</ele>
        <time>2012-05-13T08:23:56Z</time>
      </trkpt>
      <trkpt lat="44.09301" lon="3.0209">
        <ele>601</ele>
        <time>2012-05-13T08:23:59Z</time>
      </trkpt>
      <trkpt lat="44.09297" lon="3.02091">
        <ele>602</ele>
        <time>2012-05-13T08:24:01Z</time>
      </trkpt>
      <trkpt lat="44.09292" lon="3.02091">
        <ele>602</ele>
        <time>2012-05-13T08:24:03Z</time>
      </trkpt>
      <trkpt lat="44.09288" lon="3.02091">
        <ele>602</ele>
        <time>2012-05-13T08:24:05Z</time>
      </trkpt>
      <trkpt lat="44.09283" lon="3.02092">
        <ele>603</ele>
        <time>2012-05-13T08:24:07Z</time>
      </trkpt>
      <trkpt lat="44.09279" lon="3.02092">
        <ele>603</ele>
        <time>2012-05-13T08:24:09Z</time>
      </trkpt>
      <trkpt lat="44.09275" lon="3.02092">
        <ele>603</ele>
        <time>2012-05-13T08:24:11Z</time>
      </trkpt>
      <trkpt lat="44.09271" lon="3.02092">
        <ele>604</ele>
        <time>2012-05-13T08:24:13Z</time>
      </trkpt>
      <trkpt lat="44.09267" lon="3.02092">
        <ele>604</ele>
        <time>2012-05-13T08:24:15Z</time>
      </trkpt>
      <trkpt lat="44.09262" lon="3.02093">
        <ele>604</ele>
        <time>2012-05-13T08:24:17Z</time>
      </trkpt>
      <trkpt lat="44.09259" lon="3.02093">
        <ele>604</ele>
        <time>2012-05-13T08:24:19Z</time>
      </trkpt>
      <trkpt lat="44.09254" lon="3.02094">
        <ele>604</ele>
        <time>2012-05-13T08:24:21Z</time>
      </trkpt>
      <trkpt lat="44.0925" lon="3.02094">
        <ele>604</ele>
        <time>2012-05-13T08:24:23Z</time>
      </trkpt>
      <trkpt lat="44.09245" lon="3.02094">
        <ele>604</ele>
        <time>2012-05-13T08:24:25Z</time>
      </trkpt>
      <trkpt lat="44.0924" lon="3.02095">
        <ele>603</ele>
        <time>2012-05-13T08:24:27Z</time>
      </trkpt>
      <trkpt lat="44.09236" lon="3.02095">
        <ele>603</ele>
        <time>2012-05-13T08:24:29Z</time>
      </trkpt>
      <trkpt lat="44.09232" lon="3.02096">
        <ele>604</ele>
        <time>2012-05-13T08:24:31Z</time>
      </trkpt>
      <trkpt lat="44.09227" lon="3.02097">
        <ele>603</ele>
        <time>2012-05-13T08:24:33Z</time>
      </trkpt>
      <trkpt lat="44.09223" lon="3.02098">
        <ele>603</ele>
        <time>2012-05-13T08:24:35Z</time>
      </trkpt>
      <trkpt lat="44.09217" lon="3.021">
        <ele>603</ele>
        <time>2012-05-13T08:24:37Z</time>
      </trkpt>
      <trkpt lat="44.09213" lon="3.021">
        <ele>603</ele>
        <time>2012-05-13T08:24:39Z</time>
      </trkpt>
      <trkpt lat="44.09208" lon="3.021">
        <ele>603</ele>
        <time>2012-05-13T08:24:41Z</time>
      </trkpt>
      <trkpt lat="44.09204" lon="3.02101">
        <ele>603</ele>
        <time>2012-05-13T08:24:43Z</time>
      </trkpt>
      <trkpt lat="44.092" lon="3.02101">
        <ele>603</ele>
        <time>2012-05-13T08:24:45Z</time>
      </trkpt>
      <trkpt lat="44.09195" lon="3.02101">
        <ele>603</ele>
        <time>2012-05-13T08:24:47Z</time>
      </trkpt>
      <trkpt lat="44.09191" lon="3.02102">
        <ele>603</ele>
        <time>2012-05-13T08:24:49Z</time>
      </trkpt>
      <trkpt lat="44.09186" lon="3.02102">
        <ele>603</ele>
        <time>2012-05-13T08:24:51Z</time>
      </trkpt>
      <trkpt lat="44.09182" lon="3.02102">
        <ele>603</ele>
        <time>2012-05-13T08:24:53Z</time>
      </trkpt>
      <trkpt lat="44.09177" lon="3.02102">
        <ele>604</ele>
        <time>2012-05-13T08:24:55Z</time>
      </trkpt>
      <trkpt lat="44.09173" lon="3.02102">
        <ele>604</ele>
        <time>2012-05-13T08:24:57Z</time>
      </trkpt>
      <trkpt lat="44.09168" lon="3.02102">
        <ele>605</ele>
        <time>2012-05-13T08:24:59Z</time>
      </trkpt>
      <trkpt lat="44.09163" lon="3.02103">
        <ele>605</ele>
        <time>2012-05-13T08:25:01Z</time>
      </trkpt>
      <trkpt lat="44.09158" lon="3.02103">
        <ele>606</ele>
        <time>2012-05-13T08:25:03Z</time>
      </trkpt>
      <trkpt lat="44.09154" lon="3.02103">
        <ele>606</ele>
        <time>2012-05-13T08:25:05Z</time>
      </trkpt>
      <trkpt lat="44.0915" lon="3.02102">
        <ele>605</ele>
        <time>2012-05-13T08:25:07Z</time>
      </trkpt>
      <trkpt lat="44.09146" lon="3.02103">
        <ele>605</ele>
        <time>2012-05-13T08:25:09Z</time>
      </trkpt>
      <trkpt lat="44.09143" lon="3.02104">
        <ele>604</ele>
        <time>2012-05-13T08:25:11Z</time>
      </trkpt>
      <trkpt lat="44.09142" lon="3.02102">
        <ele>604</ele>
        <time>2012-05-13T08:25:13Z</time>
      </trkpt>
      <trkpt lat="44.09141" lon="3.021">
        <ele>603</ele>
        <time>2012-05-13T08:25:15Z</time>
      </trkpt>
      <trkpt lat="44.0914" lon="3.021">
        <ele>603</ele>
        <time>2012-05-13T08:25:17Z</time>
      </trkpt>
      <trkpt lat="44.09141" lon="3.02099">
        <ele>603</ele>
        <time>2012-05-13T08:25:19Z</time>
      </trkpt>
      <trkpt lat="44.09141" lon="3.02099">
        <ele>604</ele>
        <time>2012-05-13T08:25:21Z</time>
      </trkpt>
      <trkpt lat="44.09141" lon="3.02099">
        <ele>604</ele>
        <time>2012-05-13T08:25:23Z</time>
      </trkpt>
      <trkpt lat="44.09141" lon="3.02099">
        <ele>604</ele>
        <time>2012-05-13T08:25:25Z</time>
      </trkpt>
      <trkpt lat="44.0914" lon="3.02097">
        <ele>603</ele>
        <time>2012-05-13T08:25:27Z</time>
      </trkpt>
      <trkpt lat="44.0914" lon="3.02097">
        <ele>603</ele>
        <time>2012-05-13T08:25:29Z</time>
      </trkpt>
      <trkpt lat="44.0914" lon="3.02097">
        <ele>604</ele>
        <time>2012-05-13T08:25:31Z</time>
      </trkpt>
      <trkpt lat="44.0914" lon="3.02097">
        <ele>604</ele>
        <time>2012-05-13T08:25:33Z</time>
      </trkpt>
      <trkpt lat="44.09142" lon="3.02098">
        <ele>604</ele>
        <time>2012-05-13T08:25:35Z</time>
      </trkpt>
      <trkpt lat="44.0914" lon="3.021">
        <ele>604</ele>
        <time>2012-05-13T08:25:37Z</time>
      </trkpt>
      <trkpt lat="44.09137" lon="3.02103">
        <ele>604</ele>
        <time>2012-05-13T08:25:39Z</time>
      </trkpt>
      <trkpt lat="44.09133" lon="3.02103">
        <ele>604</ele>
        <time>2012-05-13T08:25:41Z</time>
      </trkpt>
      <trkpt lat="44.09129" lon="3.02103">
        <ele>604</ele>
        <time>2012-05-13T08:25:43Z</time>
      </trkpt>
      <trkpt lat="44.09124" lon="3.02104">
        <ele>604</ele>
        <time>2012-05-13T08:25:45Z</time>
      </trkpt>
      <trkpt lat="44.0912" lon="3.02105">
        <ele>604</ele>
        <time>2012-05-13T08:25:48Z</time>
      </trkpt>
      <trkpt lat="44.09115" lon="3.02106">
        <ele>604</ele>
        <time>2012-05-13T08:25:50Z</time>
      </trkpt>
      <trkpt lat="44.09111" lon="3.02107">
        <ele>604</ele>
        <time>2012-05-13T08:25:52Z</time>
      </trkpt>
      <trkpt lat="44.09106" lon="3.02108">
        <ele>604</ele>
        <time>2012-05-13T08:25:54Z</time>
      </trkpt>
      <trkpt lat="44.09101" lon="3.02109">
        <ele>605</ele>
        <time>2012-05-13T08:25:56Z</time>
      </trkpt>
      <trkpt lat="44.09097" lon="3.0211">
        <ele>605</ele>
        <time>2012-05-13T08:25:58Z</time>
      </trkpt>
      <trkpt lat="44.0909" lon="3.02111">
        <ele>605</ele>
        <time>2012-05-13T08:26:00Z</time>
      </trkpt>
      <trkpt lat="44.09086" lon="3.02111">
        <ele>606</ele>
        <time>2012-05-13T08:26:02Z</time>
      </trkpt>
      <trkpt lat="44.09082" lon="3.02111">
        <ele>606</ele>
        <time>2012-05-13T08:26:04Z</time>
      </trkpt>
      <trkpt lat="44.09077" lon="3.02111">
        <ele>606</ele>
        <time>2012-05-13T08:26:06Z</time>
      </trkpt>
      <trkpt lat="44.09073" lon="3.02111">
        <ele>607</ele>
        <time>2012-05-13T08:26:08Z</time>
      </trkpt>
      <trkpt lat="44.09069" lon="3.02111">
        <ele>607</ele>
        <time>2012-05-13T08:26:10Z</time>
      </trkpt>
      <trkpt lat="44.09064" lon="3.02112">
        <ele>608</ele>
        <time>2012-05-13T08:26:12Z</time>
      </trkpt>
      <trkpt lat="44.0906" lon="3.02113">
        <ele>608</ele>
        <time>2012-05-13T08:26:14Z</time>
      </trkpt>
      <trkpt lat="44.09056" lon="3.02113">
        <ele>609</ele>
        <time>2012-05-13T08:26:16Z</time>
      </trkpt>
      <trkpt lat="44.0905" lon="3.02113">
        <ele>609</ele>
        <time>2012-05-13T08:26:18Z</time>
      </trkpt>
      <trkpt lat="44.09046" lon="3.02113">
        <ele>610</ele>
        <time>2012-05-13T08:26:20Z</time>
      </trkpt>
      <trkpt lat="44.09041" lon="3.02113">
        <ele>611</ele>
        <time>2012-05-13T08:26:22Z</time>
      </trkpt>
      <trkpt lat="44.09037" lon="3.02113">
        <ele>611</ele>
        <time>2012-05-13T08:26:24Z</time>
      </trkpt>
      <trkpt lat="44.09033" lon="3.02113">
        <ele>612</ele>
        <time>2012-05-13T08:26:26Z</time>
      </trkpt>
      <trkpt lat="44.09029" lon="3.02115">
        <ele>612</ele>
        <time>2012-05-13T08:26:29Z</time>
      </trkpt>
      <trkpt lat="44.09024" lon="3.02115">
        <ele>613</ele>
        <time>2012-05-13T08:26:31Z</time>
      </trkpt>
      <trkpt lat="44.0902" lon="3.02116">
        <ele>613</ele>
        <time>2012-05-13T08:26:33Z</time>
      </trkpt>
      <trkpt lat="44.09016" lon="3.02116">
        <ele>613</ele>
        <time>2012-05-13T08:26:35Z</time>
      </trkpt>
      <trkpt lat="44.09011" lon="3.02116">
        <ele>613</ele>
        <time>2012-05-13T08:26:37Z</time>
      </trkpt>
      <trkpt lat="44.09007" lon="3.02116">
        <ele>613</ele>
        <time>2012-05-13T08:26:39Z</time>
      </trkpt>
      <trkpt lat="44.09003" lon="3.02117">
        <ele>613</ele>
        <time>2012-05-13T08:26:41Z</time>
      </trkpt>
      <trkpt lat="44.08995" lon="3.02117">
        <ele>613</ele>
        <time>2012-05-13T08:26:43Z</time>
      </trkpt>
      <trkpt lat="44.0899" lon="3.02118">
        <ele>614</ele>
        <time>2012-05-13T08:26:45Z</time>
      </trkpt>
      <trkpt lat="44.08986" lon="3.02119">
        <ele>614</ele>
        <time>2012-05-13T08:26:47Z</time>
      </trkpt>
      <trkpt lat="44.08982" lon="3.02119">
        <ele>615</ele>
        <time>2012-05-13T08:26:49Z</time>
      </trkpt>
      <trkpt lat="44.08977" lon="3.02119">
        <ele>614</ele>
        <time>2012-05-13T08:26:51Z</time>
      </trkpt>
      <trkpt lat="44.08973" lon="3.0212">
        <ele>614</ele>
        <time>2012-05-13T08:26:53Z</time>
      </trkpt>
      <trkpt lat="44.08968" lon="3.0212">
        <ele>614</ele>
        <time>2012-05-13T08:26:55Z</time>
      </trkpt>
      <trkpt lat="44.08964" lon="3.02121">
        <ele>615</ele>
        <time>2012-05-13T08:26:57Z</time>
      </trkpt>
      <trkpt lat="44.0896" lon="3.02121">
        <ele>615</ele>
        <time>2012-05-13T08:26:59Z</time>
      </trkpt>
      <trkpt lat="44.08955" lon="3.02122">
        <ele>615</ele>
        <time>2012-05-13T08:27:01Z</time>
      </trkpt>
      <trkpt lat="44.08951" lon="3.02122">
        <ele>615</ele>
        <time>2012-05-13T08:27:03Z</time>
      </trkpt>
      <trkpt lat="44.08946" lon="3.02123">
        <ele>615</ele>
        <time>2012-05-13T08:27:05Z</time>
      </trkpt>
      <trkpt lat="44.08941" lon="3.02124">
        <ele>615</ele>
        <time>2012-05-13T08:27:08Z</time>
      </trkpt>
      <trkpt lat="44.08936" lon="3.02124">
        <ele>615</ele>
        <time>2012-05-13T08:27:10Z</time>
      </trkpt>
      <trkpt lat="44.08931" lon="3.02124">
        <ele>615</ele>
        <time>2012-05-13T08:27:12Z</time>
      </trkpt>
      <trkpt lat="44.08928" lon="3.02125">
        <ele>615</ele>
        <time>2012-05-13T08:27:14Z</time>
      </trkpt>
      <trkpt lat="44.08923" lon="3.02125">
        <ele>615</ele>
        <time>2012-05-13T08:27:16Z</time>
      </trkpt>
      <trkpt lat="44.08919" lon="3.02125">
        <ele>614</ele>
        <time>2012-05-13T08:27:18Z</time>
      </trkpt>
      <trkpt lat="44.08915" lon="3.02127">
        <ele>614</ele>
        <time>2012-05-13T08:27:20Z</time>
      </trkpt>
      <trkpt lat="44.08908" lon="3.02128">
        <ele>613</ele>
        <time>2012-05-13T08:27:22Z</time>
      </trkpt>
      <trkpt lat="44.08904" lon="3.02129">
        <ele>613</ele>
        <time>2012-05-13T08:27:24Z</time>
      </trkpt>
      <trkpt lat="44.08898" lon="3.02131">
        <ele>613</ele>
        <time>2012-05-13T08:27:26Z</time>
      </trkpt>
      <trkpt lat="44.08893" lon="3.02131">
        <ele>613</ele>
        <time>2012-05-13T08:27:28Z</time>
      </trkpt>
      <trkpt lat="44.08889" lon="3.02132">
        <ele>614</ele>
        <time>2012-05-13T08:27:30Z</time>
      </trkpt>
      <trkpt lat="44.08884" lon="3.02132">
        <ele>614</ele>
        <time>2012-05-13T08:27:32Z</time>
      </trkpt>
      <trkpt lat="44.08879" lon="3.02132">
        <ele>614</ele>
        <time>2012-05-13T08:27:34Z</time>
      </trkpt>
      <trkpt lat="44.08874" lon="3.02132">
        <ele>615</ele>
        <time>2012-05-13T08:27:36Z</time>
      </trkpt>
      <trkpt lat="44.08869" lon="3.02134">
        <ele>615</ele>
        <time>2012-05-13T08:27:38Z</time>
      </trkpt>
      <trkpt lat="44.08864" lon="3.02134">
        <ele>615</ele>
        <time>2012-05-13T08:27:40Z</time>
      </trkpt>
      <trkpt lat="44.08859" lon="3.02134">
        <ele>615</ele>
        <time>2012-05-13T08:27:42Z</time>
      </trkpt>
      <trkpt lat="44.08855" lon="3.02134">
        <ele>615</ele>
        <time>2012-05-13T08:27:44Z</time>
      </trkpt>
      <trkpt lat="44.0885" lon="3.02133">
        <ele>615</ele>
        <time>2012-05-13T08:27:47Z</time>
      </trkpt>
      <trkpt lat="44.08846" lon="3.02133">
        <ele>616</ele>
        <time>2012-05-13T08:27:49Z</time>
      </trkpt>
      <trkpt lat="44.08842" lon="3.02133">
        <ele>617</ele>
        <time>2012-05-13T08:27:51Z</time>
      </trkpt>
      <trkpt lat="44.08838" lon="3.02133">
        <ele>618</ele>
        <time>2012-05-13T08:27:53Z</time>
      </trkpt>
      <trkpt lat="44.08833" lon="3.02133">
        <ele>618</ele>
        <time>2012-05-13T08:27:55Z</time>
      </trkpt>
      <trkpt lat="44.08829" lon="3.02133">
        <ele>619</ele>
        <time>2012-05-13T08:27:57Z</time>
      </trkpt>
      <trkpt lat="44.08825" lon="3.02133">
        <ele>618</ele>
        <time>2012-05-13T08:27:59Z</time>
      </trkpt>
      <trkpt lat="44.08818" lon="3.02134">
        <ele>618</ele>
        <time>2012-05-13T08:28:01Z</time>
      </trkpt>
      <trkpt lat="44.08814" lon="3.02134">
        <ele>617</ele>
        <time>2012-05-13T08:28:03Z</time>
      </trkpt>
      <trkpt lat="44.0881" lon="3.02135">
        <ele>617</ele>
        <time>2012-05-13T08:28:05Z</time>
      </trkpt>
      <trkpt lat="44.08805" lon="3.02135">
        <ele>617</ele>
        <time>2012-05-13T08:28:07Z</time>
      </trkpt>
      <trkpt lat="44.08801" lon="3.02136">
        <ele>617</ele>
        <time>2012-05-13T08:28:09Z</time>
      </trkpt>
      <trkpt lat="44.08796" lon="3.02136">
        <ele>617</ele>
        <time>2012-05-13T08:28:11Z</time>
      </trkpt>
      <trkpt lat="44.08792" lon="3.02137">
        <ele>617</ele>
        <time>2012-05-13T08:28:13Z</time>
      </trkpt>
      <trkpt lat="44.08788" lon="3.02137">
        <ele>617</ele>
        <time>2012-05-13T08:28:15Z</time>
      </trkpt>
      <trkpt lat="44.08784" lon="3.02138">
        <ele>617</ele>
        <time>2012-05-13T08:28:17Z</time>
      </trkpt>
      <trkpt lat="44.08779" lon="3.02138">
        <ele>618</ele>
        <time>2012-05-13T08:28:19Z</time>
      </trkpt>
      <trkpt lat="44.08775" lon="3.02138">
        <ele>618</ele>
        <time>2012-05-13T08:28:21Z</time>
      </trkpt>
      <trkpt lat="44.0877" lon="3.02138">
        <ele>619</ele>
        <time>2012-05-13T08:28:23Z</time>
      </trkpt>
      <trkpt lat="44.08766" lon="3.02138">
        <ele>619</ele>
        <time>2012-05-13T08:28:25Z</time>
      </trkpt>
      <trkpt lat="44.08762" lon="3.02138">
        <ele>619</ele>
        <time>2012-05-13T08:28:28Z</time>
      </trkpt>
      <trkpt lat="44.08757" lon="3.02139">
        <ele>619</ele>
        <time>2012-05-13T08:28:30Z</time>
      </trkpt>
      <trkpt lat="44.08753" lon="3.0214">
        <ele>619</ele>
        <time>2012-05-13T08:28:32Z</time>
      </trkpt>
      <trkpt lat="44.08749" lon="3.0214">
        <ele>619</ele>
        <time>2012-05-13T08:28:34Z</time>
      </trkpt>
      <trkpt lat="44.08745" lon="3.02141">
        <ele>619</ele>
        <time>2012-05-13T08:28:36Z</time>
      </trkpt>
      <trkpt lat="44.08741" lon="3.02142">
        <ele>619</ele>
        <time>2012-05-13T08:28:38Z</time>
      </trkpt>
      <trkpt lat="44.08736" lon="3.02143">
        <ele>619</ele>
        <time>2012-05-13T08:28:40Z</time>
      </trkpt>
      <trkpt lat="44.08732" lon="3.02143">
        <ele>619</ele>
        <time>2012-05-13T08:28:42Z</time>
      </trkpt>
      <trkpt lat="44.08727" lon="3.02144">
        <ele>619</ele>
        <time>2012-05-13T08:28:44Z</time>
      </trkpt>
      <trkpt lat="44.0872" lon="3.02144">
        <ele>619</ele>
        <time>2012-05-13T08:28:46Z</time>
      </trkpt>
      <trkpt lat="44.08716" lon="3.02143">
        <ele>619</ele>
        <time>2012-05-13T08:28:48Z</time>
      </trkpt>
      <trkpt lat="44.08712" lon="3.02143">
        <ele>619</ele>
        <time>2012-05-13T08:28:50Z</time>
      </trkpt>
      <trkpt lat="44.08709" lon="3.02144">
        <ele>619</ele>
        <time>2012-05-13T08:28:52Z</time>
      </trkpt>
      <trkpt lat="44.08704" lon="3.02144">
        <ele>619</ele>
        <time>2012-05-13T08:28:54Z</time>
      </trkpt>
      <trkpt lat="44.087" lon="3.02145">
        <ele>620</ele>
        <time>2012-05-13T08:28:56Z</time>
      </trkpt>
      <trkpt lat="44.08696" lon="3.02146">
        <ele>621</ele>
        <time>2012-05-13T08:28:58Z</time>
      </trkpt>
      <trkpt lat="44.08691" lon="3.02146">
        <ele>621</ele>
        <time>2012-05-13T08:29:00Z</time>
      </trkpt>
      <trkpt lat="44.08687" lon="3.02147">
        <ele>622</ele>
        <time>2012-05-13T08:29:02Z</time>
      </trkpt>
      <trkpt lat="44.08683" lon="3.02148">
        <ele>622</ele>
        <time>2012-05-13T08:29:04Z</time>
      </trkpt>
      <trkpt lat="44.08678" lon="3.02149">
        <ele>623</ele>
        <time>2012-05-13T08:29:06Z</time>
      </trkpt>
      <trkpt lat="44.08673" lon="3.02149">
        <ele>623</ele>
        <time>2012-05-13T08:29:08Z</time>
      </trkpt>
      <trkpt lat="44.08669" lon="3.0215">
        <ele>623</ele>
        <time>2012-05-13T08:29:10Z</time>
      </trkpt>
      <trkpt lat="44.08664" lon="3.02149">
        <ele>624</ele>
        <time>2012-05-13T08:29:12Z</time>
      </trkpt>
      <trkpt lat="44.08659" lon="3.0215">
        <ele>624</ele>
        <time>2012-05-13T08:29:14Z</time>
      </trkpt>
      <trkpt lat="44.08655" lon="3.02149">
        <ele>625</ele>
        <time>2012-05-13T08:29:16Z</time>
      </trkpt>
      <trkpt lat="44.0865" lon="3.02149">
        <ele>625</ele>
        <time>2012-05-13T08:29:18Z</time>
      </trkpt>
      <trkpt lat="44.08646" lon="3.02149">
        <ele>625</ele>
        <time>2012-05-13T08:29:20Z</time>
      </trkpt>
      <trkpt lat="44.08642" lon="3.0215">
        <ele>626</ele>
        <time>2012-05-13T08:29:22Z</time>
      </trkpt>
      <trkpt lat="44.08638" lon="3.02151">
        <ele>626</ele>
        <time>2012-05-13T08:29:24Z</time>
      </trkpt>
      <trkpt lat="44.08633" lon="3.02151">
        <ele>626</ele>
        <time>2012-05-13T08:29:26Z</time>
      </trkpt>
      <trkpt lat="44.08628" lon="3.02151">
        <ele>627</ele>
        <time>2012-05-13T08:29:28Z</time>
      </trkpt>
      <trkpt lat="44.08623" lon="3.02152">
        <ele>627</ele>
        <time>2012-05-13T08:29:30Z</time>
      </trkpt>
      <trkpt lat="44.08619" lon="3.02152">
        <ele>627</ele>
        <time>2012-05-13T08:29:32Z</time>
      </trkpt>
      <trkpt lat="44.08615" lon="3.02152">
        <ele>627</ele>
        <time>2012-05-13T08:29:34Z</time>
      </trkpt>
      <trkpt lat="44.0861" lon="3.02152">
        <ele>627</ele>
        <time>2012-05-13T08:29:36Z</time>
      </trkpt>
      <trkpt lat="44.08606" lon="3.02153">
        <ele>626</ele>
        <time>2012-05-13T08:29:38Z</time>
      </trkpt>
      <trkpt lat="44.08602" lon="3.02154">
        <ele>626</ele>
        <time>2012-05-13T08:29:40Z</time>
      </trkpt>
      <trkpt lat="44.08597" lon="3.02155">
        <ele>626</ele>
        <time>2012-05-13T08:29:42Z</time>
      </trkpt>
      <trkpt lat="44.08592" lon="3.02155">
        <ele>626</ele>
        <time>2012-05-13T08:29:45Z</time>
      </trkpt>
      <trkpt lat="44.08588" lon="3.02156">
        <ele>626</ele>
        <time>2012-05-13T08:29:47Z</time>
      </trkpt>
      <trkpt lat="44.08583" lon="3.02156">
        <ele>626</ele>
        <time>2012-05-13T08:29:49Z</time>
      </trkpt>
      <trkpt lat="44.08579" lon="3.02156">
        <ele>627</ele>
        <time>2012-05-13T08:29:51Z</time>
      </trkpt>
      <trkpt lat="44.08574" lon="3.02157">
        <ele>627</ele>
        <time>2012-05-13T08:29:53Z</time>
      </trkpt>
      <trkpt lat="44.0857" lon="3.02157">
        <ele>627</ele>
        <time>2012-05-13T08:29:55Z</time>
      </trkpt>
      <trkpt lat="44.08565" lon="3.02157">
        <ele>628</ele>
        <time>2012-05-13T08:29:57Z</time>
      </trkpt>
      <trkpt lat="44.08561" lon="3.02157">
        <ele>628</ele>
        <time>2012-05-13T08:29:59Z</time>
      </trkpt>
      <trkpt lat="44.08557" lon="3.02158">
        <ele>629</ele>
        <time>2012-05-13T08:30:01Z</time>
      </trkpt>
      <trkpt lat="44.08553" lon="3.02159">
        <ele>629</ele>
        <time>2012-05-13T08:30:03Z</time>
      </trkpt>
      <trkpt lat="44.08548" lon="3.02159">
        <ele>629</ele>
        <time>2012-05-13T08:30:05Z</time>
      </trkpt>
      <trkpt lat="44.08545" lon="3.02158">
        <ele>629</ele>
        <time>2012-05-13T08:30:07Z</time>
      </trkpt>
      <trkpt lat="44.0854" lon="3.02158">
        <ele>629</ele>
        <time>2012-05-13T08:30:09Z</time>
      </trkpt>
      <trkpt lat="44.08536" lon="3.02158">
        <ele>630</ele>
        <time>2012-05-13T08:30:11Z</time>
      </trkpt>
      <trkpt lat="44.08531" lon="3.02158">
        <ele>630</ele>
        <time>2012-05-13T08:30:13Z</time>
      </trkpt>
      <trkpt lat="44.08527" lon="3.0216">
        <ele>631</ele>
        <time>2012-05-13T08:30:15Z</time>
      </trkpt>
      <trkpt lat="44.08523" lon="3.0216">
        <ele>630</ele>
        <time>2012-05-13T08:30:17Z</time>
      </trkpt>
      <trkpt lat="44.08518" lon="3.02161">
        <ele>630</ele>
        <time>2012-05-13T08:30:19Z</time>
      </trkpt>
      <trkpt lat="44.08514" lon="3.02161">
        <ele>630</ele>
        <time>2012-05-13T08:30:21Z</time>
      </trkpt>
      <trkpt lat="44.08507" lon="3.02162">
        <ele>630</ele>
        <time>2012-05-13T08:30:23Z</time>
      </trkpt>
      <trkpt lat="44.08502" lon="3.02162">
        <ele>630</ele>
        <time>2012-05-13T08:30:25Z</time>
      </trkpt>
      <trkpt lat="44.08498" lon="3.02162">
        <ele>629</ele>
        <time>2012-05-13T08:30:27Z</time>
      </trkpt>
      <trkpt lat="44.08494" lon="3.02162">
        <ele>629</ele>
        <time>2012-05-13T08:30:29Z</time>
      </trkpt>
      <trkpt lat="44.08489" lon="3.02163">
        <ele>628</ele>
        <time>2012-05-13T08:30:31Z</time>
      </trkpt>
      <trkpt lat="44.08485" lon="3.02164">
        <ele>628</ele>
        <time>2012-05-13T08:30:33Z</time>
      </trkpt>
      <trkpt lat="44.0848" lon="3.02164">
        <ele>628</ele>
        <time>2012-05-13T08:30:35Z</time>
      </trkpt>
      <trkpt lat="44.08476" lon="3.02165">
        <ele>627</ele>
        <time>2012-05-13T08:30:37Z</time>
      </trkpt>
      <trkpt lat="44.08471" lon="3.02165">
        <ele>627</ele>
        <time>2012-05-13T08:30:39Z</time>
      </trkpt>
      <trkpt lat="44.08466" lon="3.02165">
        <ele>627</ele>
        <time>2012-05-13T08:30:41Z</time>
      </trkpt>
      <trkpt lat="44.08462" lon="3.02166">
        <ele>627</ele>
        <time>2012-05-13T08:30:43Z</time>
      </trkpt>
      <trkpt lat="44.08458" lon="3.02167">
        <ele>627</ele>
        <time>2012-05-13T08:30:45Z</time>
      </trkpt>
      <trkpt lat="44.08453" lon="3.02167">
        <ele>627</ele>
        <time>2012-05-13T08:30:47Z</time>
      </trkpt>
      <trkpt lat="44.08449" lon="3.02168">
        <ele>627</ele>
        <time>2012-05-13T08:30:49Z</time>
      </trkpt>
      <trkpt lat="44.08444" lon="3.02169">
        <ele>628</ele>
        <time>2012-05-13T08:30:51Z</time>
      </trkpt>
      <trkpt lat="44.08439" lon="3.0217">
        <ele>628</ele>
        <time>2012-05-13T08:30:53Z</time>
      </trkpt>
      <trkpt lat="44.08435" lon="3.02171">
        <ele>628</ele>
        <time>2012-05-13T08:30:55Z</time>
      </trkpt>
      <trkpt lat="44.0843" lon="3.02171">
        <ele>629</ele>
        <time>2012-05-13T08:30:57Z</time>
      </trkpt>
      <trkpt lat="44.08426" lon="3.02172">
        <ele>630</ele>
        <time>2012-05-13T08:30:59Z</time>
      </trkpt>
      <trkpt lat="44.08421" lon="3.02173">
        <ele>631</ele>
        <time>2012-05-13T08:31:01Z</time>
      </trkpt>
      <trkpt lat="44.08417" lon="3.02173">
        <ele>631</ele>
        <time>2012-05-13T08:31:03Z</time>
      </trkpt>
      <trkpt lat="44.08413" lon="3.02174">
        <ele>632</ele>
        <time>2012-05-13T08:31:05Z</time>
      </trkpt>
      <trkpt lat="44.08408" lon="3.02174">
        <ele>632</ele>
        <time>2012-05-13T08:31:07Z</time>
      </trkpt>
      <trkpt lat="44.08404" lon="3.02175">
        <ele>633</ele>
        <time>2012-05-13T08:31:09Z</time>
      </trkpt>
      <trkpt lat="44.084" lon="3.02176">
        <ele>633</ele>
        <time>2012-05-13T08:31:11Z</time>
      </trkpt>
      <trkpt lat="44.08396" lon="3.02176">
        <ele>633</ele>
        <time>2012-05-13T08:31:13Z</time>
      </trkpt>
      <trkpt lat="44.08391" lon="3.02176">
        <ele>634</ele>
        <time>2012-05-13T08:31:15Z</time>
      </trkpt>
      <trkpt lat="44.08387" lon="3.02176">
        <ele>634</ele>
        <time>2012-05-13T08:31:18Z</time>
      </trkpt>
      <trkpt lat="44.08383" lon="3.02176">
        <ele>635</ele>
        <time>2012-05-13T08:31:20Z</time>
      </trkpt>
      <trkpt lat="44.08378" lon="3.02177">
        <ele>635</ele>
        <time>2012-05-13T08:31:22Z</time>
      </trkpt>
      <trkpt lat="44.08373" lon="3.02177">
        <ele>635</ele>
        <time>2012-05-13T08:31:24Z</time>
      </trkpt>
      <trkpt lat="44.08369" lon="3.02178">
        <ele>635</ele>
        <time>2012-05-13T08:31:26Z</time>
      </trkpt>
      <trkpt lat="44.08365" lon="3.02178">
        <ele>635</ele>
        <time>2012-05-13T08:31:28Z</time>
      </trkpt>
      <trkpt lat="44.08361" lon="3.02179">
        <ele>635</ele>
        <time>2012-05-13T08:31:30Z</time>
      </trkpt>
      <trkpt lat="44.08354" lon="3.02179">
        <ele>635</ele>
        <time>2012-05-13T08:31:32Z</time>
      </trkpt>
      <trkpt lat="44.08349" lon="3.0218">
        <ele>636</ele>
        <time>2012-05-13T08:31:34Z</time>
      </trkpt>
      <trkpt lat="44.08345" lon="3.0218">
        <ele>636</ele>
        <time>2012-05-13T08:31:36Z</time>
      </trkpt>
      <trkpt lat="44.0834" lon="3.02181">
        <ele>635</ele>
        <time>2012-05-13T08:31:38Z</time>
      </trkpt>
      <trkpt lat="44.08336" lon="3.02182">
        <ele>635</ele>
        <time>2012-05-13T08:31:40Z</time>
      </trkpt>
      <trkpt lat="44.08332" lon="3.02182">
        <ele>635</ele>
        <time>2012-05-13T08:31:42Z</time>
      </trkpt>
      <trkpt lat="44.08327" lon="3.02183">
        <ele>636</ele>
        <time>2012-05-13T08:31:44Z</time>
      </trkpt>
      <trkpt lat="44.08323" lon="3.02183">
        <ele>636</ele>
        <time>2012-05-13T08:31:46Z</time>
      </trkpt>
      <trkpt lat="44.08318" lon="3.02184">
        <ele>636</ele>
        <time>2012-05-13T08:31:48Z</time>
      </trkpt>
      <trkpt lat="44.08314" lon="3.02185">
        <ele>636</ele>
        <time>2012-05-13T08:31:50Z</time>
      </trkpt>
      <trkpt lat="44.0831" lon="3.02185">
        <ele>636</ele>
        <time>2012-05-13T08:31:52Z</time>
      </trkpt>
      <trkpt lat="44.08307" lon="3.02185">
        <ele>635</ele>
        <time>2012-05-13T08:31:54Z</time>
      </trkpt>
      <trkpt lat="44.08303" lon="3.02185">
        <ele>635</ele>
        <time>2012-05-13T08:31:56Z</time>
      </trkpt>
      <trkpt lat="44.083" lon="3.02185">
        <ele>634</ele>
        <time>2012-05-13T08:31:58Z</time>
      </trkpt>
      <trkpt lat="44.08295" lon="3.02186">
        <ele>633</ele>
        <time>2012-05-13T08:32:00Z</time>
      </trkpt>
      <trkpt lat="44.08291" lon="3.02187">
        <ele>632</ele>
        <time>2012-05-13T08:32:03Z</time>
      </trkpt>
      <trkpt lat="44.08287" lon="3.02187">
        <ele>632</ele>
        <time>2012-05-13T08:32:05Z</time>
      </trkpt>
      <trkpt lat="44.08282" lon="3.02188">
        <ele>632</ele>
        <time>2012-05-13T08:32:07Z</time>
      </trkpt>
      <trkpt lat="44.08278" lon="3.02188">
        <ele>632</ele>
        <time>2012-05-13T08:32:09Z</time>
      </trkpt>
      <trkpt lat="44.08273" lon="3.02189">
        <ele>632</ele>
        <time>2012-05-13T08:32:11Z</time>
      </trkpt>
      <trkpt lat="44.08269" lon="3.02189">
        <ele>632</ele>
        <time>2012-05-13T08:32:13Z</time>
      </trkpt>
      <trkpt lat="44.08265" lon="3.0219">
        <ele>632</ele>
        <time>2012-05-13T08:32:15Z</time>
      </trkpt>
      <trkpt lat="44.08259" lon="3.0219">
        <ele>632</ele>
        <time>2012-05-13T08:32:17Z</time>
      </trkpt>
      <trkpt lat="44.08255" lon="3.02191">
        <ele>632</ele>
        <time>2012-05-13T08:32:19Z</time>
      </trkpt>
      <trkpt lat="44.0825" lon="3.02191">
        <ele>632</ele>
        <time>2012-05-13T08:32:21Z</time>
      </trkpt>
      <trkpt lat="44.08246" lon="3.02191">
        <ele>632</ele>
        <time>2012-05-13T08:32:23Z</time>
      </trkpt>
      <trkpt lat="44.08242" lon="3.02192">
        <ele>632</ele>
        <time>2012-05-13T08:32:25Z</time>
      </trkpt>
      <trkpt lat="44.08238" lon="3.02192">
        <ele>632</ele>
        <time>2012-05-13T08:32:27Z</time>
      </trkpt>
      <trkpt lat="44.08233" lon="3.02193">
        <ele>633</ele>
        <time>2012-05-13T08:32:29Z</time>
      </trkpt>
      <trkpt lat="44.08229" lon="3.02193">
        <ele>633</ele>
        <time>2012-05-13T08:32:31Z</time>
      </trkpt>
      <trkpt lat="44.08224" lon="3.02194">
        <ele>633</ele>
        <time>2012-05-13T08:32:33Z</time>
      </trkpt>
      <trkpt lat="44.0822" lon="3.02194">
        <ele>633</ele>
        <time>2012-05-13T08:32:35Z</time>
      </trkpt>
      <trkpt lat="44.08215" lon="3.02195">
        <ele>634</ele>
        <time>2012-05-13T08:32:37Z</time>
      </trkpt>
      <trkpt lat="44.0821" lon="3.02195">
        <ele>635</ele>
        <time>2012-05-13T08:32:39Z</time>
      </trkpt>
      <trkpt lat="44.08206" lon="3.02196">
        <ele>635</ele>
        <time>2012-05-13T08:32:42Z</time>
      </trkpt>
      <trkpt lat="44.08202" lon="3.02197">
        <ele>636</ele>
        <time>2012-05-13T08:32:44Z</time>
      </trkpt>
      <trkpt lat="44.08197" lon="3.02199">
        <ele>636</ele>
        <time>2012-05-13T08:32:46Z</time>
      </trkpt>
      <trkpt lat="44.08193" lon="3.02199">
        <ele>636</ele>
        <time>2012-05-13T08:32:48Z</time>
      </trkpt>
      <trkpt lat="44.08189" lon="3.022">
        <ele>636</ele>
        <time>2012-05-13T08:32:50Z</time>
      </trkpt>
      <trkpt lat="44.08184" lon="3.02201">
        <ele>635</ele>
        <time>2012-05-13T08:32:52Z</time>
      </trkpt>
      <trkpt lat="44.0818" lon="3.02202">
        <ele>635</ele>
        <time>2012-05-13T08:32:54Z</time>
      </trkpt>
      <trkpt lat="44.08173" lon="3.02202">
        <ele>635</ele>
        <time>2012-05-13T08:32:56Z</time>
      </trkpt>
      <trkpt lat="44.08169" lon="3.02203">
        <ele>635</ele>
        <time>2012-05-13T08:32:58Z</time>
      </trkpt>
      <trkpt lat="44.08165" lon="3.02203">
        <ele>635</ele>
        <time>2012-05-13T08:33:00Z</time>
      </trkpt>
      <trkpt lat="44.0816" lon="3.02204">
        <ele>635</ele>
        <time>2012-05-13T08:33:02Z</time>
      </trkpt>
      <trkpt lat="44.08155" lon="3.02204">
        <ele>635</ele>
        <time>2012-05-13T08:33:04Z</time>
      </trkpt>
      <trkpt lat="44.08151" lon="3.02205">
        <ele>635</ele>
        <time>2012-05-13T08:33:06Z</time>
      </trkpt>
      <trkpt lat="44.08147" lon="3.02206">
        <ele>635</ele>
        <time>2012-05-13T08:33:08Z</time>
      </trkpt>
      <trkpt lat="44.08142" lon="3.02206">
        <ele>636</ele>
        <time>2012-05-13T08:33:10Z</time>
      </trkpt>
      <trkpt lat="44.08138" lon="3.02206">
        <ele>636</ele>
        <time>2012-05-13T08:33:12Z</time>
      </trkpt>
      <trkpt lat="44.08134" lon="3.02207">
        <ele>637</ele>
        <time>2012-05-13T08:33:14Z</time>
      </trkpt>
      <trkpt lat="44.0813" lon="3.02207">
        <ele>637</ele>
        <time>2012-05-13T08:33:16Z</time>
      </trkpt>
      <trkpt lat="44.08125" lon="3.02208">
        <ele>638</ele>
        <time>2012-05-13T08:33:18Z</time>
      </trkpt>
      <trkpt lat="44.08121" lon="3.02209">
        <ele>638</ele>
        <time>2012-05-13T08:33:21Z</time>
      </trkpt>
      <trkpt lat="44.08117" lon="3.0221">
        <ele>638</ele>
        <time>2012-05-13T08:33:23Z</time>
      </trkpt>
      <trkpt lat="44.08112" lon="3.02211">
        <ele>639</ele>
        <time>2012-05-13T08:33:25Z</time>
      </trkpt>
      <trkpt lat="44.08107" lon="3.02211">
        <ele>639</ele>
        <time>2012-05-13T08:33:27Z</time>
      </trkpt>
      <trkpt lat="44.08102" lon="3.02212">
        <ele>640</ele>
        <time>2012-05-13T08:33:29Z</time>
      </trkpt>
      <trkpt lat="44.08099" lon="3.02213">
        <ele>640</ele>
        <time>2012-05-13T08:33:31Z</time>
      </trkpt>
      <trkpt lat="44.08094" lon="3.02214">
        <ele>641</ele>
        <time>2012-05-13T08:33:33Z</time>
      </trkpt>
      <trkpt lat="44.0809" lon="3.02214">
        <ele>641</ele>
        <time>2012-05-13T08:33:35Z</time>
      </trkpt>
      <trkpt lat="44.08084" lon="3.02216">
        <ele>642</ele>
        <time>2012-05-13T08:33:37Z</time>
      </trkpt>
      <trkpt lat="44.0808" lon="3.02217">
        <ele>642</ele>
        <time>2012-05-13T08:33:39Z</time>
      </trkpt>
      <trkpt lat="44.08075" lon="3.02216">
        <ele>643</ele>
        <time>2012-05-13T08:33:41Z</time>
      </trkpt>
      <trkpt lat="44.0807" lon="3.02217">
        <ele>643</ele>
        <time>2012-05-13T08:33:43Z</time>
      </trkpt>
      <trkpt lat="44.08065" lon="3.02218">
        <ele>644</ele>
        <time>2012-05-13T08:33:45Z</time>
      </trkpt>
      <trkpt lat="44.08061" lon="3.02219">
        <ele>645</ele>
        <time>2012-05-13T08:33:47Z</time>
      </trkpt>
      <trkpt lat="44.08056" lon="3.02219">
        <ele>645</ele>
        <time>2012-05-13T08:33:49Z</time>
      </trkpt>
      <trkpt lat="44.08052" lon="3.0222">
        <ele>645</ele>
        <time>2012-05-13T08:33:51Z</time>
      </trkpt>
      <trkpt lat="44.08048" lon="3.02221">
        <ele>646</ele>
        <time>2012-05-13T08:33:53Z</time>
      </trkpt>
      <trkpt lat="44.08044" lon="3.02221">
        <ele>646</ele>
        <time>2012-05-13T08:33:55Z</time>
      </trkpt>
      <trkpt lat="44.08039" lon="3.02222">
        <ele>646</ele>
        <time>2012-05-13T08:33:57Z</time>
      </trkpt>
      <trkpt lat="44.08035" lon="3.02223">
        <ele>646</ele>
        <time>2012-05-13T08:33:59Z</time>
      </trkpt>
      <trkpt lat="44.0803" lon="3.02223">
        <ele>647</ele>
        <time>2012-05-13T08:34:02Z</time>
      </trkpt>
      <trkpt lat="44.08026" lon="3.02224">
        <ele>647</ele>
        <time>2012-05-13T08:34:04Z</time>
      </trkpt>
      <trkpt lat="44.08022" lon="3.02224">
        <ele>647</ele>
        <time>2012-05-13T08:34:06Z</time>
      </trkpt>
      <trkpt lat="44.08018" lon="3.02225">
        <ele>647</ele>
        <time>2012-05-13T08:34:08Z</time>
      </trkpt>
      <trkpt lat="44.08014" lon="3.02226">
        <ele>648</ele>
        <time>2012-05-13T08:34:10Z</time>
      </trkpt>
      <trkpt lat="44.0801" lon="3.02226">
        <ele>648</ele>
        <time>2012-05-13T08:34:12Z</time>
      </trkpt>
      <trkpt lat="44.08006" lon="3.02227">
        <ele>648</ele>
        <time>2012-05-13T08:34:14Z</time>
      </trkpt>
      <trkpt lat="44.08" lon="3.02227">
        <ele>647</ele>
        <time>2012-05-13T08:34:16Z</time>
      </trkpt>
      <trkpt lat="44.07996" lon="3.02226">
        <ele>647</ele>
        <time>2012-05-13T08:34:18Z</time>
      </trkpt>
      <trkpt lat="44.07993" lon="3.02228">
        <ele>646</ele>
        <time>2012-05-13T08:34:20Z</time>
      </trkpt>
      <trkpt lat="44.07988" lon="3.0223">
        <ele>646</ele>
        <time>2012-05-13T08:34:22Z</time>
      </trkpt>
      <trkpt lat="44.07984" lon="3.02231">
        <ele>645</ele>
        <time>2012-05-13T08:34:24Z</time>
      </trkpt>
      <trkpt lat="44.07979" lon="3.02232">
        <ele>644</ele>
        <time>2012-05-13T08:34:26Z</time>
      </trkpt>
      <trkpt lat="44.07975" lon="3.02233">
        <ele>644</ele>
        <time>2012-05-13T08:34:28Z</time>
      </trkpt>
      <trkpt lat="44.0797" lon="3.02233">
        <ele>644</ele>
        <time>2012-05-13T08:34:30Z</time>
      </trkpt>
      <trkpt lat="44.07966" lon="3.02234">
        <ele>645</ele>
        <time>2012-05-13T08:34:32Z</time>
      </trkpt>
      <trkpt lat="44.07962" lon="3.02234">
        <ele>645</ele>
        <time>2012-05-13T08:34:34Z</time>
      </trkpt>
      <trkpt lat="44.07957" lon="3.02234">
        <ele>647</ele>
        <time>2012-05-13T08:34:36Z</time>
      </trkpt>
      <trkpt lat="44.07953" lon="3.02234">
        <ele>648</ele>
        <time>2012-05-13T08:34:39Z</time>
      </trkpt>
      <trkpt lat="44.07949" lon="3.02234">
        <ele>650</ele>
        <time>2012-05-13T08:34:41Z</time>
      </trkpt>
      <trkpt lat="44.07944" lon="3.02235">
        <ele>651</ele>
        <time>2012-05-13T08:34:43Z</time>
      </trkpt>
      <trkpt lat="44.0794" lon="3.02235">
        <ele>652</ele>
        <time>2012-05-13T08:34:45Z</time>
      </trkpt>
      <trkpt lat="44.07936" lon="3.02235">
        <ele>653</ele>
        <time>2012-05-13T08:34:47Z</time>
      </trkpt>
      <trkpt lat="44.07932" lon="3.02236">
        <ele>653</ele>
        <time>2012-05-13T08:34:49Z</time>
      </trkpt>
      <trkpt lat="44.07927" lon="3.02236">
        <ele>654</ele>
        <time>2012-05-13T08:34:51Z</time>
      </trkpt>
      <trkpt lat="44.07924" lon="3.02236">
        <ele>654</ele>
        <time>2012-05-13T08:34:53Z</time>
      </trkpt>
      <trkpt lat="44.07919" lon="3.02238">
        <ele>654</ele>
        <time>2012-05-13T08:34:55Z</time>
      </trkpt>
      <trkpt lat="44.07913" lon="3.02239">
        <ele>653</ele>
        <time>2012-05-13T08:34:57Z</time>
      </trkpt>
      <trkpt lat="44.07909" lon="3.02239">
        <ele>653</ele>
        <time>2012-05-13T08:34:59Z</time>
      </trkpt>
      <trkpt lat="44.07904" lon="3.02241">
        <ele>653</ele>
        <time>2012-05-13T08:35:01Z</time>
      </trkpt>
      <trkpt lat="44.079" lon="3.02242">
        <ele>653</ele>
        <time>2012-05-13T08:35:03Z</time>
      </trkpt>
      <trkpt lat="44.07896" lon="3.02243">
        <ele>653</ele>
        <time>2012-05-13T08:35:05Z</time>
      </trkpt>
      <trkpt lat="44.07891" lon="3.02243">
        <ele>653</ele>
        <time>2012-05-13T08:35:07Z</time>
      </trkpt>
      <trkpt lat="44.07887" lon="3.02244">
        <ele>653</ele>
        <time>2012-05-13T08:35:09Z</time>
      </trkpt>
      <trkpt lat="44.07883" lon="3.02246">
        <ele>653</ele>
        <time>2012-05-13T08:35:11Z</time>
      </trkpt>
      <trkpt lat="44.07878" lon="3.02247">
        <ele>653</ele>
        <time>2012-05-13T08:35:13Z</time>
      </trkpt>
      <trkpt lat="44.07874" lon="3.02247">
        <ele>653</ele>
        <time>2012-05-13T08:35:15Z</time>
      </trkpt>
      <trkpt lat="44.07869" lon="3.02248">
        <ele>653</ele>
        <time>2012-05-13T08:35:17Z</time>
      </trkpt>
      <trkpt lat="44.07866" lon="3.02248">
        <ele>653</ele>
        <time>2012-05-13T08:35:20Z</time>
      </trkpt>
      <trkpt lat="44.07861" lon="3.02248">
        <ele>653</ele>
        <time>2012-05-13T08:35:22Z</time>
      </trkpt>
      <trkpt lat="44.07858" lon="3.02249">
        <ele>653</ele>
        <time>2012-05-13T08:35:24Z</time>
      </trkpt>
      <trkpt lat="44.07854" lon="3.02251">
        <ele>653</ele>
        <time>2012-05-13T08:35:26Z</time>
      </trkpt>
      <trkpt lat="44.0785" lon="3.02252">
        <ele>653</ele>
        <time>2012-05-13T08:35:28Z</time>
      </trkpt>
      <trkpt lat="44.07846" lon="3.02252">
        <ele>653</ele>
        <time>2012-05-13T08:35:30Z</time>
      </trkpt>
      <trkpt lat="44.07841" lon="3.02252">
        <ele>654</ele>
        <time>2012-05-13T08:35:32Z</time>
      </trkpt>
      <trkpt lat="44.07835" lon="3.02253">
        <ele>655</ele>
        <time>2012-05-13T08:35:34Z</time>
      </trkpt>
      <trkpt lat="44.07831" lon="3.02254">
        <ele>656</ele>
        <time>2012-05-13T08:35:36Z</time>
      </trkpt>
      <trkpt lat="44.07827" lon="3.02255">
        <ele>657</ele>
        <time>2012-05-13T08:35:38Z</time>
      </trkpt>
      <trkpt lat="44.07823" lon="3.02255">
        <ele>658</ele>
        <time>2012-05-13T08:35:40Z</time>
      </trkpt>
      <trkpt lat="44.07819" lon="3.02256">
        <ele>658</ele>
        <time>2012-05-13T08:35:42Z</time>
      </trkpt>
      <trkpt lat="44.07815" lon="3.02256">
        <ele>659</ele>
        <time>2012-05-13T08:35:44Z</time>
      </trkpt>
      <trkpt lat="44.07811" lon="3.02257">
        <ele>660</ele>
        <time>2012-05-13T08:35:46Z</time>
      </trkpt>
      <trkpt lat="44.07807" lon="3.02257">
        <ele>661</ele>
        <time>2012-05-13T08:35:48Z</time>
      </trkpt>
      <trkpt lat="44.07803" lon="3.02258">
        <ele>662</ele>
        <time>2012-05-13T08:35:50Z</time>
      </trkpt>
      <trkpt lat="44.07799" lon="3.02259">
        <ele>663</ele>
        <time>2012-05-13T08:35:52Z</time>
      </trkpt>
      <trkpt lat="44.07795" lon="3.0226">
        <ele>664</ele>
        <time>2012-05-13T08:35:54Z</time>
      </trkpt>
      <trkpt lat="44.0779" lon="3.02261">
        <ele>664</ele>
        <time>2012-05-13T08:35:56Z</time>
      </trkpt>
      <trkpt lat="44.07787" lon="3.02263">
        <ele>665</ele>
        <time>2012-05-13T08:35:59Z</time>
      </trkpt>
      <trkpt lat="44.07782" lon="3.02263">
        <ele>665</ele>
        <time>2012-05-13T08:36:01Z</time>
      </trkpt>
      <trkpt lat="44.07778" lon="3.02264">
        <ele>666</ele>
        <time>2012-05-13T08:36:03Z</time>
      </trkpt>
      <trkpt lat="44.07774" lon="3.02265">
        <ele>666</ele>
        <time>2012-05-13T08:36:05Z</time>
      </trkpt>
      <trkpt lat="44.0777" lon="3.02266">
        <ele>666</ele>
        <time>2012-05-13T08:36:07Z</time>
      </trkpt>
      <trkpt lat="44.07766" lon="3.02267">
        <ele>666</ele>
        <time>2012-05-13T08:36:09Z</time>
      </trkpt>
      <trkpt lat="44.07762" lon="3.02267">
        <ele>666</ele>
        <time>2012-05-13T08:36:11Z</time>
      </trkpt>
      <trkpt lat="44.07758" lon="3.02268">
        <ele>666</ele>
        <time>2012-05-13T08:36:13Z</time>
      </trkpt>
      <trkpt lat="44.07751" lon="3.02268">
        <ele>667</ele>
        <time>2012-05-13T08:36:15Z</time>
      </trkpt>
      <trkpt lat="44.07747" lon="3.02269">
        <ele>667</ele>
        <time>2012-05-13T08:36:17Z</time>
      </trkpt>
      <trkpt lat="44.07742" lon="3.02269">
        <ele>668</ele>
        <time>2012-05-13T08:36:19Z</time>
      </trkpt>
      <trkpt lat="44.07738" lon="3.02271">
        <ele>668</ele>
        <time>2012-05-13T08:36:21Z</time>
      </trkpt>
      <trkpt lat="44.07734" lon="3.02272">
        <ele>668</ele>
        <time>2012-05-13T08:36:23Z</time>
      </trkpt>
      <trkpt lat="44.07729" lon="3.02272">
        <ele>668</ele>
        <time>2012-05-13T08:36:25Z</time>
      </trkpt>
      <trkpt lat="44.07725" lon="3.02274">
        <ele>668</ele>
        <time>2012-05-13T08:36:27Z</time>
      </trkpt>
      <trkpt lat="44.0772" lon="3.02274">
        <ele>668</ele>
        <time>2012-05-13T08:36:29Z</time>
      </trkpt>
      <trkpt lat="44.07716" lon="3.02275">
        <ele>668</ele>
        <time>2012-05-13T08:36:31Z</time>
      </trkpt>
      <trkpt lat="44.07712" lon="3.02276">
        <ele>667</ele>
        <time>2012-05-13T08:36:33Z</time>
      </trkpt>
      <trkpt lat="44.07708" lon="3.02277">
        <ele>666</ele>
        <time>2012-05-13T08:36:35Z</time>
      </trkpt>
      <trkpt lat="44.07703" lon="3.02278">
        <ele>666</ele>
        <time>2012-05-13T08:36:37Z</time>
      </trkpt>
      <trkpt lat="44.07699" lon="3.02279">
        <ele>665</ele>
        <time>2012-05-13T08:36:39Z</time>
      </trkpt>
      <trkpt lat="44.07695" lon="3.0228">
        <ele>664</ele>
        <time>2012-05-13T08:36:41Z</time>
      </trkpt>
      <trkpt lat="44.07691" lon="3.02282">
        <ele>662</ele>
        <time>2012-05-13T08:36:43Z</time>
      </trkpt>
      <trkpt lat="44.07687" lon="3.02284">
        <ele>661</ele>
        <time>2012-05-13T08:36:45Z</time>
      </trkpt>
      <trkpt lat="44.07683" lon="3.02285">
        <ele>659</ele>
        <time>2012-05-13T08:36:47Z</time>
      </trkpt>
      <trkpt lat="44.07678" lon="3.02286">
        <ele>658</ele>
        <time>2012-05-13T08:36:49Z</time>
      </trkpt>
      <trkpt lat="44.07674" lon="3.02288">
        <ele>657</ele>
        <time>2012-05-13T08:36:51Z</time>
      </trkpt>
      <trkpt lat="44.07669" lon="3.02289">
        <ele>656</ele>
        <time>2012-05-13T08:36:53Z</time>
      </trkpt>
      <trkpt lat="44.07665" lon="3.02289">
        <ele>655</ele>
        <time>2012-05-13T08:36:55Z</time>
      </trkpt>
      <trkpt lat="44.07661" lon="3.0229">
        <ele>655</ele>
        <time>2012-05-13T08:36:57Z</time>
      </trkpt>
      <trkpt lat="44.07656" lon="3.02291">
        <ele>654</ele>
        <time>2012-05-13T08:36:59Z</time>
      </trkpt>
      <trkpt lat="44.07652" lon="3.02292">
        <ele>654</ele>
        <time>2012-05-13T08:37:01Z</time>
      </trkpt>
      <trkpt lat="44.07647" lon="3.02293">
        <ele>654</ele>
        <time>2012-05-13T08:37:03Z</time>
      </trkpt>
      <trkpt lat="44.07643" lon="3.02294">
        <ele>654</ele>
        <time>2012-05-13T08:37:05Z</time>
      </trkpt>
      <trkpt lat="44.07638" lon="3.02294">
        <ele>654</ele>
        <time>2012-05-13T08:37:07Z</time>
      </trkpt>
      <trkpt lat="44.07634" lon="3.02295">
        <ele>654</ele>
        <time>2012-05-13T08:37:09Z</time>
      </trkpt>
      <trkpt lat="44.07629" lon="3.02296">
        <ele>654</ele>
        <time>2012-05-13T08:37:11Z</time>
      </trkpt>
      <trkpt lat="44.07624" lon="3.02298">
        <ele>654</ele>
        <time>2012-05-13T08:37:14Z</time>
      </trkpt>
      <trkpt lat="44.0762" lon="3.02299">
        <ele>653</ele>
        <time>2012-05-13T08:37:16Z</time>
      </trkpt>
      <trkpt lat="44.07616" lon="3.02299">
        <ele>653</ele>
        <time>2012-05-13T08:37:18Z</time>
      </trkpt>
      <trkpt lat="44.07611" lon="3.02301">
        <ele>652</ele>
        <time>2012-05-13T08:37:20Z</time>
      </trkpt>
      <trkpt lat="44.07608" lon="3.02302">
        <ele>652</ele>
        <time>2012-05-13T08:37:22Z</time>
      </trkpt>
      <trkpt lat="44.07603" lon="3.02303">
        <ele>652</ele>
        <time>2012-05-13T08:37:24Z</time>
      </trkpt>
      <trkpt lat="44.07598" lon="3.02304">
        <ele>652</ele>
        <time>2012-05-13T08:37:26Z</time>
      </trkpt>
      <trkpt lat="44.07594" lon="3.02304">
        <ele>652</ele>
        <time>2012-05-13T08:37:28Z</time>
      </trkpt>
      <trkpt lat="44.07589" lon="3.02305">
        <ele>652</ele>
        <time>2012-05-13T08:37:30Z</time>
      </trkpt>
      <trkpt lat="44.07585" lon="3.02306">
        <ele>652</ele>
        <time>2012-05-13T08:37:32Z</time>
      </trkpt>
      <trkpt lat="44.0758" lon="3.02307">
        <ele>653</ele>
        <time>2012-05-13T08:37:34Z</time>
      </trkpt>
      <trkpt lat="44.07576" lon="3.02308">
        <ele>654</ele>
        <time>2012-05-13T08:37:36Z</time>
      </trkpt>
      <trkpt lat="44.0757" lon="3.02309">
        <ele>655</ele>
        <time>2012-05-13T08:37:38Z</time>
      </trkpt>
      <trkpt lat="44.07565" lon="3.0231">
        <ele>657</ele>
        <time>2012-05-13T08:37:40Z</time>
      </trkpt>
      <trkpt lat="44.07561" lon="3.0231">
        <ele>658</ele>
        <time>2012-05-13T08:37:42Z</time>
      </trkpt>
      <trkpt lat="44.07557" lon="3.02311">
        <ele>659</ele>
        <time>2012-05-13T08:37:44Z</time>
      </trkpt>
      <trkpt lat="44.07552" lon="3.02312">
        <ele>659</ele>
        <time>2012-05-13T08:37:46Z</time>
      </trkpt>
      <trkpt lat="44.07548" lon="3.02313">
        <ele>660</ele>
        <time>2012-05-13T08:37:48Z</time>
      </trkpt>
      <trkpt lat="44.07544" lon="3.02314">
        <ele>661</ele>
        <time>2012-05-13T08:37:50Z</time>
      </trkpt>
      <trkpt lat="44.07539" lon="3.02315">
        <ele>661</ele>
        <time>2012-05-13T08:37:52Z</time>
      </trkpt>
      <trkpt lat="44.07535" lon="3.02316">
        <ele>662</ele>
        <time>2012-05-13T08:37:54Z</time>
      </trkpt>
      <trkpt lat="44.07531" lon="3.02317">
        <ele>662</ele>
        <time>2012-05-13T08:37:56Z</time>
      </trkpt>
      <trkpt lat="44.07528" lon="3.02316">
        <ele>662</ele>
        <time>2012-05-13T08:37:58Z</time>
      </trkpt>
      <trkpt lat="44.07524" lon="3.02317">
        <ele>662</ele>
        <time>2012-05-13T08:38:00Z</time>
      </trkpt>
      <trkpt lat="44.0752" lon="3.02318">
        <ele>663</ele>
        <time>2012-05-13T08:38:03Z</time>
      </trkpt>
      <trkpt lat="44.07515" lon="3.02318">
        <ele>664</ele>
        <time>2012-05-13T08:38:05Z</time>
      </trkpt>
      <trkpt lat="44.07511" lon="3.02318">
        <ele>665</ele>
        <time>2012-05-13T08:38:07Z</time>
      </trkpt>
      <trkpt lat="44.07507" lon="3.02319">
        <ele>666</ele>
        <time>2012-05-13T08:38:09Z</time>
      </trkpt>
      <trkpt lat="44.07503" lon="3.02319">
        <ele>666</ele>
        <time>2012-05-13T08:38:11Z</time>
      </trkpt>
      <trkpt lat="44.07499" lon="3.0232">
        <ele>666</ele>
        <time>2012-05-13T08:38:13Z</time>
      </trkpt>
      <trkpt lat="44.07495" lon="3.02321">
        <ele>666</ele>
        <time>2012-05-13T08:38:15Z</time>
      </trkpt>
      <trkpt lat="44.07489" lon="3.02321">
        <ele>666</ele>
        <time>2012-05-13T08:38:17Z</time>
      </trkpt>
      <trkpt lat="44.07485" lon="3.02323">
        <ele>665</ele>
        <time>2012-05-13T08:38:19Z</time>
      </trkpt>
      <trkpt lat="44.0748" lon="3.02324">
        <ele>665</ele>
        <time>2012-05-13T08:38:21Z</time>
      </trkpt>
      <trkpt lat="44.07476" lon="3.02325">
        <ele>665</ele>
        <time>2012-05-13T08:38:23Z</time>
      </trkpt>
      <trkpt lat="44.07472" lon="3.02325">
        <ele>665</ele>
        <time>2012-05-13T08:38:25Z</time>
      </trkpt>
      <trkpt lat="44.07468" lon="3.02326">
        <ele>665</ele>
        <time>2012-05-13T08:38:27Z</time>
      </trkpt>
      <trkpt lat="44.07464" lon="3.02326">
        <ele>666</ele>
        <time>2012-05-13T08:38:29Z</time>
      </trkpt>
      <trkpt lat="44.07459" lon="3.02327">
        <ele>667</ele>
        <time>2012-05-13T08:38:31Z</time>
      </trkpt>
      <trkpt lat="44.07455" lon="3.02327">
        <ele>668</ele>
        <time>2012-05-13T08:38:33Z</time>
      </trkpt>
      <trkpt lat="44.07451" lon="3.02328">
        <ele>669</ele>
        <time>2012-05-13T08:38:35Z</time>
      </trkpt>
      <trkpt lat="44.07447" lon="3.02328">
        <ele>670</ele>
        <time>2012-05-13T08:38:37Z</time>
      </trkpt>
      <trkpt lat="44.07442" lon="3.02328">
        <ele>671</ele>
        <time>2012-05-13T08:38:40Z</time>
      </trkpt>
      <trkpt lat="44.07437" lon="3.02329">
        <ele>673</ele>
        <time>2012-05-13T08:38:42Z</time>
      </trkpt>
      <trkpt lat="44.07434" lon="3.0233">
        <ele>674</ele>
        <time>2012-05-13T08:38:44Z</time>
      </trkpt>
      <trkpt lat="44.07429" lon="3.02331">
        <ele>675</ele>
        <time>2012-05-13T08:38:46Z</time>
      </trkpt>
      <trkpt lat="44.07425" lon="3.02331">
        <ele>677</ele>
        <time>2012-05-13T08:38:48Z</time>
      </trkpt>
      <trkpt lat="44.07421" lon="3.02332">
        <ele>678</ele>
        <time>2012-05-13T08:38:50Z</time>
      </trkpt>
      <trkpt lat="44.07418" lon="3.02333">
        <ele>679</ele>
        <time>2012-05-13T08:38:52Z</time>
      </trkpt>
      <trkpt lat="44.07412" lon="3.02335">
        <ele>680</ele>
        <time>2012-05-13T08:38:54Z</time>
      </trkpt>
      <trkpt lat="44.07407" lon="3.02336">
        <ele>679</ele>
        <time>2012-05-13T08:38:56Z</time>
      </trkpt>
      <trkpt lat="44.07404" lon="3.02337">
        <ele>679</ele>
        <time>2012-05-13T08:38:58Z</time>
      </trkpt>
      <trkpt lat="44.074" lon="3.02338">
        <ele>679</ele>
        <time>2012-05-13T08:39:00Z</time>
      </trkpt>
      <trkpt lat="44.07396" lon="3.02338">
        <ele>679</ele>
        <time>2012-05-13T08:39:02Z</time>
      </trkpt>
      <trkpt lat="44.07391" lon="3.0234">
        <ele>678</ele>
        <time>2012-05-13T08:39:04Z</time>
      </trkpt>
      <trkpt lat="44.07387" lon="3.0234">
        <ele>677</ele>
        <time>2012-05-13T08:39:06Z</time>
      </trkpt>
      <trkpt lat="44.07384" lon="3.02342">
        <ele>676</ele>
        <time>2012-05-13T08:39:08Z</time>
      </trkpt>
      <trkpt lat="44.07379" lon="3.02342">
        <ele>674</ele>
        <time>2012-05-13T08:39:10Z</time>
      </trkpt>
      <trkpt lat="44.07374" lon="3.02343">
        <ele>673</ele>
        <time>2012-05-13T08:39:12Z</time>
      </trkpt>
      <trkpt lat="44.0737" lon="3.02344">
        <ele>673</ele>
        <time>2012-05-13T08:39:14Z</time>
      </trkpt>
      <trkpt lat="44.07366" lon="3.02345">
        <ele>672</ele>
        <time>2012-05-13T08:39:17Z</time>
      </trkpt>
      <trkpt lat="44.07362" lon="3.02347">
        <ele>672</ele>
        <time>2012-05-13T08:39:19Z</time>
      </trkpt>
      <trkpt lat="44.07358" lon="3.02347">
        <ele>672</ele>
        <time>2012-05-13T08:39:21Z</time>
      </trkpt>
      <trkpt lat="44.07354" lon="3.02348">
        <ele>672</ele>
        <time>2012-05-13T08:39:23Z</time>
      </trkpt>
      <trkpt lat="44.0735" lon="3.02349">
        <ele>672</ele>
        <time>2012-05-13T08:39:25Z</time>
      </trkpt>
      <trkpt lat="44.07346" lon="3.0235">
        <ele>673</ele>
        <time>2012-05-13T08:39:27Z</time>
      </trkpt>
      <trkpt lat="44.07342" lon="3.02351">
        <ele>673</ele>
        <time>2012-05-13T08:39:29Z</time>
      </trkpt>
      <trkpt lat="44.07335" lon="3.02352">
        <ele>673</ele>
        <time>2012-05-13T08:39:31Z</time>
      </trkpt>
      <trkpt lat="44.07331" lon="3.02353">
        <ele>673</ele>
        <time>2012-05-13T08:39:33Z</time>
      </trkpt>
      <trkpt lat="44.07327" lon="3.02355">
        <ele>674</ele>
        <time>2012-05-13T08:39:35Z</time>
      </trkpt>
      <trkpt lat="44.07323" lon="3.02355">
        <ele>675</ele>
        <time>2012-05-13T08:39:37Z</time>
      </trkpt>
      <trkpt lat="44.07319" lon="3.02356">
        <ele>675</ele>
        <time>2012-05-13T08:39:39Z</time>
      </trkpt>
      <trkpt lat="44.07315" lon="3.02357">
        <ele>676</ele>
        <time>2012-05-13T08:39:41Z</time>
      </trkpt>
      <trkpt lat="44.0731" lon="3.02358">
        <ele>677</ele>
        <time>2012-05-13T08:39:43Z</time>
      </trkpt>
      <trkpt lat="44.07307" lon="3.02359">
        <ele>677</ele>
        <time>2012-05-13T08:39:45Z</time>
      </trkpt>
      <trkpt lat="44.07302" lon="3.02359">
        <ele>678</ele>
        <time>2012-05-13T08:39:47Z</time>
      </trkpt>
      <trkpt lat="44.07298" lon="3.0236">
        <ele>679</ele>
        <time>2012-05-13T08:39:49Z</time>
      </trkpt>
      <trkpt lat="44.07294" lon="3.02361">
        <ele>679</ele>
        <time>2012-05-13T08:39:51Z</time>
      </trkpt>
      <trkpt lat="44.07291" lon="3.02361">
        <ele>680</ele>
        <time>2012-05-13T08:39:53Z</time>
      </trkpt>
      <trkpt lat="44.07286" lon="3.02362">
        <ele>680</ele>
        <time>2012-05-13T08:39:56Z</time>
      </trkpt>
      <trkpt lat="44.07282" lon="3.02363">
        <ele>681</ele>
        <time>2012-05-13T08:39:58Z</time>
      </trkpt>
      <trkpt lat="44.07278" lon="3.02364">
        <ele>680</ele>
        <time>2012-05-13T08:40:00Z</time>
      </trkpt>
      <trkpt lat="44.07274" lon="3.02365">
        <ele>680</ele>
        <time>2012-05-13T08:40:02Z</time>
      </trkpt>
      <trkpt lat="44.0727" lon="3.02366">
        <ele>680</ele>
        <time>2012-05-13T08:40:04Z</time>
      </trkpt>
      <trkpt lat="44.07266" lon="3.02366">
        <ele>680</ele>
        <time>2012-05-13T08:40:06Z</time>
      </trkpt>
      <trkpt lat="44.07262" lon="3.02366">
        <ele>680</ele>
        <time>2012-05-13T08:40:08Z</time>
      </trkpt>
      <trkpt lat="44.07256" lon="3.02367">
        <ele>680</ele>
        <time>2012-05-13T08:40:10Z</time>
      </trkpt>
      <trkpt lat="44.07252" lon="3.02368">
        <ele>680</ele>
        <time>2012-05-13T08:40:12Z</time>
      </trkpt>
      <trkpt lat="44.07248" lon="3.02368">
        <ele>680</ele>
        <time>2012-05-13T08:40:14Z</time>
      </trkpt>
      <trkpt lat="44.07244" lon="3.0237">
        <ele>681</ele>
        <time>2012-05-13T08:40:16Z</time>
      </trkpt>
      <trkpt lat="44.0724" lon="3.02371">
        <ele>681</ele>
        <time>2012-05-13T08:40:18Z</time>
      </trkpt>
      <trkpt lat="44.07236" lon="3.02372">
        <ele>681</ele>
        <time>2012-05-13T08:40:20Z</time>
      </trkpt>
      <trkpt lat="44.07232" lon="3.02373">
        <ele>681</ele>
        <time>2012-05-13T08:40:22Z</time>
      </trkpt>
      <trkpt lat="44.07228" lon="3.02375">
        <ele>682</ele>
        <time>2012-05-13T08:40:24Z</time>
      </trkpt>
      <trkpt lat="44.07223" lon="3.02375">
        <ele>682</ele>
        <time>2012-05-13T08:40:26Z</time>
      </trkpt>
      <trkpt lat="44.07219" lon="3.02377">
        <ele>682</ele>
        <time>2012-05-13T08:40:28Z</time>
      </trkpt>
      <trkpt lat="44.07215" lon="3.02378">
        <ele>682</ele>
        <time>2012-05-13T08:40:30Z</time>
      </trkpt>
      <trkpt lat="44.0721" lon="3.02379">
        <ele>682</ele>
        <time>2012-05-13T08:40:32Z</time>
      </trkpt>
      <trkpt lat="44.07206" lon="3.0238">
        <ele>682</ele>
        <time>2012-05-13T08:40:34Z</time>
      </trkpt>
      <trkpt lat="44.07202" lon="3.02381">
        <ele>682</ele>
        <time>2012-05-13T08:40:36Z</time>
      </trkpt>
      <trkpt lat="44.07198" lon="3.02382">
        <ele>683</ele>
        <time>2012-05-13T08:40:38Z</time>
      </trkpt>
      <trkpt lat="44.07194" lon="3.02384">
        <ele>683</ele>
        <time>2012-05-13T08:40:41Z</time>
      </trkpt>
      <trkpt lat="44.0719" lon="3.02386">
        <ele>683</ele>
        <time>2012-05-13T08:40:43Z</time>
      </trkpt>
      <trkpt lat="44.07186" lon="3.02386">
        <ele>684</ele>
        <time>2012-05-13T08:40:45Z</time>
      </trkpt>
      <trkpt lat="44.07182" lon="3.02388">
        <ele>683</ele>
        <time>2012-05-13T08:40:47Z</time>
      </trkpt>
      <trkpt lat="44.07178" lon="3.0239">
        <ele>683</ele>
        <time>2012-05-13T08:40:49Z</time>
      </trkpt>
      <trkpt lat="44.07174" lon="3.0239">
        <ele>683</ele>
        <time>2012-05-13T08:40:51Z</time>
      </trkpt>
      <trkpt lat="44.07169" lon="3.02391">
        <ele>683</ele>
        <time>2012-05-13T08:40:53Z</time>
      </trkpt>
      <trkpt lat="44.07164" lon="3.02391">
        <ele>683</ele>
        <time>2012-05-13T08:40:55Z</time>
      </trkpt>
      <trkpt lat="44.0716" lon="3.02392">
        <ele>683</ele>
        <time>2012-05-13T08:40:57Z</time>
      </trkpt>
      <trkpt lat="44.07156" lon="3.02394">
        <ele>683</ele>
        <time>2012-05-13T08:40:59Z</time>
      </trkpt>
      <trkpt lat="44.07152" lon="3.02394">
        <ele>683</ele>
        <time>2012-05-13T08:41:01Z</time>
      </trkpt>
      <trkpt lat="44.07145" lon="3.02396">
        <ele>684</ele>
        <time>2012-05-13T08:41:03Z</time>
      </trkpt>
      <trkpt lat="44.07141" lon="3.02396">
        <ele>684</ele>
        <time>2012-05-13T08:41:05Z</time>
      </trkpt>
      <trkpt lat="44.07137" lon="3.02398">
        <ele>684</ele>
        <time>2012-05-13T08:41:07Z</time>
      </trkpt>
      <trkpt lat="44.07132" lon="3.02399">
        <ele>683</ele>
        <time>2012-05-13T08:41:09Z</time>
      </trkpt>
      <trkpt lat="44.07128" lon="3.02399">
        <ele>683</ele>
        <time>2012-05-13T08:41:11Z</time>
      </trkpt>
      <trkpt lat="44.07124" lon="3.024">
        <ele>683</ele>
        <time>2012-05-13T08:41:13Z</time>
      </trkpt>
      <trkpt lat="44.0712" lon="3.02401">
        <ele>683</ele>
        <time>2012-05-13T08:41:15Z</time>
      </trkpt>
      <trkpt lat="44.07116" lon="3.02401">
        <ele>683</ele>
        <time>2012-05-13T08:41:17Z</time>
      </trkpt>
      <trkpt lat="44.07111" lon="3.02402">
        <ele>684</ele>
        <time>2012-05-13T08:41:19Z</time>
      </trkpt>
      <trkpt lat="44.07107" lon="3.02403">
        <ele>684</ele>
        <time>2012-05-13T08:41:21Z</time>
      </trkpt>
      <trkpt lat="44.07103" lon="3.02404">
        <ele>685</ele>
        <time>2012-05-13T08:41:23Z</time>
      </trkpt>
      <trkpt lat="44.07098" lon="3.02405">
        <ele>685</ele>
        <time>2012-05-13T08:41:26Z</time>
      </trkpt>
      <trkpt lat="44.07095" lon="3.02406">
        <ele>684</ele>
        <time>2012-05-13T08:41:28Z</time>
      </trkpt>
      <trkpt lat="44.0709" lon="3.02408">
        <ele>684</ele>
        <time>2012-05-13T08:41:30Z</time>
      </trkpt>
      <trkpt lat="44.07086" lon="3.02409">
        <ele>683</ele>
        <time>2012-05-13T08:41:32Z</time>
      </trkpt>
      <trkpt lat="44.07082" lon="3.02409">
        <ele>682</ele>
        <time>2012-05-13T08:41:34Z</time>
      </trkpt>
      <trkpt lat="44.07077" lon="3.0241">
        <ele>681</ele>
        <time>2012-05-13T08:41:36Z</time>
      </trkpt>
      <trkpt lat="44.07073" lon="3.02411">
        <ele>680</ele>
        <time>2012-05-13T08:41:38Z</time>
      </trkpt>
      <trkpt lat="44.07068" lon="3.02412">
        <ele>680</ele>
        <time>2012-05-13T08:41:40Z</time>
      </trkpt>
      <trkpt lat="44.07064" lon="3.02413">
        <ele>681</ele>
        <time>2012-05-13T08:41:42Z</time>
      </trkpt>
      <trkpt lat="44.0706" lon="3.02414">
        <ele>681</ele>
        <time>2012-05-13T08:41:44Z</time>
      </trkpt>
      <trkpt lat="44.07056" lon="3.02415">
        <ele>681</ele>
        <time>2012-05-13T08:41:46Z</time>
      </trkpt>
      <trkpt lat="44.07049" lon="3.02416">
        <ele>681</ele>
        <time>2012-05-13T08:41:48Z</time>
      </trkpt>
      <trkpt lat="44.07045" lon="3.02418">
        <ele>682</ele>
        <time>2012-05-13T08:41:50Z</time>
      </trkpt>
      <trkpt lat="44.07041" lon="3.02419">
        <ele>682</ele>
        <time>2012-05-13T08:41:52Z</time>
      </trkpt>
      <trkpt lat="44.07037" lon="3.0242">
        <ele>683</ele>
        <time>2012-05-13T08:41:54Z</time>
      </trkpt>
      <trkpt lat="44.07032" lon="3.02421">
        <ele>683</ele>
        <time>2012-05-13T08:41:56Z</time>
      </trkpt>
      <trkpt lat="44.07028" lon="3.02422">
        <ele>684</ele>
        <time>2012-05-13T08:41:58Z</time>
      </trkpt>
      <trkpt lat="44.07024" lon="3.02423">
        <ele>684</ele>
        <time>2012-05-13T08:42:00Z</time>
      </trkpt>
      <trkpt lat="44.07019" lon="3.02424">
        <ele>683</ele>
        <time>2012-05-13T08:42:02Z</time>
      </trkpt>
      <trkpt lat="44.07015" lon="3.02424">
        <ele>683</ele>
        <time>2012-05-13T08:42:04Z</time>
      </trkpt>
      <trkpt lat="44.07011" lon="3.02426">
        <ele>683</ele>
        <time>2012-05-13T08:42:06Z</time>
      </trkpt>
      <trkpt lat="44.07007" lon="3.02427">
        <ele>683</ele>
        <time>2012-05-13T08:42:09Z</time>
      </trkpt>
      <trkpt lat="44.07003" lon="3.02428">
        <ele>683</ele>
        <time>2012-05-13T08:42:11Z</time>
      </trkpt>
      <trkpt lat="44.06998" lon="3.02429">
        <ele>684</ele>
        <time>2012-05-13T08:42:13Z</time>
      </trkpt>
      <trkpt lat="44.06994" lon="3.0243">
        <ele>684</ele>
        <time>2012-05-13T08:42:15Z</time>
      </trkpt>
      <trkpt lat="44.0699" lon="3.02431">
        <ele>683</ele>
        <time>2012-05-13T08:42:17Z</time>
      </trkpt>
      <trkpt lat="44.06985" lon="3.02432">
        <ele>683</ele>
        <time>2012-05-13T08:42:19Z</time>
      </trkpt>
      <trkpt lat="44.06981" lon="3.02433">
        <ele>683</ele>
        <time>2012-05-13T08:42:21Z</time>
      </trkpt>
      <trkpt lat="44.06977" lon="3.02434">
        <ele>683</ele>
        <time>2012-05-13T08:42:23Z</time>
      </trkpt>
      <trkpt lat="44.06971" lon="3.02436">
        <ele>683</ele>
        <time>2012-05-13T08:42:25Z</time>
      </trkpt>
      <trkpt lat="44.06966" lon="3.02437">
        <ele>683</ele>
        <time>2012-05-13T08:42:27Z</time>
      </trkpt>
      <trkpt lat="44.06962" lon="3.02438">
        <ele>684</ele>
        <time>2012-05-13T08:42:29Z</time>
      </trkpt>
      <trkpt lat="44.06958" lon="3.0244">
        <ele>685</ele>
        <time>2012-05-13T08:42:31Z</time>
      </trkpt>
      <trkpt lat="44.06954" lon="3.02441">
        <ele>685</ele>
        <time>2012-05-13T08:42:33Z</time>
      </trkpt>
      <trkpt lat="44.06949" lon="3.02443">
        <ele>686</ele>
        <time>2012-05-13T08:42:35Z</time>
      </trkpt>
      <trkpt lat="44.06945" lon="3.02444">
        <ele>687</ele>
        <time>2012-05-13T08:42:37Z</time>
      </trkpt>
      <trkpt lat="44.0694" lon="3.02445">
        <ele>688</ele>
        <time>2012-05-13T08:42:39Z</time>
      </trkpt>
      <trkpt lat="44.06935" lon="3.02447">
        <ele>689</ele>
        <time>2012-05-13T08:42:41Z</time>
      </trkpt>
      <trkpt lat="44.06931" lon="3.02447">
        <ele>689</ele>
        <time>2012-05-13T08:42:43Z</time>
      </trkpt>
      <trkpt lat="44.06927" lon="3.02448">
        <ele>689</ele>
        <time>2012-05-13T08:42:45Z</time>
      </trkpt>
      <trkpt lat="44.06923" lon="3.02449">
        <ele>688</ele>
        <time>2012-05-13T08:42:47Z</time>
      </trkpt>
      <trkpt lat="44.06918" lon="3.02451">
        <ele>688</ele>
        <time>2012-05-13T08:42:50Z</time>
      </trkpt>
      <trkpt lat="44.06913" lon="3.02452">
        <ele>688</ele>
        <time>2012-05-13T08:42:52Z</time>
      </trkpt>
      <trkpt lat="44.06908" lon="3.02453">
        <ele>688</ele>
        <time>2012-05-13T08:42:54Z</time>
      </trkpt>
      <trkpt lat="44.06904" lon="3.02455">
        <ele>688</ele>
        <time>2012-05-13T08:42:56Z</time>
      </trkpt>
      <trkpt lat="44.069" lon="3.02456">
        <ele>688</ele>
        <time>2012-05-13T08:42:58Z</time>
      </trkpt>
      <trkpt lat="44.06895" lon="3.02457">
        <ele>688</ele>
        <time>2012-05-13T08:43:00Z</time>
      </trkpt>
      <trkpt lat="44.0689" lon="3.02458">
        <ele>688</ele>
        <time>2012-05-13T08:43:02Z</time>
      </trkpt>
      <trkpt lat="44.06886" lon="3.0246">
        <ele>688</ele>
        <time>2012-05-13T08:43:04Z</time>
      </trkpt>
      <trkpt lat="44.06879" lon="3.02461">
        <ele>688</ele>
        <time>2012-05-13T08:43:06Z</time>
      </trkpt>
      <trkpt lat="44.06875" lon="3.02462">
        <ele>688</ele>
        <time>2012-05-13T08:43:08Z</time>
      </trkpt>
      <trkpt lat="44.0687" lon="3.02463">
        <ele>689</ele>
        <time>2012-05-13T08:43:10Z</time>
      </trkpt>
      <trkpt lat="44.06866" lon="3.02464">
        <ele>688</ele>
        <time>2012-05-13T08:43:12Z</time>
      </trkpt>
      <trkpt lat="44.06862" lon="3.02466">
        <ele>688</ele>
        <time>2012-05-13T08:43:14Z</time>
      </trkpt>
      <trkpt lat="44.06858" lon="3.02467">
        <ele>687</ele>
        <time>2012-05-13T08:43:16Z</time>
      </trkpt>
      <trkpt lat="44.06853" lon="3.02468">
        <ele>687</ele>
        <time>2012-05-13T08:43:18Z</time>
      </trkpt>
      <trkpt lat="44.06848" lon="3.02469">
        <ele>687</ele>
        <time>2012-05-13T08:43:20Z</time>
      </trkpt>
      <trkpt lat="44.06844" lon="3.0247">
        <ele>687</ele>
        <time>2012-05-13T08:43:22Z</time>
      </trkpt>
      <trkpt lat="44.06839" lon="3.02471">
        <ele>686</ele>
        <time>2012-05-13T08:43:24Z</time>
      </trkpt>
      <trkpt lat="44.06836" lon="3.02472">
        <ele>686</ele>
        <time>2012-05-13T08:43:27Z</time>
      </trkpt>
      <trkpt lat="44.06831" lon="3.02473">
        <ele>685</ele>
        <time>2012-05-13T08:43:29Z</time>
      </trkpt>
      <trkpt lat="44.06826" lon="3.02473">
        <ele>684</ele>
        <time>2012-05-13T08:43:31Z</time>
      </trkpt>
      <trkpt lat="44.06822" lon="3.02475">
        <ele>684</ele>
        <time>2012-05-13T08:43:33Z</time>
      </trkpt>
      <trkpt lat="44.06818" lon="3.02476">
        <ele>684</ele>
        <time>2012-05-13T08:43:35Z</time>
      </trkpt>
      <trkpt lat="44.06813" lon="3.02477">
        <ele>684</ele>
        <time>2012-05-13T08:43:37Z</time>
      </trkpt>
      <trkpt lat="44.06808" lon="3.02479">
        <ele>683</ele>
        <time>2012-05-13T08:43:39Z</time>
      </trkpt>
      <trkpt lat="44.06804" lon="3.0248">
        <ele>683</ele>
        <time>2012-05-13T08:43:41Z</time>
      </trkpt>
      <trkpt lat="44.06797" lon="3.02483">
        <ele>683</ele>
        <time>2012-05-13T08:43:43Z</time>
      </trkpt>
      <trkpt lat="44.06793" lon="3.02483">
        <ele>683</ele>
        <time>2012-05-13T08:43:45Z</time>
      </trkpt>
      <trkpt lat="44.06788" lon="3.02484">
        <ele>683</ele>
        <time>2012-05-13T08:43:47Z</time>
      </trkpt>
      <trkpt lat="44.06783" lon="3.02485">
        <ele>683</ele>
        <time>2012-05-13T08:43:49Z</time>
      </trkpt>
      <trkpt lat="44.06779" lon="3.02486">
        <ele>683</ele>
        <time>2012-05-13T08:43:51Z</time>
      </trkpt>
      <trkpt lat="44.06774" lon="3.02488">
        <ele>683</ele>
        <time>2012-05-13T08:43:53Z</time>
      </trkpt>
      <trkpt lat="44.06769" lon="3.02489">
        <ele>682</ele>
        <time>2012-05-13T08:43:55Z</time>
      </trkpt>
      <trkpt lat="44.06765" lon="3.0249">
        <ele>682</ele>
        <time>2012-05-13T08:43:57Z</time>
      </trkpt>
      <trkpt lat="44.0676" lon="3.02491">
        <ele>682</ele>
        <time>2012-05-13T08:43:59Z</time>
      </trkpt>
      <trkpt lat="44.06755" lon="3.02492">
        <ele>682</ele>
        <time>2012-05-13T08:44:01Z</time>
      </trkpt>
      <trkpt lat="44.0675" lon="3.02493">
        <ele>681</ele>
        <time>2012-05-13T08:44:03Z</time>
      </trkpt>
      <trkpt lat="44.06746" lon="3.02495">
        <ele>681</ele>
        <time>2012-05-13T08:44:06Z</time>
      </trkpt>
      <trkpt lat="44.06742" lon="3.02497">
        <ele>681</ele>
        <time>2012-05-13T08:44:08Z</time>
      </trkpt>
      <trkpt lat="44.06738" lon="3.02497">
        <ele>681</ele>
        <time>2012-05-13T08:44:10Z</time>
      </trkpt>
      <trkpt lat="44.06734" lon="3.02498">
        <ele>681</ele>
        <time>2012-05-13T08:44:12Z</time>
      </trkpt>
      <trkpt lat="44.0673" lon="3.02499">
        <ele>681</ele>
        <time>2012-05-13T08:44:14Z</time>
      </trkpt>
      <trkpt lat="44.06726" lon="3.02501">
        <ele>681</ele>
        <time>2012-05-13T08:44:16Z</time>
      </trkpt>
      <trkpt lat="44.06722" lon="3.02502">
        <ele>681</ele>
        <time>2012-05-13T08:44:18Z</time>
      </trkpt>
      <trkpt lat="44.06716" lon="3.02503">
        <ele>681</ele>
        <time>2012-05-13T08:44:20Z</time>
      </trkpt>
      <trkpt lat="44.06712" lon="3.02504">
        <ele>681</ele>
        <time>2012-05-13T08:44:22Z</time>
      </trkpt>
      <trkpt lat="44.0671" lon="3.02505">
        <ele>681</ele>
        <time>2012-05-13T08:44:24Z</time>
      </trkpt>
      <trkpt lat="44.06709" lon="3.02509">
        <ele>681</ele>
        <time>2012-05-13T08:44:26Z</time>
      </trkpt>
      <trkpt lat="44.06711" lon="3.02511">
        <ele>682</ele>
        <time>2012-05-13T08:44:28Z</time>
      </trkpt>
      <trkpt lat="44.06716" lon="3.02511">
        <ele>682</ele>
        <time>2012-05-13T08:44:30Z</time>
      </trkpt>
      <trkpt lat="44.06722" lon="3.0251">
        <ele>683</ele>
        <time>2012-05-13T08:44:32Z</time>
      </trkpt>
      <trkpt lat="44.06727" lon="3.02509">
        <ele>683</ele>
        <time>2012-05-13T08:44:34Z</time>
      </trkpt>
      <trkpt lat="44.06733" lon="3.02508">
        <ele>684</ele>
        <time>2012-05-13T08:44:36Z</time>
      </trkpt>
      <trkpt lat="44.06738" lon="3.02506">
        <ele>684</ele>
        <time>2012-05-13T08:44:38Z</time>
      </trkpt>
      <trkpt lat="44.06742" lon="3.02504">
        <ele>683</ele>
        <time>2012-05-13T08:44:40Z</time>
      </trkpt>
      <trkpt lat="44.06747" lon="3.02503">
        <ele>683</ele>
        <time>2012-05-13T08:44:42Z</time>
      </trkpt>
      <trkpt lat="44.06752" lon="3.02501">
        <ele>684</ele>
        <time>2012-05-13T08:44:45Z</time>
      </trkpt>
      <trkpt lat="44.06757" lon="3.025">
        <ele>684</ele>
        <time>2012-05-13T08:44:47Z</time>
      </trkpt>
      <trkpt lat="44.06762" lon="3.02499">
        <ele>684</ele>
        <time>2012-05-13T08:44:49Z</time>
      </trkpt>
      <trkpt lat="44.06767" lon="3.02497">
        <ele>684</ele>
        <time>2012-05-13T08:44:51Z</time>
      </trkpt>
      <trkpt lat="44.06771" lon="3.02495">
        <ele>684</ele>
        <time>2012-05-13T08:44:53Z</time>
      </trkpt>
      <trkpt lat="44.06776" lon="3.02494">
        <ele>684</ele>
        <time>2012-05-13T08:44:55Z</time>
      </trkpt>
      <trkpt lat="44.06781" lon="3.02493">
        <ele>684</ele>
        <time>2012-05-13T08:44:57Z</time>
      </trkpt>
      <trkpt lat="44.06788" lon="3.0249">
        <ele>684</ele>
        <time>2012-05-13T08:44:59Z</time>
      </trkpt>
      <trkpt lat="44.06793" lon="3.02489">
        <ele>685</ele>
        <time>2012-05-13T08:45:01Z</time>
      </trkpt>
      <trkpt lat="44.06799" lon="3.02488">
        <ele>686</ele>
        <time>2012-05-13T08:45:03Z</time>
      </trkpt>
      <trkpt lat="44.06804" lon="3.02487">
        <ele>686</ele>
        <time>2012-05-13T08:45:05Z</time>
      </trkpt>
      <trkpt lat="44.06809" lon="3.02485">
        <ele>686</ele>
        <time>2012-05-13T08:45:07Z</time>
      </trkpt>
      <trkpt lat="44.06814" lon="3.02483">
        <ele>686</ele>
        <time>2012-05-13T08:45:09Z</time>
      </trkpt>
      <trkpt lat="44.06819" lon="3.02482">
        <ele>686</ele>
        <time>2012-05-13T08:45:11Z</time>
      </trkpt>
      <trkpt lat="44.06824" lon="3.0248">
        <ele>686</ele>
        <time>2012-05-13T08:45:13Z</time>
      </trkpt>
      <trkpt lat="44.06829" lon="3.02479">
        <ele>685</ele>
        <time>2012-05-13T08:45:15Z</time>
      </trkpt>
      <trkpt lat="44.06834" lon="3.02477">
        <ele>685</ele>
        <time>2012-05-13T08:45:17Z</time>
      </trkpt>
      <trkpt lat="44.06839" lon="3.02476">
        <ele>685</ele>
        <time>2012-05-13T08:45:19Z</time>
      </trkpt>
      <trkpt lat="44.06844" lon="3.02475">
        <ele>685</ele>
        <time>2012-05-13T08:45:22Z</time>
      </trkpt>
      <trkpt lat="44.06849" lon="3.02474">
        <ele>685</ele>
        <time>2012-05-13T08:45:24Z</time>
      </trkpt>
      <trkpt lat="44.06854" lon="3.02473">
        <ele>685</ele>
        <time>2012-05-13T08:45:26Z</time>
      </trkpt>
      <trkpt lat="44.06859" lon="3.02472">
        <ele>685</ele>
        <time>2012-05-13T08:45:28Z</time>
      </trkpt>
      <trkpt lat="44.06865" lon="3.02471">
        <ele>684</ele>
        <time>2012-05-13T08:45:30Z</time>
      </trkpt>
      <trkpt lat="44.0687" lon="3.0247">
        <ele>684</ele>
        <time>2012-05-13T08:45:32Z</time>
      </trkpt>
      <trkpt lat="44.06875" lon="3.02469">
        <ele>684</ele>
        <time>2012-05-13T08:45:34Z</time>
      </trkpt>
      <trkpt lat="44.06881" lon="3.02467">
        <ele>685</ele>
        <time>2012-05-13T08:45:36Z</time>
      </trkpt>
      <trkpt lat="44.06889" lon="3.02465">
        <ele>685</ele>
        <time>2012-05-13T08:45:38Z</time>
      </trkpt>
      <trkpt lat="44.06894" lon="3.02465">
        <ele>685</ele>
        <time>2012-05-13T08:45:40Z</time>
      </trkpt>
      <trkpt lat="44.06899" lon="3.02464">
        <ele>685</ele>
        <time>2012-05-13T08:45:42Z</time>
      </trkpt>
      <trkpt lat="44.06904" lon="3.02463">
        <ele>685</ele>
        <time>2012-05-13T08:45:44Z</time>
      </trkpt>
      <trkpt lat="44.0691" lon="3.02462">
        <ele>685</ele>
        <time>2012-05-13T08:45:46Z</time>
      </trkpt>
      <trkpt lat="44.06915" lon="3.02461">
        <ele>685</ele>
        <time>2012-05-13T08:45:48Z</time>
      </trkpt>
      <trkpt lat="44.0692" lon="3.0246">
        <ele>685</ele>
        <time>2012-05-13T08:45:50Z</time>
      </trkpt>
      <trkpt lat="44.06925" lon="3.02459">
        <ele>684</ele>
        <time>2012-05-13T08:45:52Z</time>
      </trkpt>
      <trkpt lat="44.0693" lon="3.02457">
        <ele>684</ele>
        <time>2012-05-13T08:45:54Z</time>
      </trkpt>
      <trkpt lat="44.06935" lon="3.02456">
        <ele>683</ele>
        <time>2012-05-13T08:45:56Z</time>
      </trkpt>
      <trkpt lat="44.0694" lon="3.02455">
        <ele>683</ele>
        <time>2012-05-13T08:45:58Z</time>
      </trkpt>
      <trkpt lat="44.06945" lon="3.02454">
        <ele>682</ele>
        <time>2012-05-13T08:46:01Z</time>
      </trkpt>
      <trkpt lat="44.0695" lon="3.02453">
        <ele>682</ele>
        <time>2012-05-13T08:46:03Z</time>
      </trkpt>
      <trkpt lat="44.06955" lon="3.02452">
        <ele>682</ele>
        <time>2012-05-13T08:46:05Z</time>
      </trkpt>
      <trkpt lat="44.06961" lon="3.02452">
        <ele>682</ele>
        <time>2012-05-13T08:46:07Z</time>
      </trkpt>
      <trkpt lat="44.06966" lon="3.0245">
        <ele>682</ele>
        <time>2012-05-13T08:46:09Z</time>
      </trkpt>
      <trkpt lat="44.06971" lon="3.02449">
        <ele>682</ele>
        <time>2012-05-13T08:46:11Z</time>
      </trkpt>
      <trkpt lat="44.06976" lon="3.02448">
        <ele>682</ele>
        <time>2012-05-13T08:46:13Z</time>
      </trkpt>
      <trkpt lat="44.06981" lon="3.02446">
        <ele>682</ele>
        <time>2012-05-13T08:46:15Z</time>
      </trkpt>
      <trkpt lat="44.06988" lon="3.02444">
        <ele>681</ele>
        <time>2012-05-13T08:46:17Z</time>
      </trkpt>
      <trkpt lat="44.06993" lon="3.02443">
        <ele>681</ele>
        <time>2012-05-13T08:46:19Z</time>
      </trkpt>
      <trkpt lat="44.06997" lon="3.02442">
        <ele>681</ele>
        <time>2012-05-13T08:46:21Z</time>
      </trkpt>
      <trkpt lat="44.07002" lon="3.0244">
        <ele>681</ele>
        <time>2012-05-13T08:46:23Z</time>
      </trkpt>
      <trkpt lat="44.07007" lon="3.02439">
        <ele>681</ele>
        <time>2012-05-13T08:46:25Z</time>
      </trkpt>
      <trkpt lat="44.07011" lon="3.02438">
        <ele>681</ele>
        <time>2012-05-13T08:46:27Z</time>
      </trkpt>
      <trkpt lat="44.07016" lon="3.02437">
        <ele>681</ele>
        <time>2012-05-13T08:46:29Z</time>
      </trkpt>
      <trkpt lat="44.07021" lon="3.02436">
        <ele>681</ele>
        <time>2012-05-13T08:46:31Z</time>
      </trkpt>
      <trkpt lat="44.07025" lon="3.02435">
        <ele>682</ele>
        <time>2012-05-13T08:46:33Z</time>
      </trkpt>
      <trkpt lat="44.0703" lon="3.02434">
        <ele>682</ele>
        <time>2012-05-13T08:46:35Z</time>
      </trkpt>
      <trkpt lat="44.07035" lon="3.02433">
        <ele>683</ele>
        <time>2012-05-13T08:46:38Z</time>
      </trkpt>
      <trkpt lat="44.0704" lon="3.02431">
        <ele>683</ele>
        <time>2012-05-13T08:46:40Z</time>
      </trkpt>
      <trkpt lat="44.07045" lon="3.0243">
        <ele>683</ele>
        <time>2012-05-13T08:46:42Z</time>
      </trkpt>
      <trkpt lat="44.07049" lon="3.02429">
        <ele>682</ele>
        <time>2012-05-13T08:46:44Z</time>
      </trkpt>
      <trkpt lat="44.07053" lon="3.02429">
        <ele>682</ele>
        <time>2012-05-13T08:46:46Z</time>
      </trkpt>
      <trkpt lat="44.07058" lon="3.02428">
        <ele>682</ele>
        <time>2012-05-13T08:46:48Z</time>
      </trkpt>
      <trkpt lat="44.07063" lon="3.02427">
        <ele>681</ele>
        <time>2012-05-13T08:46:50Z</time>
      </trkpt>
      <trkpt lat="44.07067" lon="3.02426">
        <ele>681</ele>
        <time>2012-05-13T08:46:52Z</time>
      </trkpt>
      <trkpt lat="44.07075" lon="3.02424">
        <ele>680</ele>
        <time>2012-05-13T08:46:54Z</time>
      </trkpt>
      <trkpt lat="44.0708" lon="3.02422">
        <ele>680</ele>
        <time>2012-05-13T08:46:56Z</time>
      </trkpt>
      <trkpt lat="44.07084" lon="3.02421">
        <ele>679</ele>
        <time>2012-05-13T08:46:58Z</time>
      </trkpt>
      <trkpt lat="44.07089" lon="3.02419">
        <ele>679</ele>
        <time>2012-05-13T08:47:00Z</time>
      </trkpt>
      <trkpt lat="44.07093" lon="3.02417">
        <ele>679</ele>
        <time>2012-05-13T08:47:02Z</time>
      </trkpt>
      <trkpt lat="44.07098" lon="3.02416">
        <ele>679</ele>
        <time>2012-05-13T08:47:04Z</time>
      </trkpt>
      <trkpt lat="44.07104" lon="3.02415">
        <ele>679</ele>
        <time>2012-05-13T08:47:06Z</time>
      </trkpt>
      <trkpt lat="44.0711" lon="3.02414">
        <ele>680</ele>
        <time>2012-05-13T08:47:08Z</time>
      </trkpt>
      <trkpt lat="44.07116" lon="3.02413">
        <ele>680</ele>
        <time>2012-05-13T08:47:10Z</time>
      </trkpt>
      <trkpt lat="44.07122" lon="3.02412">
        <ele>680</ele>
        <time>2012-05-13T08:47:12Z</time>
      </trkpt>
      <trkpt lat="44.07127" lon="3.02411">
        <ele>680</ele>
        <time>2012-05-13T08:47:14Z</time>
      </trkpt>
      <trkpt lat="44.07132" lon="3.0241">
        <ele>680</ele>
        <time>2012-05-13T08:47:17Z</time>
      </trkpt>
      <trkpt lat="44.07138" lon="3.02409">
        <ele>680</ele>
        <time>2012-05-13T08:47:19Z</time>
      </trkpt>
      <trkpt lat="44.07143" lon="3.02408">
        <ele>680</ele>
        <time>2012-05-13T08:47:21Z</time>
      </trkpt>
      <trkpt lat="44.07148" lon="3.02407">
        <ele>679</ele>
        <time>2012-05-13T08:47:23Z</time>
      </trkpt>
      <trkpt lat="44.07153" lon="3.02406">
        <ele>679</ele>
        <time>2012-05-13T08:47:25Z</time>
      </trkpt>
      <trkpt lat="44.07158" lon="3.02405">
        <ele>678</ele>
        <time>2012-05-13T08:47:27Z</time>
      </trkpt>
      <trkpt lat="44.07164" lon="3.02404">
        <ele>677</ele>
        <time>2012-05-13T08:47:29Z</time>
      </trkpt>
      <trkpt lat="44.07172" lon="3.02403">
        <ele>676</ele>
        <time>2012-05-13T08:47:31Z</time>
      </trkpt>
      <trkpt lat="44.07177" lon="3.02403">
        <ele>675</ele>
        <time>2012-05-13T08:47:33Z</time>
      </trkpt>
      <trkpt lat="44.07182" lon="3.02402">
        <ele>675</ele>
        <time>2012-05-13T08:47:35Z</time>
      </trkpt>
      <trkpt lat="44.07187" lon="3.02401">
        <ele>675</ele>
        <time>2012-05-13T08:47:37Z</time>
      </trkpt>
      <trkpt lat="44.07193" lon="3.024">
        <ele>675</ele>
        <time>2012-05-13T08:47:39Z</time>
      </trkpt>
      <trkpt lat="44.07198" lon="3.02399">
        <ele>675</ele>
        <time>2012-05-13T08:47:41Z</time>
      </trkpt>
      <trkpt lat="44.07203" lon="3.02398">
        <ele>675</ele>
        <time>2012-05-13T08:47:43Z</time>
      </trkpt>
      <trkpt lat="44.07208" lon="3.02397">
        <ele>675</ele>
        <time>2012-05-13T08:47:45Z</time>
      </trkpt>
      <trkpt lat="44.07213" lon="3.02396">
        <ele>675</ele>
        <time>2012-05-13T08:47:47Z</time>
      </trkpt>
      <trkpt lat="44.07218" lon="3.02396">
        <ele>675</ele>
        <time>2012-05-13T08:47:49Z</time>
      </trkpt>
      <trkpt lat="44.07223" lon="3.02395">
        <ele>675</ele>
        <time>2012-05-13T08:47:51Z</time>
      </trkpt>
      <trkpt lat="44.07228" lon="3.02394">
        <ele>675</ele>
        <time>2012-05-13T08:47:53Z</time>
      </trkpt>
      <trkpt lat="44.07233" lon="3.02393">
        <ele>675</ele>
        <time>2012-05-13T08:47:56Z</time>
      </trkpt>
      <trkpt lat="44.07238" lon="3.02391">
        <ele>675</ele>
        <time>2012-05-13T08:47:58Z</time>
      </trkpt>
      <trkpt lat="44.07243" lon="3.0239">
        <ele>675</ele>
        <time>2012-05-13T08:48:00Z</time>
      </trkpt>
      <trkpt lat="44.07248" lon="3.02389">
        <ele>674</ele>
        <time>2012-05-13T08:48:02Z</time>
      </trkpt>
      <trkpt lat="44.07252" lon="3.02387">
        <ele>674</ele>
        <time>2012-05-13T08:48:04Z</time>
      </trkpt>
      <trkpt lat="44.07256" lon="3.02385">
        <ele>674</ele>
        <time>2012-05-13T08:48:06Z</time>
      </trkpt>
      <trkpt lat="44.07264" lon="3.02383">
        <ele>673</ele>
        <time>2012-05-13T08:48:08Z</time>
      </trkpt>
      <trkpt lat="44.07269" lon="3.02382">
        <ele>673</ele>
        <time>2012-05-13T08:48:10Z</time>
      </trkpt>
      <trkpt lat="44.07273" lon="3.02381">
        <ele>673</ele>
        <time>2012-05-13T08:48:12Z</time>
      </trkpt>
      <trkpt lat="44.07279" lon="3.0238">
        <ele>672</ele>
        <time>2012-05-13T08:48:14Z</time>
      </trkpt>
      <trkpt lat="44.07284" lon="3.02378">
        <ele>672</ele>
        <time>2012-05-13T08:48:16Z</time>
      </trkpt>
      <trkpt lat="44.07289" lon="3.02377">
        <ele>672</ele>
        <time>2012-05-13T08:48:18Z</time>
      </trkpt>
      <trkpt lat="44.07294" lon="3.02375">
        <ele>672</ele>
        <time>2012-05-13T08:48:20Z</time>
      </trkpt>
      <trkpt lat="44.07299" lon="3.02374">
        <ele>672</ele>
        <time>2012-05-13T08:48:22Z</time>
      </trkpt>
      <trkpt lat="44.07304" lon="3.02373">
        <ele>672</ele>
        <time>2012-05-13T08:48:24Z</time>
      </trkpt>
      <trkpt lat="44.07309" lon="3.02371">
        <ele>672</ele>
        <time>2012-05-13T08:48:26Z</time>
      </trkpt>
      <trkpt lat="44.07314" lon="3.0237">
        <ele>672</ele>
        <time>2012-05-13T08:48:28Z</time>
      </trkpt>
      <trkpt lat="44.07319" lon="3.02369">
        <ele>672</ele>
        <time>2012-05-13T08:48:31Z</time>
      </trkpt>
      <trkpt lat="44.07324" lon="3.02368">
        <ele>672</ele>
        <time>2012-05-13T08:48:33Z</time>
      </trkpt>
      <trkpt lat="44.0733" lon="3.02366">
        <ele>671</ele>
        <time>2012-05-13T08:48:35Z</time>
      </trkpt>
      <trkpt lat="44.07334" lon="3.02365">
        <ele>671</ele>
        <time>2012-05-13T08:48:37Z</time>
      </trkpt>
      <trkpt lat="44.07339" lon="3.02364">
        <ele>671</ele>
        <time>2012-05-13T08:48:39Z</time>
      </trkpt>
      <trkpt lat="44.07344" lon="3.02364">
        <ele>670</ele>
        <time>2012-05-13T08:48:41Z</time>
      </trkpt>
      <trkpt lat="44.07349" lon="3.02363">
        <ele>670</ele>
        <time>2012-05-13T08:48:43Z</time>
      </trkpt>
      <trkpt lat="44.07356" lon="3.02362">
        <ele>669</ele>
        <time>2012-05-13T08:48:45Z</time>
      </trkpt>
      <trkpt lat="44.07361" lon="3.02361">
        <ele>668</ele>
        <time>2012-05-13T08:48:47Z</time>
      </trkpt>
      <trkpt lat="44.07367" lon="3.02359">
        <ele>667</ele>
        <time>2012-05-13T08:48:49Z</time>
      </trkpt>
      <trkpt lat="44.07372" lon="3.02358">
        <ele>667</ele>
        <time>2012-05-13T08:48:51Z</time>
      </trkpt>
      <trkpt lat="44.07377" lon="3.02358">
        <ele>667</ele>
        <time>2012-05-13T08:48:53Z</time>
      </trkpt>
      <trkpt lat="44.07382" lon="3.02357">
        <ele>666</ele>
        <time>2012-05-13T08:48:55Z</time>
      </trkpt>
      <trkpt lat="44.07387" lon="3.02356">
        <ele>666</ele>
        <time>2012-05-13T08:48:57Z</time>
      </trkpt>
      <trkpt lat="44.07391" lon="3.02355">
        <ele>665</ele>
        <time>2012-05-13T08:48:59Z</time>
      </trkpt>
      <trkpt lat="44.07395" lon="3.02354">
        <ele>664</ele>
        <time>2012-05-13T08:49:01Z</time>
      </trkpt>
      <trkpt lat="44.074" lon="3.02352">
        <ele>664</ele>
        <time>2012-05-13T08:49:03Z</time>
      </trkpt>
      <trkpt lat="44.07405" lon="3.02352">
        <ele>664</ele>
        <time>2012-05-13T08:49:05Z</time>
      </trkpt>
      <trkpt lat="44.0741" lon="3.02351">
        <ele>664</ele>
        <time>2012-05-13T08:49:08Z</time>
      </trkpt>
      <trkpt lat="44.07415" lon="3.02351">
        <ele>664</ele>
        <time>2012-05-13T08:49:10Z</time>
      </trkpt>
      <trkpt lat="44.07421" lon="3.0235">
        <ele>664</ele>
        <time>2012-05-13T08:49:12Z</time>
      </trkpt>
      <trkpt lat="44.07426" lon="3.02348">
        <ele>664</ele>
        <time>2012-05-13T08:49:14Z</time>
      </trkpt>
      <trkpt lat="44.07431" lon="3.02347">
        <ele>664</ele>
        <time>2012-05-13T08:49:16Z</time>
      </trkpt>
      <trkpt lat="44.07437" lon="3.02345">
        <ele>664</ele>
        <time>2012-05-13T08:49:18Z</time>
      </trkpt>
      <trkpt lat="44.07442" lon="3.02344">
        <ele>663</ele>
        <time>2012-05-13T08:49:20Z</time>
      </trkpt>
      <trkpt lat="44.07451" lon="3.02343">
        <ele>663</ele>
        <time>2012-05-13T08:49:22Z</time>
      </trkpt>
      <trkpt lat="44.07457" lon="3.02341">
        <ele>663</ele>
        <time>2012-05-13T08:49:24Z</time>
      </trkpt>
      <trkpt lat="44.07462" lon="3.0234">
        <ele>662</ele>
        <time>2012-05-13T08:49:26Z</time>
      </trkpt>
      <trkpt lat="44.07468" lon="3.02339">
        <ele>662</ele>
        <time>2012-05-13T08:49:28Z</time>
      </trkpt>
      <trkpt lat="44.07473" lon="3.02339">
        <ele>661</ele>
        <time>2012-05-13T08:49:30Z</time>
      </trkpt>
      <trkpt lat="44.07478" lon="3.02338">
        <ele>661</ele>
        <time>2012-05-13T08:49:32Z</time>
      </trkpt>
      <trkpt lat="44.07483" lon="3.02337">
        <ele>661</ele>
        <time>2012-05-13T08:49:34Z</time>
      </trkpt>
      <trkpt lat="44.07488" lon="3.02337">
        <ele>661</ele>
        <time>2012-05-13T08:49:36Z</time>
      </trkpt>
      <trkpt lat="44.07494" lon="3.02336">
        <ele>661</ele>
        <time>2012-05-13T08:49:38Z</time>
      </trkpt>
      <trkpt lat="44.07499" lon="3.02334">
        <ele>661</ele>
        <time>2012-05-13T08:49:40Z</time>
      </trkpt>
      <trkpt lat="44.07504" lon="3.02334">
        <ele>661</ele>
        <time>2012-05-13T08:49:43Z</time>
      </trkpt>
      <trkpt lat="44.07509" lon="3.02333">
        <ele>661</ele>
        <time>2012-05-13T08:49:45Z</time>
      </trkpt>
      <trkpt lat="44.07514" lon="3.02332">
        <ele>661</ele>
        <time>2012-05-13T08:49:47Z</time>
      </trkpt>
      <trkpt lat="44.07519" lon="3.02331">
        <ele>661</ele>
        <time>2012-05-13T08:49:49Z</time>
      </trkpt>
      <trkpt lat="44.07524" lon="3.02331">
        <ele>660</ele>
        <time>2012-05-13T08:49:51Z</time>
      </trkpt>
      <trkpt lat="44.07529" lon="3.0233">
        <ele>660</ele>
        <time>2012-05-13T08:49:53Z</time>
      </trkpt>
      <trkpt lat="44.07534" lon="3.02329">
        <ele>659</ele>
        <time>2012-05-13T08:49:55Z</time>
      </trkpt>
      <trkpt lat="44.07539" lon="3.02329">
        <ele>659</ele>
        <time>2012-05-13T08:49:57Z</time>
      </trkpt>
      <trkpt lat="44.07544" lon="3.02327">
        <ele>659</ele>
        <time>2012-05-13T08:49:59Z</time>
      </trkpt>
      <trkpt lat="44.07552" lon="3.02327">
        <ele>659</ele>
        <time>2012-05-13T08:50:01Z</time>
      </trkpt>
      <trkpt lat="44.07557" lon="3.02326">
        <ele>659</ele>
        <time>2012-05-13T08:50:03Z</time>
      </trkpt>
      <trkpt lat="44.07562" lon="3.02326">
        <ele>658</ele>
        <time>2012-05-13T08:50:05Z</time>
      </trkpt>
      <trkpt lat="44.07567" lon="3.02324">
        <ele>658</ele>
        <time>2012-05-13T08:50:07Z</time>
      </trkpt>
      <trkpt lat="44.07572" lon="3.02323">
        <ele>657</ele>
        <time>2012-05-13T08:50:09Z</time>
      </trkpt>
      <trkpt lat="44.07577" lon="3.02322">
        <ele>657</ele>
        <time>2012-05-13T08:50:11Z</time>
      </trkpt>
      <trkpt lat="44.07582" lon="3.02321">
        <ele>657</ele>
        <time>2012-05-13T08:50:13Z</time>
      </trkpt>
      <trkpt lat="44.07588" lon="3.0232">
        <ele>657</ele>
        <time>2012-05-13T08:50:15Z</time>
      </trkpt>
      <trkpt lat="44.07593" lon="3.02319">
        <ele>657</ele>
        <time>2012-05-13T08:50:17Z</time>
      </trkpt>
      <trkpt lat="44.07598" lon="3.02318">
        <ele>657</ele>
        <time>2012-05-13T08:50:19Z</time>
      </trkpt>
      <trkpt lat="44.07603" lon="3.02317">
        <ele>657</ele>
        <time>2012-05-13T08:50:21Z</time>
      </trkpt>
      <trkpt lat="44.07608" lon="3.02316">
        <ele>657</ele>
        <time>2012-05-13T08:50:23Z</time>
      </trkpt>
      <trkpt lat="44.07613" lon="3.02315">
        <ele>657</ele>
        <time>2012-05-13T08:50:25Z</time>
      </trkpt>
      <trkpt lat="44.07618" lon="3.02313">
        <ele>657</ele>
        <time>2012-05-13T08:50:27Z</time>
      </trkpt>
      <trkpt lat="44.07623" lon="3.02313">
        <ele>657</ele>
        <time>2012-05-13T08:50:29Z</time>
      </trkpt>
      <trkpt lat="44.07629" lon="3.02312">
        <ele>658</ele>
        <time>2012-05-13T08:50:31Z</time>
      </trkpt>
      <trkpt lat="44.07634" lon="3.02311">
        <ele>658</ele>
        <time>2012-05-13T08:50:33Z</time>
      </trkpt>
      <trkpt lat="44.07639" lon="3.0231">
        <ele>659</ele>
        <time>2012-05-13T08:50:35Z</time>
      </trkpt>
      <trkpt lat="44.07643" lon="3.02309">
        <ele>658</ele>
        <time>2012-05-13T08:50:37Z</time>
      </trkpt>
      <trkpt lat="44.07648" lon="3.02308">
        <ele>658</ele>
        <time>2012-05-13T08:50:39Z</time>
      </trkpt>
      <trkpt lat="44.07654" lon="3.02307">
        <ele>658</ele>
        <time>2012-05-13T08:50:41Z</time>
      </trkpt>
      <trkpt lat="44.07658" lon="3.02306">
        <ele>658</ele>
        <time>2012-05-13T08:50:43Z</time>
      </trkpt>
      <trkpt lat="44.07663" lon="3.02306">
        <ele>657</ele>
        <time>2012-05-13T08:50:45Z</time>
      </trkpt>
      <trkpt lat="44.07668" lon="3.02305">
        <ele>657</ele>
        <time>2012-05-13T08:50:47Z</time>
      </trkpt>
      <trkpt lat="44.07673" lon="3.02304">
        <ele>656</ele>
        <time>2012-05-13T08:50:49Z</time>
      </trkpt>
      <trkpt lat="44.07678" lon="3.02303">
        <ele>656</ele>
        <time>2012-05-13T08:50:51Z</time>
      </trkpt>
      <trkpt lat="44.07683" lon="3.02303">
        <ele>656</ele>
        <time>2012-05-13T08:50:54Z</time>
      </trkpt>
      <trkpt lat="44.07689" lon="3.02302">
        <ele>655</ele>
        <time>2012-05-13T08:50:56Z</time>
      </trkpt>
      <trkpt lat="44.07693" lon="3.02301">
        <ele>655</ele>
        <time>2012-05-13T08:50:58Z</time>
      </trkpt>
      <trkpt lat="44.07698" lon="3.023">
        <ele>654</ele>
        <time>2012-05-13T08:51:00Z</time>
      </trkpt>
      <trkpt lat="44.07703" lon="3.02299">
        <ele>654</ele>
        <time>2012-05-13T08:51:02Z</time>
      </trkpt>
      <trkpt lat="44.07707" lon="3.02298">
        <ele>654</ele>
        <time>2012-05-13T08:51:04Z</time>
      </trkpt>
      <trkpt lat="44.07712" lon="3.02297">
        <ele>654</ele>
        <time>2012-05-13T08:51:06Z</time>
      </trkpt>
      <trkpt lat="44.07717" lon="3.02295">
        <ele>654</ele>
        <time>2012-05-13T08:51:08Z</time>
      </trkpt>
      <trkpt lat="44.07722" lon="3.02294">
        <ele>654</ele>
        <time>2012-05-13T08:51:10Z</time>
      </trkpt>
      <trkpt lat="44.07728" lon="3.02293">
        <ele>655</ele>
        <time>2012-05-13T08:51:12Z</time>
      </trkpt>
      <trkpt lat="44.07732" lon="3.02292">
        <ele>655</ele>
        <time>2012-05-13T08:51:14Z</time>
      </trkpt>
      <trkpt lat="44.07737" lon="3.02291">
        <ele>654</ele>
        <time>2012-05-13T08:51:16Z</time>
      </trkpt>
      <trkpt lat="44.07742" lon="3.0229">
        <ele>654</ele>
        <time>2012-05-13T08:51:18Z</time>
      </trkpt>
      <trkpt lat="44.07747" lon="3.02289">
        <ele>654</ele>
        <time>2012-05-13T08:51:20Z</time>
      </trkpt>
      <trkpt lat="44.07752" lon="3.02288">
        <ele>653</ele>
        <time>2012-05-13T08:51:22Z</time>
      </trkpt>
      <trkpt lat="44.07757" lon="3.02287">
        <ele>653</ele>
        <time>2012-05-13T08:51:24Z</time>
      </trkpt>
      <trkpt lat="44.07763" lon="3.02286">
        <ele>653</ele>
        <time>2012-05-13T08:51:26Z</time>
      </trkpt>
      <trkpt lat="44.07768" lon="3.02285">
        <ele>653</ele>
        <time>2012-05-13T08:51:28Z</time>
      </trkpt>
      <trkpt lat="44.07773" lon="3.02284">
        <ele>652</ele>
        <time>2012-05-13T08:51:30Z</time>
      </trkpt>
      <trkpt lat="44.07779" lon="3.02284">
        <ele>652</ele>
        <time>2012-05-13T08:51:32Z</time>
      </trkpt>
      <trkpt lat="44.07787" lon="3.02282">
        <ele>652</ele>
        <time>2012-05-13T08:51:34Z</time>
      </trkpt>
      <trkpt lat="44.07792" lon="3.02281">
        <ele>652</ele>
        <time>2012-05-13T08:51:36Z</time>
      </trkpt>
      <trkpt lat="44.07798" lon="3.02281">
        <ele>652</ele>
        <time>2012-05-13T08:51:38Z</time>
      </trkpt>
      <trkpt lat="44.07803" lon="3.02279">
        <ele>652</ele>
        <time>2012-05-13T08:51:40Z</time>
      </trkpt>
      <trkpt lat="44.07808" lon="3.02279">
        <ele>652</ele>
        <time>2012-05-13T08:51:42Z</time>
      </trkpt>
      <trkpt lat="44.07814" lon="3.02278">
        <ele>652</ele>
        <time>2012-05-13T08:51:44Z</time>
      </trkpt>
      <trkpt lat="44.07819" lon="3.02278">
        <ele>652</ele>
        <time>2012-05-13T08:51:46Z</time>
      </trkpt>
      <trkpt lat="44.07825" lon="3.02277">
        <ele>652</ele>
        <time>2012-05-13T08:51:48Z</time>
      </trkpt>
      <trkpt lat="44.0783" lon="3.02277">
        <ele>652</ele>
        <time>2012-05-13T08:51:50Z</time>
      </trkpt>
      <trkpt lat="44.07836" lon="3.02276">
        <ele>652</ele>
        <time>2012-05-13T08:51:52Z</time>
      </trkpt>
      <trkpt lat="44.07842" lon="3.02276">
        <ele>652</ele>
        <time>2012-05-13T08:51:54Z</time>
      </trkpt>
      <trkpt lat="44.07847" lon="3.02275">
        <ele>651</ele>
        <time>2012-05-13T08:51:56Z</time>
      </trkpt>
      <trkpt lat="44.07853" lon="3.02275">
        <ele>651</ele>
        <time>2012-05-13T08:51:58Z</time>
      </trkpt>
      <trkpt lat="44.07858" lon="3.02274">
        <ele>651</ele>
        <time>2012-05-13T08:52:00Z</time>
      </trkpt>
      <trkpt lat="44.07863" lon="3.02273">
        <ele>652</ele>
        <time>2012-05-13T08:52:02Z</time>
      </trkpt>
      <trkpt lat="44.07869" lon="3.02272">
        <ele>652</ele>
        <time>2012-05-13T08:52:04Z</time>
      </trkpt>
      <trkpt lat="44.07874" lon="3.02272">
        <ele>652</ele>
        <time>2012-05-13T08:52:06Z</time>
      </trkpt>
      <trkpt lat="44.07879" lon="3.02271">
        <ele>653</ele>
        <time>2012-05-13T08:52:08Z</time>
      </trkpt>
      <trkpt lat="44.07885" lon="3.0227">
        <ele>653</ele>
        <time>2012-05-13T08:52:10Z</time>
      </trkpt>
      <trkpt lat="44.0789" lon="3.02269">
        <ele>652</ele>
        <time>2012-05-13T08:52:12Z</time>
      </trkpt>
      <trkpt lat="44.07895" lon="3.02268">
        <ele>652</ele>
        <time>2012-05-13T08:52:14Z</time>
      </trkpt>
      <trkpt lat="44.079" lon="3.02267">
        <ele>652</ele>
        <time>2012-05-13T08:52:16Z</time>
      </trkpt>
      <trkpt lat="44.07906" lon="3.02265">
        <ele>651</ele>
        <time>2012-05-13T08:52:18Z</time>
      </trkpt>
      <trkpt lat="44.07911" lon="3.02264">
        <ele>651</ele>
        <time>2012-05-13T08:52:20Z</time>
      </trkpt>
      <trkpt lat="44.07915" lon="3.02263">
        <ele>650</ele>
        <time>2012-05-13T08:52:22Z</time>
      </trkpt>
      <trkpt lat="44.07921" lon="3.02263">
        <ele>649</ele>
        <time>2012-05-13T08:52:24Z</time>
      </trkpt>
      <trkpt lat="44.07926" lon="3.02262">
        <ele>649</ele>
        <time>2012-05-13T08:52:27Z</time>
      </trkpt>
      <trkpt lat="44.07931" lon="3.02261">
        <ele>649</ele>
        <time>2012-05-13T08:52:29Z</time>
      </trkpt>
      <trkpt lat="44.07936" lon="3.02261">
        <ele>648</ele>
        <time>2012-05-13T08:52:31Z</time>
      </trkpt>
      <trkpt lat="44.07941" lon="3.0226">
        <ele>648</ele>
        <time>2012-05-13T08:52:33Z</time>
      </trkpt>
      <trkpt lat="44.07946" lon="3.02259">
        <ele>648</ele>
        <time>2012-05-13T08:52:35Z</time>
      </trkpt>
      <trkpt lat="44.07952" lon="3.02259">
        <ele>648</ele>
        <time>2012-05-13T08:52:37Z</time>
      </trkpt>
      <trkpt lat="44.07956" lon="3.02258">
        <ele>648</ele>
        <time>2012-05-13T08:52:39Z</time>
      </trkpt>
      <trkpt lat="44.07961" lon="3.02257">
        <ele>647</ele>
        <time>2012-05-13T08:52:41Z</time>
      </trkpt>
      <trkpt lat="44.07966" lon="3.02256">
        <ele>647</ele>
        <time>2012-05-13T08:52:43Z</time>
      </trkpt>
      <trkpt lat="44.07971" lon="3.02255">
        <ele>646</ele>
        <time>2012-05-13T08:52:45Z</time>
      </trkpt>
      <trkpt lat="44.07976" lon="3.02254">
        <ele>646</ele>
        <time>2012-05-13T08:52:47Z</time>
      </trkpt>
      <trkpt lat="44.07981" lon="3.02253">
        <ele>646</ele>
        <time>2012-05-13T08:52:49Z</time>
      </trkpt>
      <trkpt lat="44.07985" lon="3.02253">
        <ele>645</ele>
        <time>2012-05-13T08:52:51Z</time>
      </trkpt>
      <trkpt lat="44.07989" lon="3.02253">
        <ele>645</ele>
        <time>2012-05-13T08:52:53Z</time>
      </trkpt>
      <trkpt lat="44.07994" lon="3.02253">
        <ele>643</ele>
        <time>2012-05-13T08:52:55Z</time>
      </trkpt>
      <trkpt lat="44.07999" lon="3.02252">
        <ele>642</ele>
        <time>2012-05-13T08:52:57Z</time>
      </trkpt>
      <trkpt lat="44.08006" lon="3.0225">
        <ele>642</ele>
        <time>2012-05-13T08:52:59Z</time>
      </trkpt>
      <trkpt lat="44.0801" lon="3.02249">
        <ele>642</ele>
        <time>2012-05-13T08:53:01Z</time>
      </trkpt>
      <trkpt lat="44.08015" lon="3.02248">
        <ele>642</ele>
        <time>2012-05-13T08:53:03Z</time>
      </trkpt>
      <trkpt lat="44.08021" lon="3.02247">
        <ele>642</ele>
        <time>2012-05-13T08:53:05Z</time>
      </trkpt>
      <trkpt lat="44.08026" lon="3.02246">
        <ele>641</ele>
        <time>2012-05-13T08:53:07Z</time>
      </trkpt>
      <trkpt lat="44.08031" lon="3.02245">
        <ele>641</ele>
        <time>2012-05-13T08:53:09Z</time>
      </trkpt>
      <trkpt lat="44.08037" lon="3.02243">
        <ele>641</ele>
        <time>2012-05-13T08:53:11Z</time>
      </trkpt>
      <trkpt lat="44.08043" lon="3.02243">
        <ele>640</ele>
        <time>2012-05-13T08:53:13Z</time>
      </trkpt>
      <trkpt lat="44.08049" lon="3.02242">
        <ele>640</ele>
        <time>2012-05-13T08:53:15Z</time>
      </trkpt>
      <trkpt lat="44.08054" lon="3.02241">
        <ele>640</ele>
        <time>2012-05-13T08:53:17Z</time>
      </trkpt>
      <trkpt lat="44.08059" lon="3.02239">
        <ele>640</ele>
        <time>2012-05-13T08:53:19Z</time>
      </trkpt>
      <trkpt lat="44.08065" lon="3.02239">
        <ele>640</ele>
        <time>2012-05-13T08:53:22Z</time>
      </trkpt>
      <trkpt lat="44.0807" lon="3.02238">
        <ele>640</ele>
        <time>2012-05-13T08:53:24Z</time>
      </trkpt>
      <trkpt lat="44.08076" lon="3.02237">
        <ele>640</ele>
        <time>2012-05-13T08:53:26Z</time>
      </trkpt>
      <trkpt lat="44.08081" lon="3.02236">
        <ele>640</ele>
        <time>2012-05-13T08:53:28Z</time>
      </trkpt>
      <trkpt lat="44.08087" lon="3.02235">
        <ele>640</ele>
        <time>2012-05-13T08:53:30Z</time>
      </trkpt>
      <trkpt lat="44.08092" lon="3.02235">
        <ele>640</ele>
        <time>2012-05-13T08:53:32Z</time>
      </trkpt>
      <trkpt lat="44.08097" lon="3.02234">
        <ele>640</ele>
        <time>2012-05-13T08:53:34Z</time>
      </trkpt>
      <trkpt lat="44.08103" lon="3.02233">
        <ele>640</ele>
        <time>2012-05-13T08:53:36Z</time>
      </trkpt>
      <trkpt lat="44.0811" lon="3.02232">
        <ele>639</ele>
        <time>2012-05-13T08:53:38Z</time>
      </trkpt>
      <trkpt lat="44.08116" lon="3.02231">
        <ele>639</ele>
        <time>2012-05-13T08:53:40Z</time>
      </trkpt>
      <trkpt lat="44.08121" lon="3.0223">
        <ele>639</ele>
        <time>2012-05-13T08:53:42Z</time>
      </trkpt>
      <trkpt lat="44.08127" lon="3.02229">
        <ele>639</ele>
        <time>2012-05-13T08:53:44Z</time>
      </trkpt>
      <trkpt lat="44.08132" lon="3.02228">
        <ele>639</ele>
        <time>2012-05-13T08:53:46Z</time>
      </trkpt>
      <trkpt lat="44.08137" lon="3.02228">
        <ele>639</ele>
        <time>2012-05-13T08:53:48Z</time>
      </trkpt>
      <trkpt lat="44.08143" lon="3.02227">
        <ele>638</ele>
        <time>2012-05-13T08:53:50Z</time>
      </trkpt>
      <trkpt lat="44.08148" lon="3.02226">
        <ele>638</ele>
        <time>2012-05-13T08:53:52Z</time>
      </trkpt>
      <trkpt lat="44.08154" lon="3.02226">
        <ele>638</ele>
        <time>2012-05-13T08:53:54Z</time>
      </trkpt>
      <trkpt lat="44.08159" lon="3.02225">
        <ele>638</ele>
        <time>2012-05-13T08:53:56Z</time>
      </trkpt>
      <trkpt lat="44.08164" lon="3.02224">
        <ele>638</ele>
        <time>2012-05-13T08:53:58Z</time>
      </trkpt>
      <trkpt lat="44.08169" lon="3.02224">
        <ele>638</ele>
        <time>2012-05-13T08:54:01Z</time>
      </trkpt>
      <trkpt lat="44.08174" lon="3.02223">
        <ele>638</ele>
        <time>2012-05-13T08:54:03Z</time>
      </trkpt>
      <trkpt lat="44.08179" lon="3.02223">
        <ele>639</ele>
        <time>2012-05-13T08:54:05Z</time>
      </trkpt>
      <trkpt lat="44.08184" lon="3.02222">
        <ele>639</ele>
        <time>2012-05-13T08:54:07Z</time>
      </trkpt>
      <trkpt lat="44.08189" lon="3.02222">
        <ele>639</ele>
        <time>2012-05-13T08:54:09Z</time>
      </trkpt>
      <trkpt lat="44.08195" lon="3.02221">
        <ele>638</ele>
        <time>2012-05-13T08:54:11Z</time>
      </trkpt>
      <trkpt lat="44.082" lon="3.02221">
        <ele>638</ele>
        <time>2012-05-13T08:54:13Z</time>
      </trkpt>
      <trkpt lat="44.08206" lon="3.0222">
        <ele>638</ele>
        <time>2012-05-13T08:54:15Z</time>
      </trkpt>
      <trkpt lat="44.08214" lon="3.02219">
        <ele>638</ele>
        <time>2012-05-13T08:54:17Z</time>
      </trkpt>
      <trkpt lat="44.08219" lon="3.02218">
        <ele>638</ele>
        <time>2012-05-13T08:54:19Z</time>
      </trkpt>
      <trkpt lat="44.08224" lon="3.02218">
        <ele>638</ele>
        <time>2012-05-13T08:54:21Z</time>
      </trkpt>
      <trkpt lat="44.0823" lon="3.02217">
        <ele>637</ele>
        <time>2012-05-13T08:54:23Z</time>
      </trkpt>
      <trkpt lat="44.08235" lon="3.02216">
        <ele>637</ele>
        <time>2012-05-13T08:54:25Z</time>
      </trkpt>
      <trkpt lat="44.0824" lon="3.02216">
        <ele>637</ele>
        <time>2012-05-13T08:54:27Z</time>
      </trkpt>
      <trkpt lat="44.08245" lon="3.02215">
        <ele>637</ele>
        <time>2012-05-13T08:54:29Z</time>
      </trkpt>
      <trkpt lat="44.0825" lon="3.02215">
        <ele>636</ele>
        <time>2012-05-13T08:54:31Z</time>
      </trkpt>
      <trkpt lat="44.08255" lon="3.02214">
        <ele>636</ele>
        <time>2012-05-13T08:54:33Z</time>
      </trkpt>
      <trkpt lat="44.08261" lon="3.02214">
        <ele>636</ele>
        <time>2012-05-13T08:54:35Z</time>
      </trkpt>
      <trkpt lat="44.08266" lon="3.02213">
        <ele>636</ele>
        <time>2012-05-13T08:54:37Z</time>
      </trkpt>
      <trkpt lat="44.08271" lon="3.02213">
        <ele>636</ele>
        <time>2012-05-13T08:54:40Z</time>
      </trkpt>
      <trkpt lat="44.08277" lon="3.02212">
        <ele>636</ele>
        <time>2012-05-13T08:54:42Z</time>
      </trkpt>
      <trkpt lat="44.08282" lon="3.02211">
        <ele>636</ele>
        <time>2012-05-13T08:54:44Z</time>
      </trkpt>
      <trkpt lat="44.08287" lon="3.02211">
        <ele>637</ele>
        <time>2012-05-13T08:54:46Z</time>
      </trkpt>
      <trkpt lat="44.08291" lon="3.02209">
        <ele>636</ele>
        <time>2012-05-13T08:54:48Z</time>
      </trkpt>
      <trkpt lat="44.08296" lon="3.02209">
        <ele>636</ele>
        <time>2012-05-13T08:54:50Z</time>
      </trkpt>
      <trkpt lat="44.08301" lon="3.02208">
        <ele>635</ele>
        <time>2012-05-13T08:54:52Z</time>
      </trkpt>
      <trkpt lat="44.08309" lon="3.02206">
        <ele>635</ele>
        <time>2012-05-13T08:54:54Z</time>
      </trkpt>
      <trkpt lat="44.08315" lon="3.02206">
        <ele>635</ele>
        <time>2012-05-13T08:54:56Z</time>
      </trkpt>
      <trkpt lat="44.08319" lon="3.02204">
        <ele>635</ele>
        <time>2012-05-13T08:54:58Z</time>
      </trkpt>
      <trkpt lat="44.08324" lon="3.02203">
        <ele>636</ele>
        <time>2012-05-13T08:55:00Z</time>
      </trkpt>
      <trkpt lat="44.0833" lon="3.02203">
        <ele>636</ele>
        <time>2012-05-13T08:55:02Z</time>
      </trkpt>
      <trkpt lat="44.08335" lon="3.02202">
        <ele>635</ele>
        <time>2012-05-13T08:55:04Z</time>
      </trkpt>
      <trkpt lat="44.0834" lon="3.02201">
        <ele>635</ele>
        <time>2012-05-13T08:55:06Z</time>
      </trkpt>
      <trkpt lat="44.08345" lon="3.022">
        <ele>634</ele>
        <time>2012-05-13T08:55:08Z</time>
      </trkpt>
      <trkpt lat="44.0835" lon="3.02199">
        <ele>634</ele>
        <time>2012-05-13T08:55:10Z</time>
      </trkpt>
      <trkpt lat="44.08355" lon="3.02199">
        <ele>633</ele>
        <time>2012-05-13T08:55:12Z</time>
      </trkpt>
      <trkpt lat="44.0836" lon="3.02199">
        <ele>632</ele>
        <time>2012-05-13T08:55:14Z</time>
      </trkpt>
      <trkpt lat="44.08365" lon="3.02198">
        <ele>632</ele>
        <time>2012-05-13T08:55:17Z</time>
      </trkpt>
      <trkpt lat="44.0837" lon="3.02197">
        <ele>631</ele>
        <time>2012-05-13T08:55:19Z</time>
      </trkpt>
      <trkpt lat="44.08375" lon="3.02197">
        <ele>630</ele>
        <time>2012-05-13T08:55:21Z</time>
      </trkpt>
      <trkpt lat="44.0838" lon="3.02196">
        <ele>629</ele>
        <time>2012-05-13T08:55:23Z</time>
      </trkpt>
      <trkpt lat="44.08385" lon="3.02196">
        <ele>628</ele>
        <time>2012-05-13T08:55:25Z</time>
      </trkpt>
      <trkpt lat="44.0839" lon="3.02195">
        <ele>628</ele>
        <time>2012-05-13T08:55:27Z</time>
      </trkpt>
      <trkpt lat="44.08395" lon="3.02194">
        <ele>627</ele>
        <time>2012-05-13T08:55:29Z</time>
      </trkpt>
      <trkpt lat="44.08404" lon="3.02192">
        <ele>627</ele>
        <time>2012-05-13T08:55:31Z</time>
      </trkpt>
      <trkpt lat="44.08409" lon="3.02191">
        <ele>627</ele>
        <time>2012-05-13T08:55:33Z</time>
      </trkpt>
      <trkpt lat="44.08414" lon="3.0219">
        <ele>627</ele>
        <time>2012-05-13T08:55:35Z</time>
      </trkpt>
      <trkpt lat="44.0842" lon="3.0219">
        <ele>627</ele>
        <time>2012-05-13T08:55:37Z</time>
      </trkpt>
      <trkpt lat="44.08426" lon="3.02189">
        <ele>626</ele>
        <time>2012-05-13T08:55:39Z</time>
      </trkpt>
      <trkpt lat="44.08431" lon="3.02189">
        <ele>626</ele>
        <time>2012-05-13T08:55:41Z</time>
      </trkpt>
      <trkpt lat="44.08436" lon="3.02188">
        <ele>625</ele>
        <time>2012-05-13T08:55:43Z</time>
      </trkpt>
      <trkpt lat="44.08441" lon="3.02188">
        <ele>625</ele>
        <time>2012-05-13T08:55:45Z</time>
      </trkpt>
      <trkpt lat="44.08446" lon="3.02187">
        <ele>625</ele>
        <time>2012-05-13T08:55:47Z</time>
      </trkpt>
      <trkpt lat="44.08451" lon="3.02186">
        <ele>624</ele>
        <time>2012-05-13T08:55:49Z</time>
      </trkpt>
      <trkpt lat="44.08456" lon="3.02186">
        <ele>624</ele>
        <time>2012-05-13T08:55:51Z</time>
      </trkpt>
      <trkpt lat="44.08461" lon="3.02185">
        <ele>624</ele>
        <time>2012-05-13T08:55:54Z</time>
      </trkpt>
      <trkpt lat="44.08466" lon="3.02185">
        <ele>624</ele>
        <time>2012-05-13T08:55:56Z</time>
      </trkpt>
      <trkpt lat="44.08472" lon="3.02184">
        <ele>624</ele>
        <time>2012-05-13T08:55:58Z</time>
      </trkpt>
      <trkpt lat="44.08477" lon="3.02184">
        <ele>624</ele>
        <time>2012-05-13T08:56:00Z</time>
      </trkpt>
      <trkpt lat="44.08482" lon="3.02184">
        <ele>624</ele>
        <time>2012-05-13T08:56:02Z</time>
      </trkpt>
      <trkpt lat="44.08486" lon="3.02183">
        <ele>624</ele>
        <time>2012-05-13T08:56:04Z</time>
      </trkpt>
      <trkpt lat="44.08491" lon="3.02182">
        <ele>624</ele>
        <time>2012-05-13T08:56:06Z</time>
      </trkpt>
      <trkpt lat="44.08498" lon="3.02181">
        <ele>623</ele>
        <time>2012-05-13T08:56:08Z</time>
      </trkpt>
      <trkpt lat="44.08503" lon="3.0218">
        <ele>623</ele>
        <time>2012-05-13T08:56:10Z</time>
      </trkpt>
      <trkpt lat="44.08509" lon="3.02179">
        <ele>622</ele>
        <time>2012-05-13T08:56:12Z</time>
      </trkpt>
      <trkpt lat="44.08514" lon="3.02178">
        <ele>622</ele>
        <time>2012-05-13T08:56:14Z</time>
      </trkpt>
      <trkpt lat="44.08519" lon="3.02178">
        <ele>622</ele>
        <time>2012-05-13T08:56:16Z</time>
      </trkpt>
      <trkpt lat="44.08524" lon="3.02178">
        <ele>622</ele>
        <time>2012-05-13T08:56:18Z</time>
      </trkpt>
      <trkpt lat="44.0853" lon="3.02178">
        <ele>622</ele>
        <time>2012-05-13T08:56:20Z</time>
      </trkpt>
      <trkpt lat="44.08535" lon="3.02177">
        <ele>621</ele>
        <time>2012-05-13T08:56:22Z</time>
      </trkpt>
      <trkpt lat="44.0854" lon="3.02176">
        <ele>621</ele>
        <time>2012-05-13T08:56:24Z</time>
      </trkpt>
      <trkpt lat="44.08546" lon="3.02176">
        <ele>621</ele>
        <time>2012-05-13T08:56:26Z</time>
      </trkpt>
      <trkpt lat="44.08551" lon="3.02176">
        <ele>620</ele>
        <time>2012-05-13T08:56:28Z</time>
      </trkpt>
      <trkpt lat="44.08556" lon="3.02175">
        <ele>620</ele>
        <time>2012-05-13T08:56:31Z</time>
      </trkpt>
      <trkpt lat="44.08561" lon="3.02175">
        <ele>619</ele>
        <time>2012-05-13T08:56:33Z</time>
      </trkpt>
      <trkpt lat="44.08566" lon="3.02175">
        <ele>619</ele>
        <time>2012-05-13T08:56:35Z</time>
      </trkpt>
      <trkpt lat="44.08571" lon="3.02174">
        <ele>619</ele>
        <time>2012-05-13T08:56:37Z</time>
      </trkpt>
      <trkpt lat="44.08576" lon="3.02174">
        <ele>619</ele>
        <time>2012-05-13T08:56:39Z</time>
      </trkpt>
      <trkpt lat="44.08581" lon="3.02173">
        <ele>619</ele>
        <time>2012-05-13T08:56:41Z</time>
      </trkpt>
      <trkpt lat="44.08586" lon="3.02173">
        <ele>619</ele>
        <time>2012-05-13T08:56:43Z</time>
      </trkpt>
      <trkpt lat="44.08591" lon="3.02172">
        <ele>619</ele>
        <time>2012-05-13T08:56:45Z</time>
      </trkpt>
      <trkpt lat="44.08599" lon="3.02172">
        <ele>619</ele>
        <time>2012-05-13T08:56:47Z</time>
      </trkpt>
      <trkpt lat="44.08604" lon="3.02171">
        <ele>619</ele>
        <time>2012-05-13T08:56:49Z</time>
      </trkpt>
      <trkpt lat="44.08608" lon="3.0217">
        <ele>618</ele>
        <time>2012-05-13T08:56:51Z</time>
      </trkpt>
      <trkpt lat="44.08614" lon="3.0217">
        <ele>618</ele>
        <time>2012-05-13T08:56:53Z</time>
      </trkpt>
      <trkpt lat="44.0862" lon="3.02168">
        <ele>618</ele>
        <time>2012-05-13T08:56:55Z</time>
      </trkpt>
      <trkpt lat="44.08625" lon="3.02168">
        <ele>619</ele>
        <time>2012-05-13T08:56:57Z</time>
      </trkpt>
      <trkpt lat="44.0863" lon="3.02168">
        <ele>619</ele>
        <time>2012-05-13T08:56:59Z</time>
      </trkpt>
      <trkpt lat="44.08635" lon="3.02167">
        <ele>619</ele>
        <time>2012-05-13T08:57:01Z</time>
      </trkpt>
      <trkpt lat="44.0864" lon="3.02167">
        <ele>619</ele>
        <time>2012-05-13T08:57:03Z</time>
      </trkpt>
      <trkpt lat="44.08646" lon="3.02167">
        <ele>620</ele>
        <time>2012-05-13T08:57:05Z</time>
      </trkpt>
      <trkpt lat="44.0865" lon="3.02166">
        <ele>621</ele>
        <time>2012-05-13T08:57:07Z</time>
      </trkpt>
      <trkpt lat="44.08655" lon="3.02165">
        <ele>622</ele>
        <time>2012-05-13T08:57:10Z</time>
      </trkpt>
      <trkpt lat="44.08661" lon="3.02164">
        <ele>622</ele>
        <time>2012-05-13T08:57:12Z</time>
      </trkpt>
      <trkpt lat="44.08666" lon="3.02164">
        <ele>623</ele>
        <time>2012-05-13T08:57:14Z</time>
      </trkpt>
      <trkpt lat="44.08671" lon="3.02163">
        <ele>623</ele>
        <time>2012-05-13T08:57:16Z</time>
      </trkpt>
      <trkpt lat="44.08676" lon="3.02163">
        <ele>624</ele>
        <time>2012-05-13T08:57:18Z</time>
      </trkpt>
      <trkpt lat="44.08681" lon="3.02162">
        <ele>624</ele>
        <time>2012-05-13T08:57:20Z</time>
      </trkpt>
      <trkpt lat="44.08686" lon="3.02162">
        <ele>625</ele>
        <time>2012-05-13T08:57:22Z</time>
      </trkpt>
      <trkpt lat="44.08691" lon="3.02161">
        <ele>625</ele>
        <time>2012-05-13T08:57:24Z</time>
      </trkpt>
      <trkpt lat="44.08697" lon="3.02161">
        <ele>625</ele>
        <time>2012-05-13T08:57:26Z</time>
      </trkpt>
      <trkpt lat="44.08705" lon="3.0216">
        <ele>624</ele>
        <time>2012-05-13T08:57:28Z</time>
      </trkpt>
      <trkpt lat="44.0871" lon="3.02159">
        <ele>624</ele>
        <time>2012-05-13T08:57:30Z</time>
      </trkpt>
      <trkpt lat="44.08715" lon="3.02159">
        <ele>623</ele>
        <time>2012-05-13T08:57:32Z</time>
      </trkpt>
      <trkpt lat="44.0872" lon="3.02158">
        <ele>623</ele>
        <time>2012-05-13T08:57:34Z</time>
      </trkpt>
      <trkpt lat="44.08725" lon="3.02157">
        <ele>623</ele>
        <time>2012-05-13T08:57:36Z</time>
      </trkpt>
      <trkpt lat="44.08731" lon="3.02156">
        <ele>623</ele>
        <time>2012-05-13T08:57:38Z</time>
      </trkpt>
      <trkpt lat="44.08736" lon="3.02155">
        <ele>622</ele>
        <time>2012-05-13T08:57:40Z</time>
      </trkpt>
      <trkpt lat="44.08741" lon="3.02155">
        <ele>622</ele>
        <time>2012-05-13T08:57:42Z</time>
      </trkpt>
      <trkpt lat="44.08747" lon="3.02155">
        <ele>622</ele>
        <time>2012-05-13T08:57:44Z</time>
      </trkpt>
      <trkpt lat="44.08752" lon="3.02154">
        <ele>623</ele>
        <time>2012-05-13T08:57:46Z</time>
      </trkpt>
      <trkpt lat="44.08757" lon="3.02154">
        <ele>622</ele>
        <time>2012-05-13T08:57:48Z</time>
      </trkpt>
      <trkpt lat="44.08762" lon="3.02154">
        <ele>622</ele>
        <time>2012-05-13T08:57:50Z</time>
      </trkpt>
      <trkpt lat="44.08767" lon="3.02153">
        <ele>622</ele>
        <time>2012-05-13T08:57:52Z</time>
      </trkpt>
      <trkpt lat="44.08773" lon="3.02153">
        <ele>621</ele>
        <time>2012-05-13T08:57:54Z</time>
      </trkpt>
      <trkpt lat="44.08778" lon="3.02153">
        <ele>621</ele>
        <time>2012-05-13T08:57:56Z</time>
      </trkpt>
      <trkpt lat="44.08783" lon="3.02154">
        <ele>620</ele>
        <time>2012-05-13T08:57:58Z</time>
      </trkpt>
      <trkpt lat="44.08788" lon="3.02153">
        <ele>620</ele>
        <time>2012-05-13T08:58:00Z</time>
      </trkpt>
      <trkpt lat="44.08792" lon="3.02152">
        <ele>620</ele>
        <time>2012-05-13T08:58:03Z</time>
      </trkpt>
      <trkpt lat="44.08798" lon="3.02151">
        <ele>620</ele>
        <time>2012-05-13T08:58:05Z</time>
      </trkpt>
      <trkpt lat="44.08802" lon="3.0215">
        <ele>620</ele>
        <time>2012-05-13T08:58:07Z</time>
      </trkpt>
      <trkpt lat="44.08807" lon="3.02149">
        <ele>619</ele>
        <time>2012-05-13T08:58:09Z</time>
      </trkpt>
      <trkpt lat="44.08811" lon="3.02148">
        <ele>619</ele>
        <time>2012-05-13T08:58:11Z</time>
      </trkpt>
      <trkpt lat="44.08816" lon="3.02147">
        <ele>618</ele>
        <time>2012-05-13T08:58:13Z</time>
      </trkpt>
      <trkpt lat="44.08821" lon="3.02146">
        <ele>617</ele>
        <time>2012-05-13T08:58:15Z</time>
      </trkpt>
      <trkpt lat="44.08826" lon="3.02146">
        <ele>617</ele>
        <time>2012-05-13T08:58:17Z</time>
      </trkpt>
      <trkpt lat="44.08831" lon="3.02146">
        <ele>617</ele>
        <time>2012-05-13T08:58:19Z</time>
      </trkpt>
      <trkpt lat="44.08837" lon="3.02146">
        <ele>616</ele>
        <time>2012-05-13T08:58:21Z</time>
      </trkpt>
      <trkpt lat="44.08842" lon="3.02145">
        <ele>616</ele>
        <time>2012-05-13T08:58:23Z</time>
      </trkpt>
      <trkpt lat="44.08848" lon="3.02145">
        <ele>616</ele>
        <time>2012-05-13T08:58:25Z</time>
      </trkpt>
      <trkpt lat="44.08853" lon="3.02145">
        <ele>617</ele>
        <time>2012-05-13T08:58:27Z</time>
      </trkpt>
      <trkpt lat="44.08858" lon="3.02144">
        <ele>617</ele>
        <time>2012-05-13T08:58:29Z</time>
      </trkpt>
      <trkpt lat="44.08863" lon="3.02144">
        <ele>617</ele>
        <time>2012-05-13T08:58:31Z</time>
      </trkpt>
      <trkpt lat="44.08868" lon="3.02143">
        <ele>617</ele>
        <time>2012-05-13T08:58:33Z</time>
      </trkpt>
      <trkpt lat="44.08873" lon="3.02142">
        <ele>617</ele>
        <time>2012-05-13T08:58:35Z</time>
      </trkpt>
      <trkpt lat="44.08879" lon="3.02141">
        <ele>617</ele>
        <time>2012-05-13T08:58:37Z</time>
      </trkpt>
      <trkpt lat="44.08884" lon="3.0214">
        <ele>617</ele>
        <time>2012-05-13T08:58:39Z</time>
      </trkpt>
      <trkpt lat="44.08889" lon="3.0214">
        <ele>617</ele>
        <time>2012-05-13T08:58:41Z</time>
      </trkpt>
      <trkpt lat="44.08896" lon="3.02139">
        <ele>616</ele>
        <time>2012-05-13T08:58:43Z</time>
      </trkpt>
      <trkpt lat="44.08901" lon="3.02139">
        <ele>616</ele>
        <time>2012-05-13T08:58:45Z</time>
      </trkpt>
      <trkpt lat="44.08905" lon="3.02138">
        <ele>616</ele>
        <time>2012-05-13T08:58:47Z</time>
      </trkpt>
      <trkpt lat="44.08911" lon="3.02138">
        <ele>616</ele>
        <time>2012-05-13T08:58:49Z</time>
      </trkpt>
      <trkpt lat="44.08916" lon="3.02137">
        <ele>615</ele>
        <time>2012-05-13T08:58:51Z</time>
      </trkpt>
      <trkpt lat="44.08921" lon="3.02137">
        <ele>615</ele>
        <time>2012-05-13T08:58:53Z</time>
      </trkpt>
      <trkpt lat="44.08926" lon="3.02137">
        <ele>615</ele>
        <time>2012-05-13T08:58:55Z</time>
      </trkpt>
      <trkpt lat="44.08931" lon="3.02136">
        <ele>614</ele>
        <time>2012-05-13T08:58:57Z</time>
      </trkpt>
      <trkpt lat="44.08936" lon="3.02135">
        <ele>614</ele>
        <time>2012-05-13T08:58:59Z</time>
      </trkpt>
      <trkpt lat="44.08942" lon="3.02135">
        <ele>614</ele>
        <time>2012-05-13T08:59:01Z</time>
      </trkpt>
      <trkpt lat="44.08947" lon="3.02134">
        <ele>614</ele>
        <time>2012-05-13T08:59:03Z</time>
      </trkpt>
      <trkpt lat="44.08952" lon="3.02134">
        <ele>613</ele>
        <time>2012-05-13T08:59:05Z</time>
      </trkpt>
      <trkpt lat="44.08956" lon="3.02133">
        <ele>613</ele>
        <time>2012-05-13T08:59:07Z</time>
      </trkpt>
      <trkpt lat="44.08961" lon="3.02133">
        <ele>612</ele>
        <time>2012-05-13T08:59:09Z</time>
      </trkpt>
      <trkpt lat="44.08966" lon="3.02133">
        <ele>612</ele>
        <time>2012-05-13T08:59:11Z</time>
      </trkpt>
      <trkpt lat="44.08971" lon="3.02133">
        <ele>612</ele>
        <time>2012-05-13T08:59:13Z</time>
      </trkpt>
      <trkpt lat="44.08976" lon="3.02133">
        <ele>612</ele>
        <time>2012-05-13T08:59:15Z</time>
      </trkpt>
      <trkpt lat="44.08982" lon="3.02132">
        <ele>612</ele>
        <time>2012-05-13T08:59:17Z</time>
      </trkpt>
      <trkpt lat="44.08987" lon="3.02132">
        <ele>612</ele>
        <time>2012-05-13T08:59:19Z</time>
      </trkpt>
      <trkpt lat="44.08992" lon="3.02131">
        <ele>612</ele>
        <time>2012-05-13T08:59:21Z</time>
      </trkpt>
      <trkpt lat="44.08998" lon="3.0213">
        <ele>612</ele>
        <time>2012-05-13T08:59:23Z</time>
      </trkpt>
      <trkpt lat="44.09004" lon="3.02129">
        <ele>612</ele>
        <time>2012-05-13T08:59:25Z</time>
      </trkpt>
      <trkpt lat="44.09009" lon="3.02129">
        <ele>612</ele>
        <time>2012-05-13T08:59:27Z</time>
      </trkpt>
      <trkpt lat="44.09015" lon="3.02128">
        <ele>612</ele>
        <time>2012-05-13T08:59:29Z</time>
      </trkpt>
      <trkpt lat="44.0902" lon="3.02127">
        <ele>612</ele>
        <time>2012-05-13T08:59:31Z</time>
      </trkpt>
      <trkpt lat="44.09025" lon="3.02126">
        <ele>612</ele>
        <time>2012-05-13T08:59:33Z</time>
      </trkpt>
      <trkpt lat="44.0903" lon="3.02125">
        <ele>612</ele>
        <time>2012-05-13T08:59:35Z</time>
      </trkpt>
      <trkpt lat="44.09036" lon="3.02125">
        <ele>611</ele>
        <time>2012-05-13T08:59:38Z</time>
      </trkpt>
      <trkpt lat="44.09042" lon="3.02125">
        <ele>611</ele>
        <time>2012-05-13T08:59:40Z</time>
      </trkpt>
      <trkpt lat="44.09047" lon="3.02126">
        <ele>610</ele>
        <time>2012-05-13T08:59:42Z</time>
      </trkpt>
      <trkpt lat="44.09052" lon="3.02126">
        <ele>610</ele>
        <time>2012-05-13T08:59:44Z</time>
      </trkpt>
      <trkpt lat="44.09058" lon="3.02126">
        <ele>610</ele>
        <time>2012-05-13T08:59:46Z</time>
      </trkpt>
      <trkpt lat="44.09064" lon="3.02125">
        <ele>610</ele>
        <time>2012-05-13T08:59:48Z</time>
      </trkpt>
      <trkpt lat="44.09069" lon="3.02125">
        <ele>610</ele>
        <time>2012-05-13T08:59:50Z</time>
      </trkpt>
      <trkpt lat="44.09074" lon="3.02125">
        <ele>610</ele>
        <time>2012-05-13T08:59:52Z</time>
      </trkpt>
      <trkpt lat="44.09079" lon="3.02124">
        <ele>609</ele>
        <time>2012-05-13T08:59:54Z</time>
      </trkpt>
      <trkpt lat="44.09084" lon="3.02123">
        <ele>609</ele>
        <time>2012-05-13T08:59:56Z</time>
      </trkpt>
      <trkpt lat="44.09089" lon="3.02123">
        <ele>609</ele>
        <time>2012-05-13T08:59:58Z</time>
      </trkpt>
      <trkpt lat="44.09095" lon="3.02122">
        <ele>609</ele>
        <time>2012-05-13T09:00:00Z</time>
      </trkpt>
      <trkpt lat="44.091" lon="3.02122">
        <ele>609</ele>
        <time>2012-05-13T09:00:02Z</time>
      </trkpt>
      <trkpt lat="44.09105" lon="3.02122">
        <ele>609</ele>
        <time>2012-05-13T09:00:04Z</time>
      </trkpt>
      <trkpt lat="44.09111" lon="3.02122">
        <ele>609</ele>
        <time>2012-05-13T09:00:06Z</time>
      </trkpt>
      <trkpt lat="44.09116" lon="3.02122">
        <ele>608</ele>
        <time>2012-05-13T09:00:08Z</time>
      </trkpt>
      <trkpt lat="44.09122" lon="3.02122">
        <ele>608</ele>
        <time>2012-05-13T09:00:10Z</time>
      </trkpt>
      <trkpt lat="44.09127" lon="3.02122">
        <ele>608</ele>
        <time>2012-05-13T09:00:12Z</time>
      </trkpt>
      <trkpt lat="44.09132" lon="3.02122">
        <ele>608</ele>
        <time>2012-05-13T09:00:14Z</time>
      </trkpt>
      <trkpt lat="44.09138" lon="3.02122">
        <ele>608</ele>
        <time>2012-05-13T09:00:16Z</time>
      </trkpt>
      <trkpt lat="44.09143" lon="3.02122">
        <ele>608</ele>
        <time>2012-05-13T09:00:18Z</time>
      </trkpt>
      <trkpt lat="44.09149" lon="3.02122">
        <ele>608</ele>
        <time>2012-05-13T09:00:20Z</time>
      </trkpt>
      <trkpt lat="44.09154" lon="3.02122">
        <ele>607</ele>
        <time>2012-05-13T09:00:22Z</time>
      </trkpt>
      <trkpt lat="44.0916" lon="3.02122">
        <ele>607</ele>
        <time>2012-05-13T09:00:24Z</time>
      </trkpt>
      <trkpt lat="44.09165" lon="3.02121">
        <ele>607</ele>
        <time>2012-05-13T09:00:26Z</time>
      </trkpt>
      <trkpt lat="44.09171" lon="3.02121">
        <ele>606</ele>
        <time>2012-05-13T09:00:28Z</time>
      </trkpt>
      <trkpt lat="44.09176" lon="3.02121">
        <ele>606</ele>
        <time>2012-05-13T09:00:30Z</time>
      </trkpt>
      <trkpt lat="44.09181" lon="3.02121">
        <ele>606</ele>
        <time>2012-05-13T09:00:32Z</time>
      </trkpt>
      <trkpt lat="44.0919" lon="3.02122">
        <ele>606</ele>
        <time>2012-05-13T09:00:34Z</time>
      </trkpt>
      <trkpt lat="44.09195" lon="3.02122">
        <ele>606</ele>
        <time>2012-05-13T09:00:36Z</time>
      </trkpt>
      <trkpt lat="44.092" lon="3.02121">
        <ele>607</ele>
        <time>2012-05-13T09:00:38Z</time>
      </trkpt>
      <trkpt lat="44.09206" lon="3.02121">
        <ele>606</ele>
        <time>2012-05-13T09:00:40Z</time>
      </trkpt>
      <trkpt lat="44.09211" lon="3.0212">
        <ele>606</ele>
        <time>2012-05-13T09:00:42Z</time>
      </trkpt>
      <trkpt lat="44.09216" lon="3.0212">
        <ele>605</ele>
        <time>2012-05-13T09:00:44Z</time>
      </trkpt>
      <trkpt lat="44.09222" lon="3.0212">
        <ele>605</ele>
        <time>2012-05-13T09:00:46Z</time>
      </trkpt>
      <trkpt lat="44.09227" lon="3.02119">
        <ele>604</ele>
        <time>2012-05-13T09:00:48Z</time>
      </trkpt>
      <trkpt lat="44.09232" lon="3.02119">
        <ele>604</ele>
        <time>2012-05-13T09:00:50Z</time>
      </trkpt>
      <trkpt lat="44.09238" lon="3.02119">
        <ele>604</ele>
        <time>2012-05-13T09:00:52Z</time>
      </trkpt>
      <trkpt lat="44.09243" lon="3.02119">
        <ele>604</ele>
        <time>2012-05-13T09:00:54Z</time>
      </trkpt>
      <trkpt lat="44.09248" lon="3.02119">
        <ele>603</ele>
        <time>2012-05-13T09:00:56Z</time>
      </trkpt>
      <trkpt lat="44.09254" lon="3.02119">
        <ele>603</ele>
        <time>2012-05-13T09:00:58Z</time>
      </trkpt>
      <trkpt lat="44.0926" lon="3.02119">
        <ele>602</ele>
        <time>2012-05-13T09:01:00Z</time>
      </trkpt>
      <trkpt lat="44.09265" lon="3.02119">
        <ele>602</ele>
        <time>2012-05-13T09:01:02Z</time>
      </trkpt>
      <trkpt lat="44.0927" lon="3.02119">
        <ele>602</ele>
        <time>2012-05-13T09:01:04Z</time>
      </trkpt>
      <trkpt lat="44.09276" lon="3.02118">
        <ele>602</ele>
        <time>2012-05-13T09:01:06Z</time>
      </trkpt>
      <trkpt lat="44.09281" lon="3.02117">
        <ele>602</ele>
        <time>2012-05-13T09:01:08Z</time>
      </trkpt>
      <trkpt lat="44.09286" lon="3.02116">
        <ele>602</ele>
        <time>2012-05-13T09:01:10Z</time>
      </trkpt>
      <trkpt lat="44.09292" lon="3.02116">
        <ele>602</ele>
        <time>2012-05-13T09:01:12Z</time>
      </trkpt>
      <trkpt lat="44.09297" lon="3.02115">
        <ele>602</ele>
        <time>2012-05-13T09:01:14Z</time>
      </trkpt>
      <trkpt lat="44.09303" lon="3.02115">
        <ele>602</ele>
        <time>2012-05-13T09:01:16Z</time>
      </trkpt>
      <trkpt lat="44.09309" lon="3.02116">
        <ele>601</ele>
        <time>2012-05-13T09:01:18Z</time>
      </trkpt>
      <trkpt lat="44.09314" lon="3.02115">
        <ele>601</ele>
        <time>2012-05-13T09:01:20Z</time>
      </trkpt>
      <trkpt lat="44.0932" lon="3.02115">
        <ele>601</ele>
        <time>2012-05-13T09:01:22Z</time>
      </trkpt>
      <trkpt lat="44.09326" lon="3.02115">
        <ele>602</ele>
        <time>2012-05-13T09:01:24Z</time>
      </trkpt>
      <trkpt lat="44.09331" lon="3.02115">
        <ele>602</ele>
        <time>2012-05-13T09:01:26Z</time>
      </trkpt>
      <trkpt lat="44.09336" lon="3.02115">
        <ele>602</ele>
        <time>2012-05-13T09:01:28Z</time>
      </trkpt>
      <trkpt lat="44.09342" lon="3.02115">
        <ele>602</ele>
        <time>2012-05-13T09:01:30Z</time>
      </trkpt>
      <trkpt lat="44.09347" lon="3.02116">
        <ele>602</ele>
        <time>2012-05-13T09:01:32Z</time>
      </trkpt>
      <trkpt lat="44.09352" lon="3.02115">
        <ele>602</ele>
        <time>2012-05-13T09:01:35Z</time>
      </trkpt>
      <trkpt lat="44.09357" lon="3.02115">
        <ele>602</ele>
        <time>2012-05-13T09:01:37Z</time>
      </trkpt>
      <trkpt lat="44.09363" lon="3.02115">
        <ele>602</ele>
        <time>2012-05-13T09:01:39Z</time>
      </trkpt>
      <trkpt lat="44.09368" lon="3.02115">
        <ele>602</ele>
        <time>2012-05-13T09:01:41Z</time>
      </trkpt>
      <trkpt lat="44.09373" lon="3.02116">
        <ele>602</ele>
        <time>2012-05-13T09:01:43Z</time>
      </trkpt>
      <trkpt lat="44.09378" lon="3.02116">
        <ele>601</ele>
        <time>2012-05-13T09:01:45Z</time>
      </trkpt>
      <trkpt lat="44.09384" lon="3.02116">
        <ele>601</ele>
        <time>2012-05-13T09:01:47Z</time>
      </trkpt>
      <trkpt lat="44.09389" lon="3.02116">
        <ele>601</ele>
        <time>2012-05-13T09:01:49Z</time>
      </trkpt>
      <trkpt lat="44.09394" lon="3.02117">
        <ele>601</ele>
        <time>2012-05-13T09:01:51Z</time>
      </trkpt>
      <trkpt lat="44.094" lon="3.02117">
        <ele>601</ele>
        <time>2012-05-13T09:01:53Z</time>
      </trkpt>
      <trkpt lat="44.09404" lon="3.02118">
        <ele>601</ele>
        <time>2012-05-13T09:01:55Z</time>
      </trkpt>
      <trkpt lat="44.09409" lon="3.02119">
        <ele>601</ele>
        <time>2012-05-13T09:01:57Z</time>
      </trkpt>
      <trkpt lat="44.09414" lon="3.0212">
        <ele>601</ele>
        <time>2012-05-13T09:01:59Z</time>
      </trkpt>
      <trkpt lat="44.0942" lon="3.02121">
        <ele>601</ele>
        <time>2012-05-13T09:02:01Z</time>
      </trkpt>
      <trkpt lat="44.09425" lon="3.02121">
        <ele>601</ele>
        <time>2012-05-13T09:02:03Z</time>
      </trkpt>
      <trkpt lat="44.09431" lon="3.02122">
        <ele>601</ele>
        <time>2012-05-13T09:02:05Z</time>
      </trkpt>
      <trkpt lat="44.09436" lon="3.02123">
        <ele>601</ele>
        <time>2012-05-13T09:02:07Z</time>
      </trkpt>
      <trkpt lat="44.09441" lon="3.02123">
        <ele>601</ele>
        <time>2012-05-13T09:02:09Z</time>
      </trkpt>
      <trkpt lat="44.09447" lon="3.02123">
        <ele>601</ele>
        <time>2012-05-13T09:02:11Z</time>
      </trkpt>
      <trkpt lat="44.09452" lon="3.02124">
        <ele>601</ele>
        <time>2012-05-13T09:02:13Z</time>
      </trkpt>
      <trkpt lat="44.09458" lon="3.02124">
        <ele>601</ele>
        <time>2012-05-13T09:02:15Z</time>
      </trkpt>
      <trkpt lat="44.09463" lon="3.02125">
        <ele>601</ele>
        <time>2012-05-13T09:02:17Z</time>
      </trkpt>
      <trkpt lat="44.09471" lon="3.02126">
        <ele>601</ele>
        <time>2012-05-13T09:02:19Z</time>
      </trkpt>
      <trkpt lat="44.09476" lon="3.02127">
        <ele>600</ele>
        <time>2012-05-13T09:02:21Z</time>
      </trkpt>
      <trkpt lat="44.09481" lon="3.02128">
        <ele>600</ele>
        <time>2012-05-13T09:02:23Z</time>
      </trkpt>
      <trkpt lat="44.09487" lon="3.02128">
        <ele>600</ele>
        <time>2012-05-13T09:02:25Z</time>
      </trkpt>
      <trkpt lat="44.09491" lon="3.02129">
        <ele>599</ele>
        <time>2012-05-13T09:02:27Z</time>
      </trkpt>
      <trkpt lat="44.09497" lon="3.02129">
        <ele>599</ele>
        <time>2012-05-13T09:02:29Z</time>
      </trkpt>
      <trkpt lat="44.09502" lon="3.0213">
        <ele>599</ele>
        <time>2012-05-13T09:02:31Z</time>
      </trkpt>
      <trkpt lat="44.09506" lon="3.02131">
        <ele>599</ele>
        <time>2012-05-13T09:02:33Z</time>
      </trkpt>
      <trkpt lat="44.09512" lon="3.02132">
        <ele>599</ele>
        <time>2012-05-13T09:02:35Z</time>
      </trkpt>
      <trkpt lat="44.09517" lon="3.02132">
        <ele>598</ele>
        <time>2012-05-13T09:02:37Z</time>
      </trkpt>
      <trkpt lat="44.09522" lon="3.02133">
        <ele>598</ele>
        <time>2012-05-13T09:02:39Z</time>
      </trkpt>
      <trkpt lat="44.09527" lon="3.02134">
        <ele>598</ele>
        <time>2012-05-13T09:02:41Z</time>
      </trkpt>
      <trkpt lat="44.09532" lon="3.02135">
        <ele>598</ele>
        <time>2012-05-13T09:02:43Z</time>
      </trkpt>
      <trkpt lat="44.09537" lon="3.02135">
        <ele>597</ele>
        <time>2012-05-13T09:02:45Z</time>
      </trkpt>
      <trkpt lat="44.09542" lon="3.02136">
        <ele>597</ele>
        <time>2012-05-13T09:02:47Z</time>
      </trkpt>
      <trkpt lat="44.09548" lon="3.02136">
        <ele>597</ele>
        <time>2012-05-13T09:02:49Z</time>
      </trkpt>
      <trkpt lat="44.09553" lon="3.02137">
        <ele>597</ele>
        <time>2012-05-13T09:02:51Z</time>
      </trkpt>
      <trkpt lat="44.09559" lon="3.02137">
        <ele>596</ele>
        <time>2012-05-13T09:02:53Z</time>
      </trkpt>
      <trkpt lat="44.09564" lon="3.02138">
        <ele>596</ele>
        <time>2012-05-13T09:02:55Z</time>
      </trkpt>
      <trkpt lat="44.0957" lon="3.02139">
        <ele>596</ele>
        <time>2012-05-13T09:02:57Z</time>
      </trkpt>
      <trkpt lat="44.09575" lon="3.02139">
        <ele>596</ele>
        <time>2012-05-13T09:02:59Z</time>
      </trkpt>
      <trkpt lat="44.0958" lon="3.02139">
        <ele>596</ele>
        <time>2012-05-13T09:03:01Z</time>
      </trkpt>
      <trkpt lat="44.09585" lon="3.0214">
        <ele>596</ele>
        <time>2012-05-13T09:03:03Z</time>
      </trkpt>
      <trkpt lat="44.09591" lon="3.02141">
        <ele>596</ele>
        <time>2012-05-13T09:03:06Z</time>
      </trkpt>
      <trkpt lat="44.09596" lon="3.02142">
        <ele>596</ele>
        <time>2012-05-13T09:03:08Z</time>
      </trkpt>
      <trkpt lat="44.09602" lon="3.02143">
        <ele>596</ele>
        <time>2012-05-13T09:03:10Z</time>
      </trkpt>
      <trkpt lat="44.09607" lon="3.02144">
        <ele>597</ele>
        <time>2012-05-13T09:03:12Z</time>
      </trkpt>
      <trkpt lat="44.09613" lon="3.02144">
        <ele>597</ele>
        <time>2012-05-13T09:03:14Z</time>
      </trkpt>
      <trkpt lat="44.09618" lon="3.02145">
        <ele>597</ele>
        <time>2012-05-13T09:03:16Z</time>
      </trkpt>
      <trkpt lat="44.09623" lon="3.02145">
        <ele>597</ele>
        <time>2012-05-13T09:03:18Z</time>
      </trkpt>
      <trkpt lat="44.09629" lon="3.02147">
        <ele>596</ele>
        <time>2012-05-13T09:03:20Z</time>
      </trkpt>
      <trkpt lat="44.09635" lon="3.02148">
        <ele>596</ele>
        <time>2012-05-13T09:03:22Z</time>
      </trkpt>
      <trkpt lat="44.0964" lon="3.02149">
        <ele>595</ele>
        <time>2012-05-13T09:03:24Z</time>
      </trkpt>
      <trkpt lat="44.09646" lon="3.02151">
        <ele>595</ele>
        <time>2012-05-13T09:03:26Z</time>
      </trkpt>
      <trkpt lat="44.09652" lon="3.02153">
        <ele>594</ele>
        <time>2012-05-13T09:03:28Z</time>
      </trkpt>
      <trkpt lat="44.09657" lon="3.02155">
        <ele>594</ele>
        <time>2012-05-13T09:03:30Z</time>
      </trkpt>
      <trkpt lat="44.09663" lon="3.02158">
        <ele>593</ele>
        <time>2012-05-13T09:03:32Z</time>
      </trkpt>
      <trkpt lat="44.09668" lon="3.02162">
        <ele>593</ele>
        <time>2012-05-13T09:03:34Z</time>
      </trkpt>
      <trkpt lat="44.09673" lon="3.02165">
        <ele>593</ele>
        <time>2012-05-13T09:03:36Z</time>
      </trkpt>
      <trkpt lat="44.09677" lon="3.02169">
        <ele>592</ele>
        <time>2012-05-13T09:03:38Z</time>
      </trkpt>
      <trkpt lat="44.09681" lon="3.02174">
        <ele>592</ele>
        <time>2012-05-13T09:03:40Z</time>
      </trkpt>
      <trkpt lat="44.09685" lon="3.02179">
        <ele>592</ele>
        <time>2012-05-13T09:03:42Z</time>
      </trkpt>
      <trkpt lat="44.0969" lon="3.02184">
        <ele>591</ele>
        <time>2012-05-13T09:03:44Z</time>
      </trkpt>
      <trkpt lat="44.09694" lon="3.0219">
        <ele>591</ele>
        <time>2012-05-13T09:03:46Z</time>
      </trkpt>
      <trkpt lat="44.09699" lon="3.022">
        <ele>590</ele>
        <time>2012-05-13T09:03:48Z</time>
      </trkpt>
      <trkpt lat="44.09702" lon="3.02207">
        <ele>590</ele>
        <time>2012-05-13T09:03:50Z</time>
      </trkpt>
      <trkpt lat="44.09704" lon="3.02214">
        <ele>590</ele>
        <time>2012-05-13T09:03:52Z</time>
      </trkpt>
      <trkpt lat="44.09706" lon="3.02221">
        <ele>589</ele>
        <time>2012-05-13T09:03:54Z</time>
      </trkpt>
      <trkpt lat="44.09709" lon="3.02229">
        <ele>588</ele>
        <time>2012-05-13T09:03:56Z</time>
      </trkpt>
      <trkpt lat="44.0971" lon="3.02236">
        <ele>588</ele>
        <time>2012-05-13T09:03:58Z</time>
      </trkpt>
      <trkpt lat="44.09711" lon="3.02244">
        <ele>587</ele>
        <time>2012-05-13T09:04:00Z</time>
      </trkpt>
      <trkpt lat="44.09713" lon="3.02252">
        <ele>587</ele>
        <time>2012-05-13T09:04:02Z</time>
      </trkpt>
      <trkpt lat="44.09713" lon="3.0226">
        <ele>586</ele>
        <time>2012-05-13T09:04:04Z</time>
      </trkpt>
      <trkpt lat="44.09713" lon="3.02268">
        <ele>585</ele>
        <time>2012-05-13T09:04:06Z</time>
      </trkpt>
      <trkpt lat="44.09713" lon="3.02275">
        <ele>584</ele>
        <time>2012-05-13T09:04:08Z</time>
      </trkpt>
      <trkpt lat="44.09713" lon="3.02283">
        <ele>583</ele>
        <time>2012-05-13T09:04:10Z</time>
      </trkpt>
      <trkpt lat="44.09712" lon="3.02291">
        <ele>583</ele>
        <time>2012-05-13T09:04:12Z</time>
      </trkpt>
      <trkpt lat="44.09711" lon="3.023">
        <ele>582</ele>
        <time>2012-05-13T09:04:14Z</time>
      </trkpt>
      <trkpt lat="44.0971" lon="3.02308">
        <ele>581</ele>
        <time>2012-05-13T09:04:16Z</time>
      </trkpt>
      <trkpt lat="44.09709" lon="3.02315">
        <ele>581</ele>
        <time>2012-05-13T09:04:18Z</time>
      </trkpt>
      <trkpt lat="44.09708" lon="3.02323">
        <ele>580</ele>
        <time>2012-05-13T09:04:20Z</time>
      </trkpt>
      <trkpt lat="44.09706" lon="3.02331">
        <ele>579</ele>
        <time>2012-05-13T09:04:22Z</time>
      </trkpt>
      <trkpt lat="44.09705" lon="3.02338">
        <ele>579</ele>
        <time>2012-05-13T09:04:24Z</time>
      </trkpt>
      <trkpt lat="44.09704" lon="3.02346">
        <ele>578</ele>
        <time>2012-05-13T09:04:26Z</time>
      </trkpt>
      <trkpt lat="44.09703" lon="3.02354">
        <ele>578</ele>
        <time>2012-05-13T09:04:28Z</time>
      </trkpt>
      <trkpt lat="44.09702" lon="3.02361">
        <ele>578</ele>
        <time>2012-05-13T09:04:30Z</time>
      </trkpt>
      <trkpt lat="44.09701" lon="3.02369">
        <ele>577</ele>
        <time>2012-05-13T09:04:32Z</time>
      </trkpt>
      <trkpt lat="44.097" lon="3.02377">
        <ele>577</ele>
        <time>2012-05-13T09:04:34Z</time>
      </trkpt>
      <trkpt lat="44.09699" lon="3.02384">
        <ele>577</ele>
        <time>2012-05-13T09:04:36Z</time>
      </trkpt>
      <trkpt lat="44.09699" lon="3.02392">
        <ele>576</ele>
        <time>2012-05-13T09:04:38Z</time>
      </trkpt>
      <trkpt lat="44.09697" lon="3.02401">
        <ele>576</ele>
        <time>2012-05-13T09:04:41Z</time>
      </trkpt>
      <trkpt lat="44.09697" lon="3.02409">
        <ele>576</ele>
        <time>2012-05-13T09:04:43Z</time>
      </trkpt>
      <trkpt lat="44.09696" lon="3.02416">
        <ele>575</ele>
        <time>2012-05-13T09:04:45Z</time>
      </trkpt>
      <trkpt lat="44.09695" lon="3.02424">
        <ele>575</ele>
        <time>2012-05-13T09:04:47Z</time>
      </trkpt>
      <trkpt lat="44.09694" lon="3.02432">
        <ele>575</ele>
        <time>2012-05-13T09:04:49Z</time>
      </trkpt>
      <trkpt lat="44.09692" lon="3.0244">
        <ele>575</ele>
        <time>2012-05-13T09:04:51Z</time>
      </trkpt>
      <trkpt lat="44.0969" lon="3.02447">
        <ele>574</ele>
        <time>2012-05-13T09:04:53Z</time>
      </trkpt>
      <trkpt lat="44.09688" lon="3.02454">
        <ele>574</ele>
        <time>2012-05-13T09:04:55Z</time>
      </trkpt>
      <trkpt lat="44.09685" lon="3.0246">
        <ele>574</ele>
        <time>2012-05-13T09:04:57Z</time>
      </trkpt>
      <trkpt lat="44.09682" lon="3.02466">
        <ele>574</ele>
        <time>2012-05-13T09:04:59Z</time>
      </trkpt>
      <trkpt lat="44.09679" lon="3.02471">
        <ele>573</ele>
        <time>2012-05-13T09:05:01Z</time>
      </trkpt>
      <trkpt lat="44.09675" lon="3.02476">
        <ele>573</ele>
        <time>2012-05-13T09:05:03Z</time>
      </trkpt>
      <trkpt lat="44.09671" lon="3.0248">
        <ele>572</ele>
        <time>2012-05-13T09:05:05Z</time>
      </trkpt>
      <trkpt lat="44.09666" lon="3.02484">
        <ele>572</ele>
        <time>2012-05-13T09:05:07Z</time>
      </trkpt>
      <trkpt lat="44.09661" lon="3.02487">
        <ele>571</ele>
        <time>2012-05-13T09:05:09Z</time>
      </trkpt>
      <trkpt lat="44.09657" lon="3.02489">
        <ele>571</ele>
        <time>2012-05-13T09:05:11Z</time>
      </trkpt>
      <trkpt lat="44.09652" lon="3.02491">
        <ele>570</ele>
        <time>2012-05-13T09:05:13Z</time>
      </trkpt>
      <trkpt lat="44.09647" lon="3.02492">
        <ele>569</ele>
        <time>2012-05-13T09:05:15Z</time>
      </trkpt>
      <trkpt lat="44.09642" lon="3.02492">
        <ele>569</ele>
        <time>2012-05-13T09:05:17Z</time>
      </trkpt>
      <trkpt lat="44.09636" lon="3.02491">
        <ele>568</ele>
        <time>2012-05-13T09:05:19Z</time>
      </trkpt>
      <trkpt lat="44.09631" lon="3.0249">
        <ele>568</ele>
        <time>2012-05-13T09:05:21Z</time>
      </trkpt>
      <trkpt lat="44.09622" lon="3.02487">
        <ele>568</ele>
        <time>2012-05-13T09:05:23Z</time>
      </trkpt>
      <trkpt lat="44.09616" lon="3.02485">
        <ele>567</ele>
        <time>2012-05-13T09:05:25Z</time>
      </trkpt>
      <trkpt lat="44.09611" lon="3.02482">
        <ele>567</ele>
        <time>2012-05-13T09:05:27Z</time>
      </trkpt>
      <trkpt lat="44.09605" lon="3.0248">
        <ele>567</ele>
        <time>2012-05-13T09:05:29Z</time>
      </trkpt>
      <trkpt lat="44.096" lon="3.02478">
        <ele>566</ele>
        <time>2012-05-13T09:05:31Z</time>
      </trkpt>
      <trkpt lat="44.09594" lon="3.02475">
        <ele>566</ele>
        <time>2012-05-13T09:05:33Z</time>
      </trkpt>
      <trkpt lat="44.09589" lon="3.02473">
        <ele>565</ele>
        <time>2012-05-13T09:05:35Z</time>
      </trkpt>
      <trkpt lat="44.09584" lon="3.0247">
        <ele>565</ele>
        <time>2012-05-13T09:05:37Z</time>
      </trkpt>
      <trkpt lat="44.09578" lon="3.02468">
        <ele>564</ele>
        <time>2012-05-13T09:05:39Z</time>
      </trkpt>
      <trkpt lat="44.09573" lon="3.02464">
        <ele>563</ele>
        <time>2012-05-13T09:05:41Z</time>
      </trkpt>
      <trkpt lat="44.09568" lon="3.02462">
        <ele>563</ele>
        <time>2012-05-13T09:05:43Z</time>
      </trkpt>
      <trkpt lat="44.09562" lon="3.02459">
        <ele>562</ele>
        <time>2012-05-13T09:05:45Z</time>
      </trkpt>
      <trkpt lat="44.09557" lon="3.02455">
        <ele>562</ele>
        <time>2012-05-13T09:05:47Z</time>
      </trkpt>
      <trkpt lat="44.09553" lon="3.0245">
        <ele>562</ele>
        <time>2012-05-13T09:05:49Z</time>
      </trkpt>
      <trkpt lat="44.09549" lon="3.02445">
        <ele>562</ele>
        <time>2012-05-13T09:05:51Z</time>
      </trkpt>
      <trkpt lat="44.09545" lon="3.02439">
        <ele>562</ele>
        <time>2012-05-13T09:05:53Z</time>
      </trkpt>
      <trkpt lat="44.09542" lon="3.02433">
        <ele>563</ele>
        <time>2012-05-13T09:05:55Z</time>
      </trkpt>
      <trkpt lat="44.09541" lon="3.02425">
        <ele>564</ele>
        <time>2012-05-13T09:05:57Z</time>
      </trkpt>
      <trkpt lat="44.0954" lon="3.02418">
        <ele>566</ele>
        <time>2012-05-13T09:05:59Z</time>
      </trkpt>
      <trkpt lat="44.0954" lon="3.0241">
        <ele>567</ele>
        <time>2012-05-13T09:06:01Z</time>
      </trkpt>
      <trkpt lat="44.09541" lon="3.02403">
        <ele>568</ele>
        <time>2012-05-13T09:06:03Z</time>
      </trkpt>
      <trkpt lat="44.09544" lon="3.02397">
        <ele>569</ele>
        <time>2012-05-13T09:06:05Z</time>
      </trkpt>
      <trkpt lat="44.09547" lon="3.02392">
        <ele>569</ele>
        <time>2012-05-13T09:06:07Z</time>
      </trkpt>
      <trkpt lat="44.09549" lon="3.02386">
        <ele>569</ele>
        <time>2012-05-13T09:06:09Z</time>
      </trkpt>
      <trkpt lat="44.09551" lon="3.02381">
        <ele>569</ele>
        <time>2012-05-13T09:06:11Z</time>
      </trkpt>
      <trkpt lat="44.09554" lon="3.02376">
        <ele>568</ele>
        <time>2012-05-13T09:06:13Z</time>
      </trkpt>
      <trkpt lat="44.09558" lon="3.0237">
        <ele>568</ele>
        <time>2012-05-13T09:06:16Z</time>
      </trkpt>
      <trkpt lat="44.09561" lon="3.02364">
        <ele>568</ele>
        <time>2012-05-13T09:06:18Z</time>
      </trkpt>
      <trkpt lat="44.09564" lon="3.02359">
        <ele>568</ele>
        <time>2012-05-13T09:06:20Z</time>
      </trkpt>
      <trkpt lat="44.09567" lon="3.02353">
        <ele>567</ele>
        <time>2012-05-13T09:06:22Z</time>
      </trkpt>
      <trkpt lat="44.09569" lon="3.02348">
        <ele>566</ele>
        <time>2012-05-13T09:06:24Z</time>
      </trkpt>
      <trkpt lat="44.09571" lon="3.02343">
        <ele>566</ele>
        <time>2012-05-13T09:06:26Z</time>
      </trkpt>
      <trkpt lat="44.09574" lon="3.02337">
        <ele>566</ele>
        <time>2012-05-13T09:06:28Z</time>
      </trkpt>
      <trkpt lat="44.09576" lon="3.02331">
        <ele>565</ele>
        <time>2012-05-13T09:06:30Z</time>
      </trkpt>
      <trkpt lat="44.09578" lon="3.02326">
        <ele>565</ele>
        <time>2012-05-13T09:06:32Z</time>
      </trkpt>
      <trkpt lat="44.09579" lon="3.02321">
        <ele>565</ele>
        <time>2012-05-13T09:06:34Z</time>
      </trkpt>
      <trkpt lat="44.09581" lon="3.02316">
        <ele>565</ele>
        <time>2012-05-13T09:06:36Z</time>
      </trkpt>
      <trkpt lat="44.09581" lon="3.02313">
        <ele>565</ele>
        <time>2012-05-13T09:06:38Z</time>
      </trkpt>
      <trkpt lat="44.09581" lon="3.02309">
        <ele>565</ele>
        <time>2012-05-13T09:06:40Z</time>
      </trkpt>
      <trkpt lat="44.09581" lon="3.02306">
        <ele>565</ele>
        <time>2012-05-13T09:06:42Z</time>
      </trkpt>
      <trkpt lat="44.09581" lon="3.02303">
        <ele>566</ele>
        <time>2012-05-13T09:06:44Z</time>
      </trkpt>
      <trkpt lat="44.09581" lon="3.02299">
        <ele>566</ele>
        <time>2012-05-13T09:06:46Z</time>
      </trkpt>
      <trkpt lat="44.09581" lon="3.02295">
        <ele>566</ele>
        <time>2012-05-13T09:06:48Z</time>
      </trkpt>
      <trkpt lat="44.09583" lon="3.02292">
        <ele>566</ele>
        <time>2012-05-13T09:06:50Z</time>
      </trkpt>
      <trkpt lat="44.09586" lon="3.02292">
        <ele>567</ele>
        <time>2012-05-13T09:06:52Z</time>
      </trkpt>
      <trkpt lat="44.09589" lon="3.02292">
        <ele>567</ele>
        <time>2012-05-13T09:06:54Z</time>
      </trkpt>
      <trkpt lat="44.09591" lon="3.02292">
        <ele>567</ele>
        <time>2012-05-13T09:06:56Z</time>
      </trkpt>
      <trkpt lat="44.09594" lon="3.02291">
        <ele>568</ele>
        <time>2012-05-13T09:06:58Z</time>
      </trkpt>
      <trkpt lat="44.09597" lon="3.0229">
        <ele>569</ele>
        <time>2012-05-13T09:07:00Z</time>
      </trkpt>
      <trkpt lat="44.09599" lon="3.02289">
        <ele>570</ele>
        <time>2012-05-13T09:07:02Z</time>
      </trkpt>
      <trkpt lat="44.09602" lon="3.02289">
        <ele>571</ele>
        <time>2012-05-13T09:07:04Z</time>
      </trkpt>
      <trkpt lat="44.09604" lon="3.02289">
        <ele>571</ele>
        <time>2012-05-13T09:07:06Z</time>
      </trkpt>
      <trkpt lat="44.09606" lon="3.02289">
        <ele>572</ele>
        <time>2012-05-13T09:07:08Z</time>
      </trkpt>
      <trkpt lat="44.09606" lon="3.02291">
        <ele>572</ele>
        <time>2012-05-13T09:07:10Z</time>
      </trkpt>
      <trkpt lat="44.09606" lon="3.02291">
        <ele>572</ele>
        <time>2012-05-13T09:07:12Z</time>
      </trkpt>
      <trkpt lat="44.09606" lon="3.02292">
        <ele>572</ele>
        <time>2012-05-13T09:07:14Z</time>
      </trkpt>
      <trkpt lat="44.09606" lon="3.02293">
        <ele>572</ele>
        <time>2012-05-13T09:07:16Z</time>
      </trkpt>
      <trkpt lat="44.09605" lon="3.02294">
        <ele>571</ele>
        <time>2012-05-13T09:07:18Z</time>
      </trkpt>
      <trkpt lat="44.09605" lon="3.02293">
        <ele>571</ele>
        <time>2012-05-13T09:07:20Z</time>
      </trkpt>
      <trkpt lat="44.09605" lon="3.02293">
        <ele>571</ele>
        <time>2012-05-13T09:07:22Z</time>
      </trkpt>
      <trkpt lat="44.09605" lon="3.02294">
        <ele>571</ele>
        <time>2012-05-13T09:07:24Z</time>
      </trkpt>
      <trkpt lat="44.09605" lon="3.02293">
        <ele>571</ele>
        <time>2012-05-13T09:07:26Z</time>
      </trkpt>
      <trkpt lat="44.09605" lon="3.02294">
        <ele>571</ele>
        <time>2012-05-13T09:07:28Z</time>
      </trkpt>
      <trkpt lat="44.09604" lon="3.02294">
        <ele>571</ele>
        <time>2012-05-13T09:07:30Z</time>
      </trkpt>
      <trkpt lat="44.09604" lon="3.02294">
        <ele>571</ele>
        <time>2012-05-13T09:07:32Z</time>
      </trkpt>
      <trkpt lat="44.09604" lon="3.02294">
        <ele>571</ele>
        <time>2012-05-13T09:07:34Z</time>
      </trkpt>
      <trkpt lat="44.09604" lon="3.02294">
        <ele>572</ele>
        <time>2012-05-13T09:07:36Z</time>
      </trkpt>
      <trkpt lat="44.09605" lon="3.02293">
        <ele>572</ele>
        <time>2012-05-13T09:07:38Z</time>
      </trkpt>
      <trkpt lat="44.09605" lon="3.02291">
        <ele>572</ele>
        <time>2012-05-13T09:07:40Z</time>
      </trkpt>
      <trkpt lat="44.09607" lon="3.0229">
        <ele>572</ele>
        <time>2012-05-13T09:07:42Z</time>
      </trkpt>
      <trkpt lat="44.09609" lon="3.02289">
        <ele>573</ele>
        <time>2012-05-13T09:07:44Z</time>
      </trkpt>
      <trkpt lat="44.09611" lon="3.02289">
        <ele>573</ele>
        <time>2012-05-13T09:07:46Z</time>
      </trkpt>
      <trkpt lat="44.09612" lon="3.02288">
        <ele>573</ele>
        <time>2012-05-13T09:07:48Z</time>
      </trkpt>
      <trkpt lat="44.09614" lon="3.02287">
        <ele>573</ele>
        <time>2012-05-13T09:07:50Z</time>
      </trkpt>
      <trkpt lat="44.09615" lon="3.02287">
        <ele>572</ele>
        <time>2012-05-13T09:07:52Z</time>
      </trkpt>
      <trkpt lat="44.09617" lon="3.02286">
        <ele>572</ele>
        <time>2012-05-13T09:07:54Z</time>
      </trkpt>
      <trkpt lat="44.09619" lon="3.02285">
        <ele>572</ele>
        <time>2012-05-13T09:07:56Z</time>
      </trkpt>
      <trkpt lat="44.09621" lon="3.02285">
        <ele>572</ele>
        <time>2012-05-13T09:07:58Z</time>
      </trkpt>
      <trkpt lat="44.09622" lon="3.02284">
        <ele>572</ele>
        <time>2012-05-13T09:08:00Z</time>
      </trkpt>
      <trkpt lat="44.09624" lon="3.02283">
        <ele>572</ele>
        <time>2012-05-13T09:08:02Z</time>
      </trkpt>
      <trkpt lat="44.09627" lon="3.02282">
        <ele>572</ele>
        <time>2012-05-13T09:08:04Z</time>
      </trkpt>
      <trkpt lat="44.09628" lon="3.02282">
        <ele>572</ele>
        <time>2012-05-13T09:08:06Z</time>
      </trkpt>
      <trkpt lat="44.09629" lon="3.0228">
        <ele>572</ele>
        <time>2012-05-13T09:08:09Z</time>
      </trkpt>
      <trkpt lat="44.09631" lon="3.02279">
        <ele>572</ele>
        <time>2012-05-13T09:08:11Z</time>
      </trkpt>
      <trkpt lat="44.09633" lon="3.02278">
        <ele>572</ele>
        <time>2012-05-13T09:08:13Z</time>
      </trkpt>
      <trkpt lat="44.09635" lon="3.02278">
        <ele>572</ele>
        <time>2012-05-13T09:08:15Z</time>
      </trkpt>
      <trkpt lat="44.09635" lon="3.02278">
        <ele>572</ele>
        <time>2012-05-13T09:08:17Z</time>
      </trkpt>
      <trkpt lat="44.09636" lon="3.02278">
        <ele>572</ele>
        <time>2012-05-13T09:08:19Z</time>
      </trkpt>
      <trkpt lat="44.09636" lon="3.02278">
        <ele>572</ele>
        <time>2012-05-13T09:08:21Z</time>
      </trkpt>
      <trkpt lat="44.09637" lon="3.02277">
        <ele>573</ele>
        <time>2012-05-13T09:08:23Z</time>
      </trkpt>
      <trkpt lat="44.09639" lon="3.02277">
        <ele>573</ele>
        <time>2012-05-13T09:08:25Z</time>
      </trkpt>
      <trkpt lat="44.09641" lon="3.02276">
        <ele>574</ele>
        <time>2012-05-13T09:08:27Z</time>
      </trkpt>
      <trkpt lat="44.09643" lon="3.02274">
        <ele>575</ele>
        <time>2012-05-13T09:08:29Z</time>
      </trkpt>
      <trkpt lat="44.09645" lon="3.02273">
        <ele>575</ele>
        <time>2012-05-13T09:08:31Z</time>
      </trkpt>
      <trkpt lat="44.09648" lon="3.02272">
        <ele>575</ele>
        <time>2012-05-13T09:08:33Z</time>
      </trkpt>
      <trkpt lat="44.0965" lon="3.02271">
        <ele>575</ele>
        <time>2012-05-13T09:08:35Z</time>
      </trkpt>
      <trkpt lat="44.09653" lon="3.0227">
        <ele>575</ele>
        <time>2012-05-13T09:08:37Z</time>
      </trkpt>
      <trkpt lat="44.09655" lon="3.02269">
        <ele>574</ele>
        <time>2012-05-13T09:08:39Z</time>
      </trkpt>
      <trkpt lat="44.09658" lon="3.02268">
        <ele>574</ele>
        <time>2012-05-13T09:08:41Z</time>
      </trkpt>
      <trkpt lat="44.0966" lon="3.02268">
        <ele>574</ele>
        <time>2012-05-13T09:08:43Z</time>
      </trkpt>
      <trkpt lat="44.09663" lon="3.02267">
        <ele>574</ele>
        <time>2012-05-13T09:08:45Z</time>
      </trkpt>
      <trkpt lat="44.09665" lon="3.02266">
        <ele>574</ele>
        <time>2012-05-13T09:08:47Z</time>
      </trkpt>
      <trkpt lat="44.09668" lon="3.02265">
        <ele>574</ele>
        <time>2012-05-13T09:08:49Z</time>
      </trkpt>
      <trkpt lat="44.09669" lon="3.02264">
        <ele>574</ele>
        <time>2012-05-13T09:08:51Z</time>
      </trkpt>
      <trkpt lat="44.0967" lon="3.02263">
        <ele>574</ele>
        <time>2012-05-13T09:08:53Z</time>
      </trkpt>
      <trkpt lat="44.09673" lon="3.02262">
        <ele>574</ele>
        <time>2012-05-13T09:08:55Z</time>
      </trkpt>
      <trkpt lat="44.09675" lon="3.02261">
        <ele>574</ele>
        <time>2012-05-13T09:08:57Z</time>
      </trkpt>
      <trkpt lat="44.09679" lon="3.02259">
        <ele>574</ele>
        <time>2012-05-13T09:08:59Z</time>
      </trkpt>
      <trkpt lat="44.09681" lon="3.02257">
        <ele>574</ele>
        <time>2012-05-13T09:09:01Z</time>
      </trkpt>
      <trkpt lat="44.09684" lon="3.02256">
        <ele>575</ele>
        <time>2012-05-13T09:09:03Z</time>
      </trkpt>
      <trkpt lat="44.09686" lon="3.02256">
        <ele>576</ele>
        <time>2012-05-13T09:09:05Z</time>
      </trkpt>
      <trkpt lat="44.09688" lon="3.02258">
        <ele>576</ele>
        <time>2012-05-13T09:09:07Z</time>
      </trkpt>
      <trkpt lat="44.09689" lon="3.02262">
        <ele>577</ele>
        <time>2012-05-13T09:09:09Z</time>
      </trkpt>
      <trkpt lat="44.0969" lon="3.02266">
        <ele>577</ele>
        <time>2012-05-13T09:09:11Z</time>
      </trkpt>
      <trkpt lat="44.0969" lon="3.0227">
        <ele>576</ele>
        <time>2012-05-13T09:09:13Z</time>
      </trkpt>
      <trkpt lat="44.0969" lon="3.02274">
        <ele>576</ele>
        <time>2012-05-13T09:09:15Z</time>
      </trkpt>
      <trkpt lat="44.0969" lon="3.02278">
        <ele>576</ele>
        <time>2012-05-13T09:09:17Z</time>
      </trkpt>
      <trkpt lat="44.0969" lon="3.02282">
        <ele>576</ele>
        <time>2012-05-13T09:09:19Z</time>
      </trkpt>
      <trkpt lat="44.09689" lon="3.02286">
        <ele>576</ele>
        <time>2012-05-13T09:09:21Z</time>
      </trkpt>
      <trkpt lat="44.09688" lon="3.02289">
        <ele>575</ele>
        <time>2012-05-13T09:09:23Z</time>
      </trkpt>
      <trkpt lat="44.09687" lon="3.02293">
        <ele>575</ele>
        <time>2012-05-13T09:09:25Z</time>
      </trkpt>
      <trkpt lat="44.09686" lon="3.02297">
        <ele>575</ele>
        <time>2012-05-13T09:09:27Z</time>
      </trkpt>
      <trkpt lat="44.09684" lon="3.02301">
        <ele>574</ele>
        <time>2012-05-13T09:09:29Z</time>
      </trkpt>
      <trkpt lat="44.09683" lon="3.02305">
        <ele>574</ele>
        <time>2012-05-13T09:09:31Z</time>
      </trkpt>
      <trkpt lat="44.09681" lon="3.02309">
        <ele>574</ele>
        <time>2012-05-13T09:09:33Z</time>
      </trkpt>
      <trkpt lat="44.0968" lon="3.02313">
        <ele>573</ele>
        <time>2012-05-13T09:09:35Z</time>
      </trkpt>
      <trkpt lat="44.09679" lon="3.02317">
        <ele>573</ele>
        <time>2012-05-13T09:09:37Z</time>
      </trkpt>
      <trkpt lat="44.09678" lon="3.02322">
        <ele>573</ele>
        <time>2012-05-13T09:09:39Z</time>
      </trkpt>
      <trkpt lat="44.09677" lon="3.02326">
        <ele>572</ele>
        <time>2012-05-13T09:09:41Z</time>
      </trkpt>
      <trkpt lat="44.09676" lon="3.02329">
        <ele>572</ele>
        <time>2012-05-13T09:09:43Z</time>
      </trkpt>
      <trkpt lat="44.09675" lon="3.02333">
        <ele>571</ele>
        <time>2012-05-13T09:09:45Z</time>
      </trkpt>
      <trkpt lat="44.09674" lon="3.02337">
        <ele>571</ele>
        <time>2012-05-13T09:09:47Z</time>
      </trkpt>
      <trkpt lat="44.09673" lon="3.02341">
        <ele>570</ele>
        <time>2012-05-13T09:09:49Z</time>
      </trkpt>
      <trkpt lat="44.09671" lon="3.02346">
        <ele>570</ele>
        <time>2012-05-13T09:09:52Z</time>
      </trkpt>
      <trkpt lat="44.09669" lon="3.02352">
        <ele>570</ele>
        <time>2012-05-13T09:09:54Z</time>
      </trkpt>
      <trkpt lat="44.09667" lon="3.02358">
        <ele>570</ele>
        <time>2012-05-13T09:09:56Z</time>
      </trkpt>
      <trkpt lat="44.09665" lon="3.02363">
        <ele>570</ele>
        <time>2012-05-13T09:09:58Z</time>
      </trkpt>
      <trkpt lat="44.09663" lon="3.02369">
        <ele>569</ele>
        <time>2012-05-13T09:10:00Z</time>
      </trkpt>
      <trkpt lat="44.09663" lon="3.02376">
        <ele>569</ele>
        <time>2012-05-13T09:10:02Z</time>
      </trkpt>
      <trkpt lat="44.09662" lon="3.02382">
        <ele>569</ele>
        <time>2012-05-13T09:10:04Z</time>
      </trkpt>
      <trkpt lat="44.09663" lon="3.02389">
        <ele>569</ele>
        <time>2012-05-13T09:10:06Z</time>
      </trkpt>
      <trkpt lat="44.09665" lon="3.02395">
        <ele>568</ele>
        <time>2012-05-13T09:10:08Z</time>
      </trkpt>
      <trkpt lat="44.09668" lon="3.02399">
        <ele>568</ele>
        <time>2012-05-13T09:10:10Z</time>
      </trkpt>
      <trkpt lat="44.09671" lon="3.02404">
        <ele>568</ele>
        <time>2012-05-13T09:10:12Z</time>
      </trkpt>
      <trkpt lat="44.09676" lon="3.02407">
        <ele>567</ele>
        <time>2012-05-13T09:10:14Z</time>
      </trkpt>
      <trkpt lat="44.0968" lon="3.02409">
        <ele>566</ele>
        <time>2012-05-13T09:10:16Z</time>
      </trkpt>
      <trkpt lat="44.09684" lon="3.0241">
        <ele>566</ele>
        <time>2012-05-13T09:10:18Z</time>
      </trkpt>
      <trkpt lat="44.09689" lon="3.02412">
        <ele>565</ele>
        <time>2012-05-13T09:10:20Z</time>
      </trkpt>
      <trkpt lat="44.09721" lon="3.02409">
        <ele>565</ele>
        <time>2012-05-13T09:10:34Z</time>
      </trkpt>
      <trkpt lat="44.09725" lon="3.02411">
        <ele>563</ele>
        <time>2012-05-13T09:10:36Z</time>
      </trkpt>
      <trkpt lat="44.0973" lon="3.02411">
        <ele>563</ele>
        <time>2012-05-13T09:10:38Z</time>
      </trkpt>
      <trkpt lat="44.09734" lon="3.02411">
        <ele>563</ele>
        <time>2012-05-13T09:10:40Z</time>
      </trkpt>
      <trkpt lat="44.0974" lon="3.02409">
        <ele>563</ele>
        <time>2012-05-13T09:10:42Z</time>
      </trkpt>
      <trkpt lat="44.09743" lon="3.02406">
        <ele>564</ele>
        <time>2012-05-13T09:10:44Z</time>
      </trkpt>
      <trkpt lat="44.09747" lon="3.02404">
        <ele>564</ele>
        <time>2012-05-13T09:10:46Z</time>
      </trkpt>
      <trkpt lat="44.0975" lon="3.02398">
        <ele>564</ele>
        <time>2012-05-13T09:10:48Z</time>
      </trkpt>
      <trkpt lat="44.09752" lon="3.02395">
        <ele>564</ele>
        <time>2012-05-13T09:10:50Z</time>
      </trkpt>
      <trkpt lat="44.09753" lon="3.0239">
        <ele>564</ele>
        <time>2012-05-13T09:10:52Z</time>
      </trkpt>
      <trkpt lat="44.09754" lon="3.02384">
        <ele>564</ele>
        <time>2012-05-13T09:10:54Z</time>
      </trkpt>
      <trkpt lat="44.09755" lon="3.02379">
        <ele>565</ele>
        <time>2012-05-13T09:10:56Z</time>
      </trkpt>
      <trkpt lat="44.09756" lon="3.02375">
        <ele>565</ele>
        <time>2012-05-13T09:10:58Z</time>
      </trkpt>
      <trkpt lat="44.09759" lon="3.02372">
        <ele>566</ele>
        <time>2012-05-13T09:11:00Z</time>
      </trkpt>
      <trkpt lat="44.09761" lon="3.0237">
        <ele>566</ele>
        <time>2012-05-13T09:11:02Z</time>
      </trkpt>
      <trkpt lat="44.09763" lon="3.02369">
        <ele>566</ele>
        <time>2012-05-13T09:11:04Z</time>
      </trkpt>
      <trkpt lat="44.09765" lon="3.0237">
        <ele>567</ele>
        <time>2012-05-13T09:11:06Z</time>
      </trkpt>
      <trkpt lat="44.09768" lon="3.02371">
        <ele>568</ele>
        <time>2012-05-13T09:11:08Z</time>
      </trkpt>
      <trkpt lat="44.0977" lon="3.02372">
        <ele>568</ele>
        <time>2012-05-13T09:11:10Z</time>
      </trkpt>
      <trkpt lat="44.09772" lon="3.02373">
        <ele>569</ele>
        <time>2012-05-13T09:11:12Z</time>
      </trkpt>
      <trkpt lat="44.09775" lon="3.02374">
        <ele>570</ele>
        <time>2012-05-13T09:11:14Z</time>
      </trkpt>
      <trkpt lat="44.09777" lon="3.02375">
        <ele>571</ele>
        <time>2012-05-13T09:11:16Z</time>
      </trkpt>
      <trkpt lat="44.0978" lon="3.02376">
        <ele>572</ele>
        <time>2012-05-13T09:11:18Z</time>
      </trkpt>
      <trkpt lat="44.09782" lon="3.02379">
        <ele>572</ele>
        <time>2012-05-13T09:11:20Z</time>
      </trkpt>
      <trkpt lat="44.09785" lon="3.02381">
        <ele>573</ele>
        <time>2012-05-13T09:11:22Z</time>
      </trkpt>
      <trkpt lat="44.09788" lon="3.02382">
        <ele>574</ele>
        <time>2012-05-13T09:11:24Z</time>
      </trkpt>
      <trkpt lat="44.0979" lon="3.02382">
        <ele>574</ele>
        <time>2012-05-13T09:11:26Z</time>
      </trkpt>
      <trkpt lat="44.09793" lon="3.02383">
        <ele>574</ele>
        <time>2012-05-13T09:11:28Z</time>
      </trkpt>
      <trkpt lat="44.09796" lon="3.02384">
        <ele>574</ele>
        <time>2012-05-13T09:11:30Z</time>
      </trkpt>
      <trkpt lat="44.09799" lon="3.02384">
        <ele>574</ele>
        <time>2012-05-13T09:11:32Z</time>
      </trkpt>
      <trkpt lat="44.09801" lon="3.02385">
        <ele>575</ele>
        <time>2012-05-13T09:11:35Z</time>
      </trkpt>
      <trkpt lat="44.09804" lon="3.02385">
        <ele>575</ele>
        <time>2012-05-13T09:11:37Z</time>
      </trkpt>
      <trkpt lat="44.09807" lon="3.02385">
        <ele>576</ele>
        <time>2012-05-13T09:11:39Z</time>
      </trkpt>
      <trkpt lat="44.09809" lon="3.02386">
        <ele>576</ele>
        <time>2012-05-13T09:11:41Z</time>
      </trkpt>
      <trkpt lat="44.09812" lon="3.02387">
        <ele>576</ele>
        <time>2012-05-13T09:11:43Z</time>
      </trkpt>
      <trkpt lat="44.09815" lon="3.02387">
        <ele>576</ele>
        <time>2012-05-13T09:11:45Z</time>
      </trkpt>
      <trkpt lat="44.09818" lon="3.02388">
        <ele>576</ele>
        <time>2012-05-13T09:11:47Z</time>
      </trkpt>
      <trkpt lat="44.09821" lon="3.02388">
        <ele>576</ele>
        <time>2012-05-13T09:11:49Z</time>
      </trkpt>
      <trkpt lat="44.09824" lon="3.02389">
        <ele>576</ele>
        <time>2012-05-13T09:11:51Z</time>
      </trkpt>
      <trkpt lat="44.09827" lon="3.02389">
        <ele>576</ele>
        <time>2012-05-13T09:11:53Z</time>
      </trkpt>
      <trkpt lat="44.09829" lon="3.0239">
        <ele>576</ele>
        <time>2012-05-13T09:11:55Z</time>
      </trkpt>
      <trkpt lat="44.09832" lon="3.02389">
        <ele>576</ele>
        <time>2012-05-13T09:11:57Z</time>
      </trkpt>
      <trkpt lat="44.09835" lon="3.02389">
        <ele>577</ele>
        <time>2012-05-13T09:11:59Z</time>
      </trkpt>
      <trkpt lat="44.09838" lon="3.0239">
        <ele>577</ele>
        <time>2012-05-13T09:12:01Z</time>
      </trkpt>
      <trkpt lat="44.09842" lon="3.0239">
        <ele>578</ele>
        <time>2012-05-13T09:12:03Z</time>
      </trkpt>
      <trkpt lat="44.09844" lon="3.02391">
        <ele>578</ele>
        <time>2012-05-13T09:12:05Z</time>
      </trkpt>
      <trkpt lat="44.09847" lon="3.02392">
        <ele>579</ele>
        <time>2012-05-13T09:12:07Z</time>
      </trkpt>
      <trkpt lat="44.09849" lon="3.02392">
        <ele>579</ele>
        <time>2012-05-13T09:12:09Z</time>
      </trkpt>
      <trkpt lat="44.09851" lon="3.02393">
        <ele>579</ele>
        <time>2012-05-13T09:12:11Z</time>
      </trkpt>
      <trkpt lat="44.09855" lon="3.02394">
        <ele>579</ele>
        <time>2012-05-13T09:12:13Z</time>
      </trkpt>
      <trkpt lat="44.09858" lon="3.02394">
        <ele>579</ele>
        <time>2012-05-13T09:12:15Z</time>
      </trkpt>
      <trkpt lat="44.09863" lon="3.02395">
        <ele>579</ele>
        <time>2012-05-13T09:12:17Z</time>
      </trkpt>
      <trkpt lat="44.09866" lon="3.02396">
        <ele>579</ele>
        <time>2012-05-13T09:12:19Z</time>
      </trkpt>
      <trkpt lat="44.0987" lon="3.02397">
        <ele>580</ele>
        <time>2012-05-13T09:12:21Z</time>
      </trkpt>
      <trkpt lat="44.09873" lon="3.02398">
        <ele>581</ele>
        <time>2012-05-13T09:12:23Z</time>
      </trkpt>
      <trkpt lat="44.09876" lon="3.02399">
        <ele>581</ele>
        <time>2012-05-13T09:12:25Z</time>
      </trkpt>
      <trkpt lat="44.09879" lon="3.02399">
        <ele>581</ele>
        <time>2012-05-13T09:12:27Z</time>
      </trkpt>
      <trkpt lat="44.09882" lon="3.024">
        <ele>582</ele>
        <time>2012-05-13T09:12:29Z</time>
      </trkpt>
      <trkpt lat="44.09885" lon="3.02401">
        <ele>582</ele>
        <time>2012-05-13T09:12:31Z</time>
      </trkpt>
      <trkpt lat="44.09888" lon="3.02402">
        <ele>582</ele>
        <time>2012-05-13T09:12:33Z</time>
      </trkpt>
      <trkpt lat="44.09891" lon="3.02402">
        <ele>583</ele>
        <time>2012-05-13T09:12:35Z</time>
      </trkpt>
      <trkpt lat="44.09894" lon="3.02403">
        <ele>583</ele>
        <time>2012-05-13T09:12:37Z</time>
      </trkpt>
      <trkpt lat="44.09896" lon="3.02404">
        <ele>583</ele>
        <time>2012-05-13T09:12:39Z</time>
      </trkpt>
      <trkpt lat="44.09899" lon="3.02405">
        <ele>583</ele>
        <time>2012-05-13T09:12:41Z</time>
      </trkpt>
      <trkpt lat="44.09902" lon="3.02406">
        <ele>583</ele>
        <time>2012-05-13T09:12:43Z</time>
      </trkpt>
      <trkpt lat="44.09905" lon="3.02407">
        <ele>583</ele>
        <time>2012-05-13T09:12:45Z</time>
      </trkpt>
      <trkpt lat="44.09908" lon="3.02408">
        <ele>584</ele>
        <time>2012-05-13T09:12:47Z</time>
      </trkpt>
      <trkpt lat="44.09911" lon="3.02409">
        <ele>584</ele>
        <time>2012-05-13T09:12:49Z</time>
      </trkpt>
      <trkpt lat="44.09913" lon="3.0241">
        <ele>584</ele>
        <time>2012-05-13T09:12:51Z</time>
      </trkpt>
      <trkpt lat="44.09916" lon="3.02411">
        <ele>584</ele>
        <time>2012-05-13T09:12:53Z</time>
      </trkpt>
      <trkpt lat="44.09919" lon="3.02413">
        <ele>585</ele>
        <time>2012-05-13T09:12:55Z</time>
      </trkpt>
      <trkpt lat="44.09922" lon="3.02413">
        <ele>585</ele>
        <time>2012-05-13T09:12:57Z</time>
      </trkpt>
      <trkpt lat="44.09925" lon="3.02414">
        <ele>585</ele>
        <time>2012-05-13T09:12:59Z</time>
      </trkpt>
      <trkpt lat="44.09927" lon="3.02415">
        <ele>585</ele>
        <time>2012-05-13T09:13:01Z</time>
      </trkpt>
      <trkpt lat="44.0993" lon="3.02416">
        <ele>585</ele>
        <time>2012-05-13T09:13:03Z</time>
      </trkpt>
      <trkpt lat="44.09932" lon="3.02418">
        <ele>585</ele>
        <time>2012-05-13T09:13:06Z</time>
      </trkpt>
      <trkpt lat="44.09935" lon="3.02419">
        <ele>585</ele>
        <time>2012-05-13T09:13:08Z</time>
      </trkpt>
      <trkpt lat="44.09938" lon="3.0242">
        <ele>585</ele>
        <time>2012-05-13T09:13:10Z</time>
      </trkpt>
      <trkpt lat="44.0994" lon="3.02422">
        <ele>585</ele>
        <time>2012-05-13T09:13:12Z</time>
      </trkpt>
      <trkpt lat="44.09943" lon="3.02423">
        <ele>585</ele>
        <time>2012-05-13T09:13:14Z</time>
      </trkpt>
      <trkpt lat="44.09946" lon="3.02425">
        <ele>586</ele>
        <time>2012-05-13T09:13:16Z</time>
      </trkpt>
      <trkpt lat="44.09948" lon="3.02426">
        <ele>586</ele>
        <time>2012-05-13T09:13:18Z</time>
      </trkpt>
      <trkpt lat="44.09951" lon="3.02427">
        <ele>586</ele>
        <time>2012-05-13T09:13:20Z</time>
      </trkpt>
      <trkpt lat="44.09954" lon="3.02428">
        <ele>587</ele>
        <time>2012-05-13T09:13:22Z</time>
      </trkpt>
      <trkpt lat="44.09956" lon="3.0243">
        <ele>587</ele>
        <time>2012-05-13T09:13:24Z</time>
      </trkpt>
      <trkpt lat="44.09959" lon="3.0243">
        <ele>587</ele>
        <time>2012-05-13T09:13:26Z</time>
      </trkpt>
      <trkpt lat="44.09962" lon="3.02433">
        <ele>587</ele>
        <time>2012-05-13T09:13:28Z</time>
      </trkpt>
      <trkpt lat="44.09967" lon="3.02435">
        <ele>587</ele>
        <time>2012-05-13T09:13:30Z</time>
      </trkpt>
      <trkpt lat="44.09972" lon="3.02438">
        <ele>588</ele>
        <time>2012-05-13T09:13:32Z</time>
      </trkpt>
      <trkpt lat="44.09976" lon="3.02439">
        <ele>589</ele>
        <time>2012-05-13T09:13:34Z</time>
      </trkpt>
      <trkpt lat="44.0998" lon="3.02441">
        <ele>589</ele>
        <time>2012-05-13T09:13:36Z</time>
      </trkpt>
      <trkpt lat="44.09984" lon="3.02443">
        <ele>590</ele>
        <time>2012-05-13T09:13:38Z</time>
      </trkpt>
      <trkpt lat="44.09988" lon="3.02445">
        <ele>590</ele>
        <time>2012-05-13T09:13:40Z</time>
      </trkpt>
      <trkpt lat="44.09991" lon="3.02447">
        <ele>590</ele>
        <time>2012-05-13T09:13:42Z</time>
      </trkpt>
      <trkpt lat="44.09995" lon="3.02449">
        <ele>591</ele>
        <time>2012-05-13T09:13:44Z</time>
      </trkpt>
      <trkpt lat="44.09999" lon="3.0245">
        <ele>591</ele>
        <time>2012-05-13T09:13:46Z</time>
      </trkpt>
      <trkpt lat="44.10003" lon="3.02453">
        <ele>592</ele>
        <time>2012-05-13T09:13:48Z</time>
      </trkpt>
      <trkpt lat="44.10007" lon="3.02454">
        <ele>592</ele>
        <time>2012-05-13T09:13:50Z</time>
      </trkpt>
      <trkpt lat="44.10011" lon="3.02455">
        <ele>593</ele>
        <time>2012-05-13T09:13:52Z</time>
      </trkpt>
      <trkpt lat="44.10014" lon="3.02457">
        <ele>594</ele>
        <time>2012-05-13T09:13:54Z</time>
      </trkpt>
      <trkpt lat="44.10018" lon="3.02459">
        <ele>594</ele>
        <time>2012-05-13T09:13:57Z</time>
      </trkpt>
      <trkpt lat="44.10023" lon="3.02461">
        <ele>595</ele>
        <time>2012-05-13T09:13:59Z</time>
      </trkpt>
      <trkpt lat="44.10027" lon="3.02463">
        <ele>595</ele>
        <time>2012-05-13T09:14:01Z</time>
      </trkpt>
      <trkpt lat="44.10031" lon="3.02465">
        <ele>596</ele>
        <time>2012-05-13T09:14:03Z</time>
      </trkpt>
      <trkpt lat="44.10035" lon="3.02467">
        <ele>596</ele>
        <time>2012-05-13T09:14:05Z</time>
      </trkpt>
      <trkpt lat="44.10038" lon="3.02469">
        <ele>596</ele>
        <time>2012-05-13T09:14:07Z</time>
      </trkpt>
      <trkpt lat="44.10043" lon="3.02471">
        <ele>596</ele>
        <time>2012-05-13T09:14:09Z</time>
      </trkpt>
      <trkpt lat="44.10046" lon="3.02473">
        <ele>597</ele>
        <time>2012-05-13T09:14:11Z</time>
      </trkpt>
      <trkpt lat="44.1005" lon="3.02476">
        <ele>598</ele>
        <time>2012-05-13T09:14:13Z</time>
      </trkpt>
      <trkpt lat="44.10053" lon="3.02478">
        <ele>598</ele>
        <time>2012-05-13T09:14:15Z</time>
      </trkpt>
      <trkpt lat="44.10057" lon="3.0248">
        <ele>599</ele>
        <time>2012-05-13T09:14:17Z</time>
      </trkpt>
      <trkpt lat="44.10061" lon="3.02481">
        <ele>599</ele>
        <time>2012-05-13T09:14:19Z</time>
      </trkpt>
      <trkpt lat="44.10065" lon="3.02482">
        <ele>600</ele>
        <time>2012-05-13T09:14:21Z</time>
      </trkpt>
      <trkpt lat="44.10069" lon="3.02483">
        <ele>600</ele>
        <time>2012-05-13T09:14:23Z</time>
      </trkpt>
      <trkpt lat="44.10073" lon="3.02485">
        <ele>601</ele>
        <time>2012-05-13T09:14:25Z</time>
      </trkpt>
      <trkpt lat="44.10077" lon="3.02487">
        <ele>601</ele>
        <time>2012-05-13T09:14:27Z</time>
      </trkpt>
      <trkpt lat="44.10081" lon="3.02488">
        <ele>601</ele>
        <time>2012-05-13T09:14:29Z</time>
      </trkpt>
      <trkpt lat="44.10085" lon="3.02489">
        <ele>602</ele>
        <time>2012-05-13T09:14:31Z</time>
      </trkpt>
      <trkpt lat="44.10088" lon="3.02491">
        <ele>602</ele>
        <time>2012-05-13T09:14:33Z</time>
      </trkpt>
      <trkpt lat="44.10092" lon="3.02492">
        <ele>603</ele>
        <time>2012-05-13T09:14:35Z</time>
      </trkpt>
      <trkpt lat="44.10096" lon="3.02494">
        <ele>603</ele>
        <time>2012-05-13T09:14:37Z</time>
      </trkpt>
      <trkpt lat="44.10102" lon="3.02497">
        <ele>603</ele>
        <time>2012-05-13T09:14:39Z</time>
      </trkpt>
      <trkpt lat="44.10104" lon="3.02498">
        <ele>603</ele>
        <time>2012-05-13T09:14:41Z</time>
      </trkpt>
      <trkpt lat="44.10109" lon="3.025">
        <ele>603</ele>
        <time>2012-05-13T09:14:43Z</time>
      </trkpt>
      <trkpt lat="44.10113" lon="3.02502">
        <ele>603</ele>
        <time>2012-05-13T09:14:45Z</time>
      </trkpt>
      <trkpt lat="44.10117" lon="3.02504">
        <ele>603</ele>
        <time>2012-05-13T09:14:47Z</time>
      </trkpt>
      <trkpt lat="44.10121" lon="3.02505">
        <ele>603</ele>
        <time>2012-05-13T09:14:49Z</time>
      </trkpt>
      <trkpt lat="44.10125" lon="3.02507">
        <ele>603</ele>
        <time>2012-05-13T09:14:51Z</time>
      </trkpt>
      <trkpt lat="44.10129" lon="3.02508">
        <ele>603</ele>
        <time>2012-05-13T09:14:53Z</time>
      </trkpt>
      <trkpt lat="44.10133" lon="3.0251">
        <ele>603</ele>
        <time>2012-05-13T09:14:55Z</time>
      </trkpt>
      <trkpt lat="44.10137" lon="3.02512">
        <ele>603</ele>
        <time>2012-05-13T09:14:57Z</time>
      </trkpt>
      <trkpt lat="44.10141" lon="3.02514">
        <ele>603</ele>
        <time>2012-05-13T09:14:59Z</time>
      </trkpt>
      <trkpt lat="44.10146" lon="3.02516">
        <ele>603</ele>
        <time>2012-05-13T09:15:01Z</time>
      </trkpt>
      <trkpt lat="44.1015" lon="3.02517">
        <ele>604</ele>
        <time>2012-05-13T09:15:03Z</time>
      </trkpt>
      <trkpt lat="44.10154" lon="3.02519">
        <ele>604</ele>
        <time>2012-05-13T09:15:05Z</time>
      </trkpt>
      <trkpt lat="44.10159" lon="3.02522">
        <ele>605</ele>
        <time>2012-05-13T09:15:07Z</time>
      </trkpt>
      <trkpt lat="44.10163" lon="3.02523">
        <ele>605</ele>
        <time>2012-05-13T09:15:09Z</time>
      </trkpt>
      <trkpt lat="44.10167" lon="3.02525">
        <ele>605</ele>
        <time>2012-05-13T09:15:11Z</time>
      </trkpt>
      <trkpt lat="44.10171" lon="3.02527">
        <ele>606</ele>
        <time>2012-05-13T09:15:13Z</time>
      </trkpt>
      <trkpt lat="44.10175" lon="3.02529">
        <ele>606</ele>
        <time>2012-05-13T09:15:15Z</time>
      </trkpt>
      <trkpt lat="44.10179" lon="3.02531">
        <ele>606</ele>
        <time>2012-05-13T09:15:17Z</time>
      </trkpt>
      <trkpt lat="44.10183" lon="3.02534">
        <ele>606</ele>
        <time>2012-05-13T09:15:19Z</time>
      </trkpt>
      <trkpt lat="44.10187" lon="3.02536">
        <ele>606</ele>
        <time>2012-05-13T09:15:21Z</time>
      </trkpt>
      <trkpt lat="44.10191" lon="3.02538">
        <ele>606</ele>
        <time>2012-05-13T09:15:23Z</time>
      </trkpt>
      <trkpt lat="44.10194" lon="3.02541">
        <ele>606</ele>
        <time>2012-05-13T09:15:25Z</time>
      </trkpt>
      <trkpt lat="44.10198" lon="3.02544">
        <ele>606</ele>
        <time>2012-05-13T09:15:27Z</time>
      </trkpt>
      <trkpt lat="44.10202" lon="3.02546">
        <ele>606</ele>
        <time>2012-05-13T09:15:30Z</time>
      </trkpt>
      <trkpt lat="44.10206" lon="3.02548">
        <ele>606</ele>
        <time>2012-05-13T09:15:32Z</time>
      </trkpt>
      <trkpt lat="44.1021" lon="3.0255">
        <ele>606</ele>
        <time>2012-05-13T09:15:34Z</time>
      </trkpt>
      <trkpt lat="44.10214" lon="3.02552">
        <ele>606</ele>
        <time>2012-05-13T09:15:36Z</time>
      </trkpt>
      <trkpt lat="44.10218" lon="3.02554">
        <ele>607</ele>
        <time>2012-05-13T09:15:38Z</time>
      </trkpt>
      <trkpt lat="44.10222" lon="3.02558">
        <ele>607</ele>
        <time>2012-05-13T09:15:40Z</time>
      </trkpt>
      <trkpt lat="44.10226" lon="3.02561">
        <ele>607</ele>
        <time>2012-05-13T09:15:42Z</time>
      </trkpt>
      <trkpt lat="44.10229" lon="3.02563">
        <ele>607</ele>
        <time>2012-05-13T09:15:44Z</time>
      </trkpt>
      <trkpt lat="44.10233" lon="3.02566">
        <ele>607</ele>
        <time>2012-05-13T09:15:46Z</time>
      </trkpt>
      <trkpt lat="44.10237" lon="3.02568">
        <ele>606</ele>
        <time>2012-05-13T09:15:48Z</time>
      </trkpt>
      <trkpt lat="44.10241" lon="3.02572">
        <ele>606</ele>
        <time>2012-05-13T09:15:50Z</time>
      </trkpt>
      <trkpt lat="44.10244" lon="3.02575">
        <ele>606</ele>
        <time>2012-05-13T09:15:52Z</time>
      </trkpt>
      <trkpt lat="44.10248" lon="3.02578">
        <ele>606</ele>
        <time>2012-05-13T09:15:54Z</time>
      </trkpt>
      <trkpt lat="44.10252" lon="3.02581">
        <ele>606</ele>
        <time>2012-05-13T09:15:56Z</time>
      </trkpt>
      <trkpt lat="44.10255" lon="3.02584">
        <ele>606</ele>
        <time>2012-05-13T09:15:58Z</time>
      </trkpt>
      <trkpt lat="44.10258" lon="3.02588">
        <ele>606</ele>
        <time>2012-05-13T09:16:00Z</time>
      </trkpt>
      <trkpt lat="44.10262" lon="3.02591">
        <ele>606</ele>
        <time>2012-05-13T09:16:02Z</time>
      </trkpt>
      <trkpt lat="44.10265" lon="3.02595">
        <ele>606</ele>
        <time>2012-05-13T09:16:04Z</time>
      </trkpt>
      <trkpt lat="44.10269" lon="3.02599">
        <ele>606</ele>
        <time>2012-05-13T09:16:06Z</time>
      </trkpt>
      <trkpt lat="44.10272" lon="3.02603">
        <ele>606</ele>
        <time>2012-05-13T09:16:08Z</time>
      </trkpt>
      <trkpt lat="44.10276" lon="3.02607">
        <ele>606</ele>
        <time>2012-05-13T09:16:10Z</time>
      </trkpt>
      <trkpt lat="44.10279" lon="3.0261">
        <ele>607</ele>
        <time>2012-05-13T09:16:12Z</time>
      </trkpt>
      <trkpt lat="44.10284" lon="3.02616">
        <ele>607</ele>
        <time>2012-05-13T09:16:14Z</time>
      </trkpt>
      <trkpt lat="44.10287" lon="3.0262">
        <ele>609</ele>
        <time>2012-05-13T09:16:16Z</time>
      </trkpt>
      <trkpt lat="44.10291" lon="3.02624">
        <ele>609</ele>
        <time>2012-05-13T09:16:18Z</time>
      </trkpt>
      <trkpt lat="44.10294" lon="3.02628">
        <ele>610</ele>
        <time>2012-05-13T09:16:20Z</time>
      </trkpt>
      <trkpt lat="44.10298" lon="3.02632">
        <ele>610</ele>
        <time>2012-05-13T09:16:22Z</time>
      </trkpt>
      <trkpt lat="44.10302" lon="3.02636">
        <ele>610</ele>
        <time>2012-05-13T09:16:24Z</time>
      </trkpt>
      <trkpt lat="44.10305" lon="3.0264">
        <ele>610</ele>
        <time>2012-05-13T09:16:26Z</time>
      </trkpt>
      <trkpt lat="44.10308" lon="3.02643">
        <ele>610</ele>
        <time>2012-05-13T09:16:28Z</time>
      </trkpt>
      <trkpt lat="44.10312" lon="3.02647">
        <ele>609</ele>
        <time>2012-05-13T09:16:30Z</time>
      </trkpt>
      <trkpt lat="44.10316" lon="3.02651">
        <ele>609</ele>
        <time>2012-05-13T09:16:32Z</time>
      </trkpt>
      <trkpt lat="44.10321" lon="3.02655">
        <ele>609</ele>
        <time>2012-05-13T09:16:34Z</time>
      </trkpt>
      <trkpt lat="44.10324" lon="3.02659">
        <ele>609</ele>
        <time>2012-05-13T09:16:36Z</time>
      </trkpt>
      <trkpt lat="44.10328" lon="3.02662">
        <ele>609</ele>
        <time>2012-05-13T09:16:38Z</time>
      </trkpt>
      <trkpt lat="44.10331" lon="3.02665">
        <ele>609</ele>
        <time>2012-05-13T09:16:40Z</time>
      </trkpt>
      <trkpt lat="44.10336" lon="3.0267">
        <ele>609</ele>
        <time>2012-05-13T09:16:42Z</time>
      </trkpt>
      <trkpt lat="44.1034" lon="3.02674">
        <ele>609</ele>
        <time>2012-05-13T09:16:44Z</time>
      </trkpt>
      <trkpt lat="44.10345" lon="3.02679">
        <ele>609</ele>
        <time>2012-05-13T09:16:46Z</time>
      </trkpt>
      <trkpt lat="44.1035" lon="3.02682">
        <ele>609</ele>
        <time>2012-05-13T09:16:48Z</time>
      </trkpt>
      <trkpt lat="44.10355" lon="3.02686">
        <ele>609</ele>
        <time>2012-05-13T09:16:50Z</time>
      </trkpt>
      <trkpt lat="44.10359" lon="3.02691">
        <ele>609</ele>
        <time>2012-05-13T09:16:52Z</time>
      </trkpt>
      <trkpt lat="44.10363" lon="3.02695">
        <ele>610</ele>
        <time>2012-05-13T09:16:54Z</time>
      </trkpt>
      <trkpt lat="44.10367" lon="3.027">
        <ele>611</ele>
        <time>2012-05-13T09:16:56Z</time>
      </trkpt>
      <trkpt lat="44.10371" lon="3.02704">
        <ele>611</ele>
        <time>2012-05-13T09:16:58Z</time>
      </trkpt>
      <trkpt lat="44.10375" lon="3.02709">
        <ele>611</ele>
        <time>2012-05-13T09:17:00Z</time>
      </trkpt>
      <trkpt lat="44.10378" lon="3.02713">
        <ele>611</ele>
        <time>2012-05-13T09:17:03Z</time>
      </trkpt>
      <trkpt lat="44.10382" lon="3.02717">
        <ele>610</ele>
        <time>2012-05-13T09:17:05Z</time>
      </trkpt>
      <trkpt lat="44.10385" lon="3.02721">
        <ele>609</ele>
        <time>2012-05-13T09:17:07Z</time>
      </trkpt>
      <trkpt lat="44.10388" lon="3.02725">
        <ele>609</ele>
        <time>2012-05-13T09:17:09Z</time>
      </trkpt>
      <trkpt lat="44.10391" lon="3.0273">
        <ele>609</ele>
        <time>2012-05-13T09:17:11Z</time>
      </trkpt>
      <trkpt lat="44.10394" lon="3.02734">
        <ele>608</ele>
        <time>2012-05-13T09:17:13Z</time>
      </trkpt>
      <trkpt lat="44.10396" lon="3.02739">
        <ele>608</ele>
        <time>2012-05-13T09:17:15Z</time>
      </trkpt>
      <trkpt lat="44.10399" lon="3.02744">
        <ele>608</ele>
        <time>2012-05-13T09:17:17Z</time>
      </trkpt>
      <trkpt lat="44.10402" lon="3.02749">
        <ele>607</ele>
        <time>2012-05-13T09:17:19Z</time>
      </trkpt>
      <trkpt lat="44.10405" lon="3.02754">
        <ele>607</ele>
        <time>2012-05-13T09:17:21Z</time>
      </trkpt>
      <trkpt lat="44.10407" lon="3.0276">
        <ele>607</ele>
        <time>2012-05-13T09:17:23Z</time>
      </trkpt>
      <trkpt lat="44.1041" lon="3.02766">
        <ele>607</ele>
        <time>2012-05-13T09:17:25Z</time>
      </trkpt>
      <trkpt lat="44.10413" lon="3.02771">
        <ele>607</ele>
        <time>2012-05-13T09:17:27Z</time>
      </trkpt>
      <trkpt lat="44.10415" lon="3.02777">
        <ele>607</ele>
        <time>2012-05-13T09:17:29Z</time>
      </trkpt>
      <trkpt lat="44.10418" lon="3.02783">
        <ele>607</ele>
        <time>2012-05-13T09:17:31Z</time>
      </trkpt>
      <trkpt lat="44.1042" lon="3.02788">
        <ele>607</ele>
        <time>2012-05-13T09:17:33Z</time>
      </trkpt>
      <trkpt lat="44.10422" lon="3.02794">
        <ele>608</ele>
        <time>2012-05-13T09:17:35Z</time>
      </trkpt>
      <trkpt lat="44.10424" lon="3.028">
        <ele>608</ele>
        <time>2012-05-13T09:17:37Z</time>
      </trkpt>
      <trkpt lat="44.10427" lon="3.02806">
        <ele>608</ele>
        <time>2012-05-13T09:17:39Z</time>
      </trkpt>
      <trkpt lat="44.10429" lon="3.02812">
        <ele>609</ele>
        <time>2012-05-13T09:17:41Z</time>
      </trkpt>
      <trkpt lat="44.10432" lon="3.02822">
        <ele>609</ele>
        <time>2012-05-13T09:17:43Z</time>
      </trkpt>
      <trkpt lat="44.10434" lon="3.02828">
        <ele>610</ele>
        <time>2012-05-13T09:17:45Z</time>
      </trkpt>
      <trkpt lat="44.10437" lon="3.02834">
        <ele>610</ele>
        <time>2012-05-13T09:17:47Z</time>
      </trkpt>
      <trkpt lat="44.10439" lon="3.02839">
        <ele>611</ele>
        <time>2012-05-13T09:17:49Z</time>
      </trkpt>
      <trkpt lat="44.10441" lon="3.02846">
        <ele>612</ele>
        <time>2012-05-13T09:17:51Z</time>
      </trkpt>
      <trkpt lat="44.10443" lon="3.02852">
        <ele>613</ele>
        <time>2012-05-13T09:17:53Z</time>
      </trkpt>
      <trkpt lat="44.10445" lon="3.02858">
        <ele>614</ele>
        <time>2012-05-13T09:17:55Z</time>
      </trkpt>
      <trkpt lat="44.10447" lon="3.02864">
        <ele>614</ele>
        <time>2012-05-13T09:17:57Z</time>
      </trkpt>
      <trkpt lat="44.10448" lon="3.0287">
        <ele>614</ele>
        <time>2012-05-13T09:17:59Z</time>
      </trkpt>
      <trkpt lat="44.1045" lon="3.02875">
        <ele>613</ele>
        <time>2012-05-13T09:18:01Z</time>
      </trkpt>
      <trkpt lat="44.10452" lon="3.02881">
        <ele>613</ele>
        <time>2012-05-13T09:18:03Z</time>
      </trkpt>
      <trkpt lat="44.10454" lon="3.02888">
        <ele>613</ele>
        <time>2012-05-13T09:18:05Z</time>
      </trkpt>
      <trkpt lat="44.10456" lon="3.02894">
        <ele>612</ele>
        <time>2012-05-13T09:18:07Z</time>
      </trkpt>
      <trkpt lat="44.10458" lon="3.02899">
        <ele>612</ele>
        <time>2012-05-13T09:18:09Z</time>
      </trkpt>
      <trkpt lat="44.10461" lon="3.02905">
        <ele>611</ele>
        <time>2012-05-13T09:18:11Z</time>
      </trkpt>
      <trkpt lat="44.10464" lon="3.02909">
        <ele>610</ele>
        <time>2012-05-13T09:18:13Z</time>
      </trkpt>
      <trkpt lat="44.10466" lon="3.02915">
        <ele>609</ele>
        <time>2012-05-13T09:18:15Z</time>
      </trkpt>
      <trkpt lat="44.10469" lon="3.02921">
        <ele>608</ele>
        <time>2012-05-13T09:18:17Z</time>
      </trkpt>
      <trkpt lat="44.10471" lon="3.02926">
        <ele>608</ele>
        <time>2012-05-13T09:18:19Z</time>
      </trkpt>
      <trkpt lat="44.10474" lon="3.02931">
        <ele>608</ele>
        <time>2012-05-13T09:18:21Z</time>
      </trkpt>
      <trkpt lat="44.10476" lon="3.02937">
        <ele>608</ele>
        <time>2012-05-13T09:18:23Z</time>
      </trkpt>
      <trkpt lat="44.10479" lon="3.02942">
        <ele>608</ele>
        <time>2012-05-13T09:18:25Z</time>
      </trkpt>
      <trkpt lat="44.10482" lon="3.02947">
        <ele>608</ele>
        <time>2012-05-13T09:18:27Z</time>
      </trkpt>
      <trkpt lat="44.10485" lon="3.02952">
        <ele>608</ele>
        <time>2012-05-13T09:18:29Z</time>
      </trkpt>
      <trkpt lat="44.10489" lon="3.02957">
        <ele>608</ele>
        <time>2012-05-13T09:18:31Z</time>
      </trkpt>
      <trkpt lat="44.10492" lon="3.02962">
        <ele>608</ele>
        <time>2012-05-13T09:18:34Z</time>
      </trkpt>
      <trkpt lat="44.10495" lon="3.02967">
        <ele>608</ele>
        <time>2012-05-13T09:18:36Z</time>
      </trkpt>
      <trkpt lat="44.10499" lon="3.02972">
        <ele>608</ele>
        <time>2012-05-13T09:18:38Z</time>
      </trkpt>
      <trkpt lat="44.10502" lon="3.02977">
        <ele>608</ele>
        <time>2012-05-13T09:18:40Z</time>
      </trkpt>
      <trkpt lat="44.10506" lon="3.02982">
        <ele>608</ele>
        <time>2012-05-13T09:18:42Z</time>
      </trkpt>
      <trkpt lat="44.10509" lon="3.02987">
        <ele>608</ele>
        <time>2012-05-13T09:18:44Z</time>
      </trkpt>
      <trkpt lat="44.10513" lon="3.02992">
        <ele>608</ele>
        <time>2012-05-13T09:18:46Z</time>
      </trkpt>
      <trkpt lat="44.10517" lon="3.02996">
        <ele>608</ele>
        <time>2012-05-13T09:18:48Z</time>
      </trkpt>
      <trkpt lat="44.10521" lon="3.03">
        <ele>608</ele>
        <time>2012-05-13T09:18:50Z</time>
      </trkpt>
      <trkpt lat="44.10524" lon="3.03005">
        <ele>608</ele>
        <time>2012-05-13T09:18:52Z</time>
      </trkpt>
      <trkpt lat="44.10528" lon="3.03009">
        <ele>608</ele>
        <time>2012-05-13T09:18:54Z</time>
      </trkpt>
      <trkpt lat="44.10533" lon="3.03015">
        <ele>608</ele>
        <time>2012-05-13T09:18:56Z</time>
      </trkpt>
      <trkpt lat="44.10537" lon="3.03019">
        <ele>607</ele>
        <time>2012-05-13T09:18:58Z</time>
      </trkpt>
      <trkpt lat="44.10541" lon="3.03022">
        <ele>607</ele>
        <time>2012-05-13T09:19:00Z</time>
      </trkpt>
      <trkpt lat="44.10545" lon="3.03026">
        <ele>607</ele>
        <time>2012-05-13T09:19:02Z</time>
      </trkpt>
      <trkpt lat="44.10549" lon="3.03029">
        <ele>607</ele>
        <time>2012-05-13T09:19:04Z</time>
      </trkpt>
      <trkpt lat="44.10553" lon="3.03032">
        <ele>607</ele>
        <time>2012-05-13T09:19:06Z</time>
      </trkpt>
      <trkpt lat="44.10558" lon="3.03033">
        <ele>607</ele>
        <time>2012-05-13T09:19:08Z</time>
      </trkpt>
      <trkpt lat="44.10561" lon="3.03036">
        <ele>607</ele>
        <time>2012-05-13T09:19:10Z</time>
      </trkpt>
      <trkpt lat="44.10566" lon="3.0304">
        <ele>607</ele>
        <time>2012-05-13T09:19:12Z</time>
      </trkpt>
      <trkpt lat="44.10569" lon="3.03043">
        <ele>607</ele>
        <time>2012-05-13T09:19:14Z</time>
      </trkpt>
      <trkpt lat="44.10573" lon="3.03045">
        <ele>607</ele>
        <time>2012-05-13T09:19:17Z</time>
      </trkpt>
      <trkpt lat="44.10577" lon="3.03047">
        <ele>606</ele>
        <time>2012-05-13T09:19:19Z</time>
      </trkpt>
      <trkpt lat="44.1058" lon="3.0305">
        <ele>606</ele>
        <time>2012-05-13T09:19:21Z</time>
      </trkpt>
      <trkpt lat="44.10584" lon="3.03052">
        <ele>605</ele>
        <time>2012-05-13T09:19:23Z</time>
      </trkpt>
      <trkpt lat="44.10588" lon="3.03054">
        <ele>605</ele>
        <time>2012-05-13T09:19:25Z</time>
      </trkpt>
      <trkpt lat="44.10592" lon="3.03056">
        <ele>604</ele>
        <time>2012-05-13T09:19:27Z</time>
      </trkpt>
      <trkpt lat="44.10596" lon="3.03058">
        <ele>604</ele>
        <time>2012-05-13T09:19:29Z</time>
      </trkpt>
      <trkpt lat="44.106" lon="3.0306">
        <ele>604</ele>
        <time>2012-05-13T09:19:31Z</time>
      </trkpt>
      <trkpt lat="44.10605" lon="3.03062">
        <ele>603</ele>
        <time>2012-05-13T09:19:33Z</time>
      </trkpt>
      <trkpt lat="44.10609" lon="3.03064">
        <ele>603</ele>
        <time>2012-05-13T09:19:35Z</time>
      </trkpt>
      <trkpt lat="44.10616" lon="3.03066">
        <ele>603</ele>
        <time>2012-05-13T09:19:37Z</time>
      </trkpt>
      <trkpt lat="44.1062" lon="3.03068">
        <ele>604</ele>
        <time>2012-05-13T09:19:39Z</time>
      </trkpt>
      <trkpt lat="44.10624" lon="3.0307">
        <ele>604</ele>
        <time>2012-05-13T09:19:41Z</time>
      </trkpt>
      <trkpt lat="44.10628" lon="3.03071">
        <ele>605</ele>
        <time>2012-05-13T09:19:43Z</time>
      </trkpt>
      <trkpt lat="44.10632" lon="3.03073">
        <ele>605</ele>
        <time>2012-05-13T09:19:45Z</time>
      </trkpt>
      <trkpt lat="44.10636" lon="3.03074">
        <ele>606</ele>
        <time>2012-05-13T09:19:47Z</time>
      </trkpt>
      <trkpt lat="44.1064" lon="3.03075">
        <ele>606</ele>
        <time>2012-05-13T09:19:49Z</time>
      </trkpt>
      <trkpt lat="44.10644" lon="3.03075">
        <ele>606</ele>
        <time>2012-05-13T09:19:51Z</time>
      </trkpt>
      <trkpt lat="44.10648" lon="3.03076">
        <ele>606</ele>
        <time>2012-05-13T09:19:53Z</time>
      </trkpt>
      <trkpt lat="44.10653" lon="3.03076">
        <ele>607</ele>
        <time>2012-05-13T09:19:56Z</time>
      </trkpt>
      <trkpt lat="44.10656" lon="3.03077">
        <ele>607</ele>
        <time>2012-05-13T09:19:58Z</time>
      </trkpt>
      <trkpt lat="44.10661" lon="3.03077">
        <ele>607</ele>
        <time>2012-05-13T09:20:00Z</time>
      </trkpt>
      <trkpt lat="44.10665" lon="3.03077">
        <ele>608</ele>
        <time>2012-05-13T09:20:02Z</time>
      </trkpt>
      <trkpt lat="44.10669" lon="3.03077">
        <ele>608</ele>
        <time>2012-05-13T09:20:04Z</time>
      </trkpt>
      <trkpt lat="44.10673" lon="3.03078">
        <ele>608</ele>
        <time>2012-05-13T09:20:06Z</time>
      </trkpt>
      <trkpt lat="44.10677" lon="3.03077">
        <ele>608</ele>
        <time>2012-05-13T09:20:08Z</time>
      </trkpt>
      <trkpt lat="44.10681" lon="3.03078">
        <ele>608</ele>
        <time>2012-05-13T09:20:10Z</time>
      </trkpt>
      <trkpt lat="44.10686" lon="3.03078">
        <ele>609</ele>
        <time>2012-05-13T09:20:12Z</time>
      </trkpt>
      <trkpt lat="44.1069" lon="3.03078">
        <ele>609</ele>
        <time>2012-05-13T09:20:14Z</time>
      </trkpt>
      <trkpt lat="44.10694" lon="3.03079">
        <ele>609</ele>
        <time>2012-05-13T09:20:16Z</time>
      </trkpt>
      <trkpt lat="44.107" lon="3.0308">
        <ele>611</ele>
        <time>2012-05-13T09:20:18Z</time>
      </trkpt>
      <trkpt lat="44.10704" lon="3.03081">
        <ele>611</ele>
        <time>2012-05-13T09:20:20Z</time>
      </trkpt>
      <trkpt lat="44.10708" lon="3.03082">
        <ele>612</ele>
        <time>2012-05-13T09:20:22Z</time>
      </trkpt>
      <trkpt lat="44.10712" lon="3.03084">
        <ele>612</ele>
        <time>2012-05-13T09:20:24Z</time>
      </trkpt>
      <trkpt lat="44.10716" lon="3.03086">
        <ele>612</ele>
        <time>2012-05-13T09:20:26Z</time>
      </trkpt>
      <trkpt lat="44.1072" lon="3.03089">
        <ele>612</ele>
        <time>2012-05-13T09:20:28Z</time>
      </trkpt>
      <trkpt lat="44.10723" lon="3.03092">
        <ele>612</ele>
        <time>2012-05-13T09:20:30Z</time>
      </trkpt>
      <trkpt lat="44.10727" lon="3.03095">
        <ele>613</ele>
        <time>2012-05-13T09:20:32Z</time>
      </trkpt>
      <trkpt lat="44.1073" lon="3.03099">
        <ele>613</ele>
        <time>2012-05-13T09:20:34Z</time>
      </trkpt>
      <trkpt lat="44.10732" lon="3.03103">
        <ele>614</ele>
        <time>2012-05-13T09:20:37Z</time>
      </trkpt>
      <trkpt lat="44.10733" lon="3.03109">
        <ele>614</ele>
        <time>2012-05-13T09:20:39Z</time>
      </trkpt>
      <trkpt lat="44.10733" lon="3.03116">
        <ele>613</ele>
        <time>2012-05-13T09:20:41Z</time>
      </trkpt>
      <trkpt lat="44.10731" lon="3.03122">
        <ele>613</ele>
        <time>2012-05-13T09:20:43Z</time>
      </trkpt>
      <trkpt lat="44.10729" lon="3.03129">
        <ele>613</ele>
        <time>2012-05-13T09:20:45Z</time>
      </trkpt>
      <trkpt lat="44.10727" lon="3.03135">
        <ele>612</ele>
        <time>2012-05-13T09:20:47Z</time>
      </trkpt>
      <trkpt lat="44.10726" lon="3.03141">
        <ele>612</ele>
        <time>2012-05-13T09:20:49Z</time>
      </trkpt>
      <trkpt lat="44.10724" lon="3.03148">
        <ele>612</ele>
        <time>2012-05-13T09:20:51Z</time>
      </trkpt>
      <trkpt lat="44.10722" lon="3.03154">
        <ele>612</ele>
        <time>2012-05-13T09:20:53Z</time>
      </trkpt>
      <trkpt lat="44.10719" lon="3.03165">
        <ele>613</ele>
        <time>2012-05-13T09:20:55Z</time>
      </trkpt>
      <trkpt lat="44.10717" lon="3.03171">
        <ele>613</ele>
        <time>2012-05-13T09:20:57Z</time>
      </trkpt>
      <trkpt lat="44.10714" lon="3.03178">
        <ele>613</ele>
        <time>2012-05-13T09:20:59Z</time>
      </trkpt>
      <trkpt lat="44.10712" lon="3.03185">
        <ele>614</ele>
        <time>2012-05-13T09:21:01Z</time>
      </trkpt>
      <trkpt lat="44.1071" lon="3.03191">
        <ele>614</ele>
        <time>2012-05-13T09:21:03Z</time>
      </trkpt>
      <trkpt lat="44.10707" lon="3.03197">
        <ele>614</ele>
        <time>2012-05-13T09:21:05Z</time>
      </trkpt>
      <trkpt lat="44.10704" lon="3.03204">
        <ele>613</ele>
        <time>2012-05-13T09:21:07Z</time>
      </trkpt>
      <trkpt lat="44.10703" lon="3.03211">
        <ele>613</ele>
        <time>2012-05-13T09:21:09Z</time>
      </trkpt>
      <trkpt lat="44.10701" lon="3.03218">
        <ele>613</ele>
        <time>2012-05-13T09:21:11Z</time>
      </trkpt>
      <trkpt lat="44.10699" lon="3.03224">
        <ele>613</ele>
        <time>2012-05-13T09:21:14Z</time>
      </trkpt>
      <trkpt lat="44.10697" lon="3.03231">
        <ele>613</ele>
        <time>2012-05-13T09:21:16Z</time>
      </trkpt>
      <trkpt lat="44.10695" lon="3.03238">
        <ele>614</ele>
        <time>2012-05-13T09:21:18Z</time>
      </trkpt>
      <trkpt lat="44.10693" lon="3.03245">
        <ele>614</ele>
        <time>2012-05-13T09:21:20Z</time>
      </trkpt>
      <trkpt lat="44.10691" lon="3.03252">
        <ele>613</ele>
        <time>2012-05-13T09:21:22Z</time>
      </trkpt>
      <trkpt lat="44.1069" lon="3.03258">
        <ele>613</ele>
        <time>2012-05-13T09:21:24Z</time>
      </trkpt>
      <trkpt lat="44.10689" lon="3.03265">
        <ele>613</ele>
        <time>2012-05-13T09:21:26Z</time>
      </trkpt>
      <trkpt lat="44.10687" lon="3.03272">
        <ele>613</ele>
        <time>2012-05-13T09:21:28Z</time>
      </trkpt>
      <trkpt lat="44.10686" lon="3.03278">
        <ele>613</ele>
        <time>2012-05-13T09:21:30Z</time>
      </trkpt>
      <trkpt lat="44.10683" lon="3.03285">
        <ele>613</ele>
        <time>2012-05-13T09:21:32Z</time>
      </trkpt>
      <trkpt lat="44.10682" lon="3.03292">
        <ele>612</ele>
        <time>2012-05-13T09:21:34Z</time>
      </trkpt>
      <trkpt lat="44.1068" lon="3.03303">
        <ele>612</ele>
        <time>2012-05-13T09:21:36Z</time>
      </trkpt>
      <trkpt lat="44.10678" lon="3.0331">
        <ele>612</ele>
        <time>2012-05-13T09:21:38Z</time>
      </trkpt>
      <trkpt lat="44.10676" lon="3.03317">
        <ele>612</ele>
        <time>2012-05-13T09:21:40Z</time>
      </trkpt>
      <trkpt lat="44.10674" lon="3.03323">
        <ele>611</ele>
        <time>2012-05-13T09:21:42Z</time>
      </trkpt>
      <trkpt lat="44.10672" lon="3.0333">
        <ele>611</ele>
        <time>2012-05-13T09:21:44Z</time>
      </trkpt>
      <trkpt lat="44.10669" lon="3.03337">
        <ele>610</ele>
        <time>2012-05-13T09:21:46Z</time>
      </trkpt>
      <trkpt lat="44.10667" lon="3.03344">
        <ele>610</ele>
        <time>2012-05-13T09:21:48Z</time>
      </trkpt>
      <trkpt lat="44.10664" lon="3.03351">
        <ele>609</ele>
        <time>2012-05-13T09:21:50Z</time>
      </trkpt>
      <trkpt lat="44.10661" lon="3.03358">
        <ele>609</ele>
        <time>2012-05-13T09:21:52Z</time>
      </trkpt>
      <trkpt lat="44.10658" lon="3.03365">
        <ele>609</ele>
        <time>2012-05-13T09:21:54Z</time>
      </trkpt>
      <trkpt lat="44.10656" lon="3.03372">
        <ele>608</ele>
        <time>2012-05-13T09:21:56Z</time>
      </trkpt>
      <trkpt lat="44.10654" lon="3.0338">
        <ele>608</ele>
        <time>2012-05-13T09:21:58Z</time>
      </trkpt>
      <trkpt lat="44.10653" lon="3.03387">
        <ele>608</ele>
        <time>2012-05-13T09:22:00Z</time>
      </trkpt>
      <trkpt lat="44.10651" lon="3.03395">
        <ele>608</ele>
        <time>2012-05-13T09:22:02Z</time>
      </trkpt>
      <trkpt lat="44.10648" lon="3.03402">
        <ele>608</ele>
        <time>2012-05-13T09:22:04Z</time>
      </trkpt>
      <trkpt lat="44.10646" lon="3.0341">
        <ele>608</ele>
        <time>2012-05-13T09:22:06Z</time>
      </trkpt>
      <trkpt lat="44.10643" lon="3.03417">
        <ele>608</ele>
        <time>2012-05-13T09:22:08Z</time>
      </trkpt>
      <trkpt lat="44.1064" lon="3.03424">
        <ele>607</ele>
        <time>2012-05-13T09:22:10Z</time>
      </trkpt>
      <trkpt lat="44.10638" lon="3.03432">
        <ele>607</ele>
        <time>2012-05-13T09:22:12Z</time>
      </trkpt>
      <trkpt lat="44.10635" lon="3.03439">
        <ele>607</ele>
        <time>2012-05-13T09:22:14Z</time>
      </trkpt>
      <trkpt lat="44.10633" lon="3.03446">
        <ele>607</ele>
        <time>2012-05-13T09:22:16Z</time>
      </trkpt>
      <trkpt lat="44.1063" lon="3.03453">
        <ele>606</ele>
        <time>2012-05-13T09:22:18Z</time>
      </trkpt>
      <trkpt lat="44.10627" lon="3.0346">
        <ele>606</ele>
        <time>2012-05-13T09:22:20Z</time>
      </trkpt>
      <trkpt lat="44.10625" lon="3.03468">
        <ele>605</ele>
        <time>2012-05-13T09:22:22Z</time>
      </trkpt>
      <trkpt lat="44.10623" lon="3.03475">
        <ele>605</ele>
        <time>2012-05-13T09:22:25Z</time>
      </trkpt>
      <trkpt lat="44.10622" lon="3.03481">
        <ele>604</ele>
        <time>2012-05-13T09:22:27Z</time>
      </trkpt>
      <trkpt lat="44.10621" lon="3.03487">
        <ele>604</ele>
        <time>2012-05-13T09:22:29Z</time>
      </trkpt>
      <trkpt lat="44.10619" lon="3.03494">
        <ele>604</ele>
        <time>2012-05-13T09:22:31Z</time>
      </trkpt>
      <trkpt lat="44.10618" lon="3.03501">
        <ele>604</ele>
        <time>2012-05-13T09:22:33Z</time>
      </trkpt>
      <trkpt lat="44.10616" lon="3.03507">
        <ele>604</ele>
        <time>2012-05-13T09:22:35Z</time>
      </trkpt>
      <trkpt lat="44.10614" lon="3.03514">
        <ele>603</ele>
        <time>2012-05-13T09:22:37Z</time>
      </trkpt>
      <trkpt lat="44.1061" lon="3.03519">
        <ele>603</ele>
        <time>2012-05-13T09:22:39Z</time>
      </trkpt>
      <trkpt lat="44.10606" lon="3.03525">
        <ele>602</ele>
        <time>2012-05-13T09:22:41Z</time>
      </trkpt>
      <trkpt lat="44.10602" lon="3.03529">
        <ele>602</ele>
        <time>2012-05-13T09:22:43Z</time>
      </trkpt>
      <trkpt lat="44.10598" lon="3.03534">
        <ele>602</ele>
        <time>2012-05-13T09:22:45Z</time>
      </trkpt>
      <trkpt lat="44.10594" lon="3.03539">
        <ele>602</ele>
        <time>2012-05-13T09:22:47Z</time>
      </trkpt>
      <trkpt lat="44.10589" lon="3.03544">
        <ele>601</ele>
        <time>2012-05-13T09:22:49Z</time>
      </trkpt>
      <trkpt lat="44.10585" lon="3.03549">
        <ele>601</ele>
        <time>2012-05-13T09:22:51Z</time>
      </trkpt>
      <trkpt lat="44.10581" lon="3.03553">
        <ele>601</ele>
        <time>2012-05-13T09:22:53Z</time>
      </trkpt>
      <trkpt lat="44.10577" lon="3.03558">
        <ele>601</ele>
        <time>2012-05-13T09:22:55Z</time>
      </trkpt>
      <trkpt lat="44.10573" lon="3.03562">
        <ele>601</ele>
        <time>2012-05-13T09:22:57Z</time>
      </trkpt>
      <trkpt lat="44.10569" lon="3.03566">
        <ele>600</ele>
        <time>2012-05-13T09:22:59Z</time>
      </trkpt>
      <trkpt lat="44.10565" lon="3.0357">
        <ele>600</ele>
        <time>2012-05-13T09:23:01Z</time>
      </trkpt>
      <trkpt lat="44.10561" lon="3.03574">
        <ele>600</ele>
        <time>2012-05-13T09:23:03Z</time>
      </trkpt>
      <trkpt lat="44.10558" lon="3.03578">
        <ele>601</ele>
        <time>2012-05-13T09:23:05Z</time>
      </trkpt>
      <trkpt lat="44.10552" lon="3.03584">
        <ele>601</ele>
        <time>2012-05-13T09:23:07Z</time>
      </trkpt>
      <trkpt lat="44.10548" lon="3.03587">
        <ele>602</ele>
        <time>2012-05-13T09:23:09Z</time>
      </trkpt>
      <trkpt lat="44.10544" lon="3.0359">
        <ele>602</ele>
        <time>2012-05-13T09:23:11Z</time>
      </trkpt>
      <trkpt lat="44.1054" lon="3.03592">
        <ele>603</ele>
        <time>2012-05-13T09:23:13Z</time>
      </trkpt>
      <trkpt lat="44.10537" lon="3.03595">
        <ele>603</ele>
        <time>2012-05-13T09:23:15Z</time>
      </trkpt>
      <trkpt lat="44.10532" lon="3.03597">
        <ele>604</ele>
        <time>2012-05-13T09:23:17Z</time>
      </trkpt>
      <trkpt lat="44.10529" lon="3.03598">
        <ele>604</ele>
        <time>2012-05-13T09:23:19Z</time>
      </trkpt>
      <trkpt lat="44.10524" lon="3.03601">
        <ele>604</ele>
        <time>2012-05-13T09:23:21Z</time>
      </trkpt>
      <trkpt lat="44.10519" lon="3.03603">
        <ele>604</ele>
        <time>2012-05-13T09:23:23Z</time>
      </trkpt>
      <trkpt lat="44.10515" lon="3.03604">
        <ele>605</ele>
        <time>2012-05-13T09:23:25Z</time>
      </trkpt>
      <trkpt lat="44.10511" lon="3.03605">
        <ele>605</ele>
        <time>2012-05-13T09:23:27Z</time>
      </trkpt>
      <trkpt lat="44.10506" lon="3.03606">
        <ele>605</ele>
        <time>2012-05-13T09:23:29Z</time>
      </trkpt>
      <trkpt lat="44.10502" lon="3.03607">
        <ele>605</ele>
        <time>2012-05-13T09:23:31Z</time>
      </trkpt>
      <trkpt lat="44.10498" lon="3.03608">
        <ele>605</ele>
        <time>2012-05-13T09:23:33Z</time>
      </trkpt>
      <trkpt lat="44.10493" lon="3.03609">
        <ele>605</ele>
        <time>2012-05-13T09:23:35Z</time>
      </trkpt>
      <trkpt lat="44.10489" lon="3.0361">
        <ele>605</ele>
        <time>2012-05-13T09:23:37Z</time>
      </trkpt>
      <trkpt lat="44.10485" lon="3.03611">
        <ele>605</ele>
        <time>2012-05-13T09:23:39Z</time>
      </trkpt>
      <trkpt lat="44.1048" lon="3.03612">
        <ele>604</ele>
        <time>2012-05-13T09:23:41Z</time>
      </trkpt>
      <trkpt lat="44.10476" lon="3.03614">
        <ele>603</ele>
        <time>2012-05-13T09:23:43Z</time>
      </trkpt>
      <trkpt lat="44.10471" lon="3.03614">
        <ele>602</ele>
        <time>2012-05-13T09:23:45Z</time>
      </trkpt>
      <trkpt lat="44.10467" lon="3.03614">
        <ele>601</ele>
        <time>2012-05-13T09:23:47Z</time>
      </trkpt>
      <trkpt lat="44.10461" lon="3.03614">
        <ele>600</ele>
        <time>2012-05-13T09:23:49Z</time>
      </trkpt>
      <trkpt lat="44.10456" lon="3.03615">
        <ele>599</ele>
        <time>2012-05-13T09:23:51Z</time>
      </trkpt>
      <trkpt lat="44.10452" lon="3.03616">
        <ele>598</ele>
        <time>2012-05-13T09:23:54Z</time>
      </trkpt>
      <trkpt lat="44.10447" lon="3.03617">
        <ele>598</ele>
        <time>2012-05-13T09:23:56Z</time>
      </trkpt>
      <trkpt lat="44.10443" lon="3.03618">
        <ele>598</ele>
        <time>2012-05-13T09:23:58Z</time>
      </trkpt>
      <trkpt lat="44.10438" lon="3.03619">
        <ele>597</ele>
        <time>2012-05-13T09:24:00Z</time>
      </trkpt>
      <trkpt lat="44.10432" lon="3.03619">
        <ele>597</ele>
        <time>2012-05-13T09:24:02Z</time>
      </trkpt>
      <trkpt lat="44.10428" lon="3.0362">
        <ele>597</ele>
        <time>2012-05-13T09:24:04Z</time>
      </trkpt>
      <trkpt lat="44.10423" lon="3.03621">
        <ele>597</ele>
        <time>2012-05-13T09:24:06Z</time>
      </trkpt>
      <trkpt lat="44.10418" lon="3.03622">
        <ele>596</ele>
        <time>2012-05-13T09:24:08Z</time>
      </trkpt>
      <trkpt lat="44.10413" lon="3.03623">
        <ele>596</ele>
        <time>2012-05-13T09:24:10Z</time>
      </trkpt>
      <trkpt lat="44.10409" lon="3.03623">
        <ele>596</ele>
        <time>2012-05-13T09:24:12Z</time>
      </trkpt>
      <trkpt lat="44.10403" lon="3.03624">
        <ele>596</ele>
        <time>2012-05-13T09:24:14Z</time>
      </trkpt>
      <trkpt lat="44.10399" lon="3.03625">
        <ele>596</ele>
        <time>2012-05-13T09:24:16Z</time>
      </trkpt>
      <trkpt lat="44.10394" lon="3.03625">
        <ele>596</ele>
        <time>2012-05-13T09:24:18Z</time>
      </trkpt>
      <trkpt lat="44.10389" lon="3.03626">
        <ele>595</ele>
        <time>2012-05-13T09:24:20Z</time>
      </trkpt>
      <trkpt lat="44.10384" lon="3.03626">
        <ele>595</ele>
        <time>2012-05-13T09:24:22Z</time>
      </trkpt>
      <trkpt lat="44.10379" lon="3.03627">
        <ele>594</ele>
        <time>2012-05-13T09:24:24Z</time>
      </trkpt>
      <trkpt lat="44.10374" lon="3.03627">
        <ele>594</ele>
        <time>2012-05-13T09:24:26Z</time>
      </trkpt>
      <trkpt lat="44.10369" lon="3.03628">
        <ele>593</ele>
        <time>2012-05-13T09:24:28Z</time>
      </trkpt>
      <trkpt lat="44.10365" lon="3.03628">
        <ele>593</ele>
        <time>2012-05-13T09:24:30Z</time>
      </trkpt>
      <trkpt lat="44.1036" lon="3.03629">
        <ele>592</ele>
        <time>2012-05-13T09:24:32Z</time>
      </trkpt>
      <trkpt lat="44.10356" lon="3.03631">
        <ele>592</ele>
        <time>2012-05-13T09:24:34Z</time>
      </trkpt>
      <trkpt lat="44.10351" lon="3.03632">
        <ele>591</ele>
        <time>2012-05-13T09:24:36Z</time>
      </trkpt>
      <trkpt lat="44.10346" lon="3.03633">
        <ele>590</ele>
        <time>2012-05-13T09:24:38Z</time>
      </trkpt>
      <trkpt lat="44.1034" lon="3.03635">
        <ele>589</ele>
        <time>2012-05-13T09:24:40Z</time>
      </trkpt>
      <trkpt lat="44.10333" lon="3.03638">
        <ele>589</ele>
        <time>2012-05-13T09:24:42Z</time>
      </trkpt>
      <trkpt lat="44.10328" lon="3.0364">
        <ele>589</ele>
        <time>2012-05-13T09:24:44Z</time>
      </trkpt>
      <trkpt lat="44.10323" lon="3.03642">
        <ele>589</ele>
        <time>2012-05-13T09:24:46Z</time>
      </trkpt>
      <trkpt lat="44.10318" lon="3.03644">
        <ele>588</ele>
        <time>2012-05-13T09:24:48Z</time>
      </trkpt>
      <trkpt lat="44.10312" lon="3.03645">
        <ele>588</ele>
        <time>2012-05-13T09:24:50Z</time>
      </trkpt>
      <trkpt lat="44.10307" lon="3.03647">
        <ele>587</ele>
        <time>2012-05-13T09:24:52Z</time>
      </trkpt>
      <trkpt lat="44.10302" lon="3.03649">
        <ele>586</ele>
        <time>2012-05-13T09:24:54Z</time>
      </trkpt>
      <trkpt lat="44.10297" lon="3.03651">
        <ele>586</ele>
        <time>2012-05-13T09:24:56Z</time>
      </trkpt>
      <trkpt lat="44.10292" lon="3.03655">
        <ele>585</ele>
        <time>2012-05-13T09:24:58Z</time>
      </trkpt>
      <trkpt lat="44.10286" lon="3.03657">
        <ele>584</ele>
        <time>2012-05-13T09:25:00Z</time>
      </trkpt>
      <trkpt lat="44.10281" lon="3.0366">
        <ele>584</ele>
        <time>2012-05-13T09:25:02Z</time>
      </trkpt>
      <trkpt lat="44.10276" lon="3.03662">
        <ele>584</ele>
        <time>2012-05-13T09:25:04Z</time>
      </trkpt>
      <trkpt lat="44.1027" lon="3.03663">
        <ele>584</ele>
        <time>2012-05-13T09:25:06Z</time>
      </trkpt>
      <trkpt lat="44.10265" lon="3.03664">
        <ele>584</ele>
        <time>2012-05-13T09:25:08Z</time>
      </trkpt>
      <trkpt lat="44.1026" lon="3.03664">
        <ele>583</ele>
        <time>2012-05-13T09:25:10Z</time>
      </trkpt>
      <trkpt lat="44.10256" lon="3.03664">
        <ele>583</ele>
        <time>2012-05-13T09:25:12Z</time>
      </trkpt>
      <trkpt lat="44.1025" lon="3.03664">
        <ele>582</ele>
        <time>2012-05-13T09:25:14Z</time>
      </trkpt>
      <trkpt lat="44.10246" lon="3.03663">
        <ele>582</ele>
        <time>2012-05-13T09:25:16Z</time>
      </trkpt>
      <trkpt lat="44.10241" lon="3.03662">
        <ele>582</ele>
        <time>2012-05-13T09:25:18Z</time>
      </trkpt>
      <trkpt lat="44.10237" lon="3.03662">
        <ele>581</ele>
        <time>2012-05-13T09:25:20Z</time>
      </trkpt>
      <trkpt lat="44.10232" lon="3.03661">
        <ele>581</ele>
        <time>2012-05-13T09:25:22Z</time>
      </trkpt>
      <trkpt lat="44.10227" lon="3.03662">
        <ele>581</ele>
        <time>2012-05-13T09:25:24Z</time>
      </trkpt>
      <trkpt lat="44.10221" lon="3.03663">
        <ele>581</ele>
        <time>2012-05-13T09:25:27Z</time>
      </trkpt>
      <trkpt lat="44.10216" lon="3.03665">
        <ele>581</ele>
        <time>2012-05-13T09:25:29Z</time>
      </trkpt>
      <trkpt lat="44.10211" lon="3.03669">
        <ele>581</ele>
        <time>2012-05-13T09:25:31Z</time>
      </trkpt>
      <trkpt lat="44.10207" lon="3.03674">
        <ele>581</ele>
        <time>2012-05-13T09:25:33Z</time>
      </trkpt>
      <trkpt lat="44.10204" lon="3.03679">
        <ele>581</ele>
        <time>2012-05-13T09:25:35Z</time>
      </trkpt>
      <trkpt lat="44.102" lon="3.03686">
        <ele>581</ele>
        <time>2012-05-13T09:25:37Z</time>
      </trkpt>
      <trkpt lat="44.10198" lon="3.03692">
        <ele>582</ele>
        <time>2012-05-13T09:25:39Z</time>
      </trkpt>
      <trkpt lat="44.10196" lon="3.03698">
        <ele>582</ele>
        <time>2012-05-13T09:25:41Z</time>
      </trkpt>
      <trkpt lat="44.10193" lon="3.03705">
        <ele>582</ele>
        <time>2012-05-13T09:25:43Z</time>
      </trkpt>
      <trkpt lat="44.10191" lon="3.03711">
        <ele>582</ele>
        <time>2012-05-13T09:25:45Z</time>
      </trkpt>
      <trkpt lat="44.10189" lon="3.03717">
        <ele>582</ele>
        <time>2012-05-13T09:25:47Z</time>
      </trkpt>
      <trkpt lat="44.10187" lon="3.03724">
        <ele>582</ele>
        <time>2012-05-13T09:25:49Z</time>
      </trkpt>
      <trkpt lat="44.10184" lon="3.0373">
        <ele>582</ele>
        <time>2012-05-13T09:25:51Z</time>
      </trkpt>
      <trkpt lat="44.10183" lon="3.03736">
        <ele>582</ele>
        <time>2012-05-13T09:25:53Z</time>
      </trkpt>
      <trkpt lat="44.1018" lon="3.03743">
        <ele>582</ele>
        <time>2012-05-13T09:25:55Z</time>
      </trkpt>
      <trkpt lat="44.10178" lon="3.03749">
        <ele>582</ele>
        <time>2012-05-13T09:25:57Z</time>
      </trkpt>
      <trkpt lat="44.10177" lon="3.03755">
        <ele>582</ele>
        <time>2012-05-13T09:25:59Z</time>
      </trkpt>
      <trkpt lat="44.10175" lon="3.03761">
        <ele>583</ele>
        <time>2012-05-13T09:26:01Z</time>
      </trkpt>
      <trkpt lat="44.10173" lon="3.03768">
        <ele>583</ele>
        <time>2012-05-13T09:26:03Z</time>
      </trkpt>
      <trkpt lat="44.10171" lon="3.03774">
        <ele>584</ele>
        <time>2012-05-13T09:26:05Z</time>
      </trkpt>
      <trkpt lat="44.10168" lon="3.0378">
        <ele>584</ele>
        <time>2012-05-13T09:26:07Z</time>
      </trkpt>
      <trkpt lat="44.10166" lon="3.03786">
        <ele>585</ele>
        <time>2012-05-13T09:26:09Z</time>
      </trkpt>
      <trkpt lat="44.10163" lon="3.03797">
        <ele>586</ele>
        <time>2012-05-13T09:26:11Z</time>
      </trkpt>
      <trkpt lat="44.10162" lon="3.038">
        <ele>586</ele>
        <time>2012-05-13T09:26:13Z</time>
      </trkpt>
      <trkpt lat="44.10158" lon="3.03811">
        <ele>586</ele>
        <time>2012-05-13T09:26:15Z</time>
      </trkpt>
      <trkpt lat="44.10156" lon="3.03818">
        <ele>586</ele>
        <time>2012-05-13T09:26:17Z</time>
      </trkpt>
      <trkpt lat="44.10154" lon="3.03826">
        <ele>585</ele>
        <time>2012-05-13T09:26:19Z</time>
      </trkpt>
      <trkpt lat="44.10152" lon="3.03834">
        <ele>585</ele>
        <time>2012-05-13T09:26:21Z</time>
      </trkpt>
      <trkpt lat="44.10152" lon="3.03842">
        <ele>584</ele>
        <time>2012-05-13T09:26:23Z</time>
      </trkpt>
      <trkpt lat="44.10153" lon="3.0385">
        <ele>584</ele>
        <time>2012-05-13T09:26:25Z</time>
      </trkpt>
      <trkpt lat="44.10154" lon="3.03857">
        <ele>583</ele>
        <time>2012-05-13T09:26:27Z</time>
      </trkpt>
      <trkpt lat="44.10157" lon="3.03865">
        <ele>583</ele>
        <time>2012-05-13T09:26:29Z</time>
      </trkpt>
      <trkpt lat="44.1016" lon="3.03871">
        <ele>583</ele>
        <time>2012-05-13T09:26:31Z</time>
      </trkpt>
      <trkpt lat="44.10164" lon="3.03876">
        <ele>583</ele>
        <time>2012-05-13T09:26:33Z</time>
      </trkpt>
      <trkpt lat="44.10168" lon="3.03882">
        <ele>582</ele>
        <time>2012-05-13T09:26:35Z</time>
      </trkpt>
      <trkpt lat="44.10172" lon="3.03887">
        <ele>582</ele>
        <time>2012-05-13T09:26:37Z</time>
      </trkpt>
      <trkpt lat="44.10176" lon="3.03892">
        <ele>581</ele>
        <time>2012-05-13T09:26:39Z</time>
      </trkpt>
      <trkpt lat="44.1018" lon="3.03898">
        <ele>581</ele>
        <time>2012-05-13T09:26:41Z</time>
      </trkpt>
      <trkpt lat="44.10184" lon="3.03902">
        <ele>580</ele>
        <time>2012-05-13T09:26:43Z</time>
      </trkpt>
      <trkpt lat="44.10188" lon="3.03907">
        <ele>579</ele>
        <time>2012-05-13T09:26:45Z</time>
      </trkpt>
      <trkpt lat="44.10193" lon="3.03911">
        <ele>579</ele>
        <time>2012-05-13T09:26:47Z</time>
      </trkpt>
      <trkpt lat="44.10197" lon="3.03915">
        <ele>578</ele>
        <time>2012-05-13T09:26:49Z</time>
      </trkpt>
      <trkpt lat="44.10202" lon="3.03917">
        <ele>577</ele>
        <time>2012-05-13T09:26:51Z</time>
      </trkpt>
      <trkpt lat="44.10207" lon="3.0392">
        <ele>576</ele>
        <time>2012-05-13T09:26:53Z</time>
      </trkpt>
      <trkpt lat="44.10212" lon="3.03923">
        <ele>575</ele>
        <time>2012-05-13T09:26:55Z</time>
      </trkpt>
      <trkpt lat="44.10218" lon="3.03926">
        <ele>575</ele>
        <time>2012-05-13T09:26:57Z</time>
      </trkpt>
      <trkpt lat="44.10223" lon="3.03929">
        <ele>574</ele>
        <time>2012-05-13T09:26:59Z</time>
      </trkpt>
      <trkpt lat="44.10228" lon="3.03931">
        <ele>573</ele>
        <time>2012-05-13T09:27:02Z</time>
      </trkpt>
      <trkpt lat="44.10233" lon="3.03935">
        <ele>573</ele>
        <time>2012-05-13T09:27:04Z</time>
      </trkpt>
      <trkpt lat="44.10239" lon="3.03938">
        <ele>572</ele>
        <time>2012-05-13T09:27:06Z</time>
      </trkpt>
      <trkpt lat="44.10244" lon="3.0394">
        <ele>571</ele>
        <time>2012-05-13T09:27:08Z</time>
      </trkpt>
      <trkpt lat="44.10249" lon="3.03942">
        <ele>571</ele>
        <time>2012-05-13T09:27:10Z</time>
      </trkpt>
      <trkpt lat="44.10255" lon="3.03945">
        <ele>571</ele>
        <time>2012-05-13T09:27:12Z</time>
      </trkpt>
      <trkpt lat="44.1026" lon="3.03949">
        <ele>570</ele>
        <time>2012-05-13T09:27:14Z</time>
      </trkpt>
      <trkpt lat="44.10263" lon="3.03953">
        <ele>570</ele>
        <time>2012-05-13T09:27:16Z</time>
      </trkpt>
      <trkpt lat="44.10268" lon="3.03958">
        <ele>570</ele>
        <time>2012-05-13T09:27:18Z</time>
      </trkpt>
      <trkpt lat="44.10273" lon="3.03963">
        <ele>570</ele>
        <time>2012-05-13T09:27:20Z</time>
      </trkpt>
      <trkpt lat="44.10277" lon="3.03967">
        <ele>570</ele>
        <time>2012-05-13T09:27:22Z</time>
      </trkpt>
      <trkpt lat="44.10281" lon="3.03972">
        <ele>570</ele>
        <time>2012-05-13T09:27:24Z</time>
      </trkpt>
      <trkpt lat="44.10285" lon="3.03976">
        <ele>570</ele>
        <time>2012-05-13T09:27:26Z</time>
      </trkpt>
      <trkpt lat="44.10289" lon="3.0398">
        <ele>570</ele>
        <time>2012-05-13T09:27:28Z</time>
      </trkpt>
      <trkpt lat="44.10293" lon="3.03984">
        <ele>570</ele>
        <time>2012-05-13T09:27:30Z</time>
      </trkpt>
      <trkpt lat="44.10297" lon="3.03988">
        <ele>570</ele>
        <time>2012-05-13T09:27:32Z</time>
      </trkpt>
      <trkpt lat="44.10302" lon="3.03991">
        <ele>570</ele>
        <time>2012-05-13T09:27:34Z</time>
      </trkpt>
      <trkpt lat="44.10307" lon="3.03993">
        <ele>569</ele>
        <time>2012-05-13T09:27:36Z</time>
      </trkpt>
      <trkpt lat="44.10312" lon="3.03995">
        <ele>569</ele>
        <time>2012-05-13T09:27:38Z</time>
      </trkpt>
      <trkpt lat="44.1032" lon="3.03998">
        <ele>568</ele>
        <time>2012-05-13T09:27:40Z</time>
      </trkpt>
      <trkpt lat="44.10326" lon="3.03999">
        <ele>568</ele>
        <time>2012-05-13T09:27:42Z</time>
      </trkpt>
      <trkpt lat="44.10331" lon="3.04">
        <ele>567</ele>
        <time>2012-05-13T09:27:44Z</time>
      </trkpt>
      <trkpt lat="44.10336" lon="3.04002">
        <ele>567</ele>
        <time>2012-05-13T09:27:46Z</time>
      </trkpt>
      <trkpt lat="44.10342" lon="3.04003">
        <ele>566</ele>
        <time>2012-05-13T09:27:48Z</time>
      </trkpt>
      <trkpt lat="44.10347" lon="3.04005">
        <ele>565</ele>
        <time>2012-05-13T09:27:50Z</time>
      </trkpt>
      <trkpt lat="44.10352" lon="3.04007">
        <ele>565</ele>
        <time>2012-05-13T09:27:52Z</time>
      </trkpt>
      <trkpt lat="44.10357" lon="3.04008">
        <ele>564</ele>
        <time>2012-05-13T09:27:54Z</time>
      </trkpt>
      <trkpt lat="44.10363" lon="3.0401">
        <ele>564</ele>
        <time>2012-05-13T09:27:56Z</time>
      </trkpt>
      <trkpt lat="44.10368" lon="3.04011">
        <ele>564</ele>
        <time>2012-05-13T09:27:58Z</time>
      </trkpt>
      <trkpt lat="44.10374" lon="3.04012">
        <ele>563</ele>
        <time>2012-05-13T09:28:00Z</time>
      </trkpt>
      <trkpt lat="44.10379" lon="3.04014">
        <ele>563</ele>
        <time>2012-05-13T09:28:02Z</time>
      </trkpt>
      <trkpt lat="44.10384" lon="3.04015">
        <ele>562</ele>
        <time>2012-05-13T09:28:04Z</time>
      </trkpt>
      <trkpt lat="44.10389" lon="3.04017">
        <ele>562</ele>
        <time>2012-05-13T09:28:06Z</time>
      </trkpt>
      <trkpt lat="44.10394" lon="3.04018">
        <ele>561</ele>
        <time>2012-05-13T09:28:08Z</time>
      </trkpt>
      <trkpt lat="44.10399" lon="3.04019">
        <ele>561</ele>
        <time>2012-05-13T09:28:10Z</time>
      </trkpt>
      <trkpt lat="44.10404" lon="3.0402">
        <ele>560</ele>
        <time>2012-05-13T09:28:12Z</time>
      </trkpt>
      <trkpt lat="44.1041" lon="3.04022">
        <ele>560</ele>
        <time>2012-05-13T09:28:14Z</time>
      </trkpt>
      <trkpt lat="44.10416" lon="3.04023">
        <ele>559</ele>
        <time>2012-05-13T09:28:16Z</time>
      </trkpt>
      <trkpt lat="44.10421" lon="3.04025">
        <ele>558</ele>
        <time>2012-05-13T09:28:18Z</time>
      </trkpt>
      <trkpt lat="44.10426" lon="3.04026">
        <ele>557</ele>
        <time>2012-05-13T09:28:20Z</time>
      </trkpt>
      <trkpt lat="44.10432" lon="3.04028">
        <ele>556</ele>
        <time>2012-05-13T09:28:22Z</time>
      </trkpt>
      <trkpt lat="44.10437" lon="3.0403">
        <ele>555</ele>
        <time>2012-05-13T09:28:24Z</time>
      </trkpt>
      <trkpt lat="44.10442" lon="3.04033">
        <ele>555</ele>
        <time>2012-05-13T09:28:26Z</time>
      </trkpt>
      <trkpt lat="44.10447" lon="3.04036">
        <ele>554</ele>
        <time>2012-05-13T09:28:28Z</time>
      </trkpt>
      <trkpt lat="44.10452" lon="3.0404">
        <ele>553</ele>
        <time>2012-05-13T09:28:31Z</time>
      </trkpt>
      <trkpt lat="44.10456" lon="3.04044">
        <ele>553</ele>
        <time>2012-05-13T09:28:33Z</time>
      </trkpt>
      <trkpt lat="44.1046" lon="3.04048">
        <ele>553</ele>
        <time>2012-05-13T09:28:35Z</time>
      </trkpt>
      <trkpt lat="44.10464" lon="3.04053">
        <ele>553</ele>
        <time>2012-05-13T09:28:37Z</time>
      </trkpt>
      <trkpt lat="44.10468" lon="3.04059">
        <ele>553</ele>
        <time>2012-05-13T09:28:39Z</time>
      </trkpt>
      <trkpt lat="44.10472" lon="3.04065">
        <ele>552</ele>
        <time>2012-05-13T09:28:41Z</time>
      </trkpt>
      <trkpt lat="44.10475" lon="3.04072">
        <ele>551</ele>
        <time>2012-05-13T09:28:43Z</time>
      </trkpt>
      <trkpt lat="44.10477" lon="3.04079">
        <ele>550</ele>
        <time>2012-05-13T09:28:45Z</time>
      </trkpt>
      <trkpt lat="44.10479" lon="3.04087">
        <ele>549</ele>
        <time>2012-05-13T09:28:47Z</time>
      </trkpt>
      <trkpt lat="44.1048" lon="3.04095">
        <ele>549</ele>
        <time>2012-05-13T09:28:49Z</time>
      </trkpt>
      <trkpt lat="44.10481" lon="3.04102">
        <ele>549</ele>
        <time>2012-05-13T09:28:51Z</time>
      </trkpt>
      <trkpt lat="44.10482" lon="3.0411">
        <ele>549</ele>
        <time>2012-05-13T09:28:53Z</time>
      </trkpt>
      <trkpt lat="44.10485" lon="3.04116">
        <ele>549</ele>
        <time>2012-05-13T09:28:55Z</time>
      </trkpt>
      <trkpt lat="44.10486" lon="3.04124">
        <ele>549</ele>
        <time>2012-05-13T09:28:57Z</time>
      </trkpt>
      <trkpt lat="44.10488" lon="3.04132">
        <ele>549</ele>
        <time>2012-05-13T09:28:59Z</time>
      </trkpt>
      <trkpt lat="44.10491" lon="3.04138">
        <ele>549</ele>
        <time>2012-05-13T09:29:01Z</time>
      </trkpt>
      <trkpt lat="44.10494" lon="3.04145">
        <ele>548</ele>
        <time>2012-05-13T09:29:03Z</time>
      </trkpt>
      <trkpt lat="44.10498" lon="3.04151">
        <ele>548</ele>
        <time>2012-05-13T09:29:05Z</time>
      </trkpt>
      <trkpt lat="44.10502" lon="3.04156">
        <ele>547</ele>
        <time>2012-05-13T09:29:07Z</time>
      </trkpt>
      <trkpt lat="44.10507" lon="3.0416">
        <ele>547</ele>
        <time>2012-05-13T09:29:09Z</time>
      </trkpt>
      <trkpt lat="44.10512" lon="3.04163">
        <ele>546</ele>
        <time>2012-05-13T09:29:11Z</time>
      </trkpt>
      <trkpt lat="44.10519" lon="3.04168">
        <ele>546</ele>
        <time>2012-05-13T09:29:13Z</time>
      </trkpt>
      <trkpt lat="44.10524" lon="3.04171">
        <ele>546</ele>
        <time>2012-05-13T09:29:15Z</time>
      </trkpt>
      <trkpt lat="44.10529" lon="3.04173">
        <ele>546</ele>
        <time>2012-05-13T09:29:17Z</time>
      </trkpt>
      <trkpt lat="44.10534" lon="3.04175">
        <ele>545</ele>
        <time>2012-05-13T09:29:19Z</time>
      </trkpt>
      <trkpt lat="44.1054" lon="3.04177">
        <ele>545</ele>
        <time>2012-05-13T09:29:21Z</time>
      </trkpt>
      <trkpt lat="44.10545" lon="3.0418">
        <ele>545</ele>
        <time>2012-05-13T09:29:23Z</time>
      </trkpt>
      <trkpt lat="44.1055" lon="3.04183">
        <ele>545</ele>
        <time>2012-05-13T09:29:25Z</time>
      </trkpt>
      <trkpt lat="44.10555" lon="3.04186">
        <ele>545</ele>
        <time>2012-05-13T09:29:27Z</time>
      </trkpt>
      <trkpt lat="44.10561" lon="3.04188">
        <ele>546</ele>
        <time>2012-05-13T09:29:29Z</time>
      </trkpt>
      <trkpt lat="44.10566" lon="3.04191">
        <ele>545</ele>
        <time>2012-05-13T09:29:31Z</time>
      </trkpt>
      <trkpt lat="44.10572" lon="3.04194">
        <ele>545</ele>
        <time>2012-05-13T09:29:33Z</time>
      </trkpt>
      <trkpt lat="44.10577" lon="3.04197">
        <ele>544</ele>
        <time>2012-05-13T09:29:35Z</time>
      </trkpt>
      <trkpt lat="44.10582" lon="3.042">
        <ele>543</ele>
        <time>2012-05-13T09:29:37Z</time>
      </trkpt>
      <trkpt lat="44.10587" lon="3.04202">
        <ele>543</ele>
        <time>2012-05-13T09:29:39Z</time>
      </trkpt>
      <trkpt lat="44.10592" lon="3.04205">
        <ele>542</ele>
        <time>2012-05-13T09:29:41Z</time>
      </trkpt>
      <trkpt lat="44.10597" lon="3.04207">
        <ele>541</ele>
        <time>2012-05-13T09:29:43Z</time>
      </trkpt>
      <trkpt lat="44.10602" lon="3.0421">
        <ele>540</ele>
        <time>2012-05-13T09:29:45Z</time>
      </trkpt>
      <trkpt lat="44.10606" lon="3.04213">
        <ele>539</ele>
        <time>2012-05-13T09:29:47Z</time>
      </trkpt>
      <trkpt lat="44.10611" lon="3.04216">
        <ele>539</ele>
        <time>2012-05-13T09:29:49Z</time>
      </trkpt>
      <trkpt lat="44.10616" lon="3.04219">
        <ele>539</ele>
        <time>2012-05-13T09:29:51Z</time>
      </trkpt>
      <trkpt lat="44.10621" lon="3.04221">
        <ele>539</ele>
        <time>2012-05-13T09:29:53Z</time>
      </trkpt>
      <trkpt lat="44.10626" lon="3.04224">
        <ele>538</ele>
        <time>2012-05-13T09:29:55Z</time>
      </trkpt>
      <trkpt lat="44.10631" lon="3.04227">
        <ele>538</ele>
        <time>2012-05-13T09:29:57Z</time>
      </trkpt>
      <trkpt lat="44.10637" lon="3.0423">
        <ele>538</ele>
        <time>2012-05-13T09:29:59Z</time>
      </trkpt>
      <trkpt lat="44.10641" lon="3.04232">
        <ele>537</ele>
        <time>2012-05-13T09:30:01Z</time>
      </trkpt>
      <trkpt lat="44.10647" lon="3.04234">
        <ele>536</ele>
        <time>2012-05-13T09:30:04Z</time>
      </trkpt>
      <trkpt lat="44.10652" lon="3.04235">
        <ele>535</ele>
        <time>2012-05-13T09:30:06Z</time>
      </trkpt>
      <trkpt lat="44.10657" lon="3.04237">
        <ele>535</ele>
        <time>2012-05-13T09:30:08Z</time>
      </trkpt>
      <trkpt lat="44.10662" lon="3.04238">
        <ele>534</ele>
        <time>2012-05-13T09:30:10Z</time>
      </trkpt>
      <trkpt lat="44.10668" lon="3.04237">
        <ele>534</ele>
        <time>2012-05-13T09:30:12Z</time>
      </trkpt>
      <trkpt lat="44.10673" lon="3.04234">
        <ele>533</ele>
        <time>2012-05-13T09:30:14Z</time>
      </trkpt>
      <trkpt lat="44.10677" lon="3.04231">
        <ele>533</ele>
        <time>2012-05-13T09:30:16Z</time>
      </trkpt>
      <trkpt lat="44.10681" lon="3.04227">
        <ele>532</ele>
        <time>2012-05-13T09:30:18Z</time>
      </trkpt>
      <trkpt lat="44.10685" lon="3.04223">
        <ele>531</ele>
        <time>2012-05-13T09:30:20Z</time>
      </trkpt>
      <trkpt lat="44.1069" lon="3.0422">
        <ele>530</ele>
        <time>2012-05-13T09:30:22Z</time>
      </trkpt>
      <trkpt lat="44.10694" lon="3.04223">
        <ele>529</ele>
        <time>2012-05-13T09:30:24Z</time>
      </trkpt>
      <trkpt lat="44.10696" lon="3.0423">
        <ele>529</ele>
        <time>2012-05-13T09:30:26Z</time>
      </trkpt>
      <trkpt lat="44.10695" lon="3.04238">
        <ele>528</ele>
        <time>2012-05-13T09:30:28Z</time>
      </trkpt>
      <trkpt lat="44.10693" lon="3.04245">
        <ele>528</ele>
        <time>2012-05-13T09:30:30Z</time>
      </trkpt>
      <trkpt lat="44.10691" lon="3.04253">
        <ele>527</ele>
        <time>2012-05-13T09:30:32Z</time>
      </trkpt>
      <trkpt lat="44.10689" lon="3.04261">
        <ele>527</ele>
        <time>2012-05-13T09:30:34Z</time>
      </trkpt>
      <trkpt lat="44.10687" lon="3.04268">
        <ele>526</ele>
        <time>2012-05-13T09:30:36Z</time>
      </trkpt>
      <trkpt lat="44.10685" lon="3.04275">
        <ele>526</ele>
        <time>2012-05-13T09:30:38Z</time>
      </trkpt>
      <trkpt lat="44.10683" lon="3.04282">
        <ele>526</ele>
        <time>2012-05-13T09:30:40Z</time>
      </trkpt>
      <trkpt lat="44.1068" lon="3.04289">
        <ele>525</ele>
        <time>2012-05-13T09:30:42Z</time>
      </trkpt>
      <trkpt lat="44.10677" lon="3.04296">
        <ele>525</ele>
        <time>2012-05-13T09:30:44Z</time>
      </trkpt>
      <trkpt lat="44.10672" lon="3.04305">
        <ele>525</ele>
        <time>2012-05-13T09:30:46Z</time>
      </trkpt>
      <trkpt lat="44.10668" lon="3.04311">
        <ele>524</ele>
        <time>2012-05-13T09:30:48Z</time>
      </trkpt>
      <trkpt lat="44.10664" lon="3.04316">
        <ele>524</ele>
        <time>2012-05-13T09:30:50Z</time>
      </trkpt>
      <trkpt lat="44.10659" lon="3.04321">
        <ele>524</ele>
        <time>2012-05-13T09:30:52Z</time>
      </trkpt>
      <trkpt lat="44.10654" lon="3.04326">
        <ele>523</ele>
        <time>2012-05-13T09:30:54Z</time>
      </trkpt>
      <trkpt lat="44.10649" lon="3.0433">
        <ele>523</ele>
        <time>2012-05-13T09:30:56Z</time>
      </trkpt>
      <trkpt lat="44.10645" lon="3.04334">
        <ele>523</ele>
        <time>2012-05-13T09:30:58Z</time>
      </trkpt>
      <trkpt lat="44.10641" lon="3.04338">
        <ele>523</ele>
        <time>2012-05-13T09:31:00Z</time>
      </trkpt>
      <trkpt lat="44.10636" lon="3.04342">
        <ele>522</ele>
        <time>2012-05-13T09:31:02Z</time>
      </trkpt>
      <trkpt lat="44.10632" lon="3.04346">
        <ele>522</ele>
        <time>2012-05-13T09:31:04Z</time>
      </trkpt>
      <trkpt lat="44.10626" lon="3.04351">
        <ele>522</ele>
        <time>2012-05-13T09:31:06Z</time>
      </trkpt>
      <trkpt lat="44.10621" lon="3.04354">
        <ele>522</ele>
        <time>2012-05-13T09:31:08Z</time>
      </trkpt>
      <trkpt lat="44.10617" lon="3.04358">
        <ele>522</ele>
        <time>2012-05-13T09:31:10Z</time>
      </trkpt>
      <trkpt lat="44.10612" lon="3.04361">
        <ele>522</ele>
        <time>2012-05-13T09:31:12Z</time>
      </trkpt>
      <trkpt lat="44.10607" lon="3.04364">
        <ele>522</ele>
        <time>2012-05-13T09:31:14Z</time>
      </trkpt>
      <trkpt lat="44.10602" lon="3.04367">
        <ele>522</ele>
        <time>2012-05-13T09:31:16Z</time>
      </trkpt>
      <trkpt lat="44.10598" lon="3.04369">
        <ele>522</ele>
        <time>2012-05-13T09:31:18Z</time>
      </trkpt>
      <trkpt lat="44.10593" lon="3.0437">
        <ele>522</ele>
        <time>2012-05-13T09:31:20Z</time>
      </trkpt>
      <trkpt lat="44.10589" lon="3.04371">
        <ele>522</ele>
        <time>2012-05-13T09:31:22Z</time>
      </trkpt>
      <trkpt lat="44.10584" lon="3.04373">
        <ele>522</ele>
        <time>2012-05-13T09:31:24Z</time>
      </trkpt>
      <trkpt lat="44.10578" lon="3.04374">
        <ele>522</ele>
        <time>2012-05-13T09:31:26Z</time>
      </trkpt>
      <trkpt lat="44.10574" lon="3.04374">
        <ele>522</ele>
        <time>2012-05-13T09:31:28Z</time>
      </trkpt>
      <trkpt lat="44.10569" lon="3.04375">
        <ele>521</ele>
        <time>2012-05-13T09:31:30Z</time>
      </trkpt>
      <trkpt lat="44.10564" lon="3.04376">
        <ele>521</ele>
        <time>2012-05-13T09:31:32Z</time>
      </trkpt>
      <trkpt lat="44.10559" lon="3.04378">
        <ele>520</ele>
        <time>2012-05-13T09:31:34Z</time>
      </trkpt>
      <trkpt lat="44.10554" lon="3.0438">
        <ele>519</ele>
        <time>2012-05-13T09:31:37Z</time>
      </trkpt>
      <trkpt lat="44.10549" lon="3.04381">
        <ele>519</ele>
        <time>2012-05-13T09:31:39Z</time>
      </trkpt>
      <trkpt lat="44.10544" lon="3.04383">
        <ele>518</ele>
        <time>2012-05-13T09:31:41Z</time>
      </trkpt>
      <trkpt lat="44.1054" lon="3.04385">
        <ele>518</ele>
        <time>2012-05-13T09:31:43Z</time>
      </trkpt>
      <trkpt lat="44.10535" lon="3.04388">
        <ele>519</ele>
        <time>2012-05-13T09:31:45Z</time>
      </trkpt>
      <trkpt lat="44.1053" lon="3.0439">
        <ele>519</ele>
        <time>2012-05-13T09:31:47Z</time>
      </trkpt>
      <trkpt lat="44.10526" lon="3.04393">
        <ele>519</ele>
        <time>2012-05-13T09:31:49Z</time>
      </trkpt>
      <trkpt lat="44.10521" lon="3.04396">
        <ele>519</ele>
        <time>2012-05-13T09:31:51Z</time>
      </trkpt>
      <trkpt lat="44.10518" lon="3.04398">
        <ele>520</ele>
        <time>2012-05-13T09:31:53Z</time>
      </trkpt>
      <trkpt lat="44.10514" lon="3.04401">
        <ele>520</ele>
        <time>2012-05-13T09:31:55Z</time>
      </trkpt>
      <trkpt lat="44.10509" lon="3.04403">
        <ele>521</ele>
        <time>2012-05-13T09:31:57Z</time>
      </trkpt>
      <trkpt lat="44.10505" lon="3.04406">
        <ele>521</ele>
        <time>2012-05-13T09:31:59Z</time>
      </trkpt>
      <trkpt lat="44.10502" lon="3.04408">
        <ele>522</ele>
        <time>2012-05-13T09:32:01Z</time>
      </trkpt>
      <trkpt lat="44.10498" lon="3.04412">
        <ele>523</ele>
        <time>2012-05-13T09:32:03Z</time>
      </trkpt>
      <trkpt lat="44.10493" lon="3.04415">
        <ele>523</ele>
        <time>2012-05-13T09:32:05Z</time>
      </trkpt>
      <trkpt lat="44.1049" lon="3.04417">
        <ele>524</ele>
        <time>2012-05-13T09:32:07Z</time>
      </trkpt>
      <trkpt lat="44.10487" lon="3.04419">
        <ele>525</ele>
        <time>2012-05-13T09:32:09Z</time>
      </trkpt>
      <trkpt lat="44.10484" lon="3.04421">
        <ele>526</ele>
        <time>2012-05-13T09:32:11Z</time>
      </trkpt>
      <trkpt lat="44.1048" lon="3.04423">
        <ele>526</ele>
        <time>2012-05-13T09:32:13Z</time>
      </trkpt>
      <trkpt lat="44.10477" lon="3.04427">
        <ele>526</ele>
        <time>2012-05-13T09:32:15Z</time>
      </trkpt>
      <trkpt lat="44.10473" lon="3.0443">
        <ele>527</ele>
        <time>2012-05-13T09:32:17Z</time>
      </trkpt>
      <trkpt lat="44.1047" lon="3.04433">
        <ele>527</ele>
        <time>2012-05-13T09:32:19Z</time>
      </trkpt>
      <trkpt lat="44.10466" lon="3.0444">
        <ele>528</ele>
        <time>2012-05-13T09:32:21Z</time>
      </trkpt>
      <trkpt lat="44.10462" lon="3.04443">
        <ele>529</ele>
        <time>2012-05-13T09:32:23Z</time>
      </trkpt>
      <trkpt lat="44.10459" lon="3.04448">
        <ele>530</ele>
        <time>2012-05-13T09:32:25Z</time>
      </trkpt>
      <trkpt lat="44.10457" lon="3.04452">
        <ele>531</ele>
        <time>2012-05-13T09:32:27Z</time>
      </trkpt>
      <trkpt lat="44.10454" lon="3.04456">
        <ele>531</ele>
        <time>2012-05-13T09:32:29Z</time>
      </trkpt>
      <trkpt lat="44.10451" lon="3.04461">
        <ele>532</ele>
        <time>2012-05-13T09:32:31Z</time>
      </trkpt>
      <trkpt lat="44.10448" lon="3.04467">
        <ele>532</ele>
        <time>2012-05-13T09:32:33Z</time>
      </trkpt>
      <trkpt lat="44.10446" lon="3.04472">
        <ele>533</ele>
        <time>2012-05-13T09:32:35Z</time>
      </trkpt>
      <trkpt lat="44.10443" lon="3.04478">
        <ele>533</ele>
        <time>2012-05-13T09:32:37Z</time>
      </trkpt>
      <trkpt lat="44.1044" lon="3.04483">
        <ele>533</ele>
        <time>2012-05-13T09:32:39Z</time>
      </trkpt>
      <trkpt lat="44.10437" lon="3.04488">
        <ele>533</ele>
        <time>2012-05-13T09:32:41Z</time>
      </trkpt>
      <trkpt lat="44.10435" lon="3.04493">
        <ele>532</ele>
        <time>2012-05-13T09:32:43Z</time>
      </trkpt>
      <trkpt lat="44.10432" lon="3.04498">
        <ele>531</ele>
        <time>2012-05-13T09:32:45Z</time>
      </trkpt>
      <trkpt lat="44.1043" lon="3.04504">
        <ele>531</ele>
        <time>2012-05-13T09:32:47Z</time>
      </trkpt>
      <trkpt lat="44.10427" lon="3.0451">
        <ele>531</ele>
        <time>2012-05-13T09:32:49Z</time>
      </trkpt>
      <trkpt lat="44.10424" lon="3.04515">
        <ele>530</ele>
        <time>2012-05-13T09:32:51Z</time>
      </trkpt>
      <trkpt lat="44.10422" lon="3.04521">
        <ele>530</ele>
        <time>2012-05-13T09:32:53Z</time>
      </trkpt>
      <trkpt lat="44.10419" lon="3.04526">
        <ele>530</ele>
        <time>2012-05-13T09:32:55Z</time>
      </trkpt>
      <trkpt lat="44.10416" lon="3.04533">
        <ele>530</ele>
        <time>2012-05-13T09:32:57Z</time>
      </trkpt>
      <trkpt lat="44.10413" lon="3.04539">
        <ele>530</ele>
        <time>2012-05-13T09:32:59Z</time>
      </trkpt>
      <trkpt lat="44.1041" lon="3.04545">
        <ele>529</ele>
        <time>2012-05-13T09:33:01Z</time>
      </trkpt>
      <trkpt lat="44.10408" lon="3.04551">
        <ele>529</ele>
        <time>2012-05-13T09:33:03Z</time>
      </trkpt>
      <trkpt lat="44.10405" lon="3.04557">
        <ele>528</ele>
        <time>2012-05-13T09:33:05Z</time>
      </trkpt>
      <trkpt lat="44.10402" lon="3.04564">
        <ele>528</ele>
        <time>2012-05-13T09:33:08Z</time>
      </trkpt>
      <trkpt lat="44.104" lon="3.04571">
        <ele>527</ele>
        <time>2012-05-13T09:33:10Z</time>
      </trkpt>
      <trkpt lat="44.10397" lon="3.04577">
        <ele>527</ele>
        <time>2012-05-13T09:33:12Z</time>
      </trkpt>
      <trkpt lat="44.10395" lon="3.04585">
        <ele>527</ele>
        <time>2012-05-13T09:33:14Z</time>
      </trkpt>
      <trkpt lat="44.10393" lon="3.04591">
        <ele>526</ele>
        <time>2012-05-13T09:33:16Z</time>
      </trkpt>
      <trkpt lat="44.10392" lon="3.04598">
        <ele>526</ele>
        <time>2012-05-13T09:33:18Z</time>
      </trkpt>
      <trkpt lat="44.10391" lon="3.04605">
        <ele>526</ele>
        <time>2012-05-13T09:33:20Z</time>
      </trkpt>
      <trkpt lat="44.10389" lon="3.04612">
        <ele>526</ele>
        <time>2012-05-13T09:33:22Z</time>
      </trkpt>
      <trkpt lat="44.10389" lon="3.0462">
        <ele>525</ele>
        <time>2012-05-13T09:33:24Z</time>
      </trkpt>
      <trkpt lat="44.10388" lon="3.04626">
        <ele>524</ele>
        <time>2012-05-13T09:33:26Z</time>
      </trkpt>
      <trkpt lat="44.10387" lon="3.04634">
        <ele>524</ele>
        <time>2012-05-13T09:33:28Z</time>
      </trkpt>
      <trkpt lat="44.10387" lon="3.04642">
        <ele>523</ele>
        <time>2012-05-13T09:33:30Z</time>
      </trkpt>
      <trkpt lat="44.10387" lon="3.04648">
        <ele>523</ele>
        <time>2012-05-13T09:33:32Z</time>
      </trkpt>
      <trkpt lat="44.10387" lon="3.04656">
        <ele>523</ele>
        <time>2012-05-13T09:33:34Z</time>
      </trkpt>
      <trkpt lat="44.10387" lon="3.04663">
        <ele>523</ele>
        <time>2012-05-13T09:33:36Z</time>
      </trkpt>
      <trkpt lat="44.10387" lon="3.04671">
        <ele>522</ele>
        <time>2012-05-13T09:33:38Z</time>
      </trkpt>
      <trkpt lat="44.10387" lon="3.04678">
        <ele>522</ele>
        <time>2012-05-13T09:33:40Z</time>
      </trkpt>
      <trkpt lat="44.10386" lon="3.04685">
        <ele>522</ele>
        <time>2012-05-13T09:33:42Z</time>
      </trkpt>
      <trkpt lat="44.10386" lon="3.04693">
        <ele>522</ele>
        <time>2012-05-13T09:33:44Z</time>
      </trkpt>
      <trkpt lat="44.10387" lon="3.04701">
        <ele>522</ele>
        <time>2012-05-13T09:33:46Z</time>
      </trkpt>
      <trkpt lat="44.10387" lon="3.04708">
        <ele>522</ele>
        <time>2012-05-13T09:33:48Z</time>
      </trkpt>
      <trkpt lat="44.10387" lon="3.04716">
        <ele>522</ele>
        <time>2012-05-13T09:33:50Z</time>
      </trkpt>
      <trkpt lat="44.10388" lon="3.04724">
        <ele>522</ele>
        <time>2012-05-13T09:33:52Z</time>
      </trkpt>
      <trkpt lat="44.10389" lon="3.04732">
        <ele>521</ele>
        <time>2012-05-13T09:33:54Z</time>
      </trkpt>
      <trkpt lat="44.10389" lon="3.04744">
        <ele>521</ele>
        <time>2012-05-13T09:33:56Z</time>
      </trkpt>
      <trkpt lat="44.10389" lon="3.04752">
        <ele>520</ele>
        <time>2012-05-13T09:33:58Z</time>
      </trkpt>
      <trkpt lat="44.10389" lon="3.0476">
        <ele>520</ele>
        <time>2012-05-13T09:34:00Z</time>
      </trkpt>
      <trkpt lat="44.10389" lon="3.04768">
        <ele>519</ele>
        <time>2012-05-13T09:34:02Z</time>
      </trkpt>
      <trkpt lat="44.10388" lon="3.04776">
        <ele>519</ele>
        <time>2012-05-13T09:34:04Z</time>
      </trkpt>
      <trkpt lat="44.10387" lon="3.04784">
        <ele>519</ele>
        <time>2012-05-13T09:34:06Z</time>
      </trkpt>
      <trkpt lat="44.10386" lon="3.04792">
        <ele>518</ele>
        <time>2012-05-13T09:34:08Z</time>
      </trkpt>
      <trkpt lat="44.10385" lon="3.048">
        <ele>518</ele>
        <time>2012-05-13T09:34:10Z</time>
      </trkpt>
      <trkpt lat="44.10384" lon="3.04807">
        <ele>518</ele>
        <time>2012-05-13T09:34:12Z</time>
      </trkpt>
      <trkpt lat="44.10383" lon="3.04815">
        <ele>517</ele>
        <time>2012-05-13T09:34:14Z</time>
      </trkpt>
      <trkpt lat="44.10382" lon="3.04822">
        <ele>517</ele>
        <time>2012-05-13T09:34:16Z</time>
      </trkpt>
      <trkpt lat="44.10381" lon="3.0483">
        <ele>517</ele>
        <time>2012-05-13T09:34:18Z</time>
      </trkpt>
      <trkpt lat="44.10381" lon="3.04837">
        <ele>516</ele>
        <time>2012-05-13T09:34:20Z</time>
      </trkpt>
      <trkpt lat="44.1038" lon="3.04845">
        <ele>516</ele>
        <time>2012-05-13T09:34:22Z</time>
      </trkpt>
      <trkpt lat="44.10379" lon="3.04852">
        <ele>515</ele>
        <time>2012-05-13T09:34:24Z</time>
      </trkpt>
      <trkpt lat="44.10378" lon="3.0486">
        <ele>515</ele>
        <time>2012-05-13T09:34:26Z</time>
      </trkpt>
      <trkpt lat="44.10377" lon="3.04868">
        <ele>514</ele>
        <time>2012-05-13T09:34:28Z</time>
      </trkpt>
      <trkpt lat="44.10376" lon="3.04875">
        <ele>514</ele>
        <time>2012-05-13T09:34:30Z</time>
      </trkpt>
      <trkpt lat="44.10375" lon="3.04883">
        <ele>513</ele>
        <time>2012-05-13T09:34:32Z</time>
      </trkpt>
      <trkpt lat="44.10374" lon="3.04891">
        <ele>512</ele>
        <time>2012-05-13T09:34:34Z</time>
      </trkpt>
      <trkpt lat="44.10372" lon="3.04899">
        <ele>511</ele>
        <time>2012-05-13T09:34:36Z</time>
      </trkpt>
      <trkpt lat="44.10371" lon="3.04907">
        <ele>511</ele>
        <time>2012-05-13T09:34:38Z</time>
      </trkpt>
      <trkpt lat="44.10369" lon="3.04914">
        <ele>510</ele>
        <time>2012-05-13T09:34:40Z</time>
      </trkpt>
      <trkpt lat="44.10368" lon="3.04921">
        <ele>509</ele>
        <time>2012-05-13T09:34:42Z</time>
      </trkpt>
      <trkpt lat="44.10366" lon="3.04928">
        <ele>508</ele>
        <time>2012-05-13T09:34:44Z</time>
      </trkpt>
      <trkpt lat="44.10364" lon="3.04936">
        <ele>508</ele>
        <time>2012-05-13T09:34:47Z</time>
      </trkpt>
      <trkpt lat="44.10362" lon="3.04943">
        <ele>508</ele>
        <time>2012-05-13T09:34:49Z</time>
      </trkpt>
      <trkpt lat="44.1036" lon="3.0495">
        <ele>508</ele>
        <time>2012-05-13T09:34:51Z</time>
      </trkpt>
      <trkpt lat="44.10358" lon="3.04957">
        <ele>508</ele>
        <time>2012-05-13T09:34:53Z</time>
      </trkpt>
      <trkpt lat="44.10357" lon="3.04964">
        <ele>507</ele>
        <time>2012-05-13T09:34:55Z</time>
      </trkpt>
      <trkpt lat="44.10354" lon="3.04971">
        <ele>507</ele>
        <time>2012-05-13T09:34:57Z</time>
      </trkpt>
      <trkpt lat="44.10352" lon="3.04978">
        <ele>506</ele>
        <time>2012-05-13T09:34:59Z</time>
      </trkpt>
      <trkpt lat="44.10349" lon="3.04985">
        <ele>505</ele>
        <time>2012-05-13T09:35:01Z</time>
      </trkpt>
      <trkpt lat="44.10347" lon="3.04993">
        <ele>504</ele>
        <time>2012-05-13T09:35:03Z</time>
      </trkpt>
      <trkpt lat="44.10344" lon="3.05001">
        <ele>503</ele>
        <time>2012-05-13T09:35:05Z</time>
      </trkpt>
      <trkpt lat="44.10342" lon="3.05008">
        <ele>503</ele>
        <time>2012-05-13T09:35:07Z</time>
      </trkpt>
      <trkpt lat="44.1034" lon="3.05014">
        <ele>502</ele>
        <time>2012-05-13T09:35:09Z</time>
      </trkpt>
      <trkpt lat="44.10337" lon="3.05021">
        <ele>501</ele>
        <time>2012-05-13T09:35:11Z</time>
      </trkpt>
      <trkpt lat="44.10334" lon="3.05028">
        <ele>501</ele>
        <time>2012-05-13T09:35:13Z</time>
      </trkpt>
      <trkpt lat="44.10331" lon="3.05035">
        <ele>500</ele>
        <time>2012-05-13T09:35:15Z</time>
      </trkpt>
      <trkpt lat="44.10328" lon="3.05042">
        <ele>499</ele>
        <time>2012-05-13T09:35:17Z</time>
      </trkpt>
      <trkpt lat="44.10326" lon="3.05049">
        <ele>498</ele>
        <time>2012-05-13T09:35:19Z</time>
      </trkpt>
      <trkpt lat="44.10323" lon="3.05056">
        <ele>497</ele>
        <time>2012-05-13T09:35:21Z</time>
      </trkpt>
      <trkpt lat="44.10321" lon="3.05064">
        <ele>497</ele>
        <time>2012-05-13T09:35:23Z</time>
      </trkpt>
      <trkpt lat="44.1032" lon="3.05071">
        <ele>497</ele>
        <time>2012-05-13T09:35:25Z</time>
      </trkpt>
      <trkpt lat="44.10318" lon="3.05079">
        <ele>497</ele>
        <time>2012-05-13T09:35:27Z</time>
      </trkpt>
      <trkpt lat="44.10314" lon="3.05089">
        <ele>496</ele>
        <time>2012-05-13T09:35:29Z</time>
      </trkpt>
      <trkpt lat="44.10312" lon="3.05097">
        <ele>495</ele>
        <time>2012-05-13T09:35:31Z</time>
      </trkpt>
      <trkpt lat="44.1031" lon="3.05104">
        <ele>494</ele>
        <time>2012-05-13T09:35:33Z</time>
      </trkpt>
      <trkpt lat="44.10309" lon="3.05112">
        <ele>493</ele>
        <time>2012-05-13T09:35:35Z</time>
      </trkpt>
      <trkpt lat="44.10307" lon="3.05118">
        <ele>493</ele>
        <time>2012-05-13T09:35:37Z</time>
      </trkpt>
      <trkpt lat="44.10305" lon="3.05124">
        <ele>492</ele>
        <time>2012-05-13T09:35:39Z</time>
      </trkpt>
      <trkpt lat="44.10303" lon="3.05131">
        <ele>491</ele>
        <time>2012-05-13T09:35:41Z</time>
      </trkpt>
      <trkpt lat="44.10302" lon="3.05139">
        <ele>490</ele>
        <time>2012-05-13T09:35:43Z</time>
      </trkpt>
      <trkpt lat="44.103" lon="3.05147">
        <ele>490</ele>
        <time>2012-05-13T09:35:45Z</time>
      </trkpt>
      <trkpt lat="44.10298" lon="3.05154">
        <ele>489</ele>
        <time>2012-05-13T09:35:47Z</time>
      </trkpt>
      <trkpt lat="44.10296" lon="3.05163">
        <ele>488</ele>
        <time>2012-05-13T09:35:49Z</time>
      </trkpt>
      <trkpt lat="44.10295" lon="3.05171">
        <ele>486</ele>
        <time>2012-05-13T09:35:51Z</time>
      </trkpt>
      <trkpt lat="44.10295" lon="3.0518">
        <ele>485</ele>
        <time>2012-05-13T09:35:53Z</time>
      </trkpt>
      <trkpt lat="44.10296" lon="3.05189">
        <ele>482</ele>
        <time>2012-05-13T09:35:55Z</time>
      </trkpt>
      <trkpt lat="44.10297" lon="3.05198">
        <ele>480</ele>
        <time>2012-05-13T09:35:57Z</time>
      </trkpt>
      <trkpt lat="44.10297" lon="3.05206">
        <ele>478</ele>
        <time>2012-05-13T09:35:59Z</time>
      </trkpt>
      <trkpt lat="44.10297" lon="3.05215">
        <ele>476</ele>
        <time>2012-05-13T09:36:01Z</time>
      </trkpt>
      <trkpt lat="44.10296" lon="3.05223">
        <ele>475</ele>
        <time>2012-05-13T09:36:03Z</time>
      </trkpt>
      <trkpt lat="44.10295" lon="3.05231">
        <ele>474</ele>
        <time>2012-05-13T09:36:05Z</time>
      </trkpt>
      <trkpt lat="44.10293" lon="3.05239">
        <ele>473</ele>
        <time>2012-05-13T09:36:07Z</time>
      </trkpt>
      <trkpt lat="44.10291" lon="3.05246">
        <ele>473</ele>
        <time>2012-05-13T09:36:09Z</time>
      </trkpt>
      <trkpt lat="44.10288" lon="3.05254">
        <ele>473</ele>
        <time>2012-05-13T09:36:11Z</time>
      </trkpt>
      <trkpt lat="44.10286" lon="3.05261">
        <ele>473</ele>
        <time>2012-05-13T09:36:13Z</time>
      </trkpt>
      <trkpt lat="44.10283" lon="3.05267">
        <ele>472</ele>
        <time>2012-05-13T09:36:15Z</time>
      </trkpt>
      <trkpt lat="44.1028" lon="3.05274">
        <ele>472</ele>
        <time>2012-05-13T09:36:18Z</time>
      </trkpt>
      <trkpt lat="44.10278" lon="3.05281">
        <ele>472</ele>
        <time>2012-05-13T09:36:20Z</time>
      </trkpt>
      <trkpt lat="44.10275" lon="3.05289">
        <ele>472</ele>
        <time>2012-05-13T09:36:22Z</time>
      </trkpt>
      <trkpt lat="44.10273" lon="3.05297">
        <ele>471</ele>
        <time>2012-05-13T09:36:24Z</time>
      </trkpt>
      <trkpt lat="44.10271" lon="3.05305">
        <ele>471</ele>
        <time>2012-05-13T09:36:26Z</time>
      </trkpt>
      <trkpt lat="44.10269" lon="3.05313">
        <ele>471</ele>
        <time>2012-05-13T09:36:28Z</time>
      </trkpt>
      <trkpt lat="44.10266" lon="3.05321">
        <ele>470</ele>
        <time>2012-05-13T09:36:30Z</time>
      </trkpt>
      <trkpt lat="44.10264" lon="3.05328">
        <ele>470</ele>
        <time>2012-05-13T09:36:32Z</time>
      </trkpt>
      <trkpt lat="44.10261" lon="3.05336">
        <ele>469</ele>
        <time>2012-05-13T09:36:34Z</time>
      </trkpt>
      <trkpt lat="44.10258" lon="3.05343">
        <ele>468</ele>
        <time>2012-05-13T09:36:36Z</time>
      </trkpt>
      <trkpt lat="44.10255" lon="3.0535">
        <ele>468</ele>
        <time>2012-05-13T09:36:38Z</time>
      </trkpt>
      <trkpt lat="44.10251" lon="3.05357">
        <ele>467</ele>
        <time>2012-05-13T09:36:40Z</time>
      </trkpt>
      <trkpt lat="44.10249" lon="3.05364">
        <ele>466</ele>
        <time>2012-05-13T09:36:42Z</time>
      </trkpt>
      <trkpt lat="44.10246" lon="3.05372">
        <ele>466</ele>
        <time>2012-05-13T09:36:44Z</time>
      </trkpt>
      <trkpt lat="44.10243" lon="3.05379">
        <ele>466</ele>
        <time>2012-05-13T09:36:46Z</time>
      </trkpt>
      <trkpt lat="44.1024" lon="3.05386">
        <ele>466</ele>
        <time>2012-05-13T09:36:48Z</time>
      </trkpt>
      <trkpt lat="44.10238" lon="3.05392">
        <ele>465</ele>
        <time>2012-05-13T09:36:50Z</time>
      </trkpt>
      <trkpt lat="44.10236" lon="3.05399">
        <ele>465</ele>
        <time>2012-05-13T09:36:52Z</time>
      </trkpt>
      <trkpt lat="44.10232" lon="3.05406">
        <ele>464</ele>
        <time>2012-05-13T09:36:54Z</time>
      </trkpt>
      <trkpt lat="44.1023" lon="3.05412">
        <ele>464</ele>
        <time>2012-05-13T09:36:56Z</time>
      </trkpt>
      <trkpt lat="44.10226" lon="3.05418">
        <ele>464</ele>
        <time>2012-05-13T09:36:58Z</time>
      </trkpt>
      <trkpt lat="44.10223" lon="3.05425">
        <ele>463</ele>
        <time>2012-05-13T09:37:00Z</time>
      </trkpt>
      <trkpt lat="44.1022" lon="3.05432">
        <ele>463</ele>
        <time>2012-05-13T09:37:02Z</time>
      </trkpt>
      <trkpt lat="44.10215" lon="3.05441">
        <ele>463</ele>
        <time>2012-05-13T09:37:04Z</time>
      </trkpt>
      <trkpt lat="44.10212" lon="3.05447">
        <ele>462</ele>
        <time>2012-05-13T09:37:06Z</time>
      </trkpt>
      <trkpt lat="44.10209" lon="3.05452">
        <ele>462</ele>
        <time>2012-05-13T09:37:08Z</time>
      </trkpt>
      <trkpt lat="44.10206" lon="3.05458">
        <ele>461</ele>
        <time>2012-05-13T09:37:10Z</time>
      </trkpt>
      <trkpt lat="44.10202" lon="3.05464">
        <ele>461</ele>
        <time>2012-05-13T09:37:12Z</time>
      </trkpt>
      <trkpt lat="44.10199" lon="3.0547">
        <ele>461</ele>
        <time>2012-05-13T09:37:14Z</time>
      </trkpt>
      <trkpt lat="44.10195" lon="3.05476">
        <ele>460</ele>
        <time>2012-05-13T09:37:16Z</time>
      </trkpt>
      <trkpt lat="44.10191" lon="3.05481">
        <ele>460</ele>
        <time>2012-05-13T09:37:18Z</time>
      </trkpt>
      <trkpt lat="44.10188" lon="3.05486">
        <ele>460</ele>
        <time>2012-05-13T09:37:20Z</time>
      </trkpt>
      <trkpt lat="44.10185" lon="3.05491">
        <ele>460</ele>
        <time>2012-05-13T09:37:22Z</time>
      </trkpt>
      <trkpt lat="44.10181" lon="3.05497">
        <ele>460</ele>
        <time>2012-05-13T09:37:24Z</time>
      </trkpt>
      <trkpt lat="44.10177" lon="3.05502">
        <ele>460</ele>
        <time>2012-05-13T09:37:26Z</time>
      </trkpt>
      <trkpt lat="44.10173" lon="3.05507">
        <ele>460</ele>
        <time>2012-05-13T09:37:28Z</time>
      </trkpt>
      <trkpt lat="44.1017" lon="3.05512">
        <ele>460</ele>
        <time>2012-05-13T09:37:30Z</time>
      </trkpt>
      <trkpt lat="44.10167" lon="3.05518">
        <ele>460</ele>
        <time>2012-05-13T09:37:32Z</time>
      </trkpt>
      <trkpt lat="44.10163" lon="3.05523">
        <ele>460</ele>
        <time>2012-05-13T09:37:34Z</time>
      </trkpt>
      <trkpt lat="44.10159" lon="3.05529">
        <ele>461</ele>
        <time>2012-05-13T09:37:36Z</time>
      </trkpt>
      <trkpt lat="44.10155" lon="3.05534">
        <ele>460</ele>
        <time>2012-05-13T09:37:38Z</time>
      </trkpt>
      <trkpt lat="44.10152" lon="3.0554">
        <ele>460</ele>
        <time>2012-05-13T09:37:41Z</time>
      </trkpt>
      <trkpt lat="44.10148" lon="3.05546">
        <ele>459</ele>
        <time>2012-05-13T09:37:43Z</time>
      </trkpt>
      <trkpt lat="44.10144" lon="3.05552">
        <ele>458</ele>
        <time>2012-05-13T09:37:45Z</time>
      </trkpt>
      <trkpt lat="44.1014" lon="3.05557">
        <ele>458</ele>
        <time>2012-05-13T09:37:47Z</time>
      </trkpt>
      <trkpt lat="44.10136" lon="3.05562">
        <ele>458</ele>
        <time>2012-05-13T09:37:49Z</time>
      </trkpt>
      <trkpt lat="44.10132" lon="3.05567">
        <ele>458</ele>
        <time>2012-05-13T09:37:51Z</time>
      </trkpt>
      <trkpt lat="44.10129" lon="3.05572">
        <ele>458</ele>
        <time>2012-05-13T09:37:53Z</time>
      </trkpt>
      <trkpt lat="44.10125" lon="3.05577">
        <ele>457</ele>
        <time>2012-05-13T09:37:55Z</time>
      </trkpt>
      <trkpt lat="44.10122" lon="3.05583">
        <ele>457</ele>
        <time>2012-05-13T09:37:57Z</time>
      </trkpt>
      <trkpt lat="44.10117" lon="3.05592">
        <ele>457</ele>
        <time>2012-05-13T09:37:59Z</time>
      </trkpt>
      <trkpt lat="44.10114" lon="3.05599">
        <ele>457</ele>
        <time>2012-05-13T09:38:01Z</time>
      </trkpt>
      <trkpt lat="44.10111" lon="3.05605">
        <ele>457</ele>
        <time>2012-05-13T09:38:03Z</time>
      </trkpt>
      <trkpt lat="44.10108" lon="3.05611">
        <ele>457</ele>
        <time>2012-05-13T09:38:05Z</time>
      </trkpt>
      <trkpt lat="44.10105" lon="3.05618">
        <ele>457</ele>
        <time>2012-05-13T09:38:07Z</time>
      </trkpt>
      <trkpt lat="44.10102" lon="3.05624">
        <ele>457</ele>
        <time>2012-05-13T09:38:09Z</time>
      </trkpt>
      <trkpt lat="44.101" lon="3.0563">
        <ele>456</ele>
        <time>2012-05-13T09:38:11Z</time>
      </trkpt>
      <trkpt lat="44.10098" lon="3.05636">
        <ele>456</ele>
        <time>2012-05-13T09:38:13Z</time>
      </trkpt>
      <trkpt lat="44.10095" lon="3.05642">
        <ele>456</ele>
        <time>2012-05-13T09:38:15Z</time>
      </trkpt>
      <trkpt lat="44.10092" lon="3.05649">
        <ele>456</ele>
        <time>2012-05-13T09:38:17Z</time>
      </trkpt>
      <trkpt lat="44.10089" lon="3.05656">
        <ele>456</ele>
        <time>2012-05-13T09:38:20Z</time>
      </trkpt>
      <trkpt lat="44.10086" lon="3.05662">
        <ele>456</ele>
        <time>2012-05-13T09:38:22Z</time>
      </trkpt>
      <trkpt lat="44.10083" lon="3.05669">
        <ele>456</ele>
        <time>2012-05-13T09:38:24Z</time>
      </trkpt>
      <trkpt lat="44.1008" lon="3.05675">
        <ele>455</ele>
        <time>2012-05-13T09:38:26Z</time>
      </trkpt>
      <trkpt lat="44.10077" lon="3.05682">
        <ele>455</ele>
        <time>2012-05-13T09:38:28Z</time>
      </trkpt>
      <trkpt lat="44.10074" lon="3.05689">
        <ele>455</ele>
        <time>2012-05-13T09:38:30Z</time>
      </trkpt>
      <trkpt lat="44.10071" lon="3.05695">
        <ele>454</ele>
        <time>2012-05-13T09:38:32Z</time>
      </trkpt>
      <trkpt lat="44.10068" lon="3.05701">
        <ele>454</ele>
        <time>2012-05-13T09:38:34Z</time>
      </trkpt>
      <trkpt lat="44.10064" lon="3.05709">
        <ele>454</ele>
        <time>2012-05-13T09:38:36Z</time>
      </trkpt>
      <trkpt lat="44.10061" lon="3.05715">
        <ele>453</ele>
        <time>2012-05-13T09:38:38Z</time>
      </trkpt>
      <trkpt lat="44.10057" lon="3.05721">
        <ele>453</ele>
        <time>2012-05-13T09:38:40Z</time>
      </trkpt>
      <trkpt lat="44.10053" lon="3.05728">
        <ele>452</ele>
        <time>2012-05-13T09:38:42Z</time>
      </trkpt>
      <trkpt lat="44.1005" lon="3.05735">
        <ele>451</ele>
        <time>2012-05-13T09:38:44Z</time>
      </trkpt>
      <trkpt lat="44.10048" lon="3.05742">
        <ele>451</ele>
        <time>2012-05-13T09:38:46Z</time>
      </trkpt>
      <trkpt lat="44.10046" lon="3.05749">
        <ele>451</ele>
        <time>2012-05-13T09:38:48Z</time>
      </trkpt>
      <trkpt lat="44.10045" lon="3.05757">
        <ele>450</ele>
        <time>2012-05-13T09:38:50Z</time>
      </trkpt>
      <trkpt lat="44.10044" lon="3.05765">
        <ele>450</ele>
        <time>2012-05-13T09:38:52Z</time>
      </trkpt>
      <trkpt lat="44.10044" lon="3.05773">
        <ele>450</ele>
        <time>2012-05-13T09:38:54Z</time>
      </trkpt>
      <trkpt lat="44.10043" lon="3.05781">
        <ele>451</ele>
        <time>2012-05-13T09:38:56Z</time>
      </trkpt>
      <trkpt lat="44.10043" lon="3.05789">
        <ele>451</ele>
        <time>2012-05-13T09:38:58Z</time>
      </trkpt>
      <trkpt lat="44.10043" lon="3.05796">
        <ele>451</ele>
        <time>2012-05-13T09:39:00Z</time>
      </trkpt>
      <trkpt lat="44.10042" lon="3.05803">
        <ele>451</ele>
        <time>2012-05-13T09:39:02Z</time>
      </trkpt>
      <trkpt lat="44.10041" lon="3.05811">
        <ele>451</ele>
        <time>2012-05-13T09:39:04Z</time>
      </trkpt>
      <trkpt lat="44.10041" lon="3.05822">
        <ele>450</ele>
        <time>2012-05-13T09:39:06Z</time>
      </trkpt>
      <trkpt lat="44.1004" lon="3.05829">
        <ele>450</ele>
        <time>2012-05-13T09:39:08Z</time>
      </trkpt>
      <trkpt lat="44.1004" lon="3.05837">
        <ele>450</ele>
        <time>2012-05-13T09:39:10Z</time>
      </trkpt>
      <trkpt lat="44.1004" lon="3.05845">
        <ele>449</ele>
        <time>2012-05-13T09:39:12Z</time>
      </trkpt>
      <trkpt lat="44.1004" lon="3.05852">
        <ele>448</ele>
        <time>2012-05-13T09:39:14Z</time>
      </trkpt>
      <trkpt lat="44.1004" lon="3.05859">
        <ele>448</ele>
        <time>2012-05-13T09:39:16Z</time>
      </trkpt>
      <trkpt lat="44.10041" lon="3.05867">
        <ele>448</ele>
        <time>2012-05-13T09:39:18Z</time>
      </trkpt>
      <trkpt lat="44.1004" lon="3.05874">
        <ele>447</ele>
        <time>2012-05-13T09:39:20Z</time>
      </trkpt>
      <trkpt lat="44.10041" lon="3.05882">
        <ele>447</ele>
        <time>2012-05-13T09:39:22Z</time>
      </trkpt>
      <trkpt lat="44.10042" lon="3.05889">
        <ele>446</ele>
        <time>2012-05-13T09:39:24Z</time>
      </trkpt>
      <trkpt lat="44.10042" lon="3.05897">
        <ele>445</ele>
        <time>2012-05-13T09:39:26Z</time>
      </trkpt>
      <trkpt lat="44.10042" lon="3.05904">
        <ele>445</ele>
        <time>2012-05-13T09:39:28Z</time>
      </trkpt>
      <trkpt lat="44.10041" lon="3.05912">
        <ele>445</ele>
        <time>2012-05-13T09:39:30Z</time>
      </trkpt>
      <trkpt lat="44.10041" lon="3.0592">
        <ele>445</ele>
        <time>2012-05-13T09:39:32Z</time>
      </trkpt>
      <trkpt lat="44.10041" lon="3.05927">
        <ele>445</ele>
        <time>2012-05-13T09:39:34Z</time>
      </trkpt>
      <trkpt lat="44.10041" lon="3.05935">
        <ele>445</ele>
        <time>2012-05-13T09:39:36Z</time>
      </trkpt>
      <trkpt lat="44.10041" lon="3.05942">
        <ele>445</ele>
        <time>2012-05-13T09:39:38Z</time>
      </trkpt>
      <trkpt lat="44.1004" lon="3.0595">
        <ele>444</ele>
        <time>2012-05-13T09:39:40Z</time>
      </trkpt>
      <trkpt lat="44.1004" lon="3.05958">
        <ele>444</ele>
        <time>2012-05-13T09:39:42Z</time>
      </trkpt>
      <trkpt lat="44.10039" lon="3.05965">
        <ele>443</ele>
        <time>2012-05-13T09:39:44Z</time>
      </trkpt>
      <trkpt lat="44.10038" lon="3.05973">
        <ele>443</ele>
        <time>2012-05-13T09:39:46Z</time>
      </trkpt>
      <trkpt lat="44.10038" lon="3.05981">
        <ele>442</ele>
        <time>2012-05-13T09:39:48Z</time>
      </trkpt>
      <trkpt lat="44.10037" lon="3.05989">
        <ele>442</ele>
        <time>2012-05-13T09:39:50Z</time>
      </trkpt>
      <trkpt lat="44.10037" lon="3.05996">
        <ele>442</ele>
        <time>2012-05-13T09:39:53Z</time>
      </trkpt>
      <trkpt lat="44.10036" lon="3.06004">
        <ele>441</ele>
        <time>2012-05-13T09:39:55Z</time>
      </trkpt>
      <trkpt lat="44.10036" lon="3.06011">
        <ele>441</ele>
        <time>2012-05-13T09:39:57Z</time>
      </trkpt>
      <trkpt lat="44.10035" lon="3.06017">
        <ele>440</ele>
        <time>2012-05-13T09:39:59Z</time>
      </trkpt>
      <trkpt lat="44.10034" lon="3.06025">
        <ele>440</ele>
        <time>2012-05-13T09:40:01Z</time>
      </trkpt>
      <trkpt lat="44.10033" lon="3.06032">
        <ele>439</ele>
        <time>2012-05-13T09:40:03Z</time>
      </trkpt>
      <trkpt lat="44.10033" lon="3.0604">
        <ele>438</ele>
        <time>2012-05-13T09:40:05Z</time>
      </trkpt>
      <trkpt lat="44.10032" lon="3.06047">
        <ele>438</ele>
        <time>2012-05-13T09:40:07Z</time>
      </trkpt>
      <trkpt lat="44.10031" lon="3.06054">
        <ele>438</ele>
        <time>2012-05-13T09:40:09Z</time>
      </trkpt>
      <trkpt lat="44.1003" lon="3.06062">
        <ele>438</ele>
        <time>2012-05-13T09:40:11Z</time>
      </trkpt>
      <trkpt lat="44.1003" lon="3.06068">
        <ele>438</ele>
        <time>2012-05-13T09:40:13Z</time>
      </trkpt>
      <trkpt lat="44.10029" lon="3.06075">
        <ele>437</ele>
        <time>2012-05-13T09:40:15Z</time>
      </trkpt>
      <trkpt lat="44.10028" lon="3.06083">
        <ele>437</ele>
        <time>2012-05-13T09:40:17Z</time>
      </trkpt>
      <trkpt lat="44.10027" lon="3.06091">
        <ele>436</ele>
        <time>2012-05-13T09:40:19Z</time>
      </trkpt>
      <trkpt lat="44.10026" lon="3.06099">
        <ele>436</ele>
        <time>2012-05-13T09:40:21Z</time>
      </trkpt>
      <trkpt lat="44.10025" lon="3.06107">
        <ele>436</ele>
        <time>2012-05-13T09:40:23Z</time>
      </trkpt>
      <trkpt lat="44.10023" lon="3.06115">
        <ele>436</ele>
        <time>2012-05-13T09:40:25Z</time>
      </trkpt>
      <trkpt lat="44.10021" lon="3.06122">
        <ele>436</ele>
        <time>2012-05-13T09:40:27Z</time>
      </trkpt>
      <trkpt lat="44.10019" lon="3.0613">
        <ele>436</ele>
        <time>2012-05-13T09:40:29Z</time>
      </trkpt>
      <trkpt lat="44.10016" lon="3.06136">
        <ele>436</ele>
        <time>2012-05-13T09:40:31Z</time>
      </trkpt>
      <trkpt lat="44.10014" lon="3.06143">
        <ele>437</ele>
        <time>2012-05-13T09:40:33Z</time>
      </trkpt>
      <trkpt lat="44.10012" lon="3.06151">
        <ele>437</ele>
        <time>2012-05-13T09:40:35Z</time>
      </trkpt>
      <trkpt lat="44.1001" lon="3.06158">
        <ele>437</ele>
        <time>2012-05-13T09:40:37Z</time>
      </trkpt>
      <trkpt lat="44.10006" lon="3.06168">
        <ele>437</ele>
        <time>2012-05-13T09:40:39Z</time>
      </trkpt>
      <trkpt lat="44.10004" lon="3.06176">
        <ele>437</ele>
        <time>2012-05-13T09:40:41Z</time>
      </trkpt>
      <trkpt lat="44.10001" lon="3.06183">
        <ele>437</ele>
        <time>2012-05-13T09:40:43Z</time>
      </trkpt>
      <trkpt lat="44.09999" lon="3.0619">
        <ele>436</ele>
        <time>2012-05-13T09:40:45Z</time>
      </trkpt>
      <trkpt lat="44.09996" lon="3.06197">
        <ele>436</ele>
        <time>2012-05-13T09:40:47Z</time>
      </trkpt>
      <trkpt lat="44.09993" lon="3.06204">
        <ele>435</ele>
        <time>2012-05-13T09:40:49Z</time>
      </trkpt>
      <trkpt lat="44.0999" lon="3.06211">
        <ele>435</ele>
        <time>2012-05-13T09:40:51Z</time>
      </trkpt>
      <trkpt lat="44.09988" lon="3.06217">
        <ele>434</ele>
        <time>2012-05-13T09:40:53Z</time>
      </trkpt>
      <trkpt lat="44.09985" lon="3.06224">
        <ele>433</ele>
        <time>2012-05-13T09:40:55Z</time>
      </trkpt>
      <trkpt lat="44.09982" lon="3.0623">
        <ele>432</ele>
        <time>2012-05-13T09:40:57Z</time>
      </trkpt>
      <trkpt lat="44.09979" lon="3.06237">
        <ele>431</ele>
        <time>2012-05-13T09:40:59Z</time>
      </trkpt>
      <trkpt lat="44.09977" lon="3.06243">
        <ele>430</ele>
        <time>2012-05-13T09:41:01Z</time>
      </trkpt>
      <trkpt lat="44.09974" lon="3.0625">
        <ele>429</ele>
        <time>2012-05-13T09:41:03Z</time>
      </trkpt>
      <trkpt lat="44.09971" lon="3.06256">
        <ele>429</ele>
        <time>2012-05-13T09:41:05Z</time>
      </trkpt>
      <trkpt lat="44.09968" lon="3.06263">
        <ele>428</ele>
        <time>2012-05-13T09:41:07Z</time>
      </trkpt>
      <trkpt lat="44.09965" lon="3.0627">
        <ele>427</ele>
        <time>2012-05-13T09:41:09Z</time>
      </trkpt>
      <trkpt lat="44.09962" lon="3.06276">
        <ele>425</ele>
        <time>2012-05-13T09:41:11Z</time>
      </trkpt>
      <trkpt lat="44.0996" lon="3.06283">
        <ele>424</ele>
        <time>2012-05-13T09:41:13Z</time>
      </trkpt>
      <trkpt lat="44.09959" lon="3.06292">
        <ele>423</ele>
        <time>2012-05-13T09:41:15Z</time>
      </trkpt>
      <trkpt lat="44.09955" lon="3.06298">
        <ele>421</ele>
        <time>2012-05-13T09:41:17Z</time>
      </trkpt>
      <trkpt lat="44.09952" lon="3.06306">
        <ele>421</ele>
        <time>2012-05-13T09:41:19Z</time>
      </trkpt>
      <trkpt lat="44.09948" lon="3.06313">
        <ele>420</ele>
        <time>2012-05-13T09:41:21Z</time>
      </trkpt>
      <trkpt lat="44.09945" lon="3.0632">
        <ele>419</ele>
        <time>2012-05-13T09:41:23Z</time>
      </trkpt>
      <trkpt lat="44.09942" lon="3.06325">
        <ele>417</ele>
        <time>2012-05-13T09:41:26Z</time>
      </trkpt>
      <trkpt lat="44.0994" lon="3.06333">
        <ele>415</ele>
        <time>2012-05-13T09:41:28Z</time>
      </trkpt>
      <trkpt lat="44.09936" lon="3.0634">
        <ele>413</ele>
        <time>2012-05-13T09:41:30Z</time>
      </trkpt>
      <trkpt lat="44.09933" lon="3.06346">
        <ele>411</ele>
        <time>2012-05-13T09:41:32Z</time>
      </trkpt>
      <trkpt lat="44.0993" lon="3.06352">
        <ele>410</ele>
        <time>2012-05-13T09:41:34Z</time>
      </trkpt>
      <trkpt lat="44.09927" lon="3.06359">
        <ele>410</ele>
        <time>2012-05-13T09:41:36Z</time>
      </trkpt>
      <trkpt lat="44.09925" lon="3.06366">
        <ele>409</ele>
        <time>2012-05-13T09:41:38Z</time>
      </trkpt>
      <trkpt lat="44.09922" lon="3.06373">
        <ele>409</ele>
        <time>2012-05-13T09:41:40Z</time>
      </trkpt>
      <trkpt lat="44.09919" lon="3.06381">
        <ele>408</ele>
        <time>2012-05-13T09:41:42Z</time>
      </trkpt>
      <trkpt lat="44.09917" lon="3.06387">
        <ele>408</ele>
        <time>2012-05-13T09:41:44Z</time>
      </trkpt>
      <trkpt lat="44.09914" lon="3.06395">
        <ele>408</ele>
        <time>2012-05-13T09:41:46Z</time>
      </trkpt>
      <trkpt lat="44.09913" lon="3.06402">
        <ele>408</ele>
        <time>2012-05-13T09:41:48Z</time>
      </trkpt>
      <trkpt lat="44.0991" lon="3.06409">
        <ele>409</ele>
        <time>2012-05-13T09:41:50Z</time>
      </trkpt>
      <trkpt lat="44.09908" lon="3.06415">
        <ele>410</ele>
        <time>2012-05-13T09:41:52Z</time>
      </trkpt>
      <trkpt lat="44.09906" lon="3.06422">
        <ele>411</ele>
        <time>2012-05-13T09:41:54Z</time>
      </trkpt>
      <trkpt lat="44.09903" lon="3.06429">
        <ele>411</ele>
        <time>2012-05-13T09:41:56Z</time>
      </trkpt>
      <trkpt lat="44.09901" lon="3.06436">
        <ele>412</ele>
        <time>2012-05-13T09:41:58Z</time>
      </trkpt>
      <trkpt lat="44.09899" lon="3.06443">
        <ele>412</ele>
        <time>2012-05-13T09:42:00Z</time>
      </trkpt>
      <trkpt lat="44.09898" lon="3.0645">
        <ele>412</ele>
        <time>2012-05-13T09:42:02Z</time>
      </trkpt>
      <trkpt lat="44.09896" lon="3.06457">
        <ele>412</ele>
        <time>2012-05-13T09:42:04Z</time>
      </trkpt>
      <trkpt lat="44.09893" lon="3.06464">
        <ele>412</ele>
        <time>2012-05-13T09:42:06Z</time>
      </trkpt>
      <trkpt lat="44.0989" lon="3.06471">
        <ele>413</ele>
        <time>2012-05-13T09:42:08Z</time>
      </trkpt>
      <trkpt lat="44.09887" lon="3.06478">
        <ele>413</ele>
        <time>2012-05-13T09:42:10Z</time>
      </trkpt>
      <trkpt lat="44.09885" lon="3.06485">
        <ele>412</ele>
        <time>2012-05-13T09:42:12Z</time>
      </trkpt>
      <trkpt lat="44.09881" lon="3.06496">
        <ele>412</ele>
        <time>2012-05-13T09:42:14Z</time>
      </trkpt>
      <trkpt lat="44.09878" lon="3.06503">
        <ele>411</ele>
        <time>2012-05-13T09:42:16Z</time>
      </trkpt>
      <trkpt lat="44.09876" lon="3.0651">
        <ele>411</ele>
        <time>2012-05-13T09:42:18Z</time>
      </trkpt>
      <trkpt lat="44.09873" lon="3.06517">
        <ele>410</ele>
        <time>2012-05-13T09:42:20Z</time>
      </trkpt>
      <trkpt lat="44.09871" lon="3.06524">
        <ele>410</ele>
        <time>2012-05-13T09:42:22Z</time>
      </trkpt>
      <trkpt lat="44.09868" lon="3.06531">
        <ele>409</ele>
        <time>2012-05-13T09:42:24Z</time>
      </trkpt>
      <trkpt lat="44.09866" lon="3.06538">
        <ele>409</ele>
        <time>2012-05-13T09:42:26Z</time>
      </trkpt>
      <trkpt lat="44.09863" lon="3.06545">
        <ele>409</ele>
        <time>2012-05-13T09:42:28Z</time>
      </trkpt>
      <trkpt lat="44.09861" lon="3.06551">
        <ele>409</ele>
        <time>2012-05-13T09:42:30Z</time>
      </trkpt>
      <trkpt lat="44.09858" lon="3.06558">
        <ele>408</ele>
        <time>2012-05-13T09:42:32Z</time>
      </trkpt>
      <trkpt lat="44.09855" lon="3.06565">
        <ele>408</ele>
        <time>2012-05-13T09:42:34Z</time>
      </trkpt>
      <trkpt lat="44.09852" lon="3.06572">
        <ele>408</ele>
        <time>2012-05-13T09:42:36Z</time>
      </trkpt>
      <trkpt lat="44.09849" lon="3.06579">
        <ele>407</ele>
        <time>2012-05-13T09:42:38Z</time>
      </trkpt>
      <trkpt lat="44.09846" lon="3.06586">
        <ele>407</ele>
        <time>2012-05-13T09:42:40Z</time>
      </trkpt>
      <trkpt lat="44.09844" lon="3.06592">
        <ele>406</ele>
        <time>2012-05-13T09:42:42Z</time>
      </trkpt>
      <trkpt lat="44.09841" lon="3.066">
        <ele>406</ele>
        <time>2012-05-13T09:42:44Z</time>
      </trkpt>
      <trkpt lat="44.09838" lon="3.06607">
        <ele>406</ele>
        <time>2012-05-13T09:42:46Z</time>
      </trkpt>
      <trkpt lat="44.09836" lon="3.06614">
        <ele>406</ele>
        <time>2012-05-13T09:42:48Z</time>
      </trkpt>
      <trkpt lat="44.09833" lon="3.06621">
        <ele>407</ele>
        <time>2012-05-13T09:42:50Z</time>
      </trkpt>
      <trkpt lat="44.0983" lon="3.06627">
        <ele>407</ele>
        <time>2012-05-13T09:42:52Z</time>
      </trkpt>
      <trkpt lat="44.09828" lon="3.06634">
        <ele>407</ele>
        <time>2012-05-13T09:42:54Z</time>
      </trkpt>
      <trkpt lat="44.09825" lon="3.06641">
        <ele>407</ele>
        <time>2012-05-13T09:42:57Z</time>
      </trkpt>
      <trkpt lat="44.09822" lon="3.06648">
        <ele>407</ele>
        <time>2012-05-13T09:42:59Z</time>
      </trkpt>
      <trkpt lat="44.09819" lon="3.06655">
        <ele>407</ele>
        <time>2012-05-13T09:43:01Z</time>
      </trkpt>
      <trkpt lat="44.09817" lon="3.06662">
        <ele>406</ele>
        <time>2012-05-13T09:43:03Z</time>
      </trkpt>
      <trkpt lat="44.09814" lon="3.06669">
        <ele>406</ele>
        <time>2012-05-13T09:43:05Z</time>
      </trkpt>
      <trkpt lat="44.09812" lon="3.06675">
        <ele>405</ele>
        <time>2012-05-13T09:43:07Z</time>
      </trkpt>
      <trkpt lat="44.09809" lon="3.06682">
        <ele>405</ele>
        <time>2012-05-13T09:43:09Z</time>
      </trkpt>
      <trkpt lat="44.09807" lon="3.06689">
        <ele>405</ele>
        <time>2012-05-13T09:43:11Z</time>
      </trkpt>
      <trkpt lat="44.09805" lon="3.06697">
        <ele>405</ele>
        <time>2012-05-13T09:43:13Z</time>
      </trkpt>
      <trkpt lat="44.09803" lon="3.06704">
        <ele>405</ele>
        <time>2012-05-13T09:43:15Z</time>
      </trkpt>
      <trkpt lat="44.09801" lon="3.06711">
        <ele>405</ele>
        <time>2012-05-13T09:43:17Z</time>
      </trkpt>
      <trkpt lat="44.09799" lon="3.06719">
        <ele>405</ele>
        <time>2012-05-13T09:43:19Z</time>
      </trkpt>
      <trkpt lat="44.09798" lon="3.06727">
        <ele>405</ele>
        <time>2012-05-13T09:43:21Z</time>
      </trkpt>
      <trkpt lat="44.09796" lon="3.06734">
        <ele>404</ele>
        <time>2012-05-13T09:43:23Z</time>
      </trkpt>
      <trkpt lat="44.09794" lon="3.06741">
        <ele>404</ele>
        <time>2012-05-13T09:43:25Z</time>
      </trkpt>
      <trkpt lat="44.09792" lon="3.06749">
        <ele>404</ele>
        <time>2012-05-13T09:43:27Z</time>
      </trkpt>
      <trkpt lat="44.0979" lon="3.06756">
        <ele>404</ele>
        <time>2012-05-13T09:43:29Z</time>
      </trkpt>
      <trkpt lat="44.09789" lon="3.06763">
        <ele>404</ele>
        <time>2012-05-13T09:43:31Z</time>
      </trkpt>
      <trkpt lat="44.09787" lon="3.0677">
        <ele>404</ele>
        <time>2012-05-13T09:43:33Z</time>
      </trkpt>
      <trkpt lat="44.09785" lon="3.06777">
        <ele>404</ele>
        <time>2012-05-13T09:43:35Z</time>
      </trkpt>
      <trkpt lat="44.09783" lon="3.06785">
        <ele>405</ele>
        <time>2012-05-13T09:43:37Z</time>
      </trkpt>
      <trkpt lat="44.09781" lon="3.06792">
        <ele>404</ele>
        <time>2012-05-13T09:43:39Z</time>
      </trkpt>
      <trkpt lat="44.09778" lon="3.06799">
        <ele>404</ele>
        <time>2012-05-13T09:43:41Z</time>
      </trkpt>
      <trkpt lat="44.09776" lon="3.06806">
        <ele>404</ele>
        <time>2012-05-13T09:43:43Z</time>
      </trkpt>
      <trkpt lat="44.09773" lon="3.06817">
        <ele>403</ele>
        <time>2012-05-13T09:43:45Z</time>
      </trkpt>
      <trkpt lat="44.09771" lon="3.06824">
        <ele>403</ele>
        <time>2012-05-13T09:43:47Z</time>
      </trkpt>
      <trkpt lat="44.09769" lon="3.06831">
        <ele>403</ele>
        <time>2012-05-13T09:43:49Z</time>
      </trkpt>
      <trkpt lat="44.09766" lon="3.06839">
        <ele>403</ele>
        <time>2012-05-13T09:43:51Z</time>
      </trkpt>
      <trkpt lat="44.09764" lon="3.06846">
        <ele>403</ele>
        <time>2012-05-13T09:43:53Z</time>
      </trkpt>
      <trkpt lat="44.09762" lon="3.06853">
        <ele>403</ele>
        <time>2012-05-13T09:43:55Z</time>
      </trkpt>
      <trkpt lat="44.09759" lon="3.06861">
        <ele>403</ele>
        <time>2012-05-13T09:43:57Z</time>
      </trkpt>
      <trkpt lat="44.09757" lon="3.06868">
        <ele>403</ele>
        <time>2012-05-13T09:43:59Z</time>
      </trkpt>
      <trkpt lat="44.09755" lon="3.06876">
        <ele>402</ele>
        <time>2012-05-13T09:44:01Z</time>
      </trkpt>
      <trkpt lat="44.09754" lon="3.06883">
        <ele>402</ele>
        <time>2012-05-13T09:44:03Z</time>
      </trkpt>
      <trkpt lat="44.09753" lon="3.06891">
        <ele>401</ele>
        <time>2012-05-13T09:44:05Z</time>
      </trkpt>
      <trkpt lat="44.09754" lon="3.06898">
        <ele>401</ele>
        <time>2012-05-13T09:44:07Z</time>
      </trkpt>
      <trkpt lat="44.09754" lon="3.06906">
        <ele>401</ele>
        <time>2012-05-13T09:44:09Z</time>
      </trkpt>
      <trkpt lat="44.09754" lon="3.06914">
        <ele>401</ele>
        <time>2012-05-13T09:44:11Z</time>
      </trkpt>
      <trkpt lat="44.09753" lon="3.06922">
        <ele>401</ele>
        <time>2012-05-13T09:44:13Z</time>
      </trkpt>
      <trkpt lat="44.09752" lon="3.0693">
        <ele>401</ele>
        <time>2012-05-13T09:44:15Z</time>
      </trkpt>
      <trkpt lat="44.09751" lon="3.06938">
        <ele>400</ele>
        <time>2012-05-13T09:44:17Z</time>
      </trkpt>
      <trkpt lat="44.0975" lon="3.06946">
        <ele>400</ele>
        <time>2012-05-13T09:44:19Z</time>
      </trkpt>
      <trkpt lat="44.09748" lon="3.06954">
        <ele>400</ele>
        <time>2012-05-13T09:44:21Z</time>
      </trkpt>
      <trkpt lat="44.09746" lon="3.06961">
        <ele>399</ele>
        <time>2012-05-13T09:44:23Z</time>
      </trkpt>
      <trkpt lat="44.09745" lon="3.06968">
        <ele>398</ele>
        <time>2012-05-13T09:44:25Z</time>
      </trkpt>
      <trkpt lat="44.09743" lon="3.06976">
        <ele>396</ele>
        <time>2012-05-13T09:44:27Z</time>
      </trkpt>
      <trkpt lat="44.09742" lon="3.06983">
        <ele>394</ele>
        <time>2012-05-13T09:44:30Z</time>
      </trkpt>
      <trkpt lat="44.09741" lon="3.06991">
        <ele>392</ele>
        <time>2012-05-13T09:44:32Z</time>
      </trkpt>
      <trkpt lat="44.0974" lon="3.06997">
        <ele>391</ele>
        <time>2012-05-13T09:44:34Z</time>
      </trkpt>
      <trkpt lat="44.0974" lon="3.07004">
        <ele>389</ele>
        <time>2012-05-13T09:44:36Z</time>
      </trkpt>
      <trkpt lat="44.09739" lon="3.07012">
        <ele>387</ele>
        <time>2012-05-13T09:44:38Z</time>
      </trkpt>
      <trkpt lat="44.09739" lon="3.07019">
        <ele>386</ele>
        <time>2012-05-13T09:44:40Z</time>
      </trkpt>
      <trkpt lat="44.09738" lon="3.07027">
        <ele>385</ele>
        <time>2012-05-13T09:44:42Z</time>
      </trkpt>
      <trkpt lat="44.09739" lon="3.07034">
        <ele>385</ele>
        <time>2012-05-13T09:44:44Z</time>
      </trkpt>
      <trkpt lat="44.09739" lon="3.07042">
        <ele>386</ele>
        <time>2012-05-13T09:44:46Z</time>
      </trkpt>
      <trkpt lat="44.09737" lon="3.07049">
        <ele>385</ele>
        <time>2012-05-13T09:44:48Z</time>
      </trkpt>
      <trkpt lat="44.09737" lon="3.07056">
        <ele>385</ele>
        <time>2012-05-13T09:44:50Z</time>
      </trkpt>
      <trkpt lat="44.09735" lon="3.07063">
        <ele>383</ele>
        <time>2012-05-13T09:44:52Z</time>
      </trkpt>
      <trkpt lat="44.09736" lon="3.0707">
        <ele>383</ele>
        <time>2012-05-13T09:44:54Z</time>
      </trkpt>
      <trkpt lat="44.09737" lon="3.07078">
        <ele>382</ele>
        <time>2012-05-13T09:44:56Z</time>
      </trkpt>
      <trkpt lat="44.09739" lon="3.07084">
        <ele>380</ele>
        <time>2012-05-13T09:44:58Z</time>
      </trkpt>
      <trkpt lat="44.09743" lon="3.0709">
        <ele>379</ele>
        <time>2012-05-13T09:45:00Z</time>
      </trkpt>
      <trkpt lat="44.09747" lon="3.07095">
        <ele>378</ele>
        <time>2012-05-13T09:45:02Z</time>
      </trkpt>
      <trkpt lat="44.09751" lon="3.07101">
        <ele>378</ele>
        <time>2012-05-13T09:45:04Z</time>
      </trkpt>
      <trkpt lat="44.09755" lon="3.07106">
        <ele>378</ele>
        <time>2012-05-13T09:45:06Z</time>
      </trkpt>
      <trkpt lat="44.09759" lon="3.07111">
        <ele>378</ele>
        <time>2012-05-13T09:45:08Z</time>
      </trkpt>
      <trkpt lat="44.09763" lon="3.07115">
        <ele>378</ele>
        <time>2012-05-13T09:45:10Z</time>
      </trkpt>
      <trkpt lat="44.09767" lon="3.0712">
        <ele>379</ele>
        <time>2012-05-13T09:45:12Z</time>
      </trkpt>
      <trkpt lat="44.09771" lon="3.07124">
        <ele>380</ele>
        <time>2012-05-13T09:45:14Z</time>
      </trkpt>
      <trkpt lat="44.09774" lon="3.07129">
        <ele>381</ele>
        <time>2012-05-13T09:45:16Z</time>
      </trkpt>
      <trkpt lat="44.09778" lon="3.07132">
        <ele>382</ele>
        <time>2012-05-13T09:45:18Z</time>
      </trkpt>
      <trkpt lat="44.09784" lon="3.07138">
        <ele>382</ele>
        <time>2012-05-13T09:45:20Z</time>
      </trkpt>
      <trkpt lat="44.09787" lon="3.07142">
        <ele>383</ele>
        <time>2012-05-13T09:45:22Z</time>
      </trkpt>
      <trkpt lat="44.09791" lon="3.07145">
        <ele>383</ele>
        <time>2012-05-13T09:45:24Z</time>
      </trkpt>
      <trkpt lat="44.09795" lon="3.07148">
        <ele>384</ele>
        <time>2012-05-13T09:45:26Z</time>
      </trkpt>
      <trkpt lat="44.09799" lon="3.07151">
        <ele>384</ele>
        <time>2012-05-13T09:45:28Z</time>
      </trkpt>
      <trkpt lat="44.09803" lon="3.07155">
        <ele>385</ele>
        <time>2012-05-13T09:45:30Z</time>
      </trkpt>
      <trkpt lat="44.09806" lon="3.07158">
        <ele>386</ele>
        <time>2012-05-13T09:45:32Z</time>
      </trkpt>
      <trkpt lat="44.09811" lon="3.0716">
        <ele>387</ele>
        <time>2012-05-13T09:45:34Z</time>
      </trkpt>
      <trkpt lat="44.09815" lon="3.07162">
        <ele>388</ele>
        <time>2012-05-13T09:45:36Z</time>
      </trkpt>
      <trkpt lat="44.09818" lon="3.07165">
        <ele>389</ele>
        <time>2012-05-13T09:45:38Z</time>
      </trkpt>
      <trkpt lat="44.09822" lon="3.07168">
        <ele>390</ele>
        <time>2012-05-13T09:45:40Z</time>
      </trkpt>
      <trkpt lat="44.09826" lon="3.07171">
        <ele>390</ele>
        <time>2012-05-13T09:45:42Z</time>
      </trkpt>
      <trkpt lat="44.09829" lon="3.07175">
        <ele>391</ele>
        <time>2012-05-13T09:45:44Z</time>
      </trkpt>
      <trkpt lat="44.09833" lon="3.07178">
        <ele>391</ele>
        <time>2012-05-13T09:45:46Z</time>
      </trkpt>
      <trkpt lat="44.09838" lon="3.0718">
        <ele>392</ele>
        <time>2012-05-13T09:45:48Z</time>
      </trkpt>
      <trkpt lat="44.09842" lon="3.07183">
        <ele>392</ele>
        <time>2012-05-13T09:45:50Z</time>
      </trkpt>
      <trkpt lat="44.09846" lon="3.07185">
        <ele>392</ele>
        <time>2012-05-13T09:45:52Z</time>
      </trkpt>
      <trkpt lat="44.09851" lon="3.07188">
        <ele>392</ele>
        <time>2012-05-13T09:45:54Z</time>
      </trkpt>
      <trkpt lat="44.09855" lon="3.0719">
        <ele>391</ele>
        <time>2012-05-13T09:45:56Z</time>
      </trkpt>
      <trkpt lat="44.09859" lon="3.07193">
        <ele>391</ele>
        <time>2012-05-13T09:45:58Z</time>
      </trkpt>
      <trkpt lat="44.09863" lon="3.07197">
        <ele>391</ele>
        <time>2012-05-13T09:46:00Z</time>
      </trkpt>
      <trkpt lat="44.09867" lon="3.072">
        <ele>390</ele>
        <time>2012-05-13T09:46:02Z</time>
      </trkpt>
      <trkpt lat="44.09871" lon="3.07203">
        <ele>390</ele>
        <time>2012-05-13T09:46:04Z</time>
      </trkpt>
      <trkpt lat="44.09875" lon="3.07207">
        <ele>390</ele>
        <time>2012-05-13T09:46:07Z</time>
      </trkpt>
      <trkpt lat="44.09879" lon="3.07209">
        <ele>390</ele>
        <time>2012-05-13T09:46:09Z</time>
      </trkpt>
      <trkpt lat="44.09884" lon="3.07212">
        <ele>391</ele>
        <time>2012-05-13T09:46:11Z</time>
      </trkpt>
      <trkpt lat="44.09888" lon="3.07215">
        <ele>391</ele>
        <time>2012-05-13T09:46:13Z</time>
      </trkpt>
      <trkpt lat="44.09892" lon="3.07218">
        <ele>391</ele>
        <time>2012-05-13T09:46:15Z</time>
      </trkpt>
      <trkpt lat="44.09896" lon="3.07221">
        <ele>391</ele>
        <time>2012-05-13T09:46:17Z</time>
      </trkpt>
      <trkpt lat="44.09901" lon="3.07224">
        <ele>392</ele>
        <time>2012-05-13T09:46:19Z</time>
      </trkpt>
      <trkpt lat="44.09905" lon="3.07227">
        <ele>392</ele>
        <time>2012-05-13T09:46:21Z</time>
      </trkpt>
      <trkpt lat="44.09909" lon="3.0723">
        <ele>392</ele>
        <time>2012-05-13T09:46:23Z</time>
      </trkpt>
      <trkpt lat="44.09914" lon="3.07233">
        <ele>393</ele>
        <time>2012-05-13T09:46:25Z</time>
      </trkpt>
      <trkpt lat="44.09919" lon="3.07236">
        <ele>393</ele>
        <time>2012-05-13T09:46:27Z</time>
      </trkpt>
      <trkpt lat="44.09923" lon="3.07238">
        <ele>394</ele>
        <time>2012-05-13T09:46:29Z</time>
      </trkpt>
      <trkpt lat="44.09927" lon="3.07241">
        <ele>394</ele>
        <time>2012-05-13T09:46:31Z</time>
      </trkpt>
      <trkpt lat="44.09931" lon="3.07243">
        <ele>394</ele>
        <time>2012-05-13T09:46:33Z</time>
      </trkpt>
      <trkpt lat="44.09936" lon="3.07246">
        <ele>394</ele>
        <time>2012-05-13T09:46:35Z</time>
      </trkpt>
      <trkpt lat="44.0994" lon="3.07249">
        <ele>395</ele>
        <time>2012-05-13T09:46:37Z</time>
      </trkpt>
      <trkpt lat="44.09945" lon="3.07251">
        <ele>395</ele>
        <time>2012-05-13T09:46:39Z</time>
      </trkpt>
      <trkpt lat="44.09949" lon="3.07253">
        <ele>394</ele>
        <time>2012-05-13T09:46:41Z</time>
      </trkpt>
      <trkpt lat="44.09953" lon="3.07255">
        <ele>394</ele>
        <time>2012-05-13T09:46:43Z</time>
      </trkpt>
      <trkpt lat="44.09957" lon="3.07255">
        <ele>394</ele>
        <time>2012-05-13T09:46:45Z</time>
      </trkpt>
      <trkpt lat="44.09961" lon="3.07256">
        <ele>394</ele>
        <time>2012-05-13T09:46:47Z</time>
      </trkpt>
      <trkpt lat="44.09966" lon="3.07256">
        <ele>394</ele>
        <time>2012-05-13T09:46:49Z</time>
      </trkpt>
      <trkpt lat="44.0997" lon="3.07256">
        <ele>394</ele>
        <time>2012-05-13T09:46:51Z</time>
      </trkpt>
      <trkpt lat="44.09977" lon="3.07256">
        <ele>394</ele>
        <time>2012-05-13T09:46:53Z</time>
      </trkpt>
      <trkpt lat="44.09981" lon="3.07256">
        <ele>395</ele>
        <time>2012-05-13T09:46:55Z</time>
      </trkpt>
      <trkpt lat="44.09985" lon="3.07256">
        <ele>395</ele>
        <time>2012-05-13T09:46:57Z</time>
      </trkpt>
      <trkpt lat="44.0999" lon="3.07257">
        <ele>395</ele>
        <time>2012-05-13T09:46:59Z</time>
      </trkpt>
      <trkpt lat="44.09995" lon="3.07258">
        <ele>395</ele>
        <time>2012-05-13T09:47:01Z</time>
      </trkpt>
      <trkpt lat="44.1" lon="3.07259">
        <ele>395</ele>
        <time>2012-05-13T09:47:03Z</time>
      </trkpt>
      <trkpt lat="44.10005" lon="3.07261">
        <ele>395</ele>
        <time>2012-05-13T09:47:05Z</time>
      </trkpt>
      <trkpt lat="44.10011" lon="3.07263">
        <ele>395</ele>
        <time>2012-05-13T09:47:07Z</time>
      </trkpt>
      <trkpt lat="44.10015" lon="3.07264">
        <ele>394</ele>
        <time>2012-05-13T09:47:09Z</time>
      </trkpt>
      <trkpt lat="44.1002" lon="3.07266">
        <ele>394</ele>
        <time>2012-05-13T09:47:12Z</time>
      </trkpt>
      <trkpt lat="44.10025" lon="3.07267">
        <ele>394</ele>
        <time>2012-05-13T09:47:14Z</time>
      </trkpt>
      <trkpt lat="44.1003" lon="3.07269">
        <ele>394</ele>
        <time>2012-05-13T09:47:16Z</time>
      </trkpt>
      <trkpt lat="44.10033" lon="3.07271">
        <ele>394</ele>
        <time>2012-05-13T09:47:18Z</time>
      </trkpt>
      <trkpt lat="44.10038" lon="3.07273">
        <ele>394</ele>
        <time>2012-05-13T09:47:20Z</time>
      </trkpt>
      <trkpt lat="44.10043" lon="3.07275">
        <ele>394</ele>
        <time>2012-05-13T09:47:22Z</time>
      </trkpt>
      <trkpt lat="44.10048" lon="3.07276">
        <ele>394</ele>
        <time>2012-05-13T09:47:24Z</time>
      </trkpt>
      <trkpt lat="44.10052" lon="3.07277">
        <ele>395</ele>
        <time>2012-05-13T09:47:26Z</time>
      </trkpt>
      <trkpt lat="44.10057" lon="3.07279">
        <ele>395</ele>
        <time>2012-05-13T09:47:28Z</time>
      </trkpt>
      <trkpt lat="44.10061" lon="3.0728">
        <ele>396</ele>
        <time>2012-05-13T09:47:30Z</time>
      </trkpt>
      <trkpt lat="44.10066" lon="3.07281">
        <ele>396</ele>
        <time>2012-05-13T09:47:32Z</time>
      </trkpt>
      <trkpt lat="44.10072" lon="3.07284">
        <ele>397</ele>
        <time>2012-05-13T09:47:34Z</time>
      </trkpt>
      <trkpt lat="44.10077" lon="3.07284">
        <ele>397</ele>
        <time>2012-05-13T09:47:36Z</time>
      </trkpt>
      <trkpt lat="44.10081" lon="3.07285">
        <ele>397</ele>
        <time>2012-05-13T09:47:38Z</time>
      </trkpt>
      <trkpt lat="44.10086" lon="3.07286">
        <ele>397</ele>
        <time>2012-05-13T09:47:40Z</time>
      </trkpt>
      <trkpt lat="44.10091" lon="3.07287">
        <ele>397</ele>
        <time>2012-05-13T09:47:42Z</time>
      </trkpt>
      <trkpt lat="44.10096" lon="3.07288">
        <ele>396</ele>
        <time>2012-05-13T09:47:44Z</time>
      </trkpt>
      <trkpt lat="44.10101" lon="3.07289">
        <ele>396</ele>
        <time>2012-05-13T09:47:46Z</time>
      </trkpt>
      <trkpt lat="44.10106" lon="3.07291">
        <ele>395</ele>
        <time>2012-05-13T09:47:48Z</time>
      </trkpt>
      <trkpt lat="44.10111" lon="3.07293">
        <ele>395</ele>
        <time>2012-05-13T09:47:50Z</time>
      </trkpt>
      <trkpt lat="44.10116" lon="3.07294">
        <ele>394</ele>
        <time>2012-05-13T09:47:53Z</time>
      </trkpt>
      <trkpt lat="44.10122" lon="3.07295">
        <ele>393</ele>
        <time>2012-05-13T09:47:55Z</time>
      </trkpt>
      <trkpt lat="44.10127" lon="3.07297">
        <ele>392</ele>
        <time>2012-05-13T09:47:57Z</time>
      </trkpt>
      <trkpt lat="44.10132" lon="3.07297">
        <ele>392</ele>
        <time>2012-05-13T09:47:59Z</time>
      </trkpt>
      <trkpt lat="44.10138" lon="3.07298">
        <ele>392</ele>
        <time>2012-05-13T09:48:01Z</time>
      </trkpt>
      <trkpt lat="44.10143" lon="3.07299">
        <ele>393</ele>
        <time>2012-05-13T09:48:03Z</time>
      </trkpt>
      <trkpt lat="44.10147" lon="3.073">
        <ele>393</ele>
        <time>2012-05-13T09:48:05Z</time>
      </trkpt>
      <trkpt lat="44.10153" lon="3.07301">
        <ele>395</ele>
        <time>2012-05-13T09:48:07Z</time>
      </trkpt>
      <trkpt lat="44.10157" lon="3.07303">
        <ele>397</ele>
        <time>2012-05-13T09:48:09Z</time>
      </trkpt>
      <trkpt lat="44.10165" lon="3.07304">
        <ele>399</ele>
        <time>2012-05-13T09:48:11Z</time>
      </trkpt>
      <trkpt lat="44.1017" lon="3.07305">
        <ele>400</ele>
        <time>2012-05-13T09:48:13Z</time>
      </trkpt>
      <trkpt lat="44.10175" lon="3.07306">
        <ele>401</ele>
        <time>2012-05-13T09:48:15Z</time>
      </trkpt>
      <trkpt lat="44.10179" lon="3.07308">
        <ele>400</ele>
        <time>2012-05-13T09:48:17Z</time>
      </trkpt>
      <trkpt lat="44.10183" lon="3.07311">
        <ele>399</ele>
        <time>2012-05-13T09:48:19Z</time>
      </trkpt>
      <trkpt lat="44.10189" lon="3.07313">
        <ele>399</ele>
        <time>2012-05-13T09:48:21Z</time>
      </trkpt>
      <trkpt lat="44.10193" lon="3.07314">
        <ele>398</ele>
        <time>2012-05-13T09:48:23Z</time>
      </trkpt>
      <trkpt lat="44.10198" lon="3.07314">
        <ele>398</ele>
        <time>2012-05-13T09:48:25Z</time>
      </trkpt>
      <trkpt lat="44.10202" lon="3.07315">
        <ele>398</ele>
        <time>2012-05-13T09:48:27Z</time>
      </trkpt>
      <trkpt lat="44.10207" lon="3.07317">
        <ele>397</ele>
        <time>2012-05-13T09:48:30Z</time>
      </trkpt>
      <trkpt lat="44.10211" lon="3.07318">
        <ele>396</ele>
        <time>2012-05-13T09:48:32Z</time>
      </trkpt>
      <trkpt lat="44.10215" lon="3.0732">
        <ele>395</ele>
        <time>2012-05-13T09:48:34Z</time>
      </trkpt>
      <trkpt lat="44.1022" lon="3.07321">
        <ele>395</ele>
        <time>2012-05-13T09:48:36Z</time>
      </trkpt>
      <trkpt lat="44.10224" lon="3.07323">
        <ele>394</ele>
        <time>2012-05-13T09:48:38Z</time>
      </trkpt>
      <trkpt lat="44.10228" lon="3.07325">
        <ele>394</ele>
        <time>2012-05-13T09:48:40Z</time>
      </trkpt>
      <trkpt lat="44.10232" lon="3.07326">
        <ele>394</ele>
        <time>2012-05-13T09:48:42Z</time>
      </trkpt>
      <trkpt lat="44.10237" lon="3.07329">
        <ele>394</ele>
        <time>2012-05-13T09:48:44Z</time>
      </trkpt>
      <trkpt lat="44.10241" lon="3.07329">
        <ele>394</ele>
        <time>2012-05-13T09:48:46Z</time>
      </trkpt>
      <trkpt lat="44.10247" lon="3.07332">
        <ele>394</ele>
        <time>2012-05-13T09:48:48Z</time>
      </trkpt>
      <trkpt lat="44.10252" lon="3.07333">
        <ele>394</ele>
        <time>2012-05-13T09:48:50Z</time>
      </trkpt>
      <trkpt lat="44.10257" lon="3.07335">
        <ele>395</ele>
        <time>2012-05-13T09:48:52Z</time>
      </trkpt>
      <trkpt lat="44.1026" lon="3.07335">
        <ele>395</ele>
        <time>2012-05-13T09:48:54Z</time>
      </trkpt>
      <trkpt lat="44.10265" lon="3.07337">
        <ele>396</ele>
        <time>2012-05-13T09:48:56Z</time>
      </trkpt>
      <trkpt lat="44.1027" lon="3.07339">
        <ele>396</ele>
        <time>2012-05-13T09:48:58Z</time>
      </trkpt>
      <trkpt lat="44.10274" lon="3.07341">
        <ele>397</ele>
        <time>2012-05-13T09:49:00Z</time>
      </trkpt>
      <trkpt lat="44.10279" lon="3.07343">
        <ele>397</ele>
        <time>2012-05-13T09:49:02Z</time>
      </trkpt>
      <trkpt lat="44.10284" lon="3.07344">
        <ele>398</ele>
        <time>2012-05-13T09:49:04Z</time>
      </trkpt>
      <trkpt lat="44.10289" lon="3.07345">
        <ele>398</ele>
        <time>2012-05-13T09:49:07Z</time>
      </trkpt>
      <trkpt lat="44.10293" lon="3.07347">
        <ele>399</ele>
        <time>2012-05-13T09:49:09Z</time>
      </trkpt>
      <trkpt lat="44.10297" lon="3.07349">
        <ele>399</ele>
        <time>2012-05-13T09:49:11Z</time>
      </trkpt>
      <trkpt lat="44.10301" lon="3.07352">
        <ele>399</ele>
        <time>2012-05-13T09:49:13Z</time>
      </trkpt>
      <trkpt lat="44.10305" lon="3.07354">
        <ele>398</ele>
        <time>2012-05-13T09:49:15Z</time>
      </trkpt>
      <trkpt lat="44.10309" lon="3.07356">
        <ele>397</ele>
        <time>2012-05-13T09:49:17Z</time>
      </trkpt>
      <trkpt lat="44.10314" lon="3.07358">
        <ele>397</ele>
        <time>2012-05-13T09:49:19Z</time>
      </trkpt>
      <trkpt lat="44.10318" lon="3.07359">
        <ele>396</ele>
        <time>2012-05-13T09:49:21Z</time>
      </trkpt>
      <trkpt lat="44.10323" lon="3.0736">
        <ele>396</ele>
        <time>2012-05-13T09:49:23Z</time>
      </trkpt>
      <trkpt lat="44.10328" lon="3.07361">
        <ele>396</ele>
        <time>2012-05-13T09:49:25Z</time>
      </trkpt>
      <trkpt lat="44.10334" lon="3.07364">
        <ele>396</ele>
        <time>2012-05-13T09:49:27Z</time>
      </trkpt>
      <trkpt lat="44.10338" lon="3.07366">
        <ele>396</ele>
        <time>2012-05-13T09:49:29Z</time>
      </trkpt>
      <trkpt lat="44.10343" lon="3.07367">
        <ele>396</ele>
        <time>2012-05-13T09:49:31Z</time>
      </trkpt>
      <trkpt lat="44.10347" lon="3.07368">
        <ele>396</ele>
        <time>2012-05-13T09:49:33Z</time>
      </trkpt>
      <trkpt lat="44.10352" lon="3.07369">
        <ele>396</ele>
        <time>2012-05-13T09:49:35Z</time>
      </trkpt>
      <trkpt lat="44.10356" lon="3.0737">
        <ele>396</ele>
        <time>2012-05-13T09:49:37Z</time>
      </trkpt>
      <trkpt lat="44.10361" lon="3.07372">
        <ele>396</ele>
        <time>2012-05-13T09:49:39Z</time>
      </trkpt>
      <trkpt lat="44.10366" lon="3.07372">
        <ele>397</ele>
        <time>2012-05-13T09:49:41Z</time>
      </trkpt>
      <trkpt lat="44.1037" lon="3.07373">
        <ele>397</ele>
        <time>2012-05-13T09:49:43Z</time>
      </trkpt>
      <trkpt lat="44.10375" lon="3.07374">
        <ele>397</ele>
        <time>2012-05-13T09:49:46Z</time>
      </trkpt>
      <trkpt lat="44.1038" lon="3.07376">
        <ele>396</ele>
        <time>2012-05-13T09:49:48Z</time>
      </trkpt>
      <trkpt lat="44.10385" lon="3.07377">
        <ele>396</ele>
        <time>2012-05-13T09:49:50Z</time>
      </trkpt>
      <trkpt lat="44.1039" lon="3.07379">
        <ele>395</ele>
        <time>2012-05-13T09:49:52Z</time>
      </trkpt>
      <trkpt lat="44.10395" lon="3.0738">
        <ele>395</ele>
        <time>2012-05-13T09:49:54Z</time>
      </trkpt>
      <trkpt lat="44.104" lon="3.07382">
        <ele>395</ele>
        <time>2012-05-13T09:49:56Z</time>
      </trkpt>
      <trkpt lat="44.10406" lon="3.07383">
        <ele>395</ele>
        <time>2012-05-13T09:49:58Z</time>
      </trkpt>
      <trkpt lat="44.10411" lon="3.07384">
        <ele>395</ele>
        <time>2012-05-13T09:50:00Z</time>
      </trkpt>
      <trkpt lat="44.10416" lon="3.07385">
        <ele>395</ele>
        <time>2012-05-13T09:50:02Z</time>
      </trkpt>
      <trkpt lat="44.10424" lon="3.07387">
        <ele>395</ele>
        <time>2012-05-13T09:50:04Z</time>
      </trkpt>
      <trkpt lat="44.10429" lon="3.07389">
        <ele>395</ele>
        <time>2012-05-13T09:50:06Z</time>
      </trkpt>
      <trkpt lat="44.10434" lon="3.07391">
        <ele>396</ele>
        <time>2012-05-13T09:50:08Z</time>
      </trkpt>
      <trkpt lat="44.10439" lon="3.07394">
        <ele>395</ele>
        <time>2012-05-13T09:50:10Z</time>
      </trkpt>
      <trkpt lat="44.10444" lon="3.07397">
        <ele>395</ele>
        <time>2012-05-13T09:50:12Z</time>
      </trkpt>
      <trkpt lat="44.10449" lon="3.07401">
        <ele>395</ele>
        <time>2012-05-13T09:50:14Z</time>
      </trkpt>
      <trkpt lat="44.10454" lon="3.07405">
        <ele>394</ele>
        <time>2012-05-13T09:50:16Z</time>
      </trkpt>
      <trkpt lat="44.10458" lon="3.07411">
        <ele>393</ele>
        <time>2012-05-13T09:50:18Z</time>
      </trkpt>
      <trkpt lat="44.10462" lon="3.07417">
        <ele>393</ele>
        <time>2012-05-13T09:50:20Z</time>
      </trkpt>
      <trkpt lat="44.10466" lon="3.07422">
        <ele>393</ele>
        <time>2012-05-13T09:50:22Z</time>
      </trkpt>
      <trkpt lat="44.10469" lon="3.07428">
        <ele>392</ele>
        <time>2012-05-13T09:50:24Z</time>
      </trkpt>
      <trkpt lat="44.10473" lon="3.07434">
        <ele>391</ele>
        <time>2012-05-13T09:50:26Z</time>
      </trkpt>
      <trkpt lat="44.10477" lon="3.0744">
        <ele>390</ele>
        <time>2012-05-13T09:50:28Z</time>
      </trkpt>
      <trkpt lat="44.1048" lon="3.07447">
        <ele>389</ele>
        <time>2012-05-13T09:50:30Z</time>
      </trkpt>
      <trkpt lat="44.10483" lon="3.07453">
        <ele>388</ele>
        <time>2012-05-13T09:50:32Z</time>
      </trkpt>
      <trkpt lat="44.10486" lon="3.07459">
        <ele>388</ele>
        <time>2012-05-13T09:50:34Z</time>
      </trkpt>
      <trkpt lat="44.10488" lon="3.07466">
        <ele>387</ele>
        <time>2012-05-13T09:50:36Z</time>
      </trkpt>
      <trkpt lat="44.1049" lon="3.07473">
        <ele>387</ele>
        <time>2012-05-13T09:50:38Z</time>
      </trkpt>
      <trkpt lat="44.10491" lon="3.07481">
        <ele>386</ele>
        <time>2012-05-13T09:50:40Z</time>
      </trkpt>
      <trkpt lat="44.10493" lon="3.07488">
        <ele>386</ele>
        <time>2012-05-13T09:50:43Z</time>
      </trkpt>
      <trkpt lat="44.10495" lon="3.07495">
        <ele>385</ele>
        <time>2012-05-13T09:50:45Z</time>
      </trkpt>
      <trkpt lat="44.10497" lon="3.07503">
        <ele>384</ele>
        <time>2012-05-13T09:50:47Z</time>
      </trkpt>
      <trkpt lat="44.10499" lon="3.07509">
        <ele>384</ele>
        <time>2012-05-13T09:50:49Z</time>
      </trkpt>
      <trkpt lat="44.10501" lon="3.07516">
        <ele>384</ele>
        <time>2012-05-13T09:50:51Z</time>
      </trkpt>
      <trkpt lat="44.10503" lon="3.07523">
        <ele>383</ele>
        <time>2012-05-13T09:50:53Z</time>
      </trkpt>
      <trkpt lat="44.10506" lon="3.0753">
        <ele>383</ele>
        <time>2012-05-13T09:50:55Z</time>
      </trkpt>
      <trkpt lat="44.10509" lon="3.07536">
        <ele>382</ele>
        <time>2012-05-13T09:50:57Z</time>
      </trkpt>
      <trkpt lat="44.10514" lon="3.07538">
        <ele>381</ele>
        <time>2012-05-13T09:50:59Z</time>
      </trkpt>
      <trkpt lat="44.10519" lon="3.07538">
        <ele>380</ele>
        <time>2012-05-13T09:51:01Z</time>
      </trkpt>
      <trkpt lat="44.10524" lon="3.07538">
        <ele>380</ele>
        <time>2012-05-13T09:51:03Z</time>
      </trkpt>
      <trkpt lat="44.10529" lon="3.07535">
        <ele>380</ele>
        <time>2012-05-13T09:51:05Z</time>
      </trkpt>
      <trkpt lat="44.10534" lon="3.07534">
        <ele>380</ele>
        <time>2012-05-13T09:51:07Z</time>
      </trkpt>
      <trkpt lat="44.10539" lon="3.07531">
        <ele>381</ele>
        <time>2012-05-13T09:51:09Z</time>
      </trkpt>
      <trkpt lat="44.10543" lon="3.07527">
        <ele>383</ele>
        <time>2012-05-13T09:51:11Z</time>
      </trkpt>
      <trkpt lat="44.10547" lon="3.07524">
        <ele>384</ele>
        <time>2012-05-13T09:51:13Z</time>
      </trkpt>
      <trkpt lat="44.10551" lon="3.07522">
        <ele>385</ele>
        <time>2012-05-13T09:51:15Z</time>
      </trkpt>
      <trkpt lat="44.10555" lon="3.07519">
        <ele>385</ele>
        <time>2012-05-13T09:51:17Z</time>
      </trkpt>
      <trkpt lat="44.10559" lon="3.07515">
        <ele>386</ele>
        <time>2012-05-13T09:51:19Z</time>
      </trkpt>
      <trkpt lat="44.10565" lon="3.07511">
        <ele>386</ele>
        <time>2012-05-13T09:51:21Z</time>
      </trkpt>
      <trkpt lat="44.1057" lon="3.07508">
        <ele>387</ele>
        <time>2012-05-13T09:51:23Z</time>
      </trkpt>
      <trkpt lat="44.10575" lon="3.07505">
        <ele>387</ele>
        <time>2012-05-13T09:51:25Z</time>
      </trkpt>
      <trkpt lat="44.1058" lon="3.07503">
        <ele>387</ele>
        <time>2012-05-13T09:51:27Z</time>
      </trkpt>
      <trkpt lat="44.10586" lon="3.07501">
        <ele>386</ele>
        <time>2012-05-13T09:51:29Z</time>
      </trkpt>
      <trkpt lat="44.1059" lon="3.07503">
        <ele>386</ele>
        <time>2012-05-13T09:51:31Z</time>
      </trkpt>
      <trkpt lat="44.10596" lon="3.0751">
        <ele>386</ele>
        <time>2012-05-13T09:51:33Z</time>
      </trkpt>
      <trkpt lat="44.10602" lon="3.07513">
        <ele>387</ele>
        <time>2012-05-13T09:51:35Z</time>
      </trkpt>
      <trkpt lat="44.10607" lon="3.07515">
        <ele>388</ele>
        <time>2012-05-13T09:51:37Z</time>
      </trkpt>
      <trkpt lat="44.10612" lon="3.07517">
        <ele>389</ele>
        <time>2012-05-13T09:51:39Z</time>
      </trkpt>
      <trkpt lat="44.10617" lon="3.0752">
        <ele>390</ele>
        <time>2012-05-13T09:51:41Z</time>
      </trkpt>
      <trkpt lat="44.10621" lon="3.07522">
        <ele>389</ele>
        <time>2012-05-13T09:51:43Z</time>
      </trkpt>
      <trkpt lat="44.10626" lon="3.07524">
        <ele>389</ele>
        <time>2012-05-13T09:51:45Z</time>
      </trkpt>
      <trkpt lat="44.1063" lon="3.07526">
        <ele>389</ele>
        <time>2012-05-13T09:51:47Z</time>
      </trkpt>
    </trkseg>
  </trk>
</gpx>